<?xml version="1.0" encoding="UTF-8" standalone="no" ?>
<gpx xmlns="http://www.topografix.com/GPX/1/1" xmlns:xsi="http://www.w3.org/2001/XMLSchema-instance" xsi:schemaLocation="http://www.topografix.com/GPX/1/1 http://www.topografix.com/GPX/1/1/gpx.xsd" version="1.1" creator="VisuGPX - https://www.visugpx.com">
  <metadata>
    <name>Roche Parnal   Sur Cou</name>
    <desc><![CDATA[En ski de randonnée, depuis le Petit Bornand]]></desc>
  </metadata>
  <trk>
    <name><![CDATA[20180127111149-hxDCL]]></name>
    <trkseg>
      <trkpt lat="46.02236" lon="6.38219">
        <ele>798</ele>
        <time>2017-12-19T09:49:23Z</time>
      </trkpt>
      <trkpt lat="46.02236" lon="6.38219">
        <ele>798</ele>
        <time>2017-12-19T09:49:24Z</time>
      </trkpt>
      <trkpt lat="46.02237" lon="6.3822">
        <ele>798</ele>
        <time>2017-12-19T09:49:25Z</time>
      </trkpt>
      <trkpt lat="46.02238" lon="6.38222">
        <ele>798</ele>
        <time>2017-12-19T09:49:28Z</time>
      </trkpt>
      <trkpt lat="46.02239" lon="6.38223">
        <ele>798</ele>
        <time>2017-12-19T09:49:29Z</time>
      </trkpt>
      <trkpt lat="46.0224" lon="6.38224">
        <ele>798</ele>
        <time>2017-12-19T09:49:30Z</time>
      </trkpt>
      <trkpt lat="46.02243" lon="6.38227">
        <ele>798</ele>
        <time>2017-12-19T09:49:32Z</time>
      </trkpt>
      <trkpt lat="46.02245" lon="6.3823">
        <ele>798</ele>
        <time>2017-12-19T09:49:34Z</time>
      </trkpt>
      <trkpt lat="46.02247" lon="6.38232">
        <ele>798</ele>
        <time>2017-12-19T09:49:36Z</time>
      </trkpt>
      <trkpt lat="46.0225" lon="6.38235">
        <ele>798</ele>
        <time>2017-12-19T09:49:39Z</time>
      </trkpt>
      <trkpt lat="46.02257" lon="6.3824">
        <ele>811</ele>
        <time>2017-12-19T09:49:45Z</time>
      </trkpt>
      <trkpt lat="46.0226" lon="6.38244">
        <ele>811</ele>
        <time>2017-12-19T09:49:48Z</time>
      </trkpt>
      <trkpt lat="46.02262" lon="6.38249">
        <ele>811</ele>
        <time>2017-12-19T09:49:51Z</time>
      </trkpt>
      <trkpt lat="46.02264" lon="6.38254">
        <ele>804</ele>
        <time>2017-12-19T09:49:54Z</time>
      </trkpt>
      <trkpt lat="46.02265" lon="6.38259">
        <ele>804</ele>
        <time>2017-12-19T09:49:57Z</time>
      </trkpt>
      <trkpt lat="46.02266" lon="6.3826">
        <ele>805</ele>
        <time>2017-12-19T09:49:58Z</time>
      </trkpt>
      <trkpt lat="46.02267" lon="6.38261">
        <ele>805</ele>
        <time>2017-12-19T09:49:59Z</time>
      </trkpt>
      <trkpt lat="46.02268" lon="6.38262">
        <ele>805</ele>
        <time>2017-12-19T09:50:00Z</time>
      </trkpt>
      <trkpt lat="46.02269" lon="6.38264">
        <ele>805</ele>
        <time>2017-12-19T09:50:01Z</time>
      </trkpt>
      <trkpt lat="46.0227" lon="6.38265">
        <ele>805</ele>
        <time>2017-12-19T09:50:02Z</time>
      </trkpt>
      <trkpt lat="46.02271" lon="6.38266">
        <ele>806</ele>
        <time>2017-12-19T09:50:03Z</time>
      </trkpt>
      <trkpt lat="46.02272" lon="6.38267">
        <ele>806</ele>
        <time>2017-12-19T09:50:04Z</time>
      </trkpt>
      <trkpt lat="46.02275" lon="6.38273">
        <ele>807</ele>
        <time>2017-12-19T09:50:08Z</time>
      </trkpt>
      <trkpt lat="46.02279" lon="6.38275">
        <ele>807</ele>
        <time>2017-12-19T09:50:11Z</time>
      </trkpt>
      <trkpt lat="46.02286" lon="6.3828">
        <ele>809</ele>
        <time>2017-12-19T09:50:17Z</time>
      </trkpt>
      <trkpt lat="46.02296" lon="6.38287">
        <ele>810</ele>
        <time>2017-12-19T09:50:26Z</time>
      </trkpt>
      <trkpt lat="46.02301" lon="6.38289">
        <ele>811</ele>
        <time>2017-12-19T09:50:30Z</time>
      </trkpt>
      <trkpt lat="46.02302" lon="6.38289">
        <ele>811</ele>
        <time>2017-12-19T09:50:31Z</time>
      </trkpt>
      <trkpt lat="46.02303" lon="6.3829">
        <ele>811</ele>
        <time>2017-12-19T09:50:32Z</time>
      </trkpt>
      <trkpt lat="46.02304" lon="6.38291">
        <ele>811</ele>
        <time>2017-12-19T09:50:33Z</time>
      </trkpt>
      <trkpt lat="46.02305" lon="6.38292">
        <ele>812</ele>
        <time>2017-12-19T09:50:34Z</time>
      </trkpt>
      <trkpt lat="46.02306" lon="6.38293">
        <ele>812</ele>
        <time>2017-12-19T09:50:35Z</time>
      </trkpt>
      <trkpt lat="46.02311" lon="6.38299">
        <ele>812</ele>
        <time>2017-12-19T09:50:39Z</time>
      </trkpt>
      <trkpt lat="46.02312" lon="6.383">
        <ele>812</ele>
        <time>2017-12-19T09:50:40Z</time>
      </trkpt>
      <trkpt lat="46.02313" lon="6.38301">
        <ele>812</ele>
        <time>2017-12-19T09:50:41Z</time>
      </trkpt>
      <trkpt lat="46.02314" lon="6.38302">
        <ele>812</ele>
        <time>2017-12-19T09:50:42Z</time>
      </trkpt>
      <trkpt lat="46.02315" lon="6.38304">
        <ele>812</ele>
        <time>2017-12-19T09:50:43Z</time>
      </trkpt>
      <trkpt lat="46.02316" lon="6.38305">
        <ele>812</ele>
        <time>2017-12-19T09:50:44Z</time>
      </trkpt>
      <trkpt lat="46.02317" lon="6.38306">
        <ele>812</ele>
        <time>2017-12-19T09:50:45Z</time>
      </trkpt>
      <trkpt lat="46.02318" lon="6.38307">
        <ele>812</ele>
        <time>2017-12-19T09:50:46Z</time>
      </trkpt>
      <trkpt lat="46.02319" lon="6.38308">
        <ele>812</ele>
        <time>2017-12-19T09:50:47Z</time>
      </trkpt>
      <trkpt lat="46.02321" lon="6.38309">
        <ele>812</ele>
        <time>2017-12-19T09:50:48Z</time>
      </trkpt>
      <trkpt lat="46.02322" lon="6.38311">
        <ele>812</ele>
        <time>2017-12-19T09:50:49Z</time>
      </trkpt>
      <trkpt lat="46.02323" lon="6.38312">
        <ele>812</ele>
        <time>2017-12-19T09:50:50Z</time>
      </trkpt>
      <trkpt lat="46.02324" lon="6.38312">
        <ele>812</ele>
        <time>2017-12-19T09:50:51Z</time>
      </trkpt>
      <trkpt lat="46.02325" lon="6.38314">
        <ele>812</ele>
        <time>2017-12-19T09:50:52Z</time>
      </trkpt>
      <trkpt lat="46.02325" lon="6.38315">
        <ele>812</ele>
        <time>2017-12-19T09:50:53Z</time>
      </trkpt>
      <trkpt lat="46.02326" lon="6.38316">
        <ele>812</ele>
        <time>2017-12-19T09:50:54Z</time>
      </trkpt>
      <trkpt lat="46.02339" lon="6.38334">
        <ele>815</ele>
        <time>2017-12-19T09:51:08Z</time>
      </trkpt>
      <trkpt lat="46.02359" lon="6.38363">
        <ele>816</ele>
        <time>2017-12-19T09:51:27Z</time>
      </trkpt>
      <trkpt lat="46.02365" lon="6.38373">
        <ele>815</ele>
        <time>2017-12-19T09:51:33Z</time>
      </trkpt>
      <trkpt lat="46.02366" lon="6.38374">
        <ele>815</ele>
        <time>2017-12-19T09:51:34Z</time>
      </trkpt>
      <trkpt lat="46.02367" lon="6.38375">
        <ele>815</ele>
        <time>2017-12-19T09:51:35Z</time>
      </trkpt>
      <trkpt lat="46.02388" lon="6.38394">
        <ele>818</ele>
        <time>2017-12-19T09:51:54Z</time>
      </trkpt>
      <trkpt lat="46.02406" lon="6.38408">
        <ele>822</ele>
        <time>2017-12-19T09:52:11Z</time>
      </trkpt>
      <trkpt lat="46.02408" lon="6.38409">
        <ele>823</ele>
        <time>2017-12-19T09:52:12Z</time>
      </trkpt>
      <trkpt lat="46.02417" lon="6.38417">
        <ele>826</ele>
        <time>2017-12-19T09:52:18Z</time>
      </trkpt>
      <trkpt lat="46.02418" lon="6.38419">
        <ele>824</ele>
        <time>2017-12-19T09:52:19Z</time>
      </trkpt>
      <trkpt lat="46.02419" lon="6.3842">
        <ele>823</ele>
        <time>2017-12-19T09:52:20Z</time>
      </trkpt>
      <trkpt lat="46.02423" lon="6.38423">
        <ele>819</ele>
        <time>2017-12-19T09:52:24Z</time>
      </trkpt>
      <trkpt lat="46.02441" lon="6.38436">
        <ele>811</ele>
        <time>2017-12-19T09:52:39Z</time>
      </trkpt>
      <trkpt lat="46.02446" lon="6.38439">
        <ele>810</ele>
        <time>2017-12-19T09:52:44Z</time>
      </trkpt>
      <trkpt lat="46.02448" lon="6.38439">
        <ele>809</ele>
        <time>2017-12-19T09:52:45Z</time>
      </trkpt>
      <trkpt lat="46.02456" lon="6.38423">
        <ele>811</ele>
        <time>2017-12-19T09:52:58Z</time>
      </trkpt>
      <trkpt lat="46.02456" lon="6.38422">
        <ele>811</ele>
        <time>2017-12-19T09:52:59Z</time>
      </trkpt>
      <trkpt lat="46.02456" lon="6.3842">
        <ele>811</ele>
        <time>2017-12-19T09:53:00Z</time>
      </trkpt>
      <trkpt lat="46.02456" lon="6.38419">
        <ele>811</ele>
        <time>2017-12-19T09:53:01Z</time>
      </trkpt>
      <trkpt lat="46.02456" lon="6.38417">
        <ele>811</ele>
        <time>2017-12-19T09:53:02Z</time>
      </trkpt>
      <trkpt lat="46.02457" lon="6.38416">
        <ele>824</ele>
        <time>2017-12-19T09:53:03Z</time>
      </trkpt>
      <trkpt lat="46.02457" lon="6.38414">
        <ele>824</ele>
        <time>2017-12-19T09:53:04Z</time>
      </trkpt>
      <trkpt lat="46.02458" lon="6.38413">
        <ele>824</ele>
        <time>2017-12-19T09:53:05Z</time>
      </trkpt>
      <trkpt lat="46.02458" lon="6.38411">
        <ele>824</ele>
        <time>2017-12-19T09:53:06Z</time>
      </trkpt>
      <trkpt lat="46.02458" lon="6.38409">
        <ele>824</ele>
        <time>2017-12-19T09:53:07Z</time>
      </trkpt>
      <trkpt lat="46.02459" lon="6.38407">
        <ele>824</ele>
        <time>2017-12-19T09:53:08Z</time>
      </trkpt>
      <trkpt lat="46.02462" lon="6.38397">
        <ele>824</ele>
        <time>2017-12-19T09:53:14Z</time>
      </trkpt>
      <trkpt lat="46.02463" lon="6.38395">
        <ele>825</ele>
        <time>2017-12-19T09:53:15Z</time>
      </trkpt>
      <trkpt lat="46.02463" lon="6.38393">
        <ele>825</ele>
        <time>2017-12-19T09:53:16Z</time>
      </trkpt>
      <trkpt lat="46.02463" lon="6.38391">
        <ele>825</ele>
        <time>2017-12-19T09:53:17Z</time>
      </trkpt>
      <trkpt lat="46.02463" lon="6.38389">
        <ele>825</ele>
        <time>2017-12-19T09:53:18Z</time>
      </trkpt>
      <trkpt lat="46.02464" lon="6.38357">
        <ele>827</ele>
        <time>2017-12-19T09:53:35Z</time>
      </trkpt>
      <trkpt lat="46.02459" lon="6.38343">
        <ele>829</ele>
        <time>2017-12-19T09:53:48Z</time>
      </trkpt>
      <trkpt lat="46.02454" lon="6.38346">
        <ele>830</ele>
        <time>2017-12-19T09:53:54Z</time>
      </trkpt>
      <trkpt lat="46.02433" lon="6.38354">
        <ele>835</ele>
        <time>2017-12-19T09:54:14Z</time>
      </trkpt>
      <trkpt lat="46.02416" lon="6.38345">
        <ele>840</ele>
        <time>2017-12-19T09:54:30Z</time>
      </trkpt>
      <trkpt lat="46.02414" lon="6.38343">
        <ele>841</ele>
        <time>2017-12-19T09:54:32Z</time>
      </trkpt>
      <trkpt lat="46.02413" lon="6.38341">
        <ele>842</ele>
        <time>2017-12-19T09:54:33Z</time>
      </trkpt>
      <trkpt lat="46.02394" lon="6.38318">
        <ele>845</ele>
        <time>2017-12-19T09:54:51Z</time>
      </trkpt>
      <trkpt lat="46.02383" lon="6.38296">
        <ele>845</ele>
        <time>2017-12-19T09:55:07Z</time>
      </trkpt>
      <trkpt lat="46.02382" lon="6.38295">
        <ele>845</ele>
        <time>2017-12-19T09:55:08Z</time>
      </trkpt>
      <trkpt lat="46.02381" lon="6.38292">
        <ele>845</ele>
        <time>2017-12-19T09:55:10Z</time>
      </trkpt>
      <trkpt lat="46.0238" lon="6.38291">
        <ele>845</ele>
        <time>2017-12-19T09:55:11Z</time>
      </trkpt>
      <trkpt lat="46.02379" lon="6.3829">
        <ele>845</ele>
        <time>2017-12-19T09:55:12Z</time>
      </trkpt>
      <trkpt lat="46.02379" lon="6.38288">
        <ele>845</ele>
        <time>2017-12-19T09:55:13Z</time>
      </trkpt>
      <trkpt lat="46.02378" lon="6.38286">
        <ele>845</ele>
        <time>2017-12-19T09:55:14Z</time>
      </trkpt>
      <trkpt lat="46.02372" lon="6.38266">
        <ele>846</ele>
        <time>2017-12-19T09:55:27Z</time>
      </trkpt>
      <trkpt lat="46.02365" lon="6.3824">
        <ele>857</ele>
        <time>2017-12-19T09:55:42Z</time>
      </trkpt>
      <trkpt lat="46.02363" lon="6.38233">
        <ele>857</ele>
        <time>2017-12-19T09:55:46Z</time>
      </trkpt>
      <trkpt lat="46.02363" lon="6.38232">
        <ele>857</ele>
        <time>2017-12-19T09:55:47Z</time>
      </trkpt>
      <trkpt lat="46.02367" lon="6.38225">
        <ele>858</ele>
        <time>2017-12-19T09:55:53Z</time>
      </trkpt>
      <trkpt lat="46.02368" lon="6.38225">
        <ele>858</ele>
        <time>2017-12-19T09:55:54Z</time>
      </trkpt>
      <trkpt lat="46.02368" lon="6.38226">
        <ele>858</ele>
        <time>2017-12-19T09:55:55Z</time>
      </trkpt>
      <trkpt lat="46.02369" lon="6.38227">
        <ele>858</ele>
        <time>2017-12-19T09:55:56Z</time>
      </trkpt>
      <trkpt lat="46.0237" lon="6.38228">
        <ele>858</ele>
        <time>2017-12-19T09:55:57Z</time>
      </trkpt>
      <trkpt lat="46.02371" lon="6.3823">
        <ele>858</ele>
        <time>2017-12-19T09:55:58Z</time>
      </trkpt>
      <trkpt lat="46.02372" lon="6.38231">
        <ele>858</ele>
        <time>2017-12-19T09:55:59Z</time>
      </trkpt>
      <trkpt lat="46.02373" lon="6.38233">
        <ele>858</ele>
        <time>2017-12-19T09:56:00Z</time>
      </trkpt>
      <trkpt lat="46.02373" lon="6.38235">
        <ele>858</ele>
        <time>2017-12-19T09:56:01Z</time>
      </trkpt>
      <trkpt lat="46.02373" lon="6.38236">
        <ele>858</ele>
        <time>2017-12-19T09:56:02Z</time>
      </trkpt>
      <trkpt lat="46.02373" lon="6.38238">
        <ele>858</ele>
        <time>2017-12-19T09:56:03Z</time>
      </trkpt>
      <trkpt lat="46.02374" lon="6.3824">
        <ele>858</ele>
        <time>2017-12-19T09:56:04Z</time>
      </trkpt>
      <trkpt lat="46.02374" lon="6.38243">
        <ele>858</ele>
        <time>2017-12-19T09:56:06Z</time>
      </trkpt>
      <trkpt lat="46.02392" lon="6.38266">
        <ele>850</ele>
        <time>2017-12-19T09:56:26Z</time>
      </trkpt>
      <trkpt lat="46.02393" lon="6.38269">
        <ele>850</ele>
        <time>2017-12-19T09:56:28Z</time>
      </trkpt>
      <trkpt lat="46.02394" lon="6.38271">
        <ele>850</ele>
        <time>2017-12-19T09:56:29Z</time>
      </trkpt>
      <trkpt lat="46.02399" lon="6.3828">
        <ele>849</ele>
        <time>2017-12-19T09:56:36Z</time>
      </trkpt>
      <trkpt lat="46.024" lon="6.38281">
        <ele>849</ele>
        <time>2017-12-19T09:56:37Z</time>
      </trkpt>
      <trkpt lat="46.02401" lon="6.38282">
        <ele>849</ele>
        <time>2017-12-19T09:56:38Z</time>
      </trkpt>
      <trkpt lat="46.02402" lon="6.38283">
        <ele>849</ele>
        <time>2017-12-19T09:56:39Z</time>
      </trkpt>
      <trkpt lat="46.02403" lon="6.38284">
        <ele>849</ele>
        <time>2017-12-19T09:56:40Z</time>
      </trkpt>
      <trkpt lat="46.02403" lon="6.38285">
        <ele>849</ele>
        <time>2017-12-19T09:56:41Z</time>
      </trkpt>
      <trkpt lat="46.02418" lon="6.38291">
        <ele>844</ele>
        <time>2017-12-19T09:56:55Z</time>
      </trkpt>
      <trkpt lat="46.02421" lon="6.38287">
        <ele>845</ele>
        <time>2017-12-19T09:57:00Z</time>
      </trkpt>
      <trkpt lat="46.02423" lon="6.38286">
        <ele>845</ele>
        <time>2017-12-19T09:57:01Z</time>
      </trkpt>
      <trkpt lat="46.0243" lon="6.38269">
        <ele>847</ele>
        <time>2017-12-19T09:57:13Z</time>
      </trkpt>
      <trkpt lat="46.02431" lon="6.38255">
        <ele>851</ele>
        <time>2017-12-19T09:57:22Z</time>
      </trkpt>
      <trkpt lat="46.02431" lon="6.38253">
        <ele>851</ele>
        <time>2017-12-19T09:57:23Z</time>
      </trkpt>
      <trkpt lat="46.0243" lon="6.3823">
        <ele>850</ele>
        <time>2017-12-19T09:57:36Z</time>
      </trkpt>
      <trkpt lat="46.0243" lon="6.38227">
        <ele>849</ele>
        <time>2017-12-19T09:57:37Z</time>
      </trkpt>
      <trkpt lat="46.0243" lon="6.38225">
        <ele>849</ele>
        <time>2017-12-19T09:57:38Z</time>
      </trkpt>
      <trkpt lat="46.02431" lon="6.38224">
        <ele>848</ele>
        <time>2017-12-19T09:57:39Z</time>
      </trkpt>
      <trkpt lat="46.02431" lon="6.38222">
        <ele>848</ele>
        <time>2017-12-19T09:57:40Z</time>
      </trkpt>
      <trkpt lat="46.02431" lon="6.3822">
        <ele>848</ele>
        <time>2017-12-19T09:57:41Z</time>
      </trkpt>
      <trkpt lat="46.02431" lon="6.38219">
        <ele>848</ele>
        <time>2017-12-19T09:57:42Z</time>
      </trkpt>
      <trkpt lat="46.02431" lon="6.38213">
        <ele>848</ele>
        <time>2017-12-19T09:57:46Z</time>
      </trkpt>
      <trkpt lat="46.02432" lon="6.38211">
        <ele>848</ele>
        <time>2017-12-19T09:57:47Z</time>
      </trkpt>
      <trkpt lat="46.02432" lon="6.38209">
        <ele>848</ele>
        <time>2017-12-19T09:57:48Z</time>
      </trkpt>
      <trkpt lat="46.02432" lon="6.38208">
        <ele>848</ele>
        <time>2017-12-19T09:57:49Z</time>
      </trkpt>
      <trkpt lat="46.02432" lon="6.38206">
        <ele>848</ele>
        <time>2017-12-19T09:57:50Z</time>
      </trkpt>
      <trkpt lat="46.02431" lon="6.38205">
        <ele>848</ele>
        <time>2017-12-19T09:57:51Z</time>
      </trkpt>
      <trkpt lat="46.02431" lon="6.38203">
        <ele>848</ele>
        <time>2017-12-19T09:57:52Z</time>
      </trkpt>
      <trkpt lat="46.0243" lon="6.38201">
        <ele>849</ele>
        <time>2017-12-19T09:57:53Z</time>
      </trkpt>
      <trkpt lat="46.02429" lon="6.38199">
        <ele>850</ele>
        <time>2017-12-19T09:57:55Z</time>
      </trkpt>
      <trkpt lat="46.02429" lon="6.38197">
        <ele>850</ele>
        <time>2017-12-19T09:57:56Z</time>
      </trkpt>
      <trkpt lat="46.02428" lon="6.38195">
        <ele>850</ele>
        <time>2017-12-19T09:57:57Z</time>
      </trkpt>
      <trkpt lat="46.02428" lon="6.38193">
        <ele>851</ele>
        <time>2017-12-19T09:57:58Z</time>
      </trkpt>
      <trkpt lat="46.02428" lon="6.38191">
        <ele>851</ele>
        <time>2017-12-19T09:57:59Z</time>
      </trkpt>
      <trkpt lat="46.02428" lon="6.3819">
        <ele>852</ele>
        <time>2017-12-19T09:58:00Z</time>
      </trkpt>
      <trkpt lat="46.02427" lon="6.38184">
        <ele>855</ele>
        <time>2017-12-19T09:58:04Z</time>
      </trkpt>
      <trkpt lat="46.02427" lon="6.38182">
        <ele>855</ele>
        <time>2017-12-19T09:58:05Z</time>
      </trkpt>
      <trkpt lat="46.02427" lon="6.3818">
        <ele>856</ele>
        <time>2017-12-19T09:58:06Z</time>
      </trkpt>
      <trkpt lat="46.02427" lon="6.38179">
        <ele>857</ele>
        <time>2017-12-19T09:58:07Z</time>
      </trkpt>
      <trkpt lat="46.02427" lon="6.38177">
        <ele>858</ele>
        <time>2017-12-19T09:58:08Z</time>
      </trkpt>
      <trkpt lat="46.02426" lon="6.38176">
        <ele>859</ele>
        <time>2017-12-19T09:58:09Z</time>
      </trkpt>
      <trkpt lat="46.02426" lon="6.38174">
        <ele>860</ele>
        <time>2017-12-19T09:58:10Z</time>
      </trkpt>
      <trkpt lat="46.02426" lon="6.38172">
        <ele>861</ele>
        <time>2017-12-19T09:58:11Z</time>
      </trkpt>
      <trkpt lat="46.02425" lon="6.38168">
        <ele>863</ele>
        <time>2017-12-19T09:58:13Z</time>
      </trkpt>
      <trkpt lat="46.02424" lon="6.38165">
        <ele>864</ele>
        <time>2017-12-19T09:58:15Z</time>
      </trkpt>
      <trkpt lat="46.02424" lon="6.38163">
        <ele>864</ele>
        <time>2017-12-19T09:58:16Z</time>
      </trkpt>
      <trkpt lat="46.02424" lon="6.38161">
        <ele>863</ele>
        <time>2017-12-19T09:58:17Z</time>
      </trkpt>
      <trkpt lat="46.02424" lon="6.3816">
        <ele>863</ele>
        <time>2017-12-19T09:58:18Z</time>
      </trkpt>
      <trkpt lat="46.02423" lon="6.38158">
        <ele>862</ele>
        <time>2017-12-19T09:58:19Z</time>
      </trkpt>
      <trkpt lat="46.02422" lon="6.38156">
        <ele>861</ele>
        <time>2017-12-19T09:58:21Z</time>
      </trkpt>
      <trkpt lat="46.02422" lon="6.38154">
        <ele>860</ele>
        <time>2017-12-19T09:58:22Z</time>
      </trkpt>
      <trkpt lat="46.02422" lon="6.38152">
        <ele>859</ele>
        <time>2017-12-19T09:58:23Z</time>
      </trkpt>
      <trkpt lat="46.02421" lon="6.3815">
        <ele>858</ele>
        <time>2017-12-19T09:58:24Z</time>
      </trkpt>
      <trkpt lat="46.0242" lon="6.38149">
        <ele>858</ele>
        <time>2017-12-19T09:58:25Z</time>
      </trkpt>
      <trkpt lat="46.02419" lon="6.38147">
        <ele>857</ele>
        <time>2017-12-19T09:58:26Z</time>
      </trkpt>
      <trkpt lat="46.02418" lon="6.38145">
        <ele>857</ele>
        <time>2017-12-19T09:58:27Z</time>
      </trkpt>
      <trkpt lat="46.02417" lon="6.38144">
        <ele>856</ele>
        <time>2017-12-19T09:58:28Z</time>
      </trkpt>
      <trkpt lat="46.02417" lon="6.38142">
        <ele>856</ele>
        <time>2017-12-19T09:58:29Z</time>
      </trkpt>
      <trkpt lat="46.02408" lon="6.38109">
        <ele>876</ele>
        <time>2017-12-19T09:58:48Z</time>
      </trkpt>
      <trkpt lat="46.02406" lon="6.38106">
        <ele>876</ele>
        <time>2017-12-19T09:58:50Z</time>
      </trkpt>
      <trkpt lat="46.02406" lon="6.38104">
        <ele>877</ele>
        <time>2017-12-19T09:58:51Z</time>
      </trkpt>
      <trkpt lat="46.02406" lon="6.38102">
        <ele>877</ele>
        <time>2017-12-19T09:58:52Z</time>
      </trkpt>
      <trkpt lat="46.02405" lon="6.38101">
        <ele>877</ele>
        <time>2017-12-19T09:58:53Z</time>
      </trkpt>
      <trkpt lat="46.02404" lon="6.38099">
        <ele>877</ele>
        <time>2017-12-19T09:58:54Z</time>
      </trkpt>
      <trkpt lat="46.02403" lon="6.38098">
        <ele>877</ele>
        <time>2017-12-19T09:58:55Z</time>
      </trkpt>
      <trkpt lat="46.02402" lon="6.38096">
        <ele>877</ele>
        <time>2017-12-19T09:58:56Z</time>
      </trkpt>
      <trkpt lat="46.02401" lon="6.38095">
        <ele>877</ele>
        <time>2017-12-19T09:58:57Z</time>
      </trkpt>
      <trkpt lat="46.02401" lon="6.38093">
        <ele>877</ele>
        <time>2017-12-19T09:58:58Z</time>
      </trkpt>
      <trkpt lat="46.02401" lon="6.38092">
        <ele>877</ele>
        <time>2017-12-19T09:58:59Z</time>
      </trkpt>
      <trkpt lat="46.024" lon="6.3809">
        <ele>877</ele>
        <time>2017-12-19T09:59:00Z</time>
      </trkpt>
      <trkpt lat="46.024" lon="6.38088">
        <ele>877</ele>
        <time>2017-12-19T09:59:01Z</time>
      </trkpt>
      <trkpt lat="46.02399" lon="6.38087">
        <ele>877</ele>
        <time>2017-12-19T09:59:02Z</time>
      </trkpt>
      <trkpt lat="46.02397" lon="6.38077">
        <ele>886</ele>
        <time>2017-12-19T09:59:08Z</time>
      </trkpt>
      <trkpt lat="46.02397" lon="6.38076">
        <ele>887</ele>
        <time>2017-12-19T09:59:09Z</time>
      </trkpt>
      <trkpt lat="46.02397" lon="6.38074">
        <ele>887</ele>
        <time>2017-12-19T09:59:10Z</time>
      </trkpt>
      <trkpt lat="46.02397" lon="6.38072">
        <ele>887</ele>
        <time>2017-12-19T09:59:11Z</time>
      </trkpt>
      <trkpt lat="46.02396" lon="6.3807">
        <ele>887</ele>
        <time>2017-12-19T09:59:12Z</time>
      </trkpt>
      <trkpt lat="46.02396" lon="6.38068">
        <ele>888</ele>
        <time>2017-12-19T09:59:13Z</time>
      </trkpt>
      <trkpt lat="46.02393" lon="6.38045">
        <ele>891</ele>
        <time>2017-12-19T09:59:27Z</time>
      </trkpt>
      <trkpt lat="46.02391" lon="6.38043">
        <ele>892</ele>
        <time>2017-12-19T09:59:28Z</time>
      </trkpt>
      <trkpt lat="46.02391" lon="6.38041">
        <ele>892</ele>
        <time>2017-12-19T09:59:29Z</time>
      </trkpt>
      <trkpt lat="46.0239" lon="6.3804">
        <ele>892</ele>
        <time>2017-12-19T09:59:30Z</time>
      </trkpt>
      <trkpt lat="46.02389" lon="6.38038">
        <ele>892</ele>
        <time>2017-12-19T09:59:31Z</time>
      </trkpt>
      <trkpt lat="46.02388" lon="6.38037">
        <ele>893</ele>
        <time>2017-12-19T09:59:32Z</time>
      </trkpt>
      <trkpt lat="46.02385" lon="6.38033">
        <ele>893</ele>
        <time>2017-12-19T09:59:35Z</time>
      </trkpt>
      <trkpt lat="46.02385" lon="6.38032">
        <ele>893</ele>
        <time>2017-12-19T09:59:36Z</time>
      </trkpt>
      <trkpt lat="46.02384" lon="6.38031">
        <ele>894</ele>
        <time>2017-12-19T09:59:37Z</time>
      </trkpt>
      <trkpt lat="46.02381" lon="6.38024">
        <ele>895</ele>
        <time>2017-12-19T09:59:42Z</time>
      </trkpt>
      <trkpt lat="46.02381" lon="6.38022">
        <ele>895</ele>
        <time>2017-12-19T09:59:43Z</time>
      </trkpt>
      <trkpt lat="46.02381" lon="6.3802">
        <ele>895</ele>
        <time>2017-12-19T09:59:44Z</time>
      </trkpt>
      <trkpt lat="46.02381" lon="6.38018">
        <ele>895</ele>
        <time>2017-12-19T09:59:45Z</time>
      </trkpt>
      <trkpt lat="46.02381" lon="6.38016">
        <ele>895</ele>
        <time>2017-12-19T09:59:46Z</time>
      </trkpt>
      <trkpt lat="46.02382" lon="6.38014">
        <ele>895</ele>
        <time>2017-12-19T09:59:47Z</time>
      </trkpt>
      <trkpt lat="46.02381" lon="6.37997">
        <ele>912</ele>
        <time>2017-12-19T09:59:55Z</time>
      </trkpt>
      <trkpt lat="46.02381" lon="6.37995">
        <ele>912</ele>
        <time>2017-12-19T09:59:56Z</time>
      </trkpt>
      <trkpt lat="46.02381" lon="6.37994">
        <ele>912</ele>
        <time>2017-12-19T09:59:57Z</time>
      </trkpt>
      <trkpt lat="46.02381" lon="6.37992">
        <ele>912</ele>
        <time>2017-12-19T09:59:58Z</time>
      </trkpt>
      <trkpt lat="46.02381" lon="6.3799">
        <ele>912</ele>
        <time>2017-12-19T09:59:59Z</time>
      </trkpt>
      <trkpt lat="46.02381" lon="6.37988">
        <ele>913</ele>
        <time>2017-12-19T10:00:00Z</time>
      </trkpt>
      <trkpt lat="46.02381" lon="6.37986">
        <ele>913</ele>
        <time>2017-12-19T10:00:01Z</time>
      </trkpt>
      <trkpt lat="46.02388" lon="6.37957">
        <ele>917</ele>
        <time>2017-12-19T10:00:15Z</time>
      </trkpt>
      <trkpt lat="46.02393" lon="6.37929">
        <ele>919</ele>
        <time>2017-12-19T10:00:33Z</time>
      </trkpt>
      <trkpt lat="46.02394" lon="6.37926">
        <ele>919</ele>
        <time>2017-12-19T10:00:35Z</time>
      </trkpt>
      <trkpt lat="46.02395" lon="6.37924">
        <ele>918</ele>
        <time>2017-12-19T10:00:36Z</time>
      </trkpt>
      <trkpt lat="46.02396" lon="6.37923">
        <ele>918</ele>
        <time>2017-12-19T10:00:37Z</time>
      </trkpt>
      <trkpt lat="46.02396" lon="6.37921">
        <ele>918</ele>
        <time>2017-12-19T10:00:38Z</time>
      </trkpt>
      <trkpt lat="46.02397" lon="6.37919">
        <ele>918</ele>
        <time>2017-12-19T10:00:39Z</time>
      </trkpt>
      <trkpt lat="46.02397" lon="6.37917">
        <ele>918</ele>
        <time>2017-12-19T10:00:40Z</time>
      </trkpt>
      <trkpt lat="46.02397" lon="6.37915">
        <ele>932</ele>
        <time>2017-12-19T10:00:41Z</time>
      </trkpt>
      <trkpt lat="46.02399" lon="6.37909">
        <ele>932</ele>
        <time>2017-12-19T10:00:46Z</time>
      </trkpt>
      <trkpt lat="46.02399" lon="6.37908">
        <ele>932</ele>
        <time>2017-12-19T10:00:47Z</time>
      </trkpt>
      <trkpt lat="46.024" lon="6.37907">
        <ele>932</ele>
        <time>2017-12-19T10:00:48Z</time>
      </trkpt>
      <trkpt lat="46.02401" lon="6.37906">
        <ele>932</ele>
        <time>2017-12-19T10:00:49Z</time>
      </trkpt>
      <trkpt lat="46.02401" lon="6.37904">
        <ele>932</ele>
        <time>2017-12-19T10:00:50Z</time>
      </trkpt>
      <trkpt lat="46.02401" lon="6.37897">
        <ele>935</ele>
        <time>2017-12-19T10:00:56Z</time>
      </trkpt>
      <trkpt lat="46.02401" lon="6.37896">
        <ele>936</ele>
        <time>2017-12-19T10:00:57Z</time>
      </trkpt>
      <trkpt lat="46.024" lon="6.37894">
        <ele>936</ele>
        <time>2017-12-19T10:00:58Z</time>
      </trkpt>
      <trkpt lat="46.024" lon="6.37892">
        <ele>937</ele>
        <time>2017-12-19T10:00:59Z</time>
      </trkpt>
      <trkpt lat="46.02401" lon="6.37889">
        <ele>938</ele>
        <time>2017-12-19T10:01:01Z</time>
      </trkpt>
      <trkpt lat="46.02401" lon="6.37888">
        <ele>938</ele>
        <time>2017-12-19T10:01:02Z</time>
      </trkpt>
      <trkpt lat="46.02401" lon="6.37886">
        <ele>939</ele>
        <time>2017-12-19T10:01:03Z</time>
      </trkpt>
      <trkpt lat="46.02402" lon="6.37884">
        <ele>939</ele>
        <time>2017-12-19T10:01:04Z</time>
      </trkpt>
      <trkpt lat="46.02403" lon="6.37883">
        <ele>939</ele>
        <time>2017-12-19T10:01:05Z</time>
      </trkpt>
      <trkpt lat="46.02404" lon="6.37881">
        <ele>939</ele>
        <time>2017-12-19T10:01:06Z</time>
      </trkpt>
      <trkpt lat="46.02411" lon="6.37866">
        <ele>941</ele>
        <time>2017-12-19T10:01:13Z</time>
      </trkpt>
      <trkpt lat="46.02412" lon="6.37865">
        <ele>942</ele>
        <time>2017-12-19T10:01:14Z</time>
      </trkpt>
      <trkpt lat="46.02412" lon="6.37863">
        <ele>942</ele>
        <time>2017-12-19T10:01:15Z</time>
      </trkpt>
      <trkpt lat="46.02413" lon="6.37861">
        <ele>942</ele>
        <time>2017-12-19T10:01:16Z</time>
      </trkpt>
      <trkpt lat="46.02415" lon="6.37859">
        <ele>942</ele>
        <time>2017-12-19T10:01:17Z</time>
      </trkpt>
      <trkpt lat="46.02415" lon="6.37847">
        <ele>941</ele>
        <time>2017-12-19T10:01:28Z</time>
      </trkpt>
      <trkpt lat="46.02416" lon="6.37844">
        <ele>941</ele>
        <time>2017-12-19T10:01:30Z</time>
      </trkpt>
      <trkpt lat="46.02416" lon="6.37843">
        <ele>941</ele>
        <time>2017-12-19T10:01:31Z</time>
      </trkpt>
      <trkpt lat="46.02423" lon="6.37825">
        <ele>931</ele>
        <time>2017-12-19T10:01:48Z</time>
      </trkpt>
      <trkpt lat="46.02431" lon="6.378">
        <ele>925</ele>
        <time>2017-12-19T10:02:06Z</time>
      </trkpt>
      <trkpt lat="46.02432" lon="6.37797">
        <ele>925</ele>
        <time>2017-12-19T10:02:08Z</time>
      </trkpt>
      <trkpt lat="46.02433" lon="6.37795">
        <ele>925</ele>
        <time>2017-12-19T10:02:10Z</time>
      </trkpt>
      <trkpt lat="46.02433" lon="6.37793">
        <ele>925</ele>
        <time>2017-12-19T10:02:11Z</time>
      </trkpt>
      <trkpt lat="46.02433" lon="6.37791">
        <ele>926</ele>
        <time>2017-12-19T10:02:13Z</time>
      </trkpt>
      <trkpt lat="46.02435" lon="6.37784">
        <ele>926</ele>
        <time>2017-12-19T10:02:17Z</time>
      </trkpt>
      <trkpt lat="46.02435" lon="6.37783">
        <ele>926</ele>
        <time>2017-12-19T10:02:18Z</time>
      </trkpt>
      <trkpt lat="46.02436" lon="6.37781">
        <ele>926</ele>
        <time>2017-12-19T10:02:19Z</time>
      </trkpt>
      <trkpt lat="46.02438" lon="6.37753">
        <ele>932</ele>
        <time>2017-12-19T10:02:37Z</time>
      </trkpt>
      <trkpt lat="46.02442" lon="6.37737">
        <ele>944</ele>
        <time>2017-12-19T10:02:47Z</time>
      </trkpt>
      <trkpt lat="46.02443" lon="6.37728">
        <ele>945</ele>
        <time>2017-12-19T10:02:55Z</time>
      </trkpt>
      <trkpt lat="46.02443" lon="6.37726">
        <ele>945</ele>
        <time>2017-12-19T10:02:56Z</time>
      </trkpt>
      <trkpt lat="46.02444" lon="6.37723">
        <ele>945</ele>
        <time>2017-12-19T10:02:57Z</time>
      </trkpt>
      <trkpt lat="46.02444" lon="6.37721">
        <ele>945</ele>
        <time>2017-12-19T10:02:58Z</time>
      </trkpt>
      <trkpt lat="46.02444" lon="6.37719">
        <ele>946</ele>
        <time>2017-12-19T10:02:59Z</time>
      </trkpt>
      <trkpt lat="46.02443" lon="6.37716">
        <ele>946</ele>
        <time>2017-12-19T10:03:00Z</time>
      </trkpt>
      <trkpt lat="46.02442" lon="6.37709">
        <ele>948</ele>
        <time>2017-12-19T10:03:03Z</time>
      </trkpt>
      <trkpt lat="46.02441" lon="6.37707">
        <ele>948</ele>
        <time>2017-12-19T10:03:04Z</time>
      </trkpt>
      <trkpt lat="46.0244" lon="6.37707">
        <ele>949</ele>
        <time>2017-12-19T10:03:05Z</time>
      </trkpt>
      <trkpt lat="46.02441" lon="6.377">
        <ele>950</ele>
        <time>2017-12-19T10:03:09Z</time>
      </trkpt>
      <trkpt lat="46.02442" lon="6.37699">
        <ele>950</ele>
        <time>2017-12-19T10:03:10Z</time>
      </trkpt>
      <trkpt lat="46.02441" lon="6.37695">
        <ele>951</ele>
        <time>2017-12-19T10:03:14Z</time>
      </trkpt>
      <trkpt lat="46.02441" lon="6.37693">
        <ele>952</ele>
        <time>2017-12-19T10:03:15Z</time>
      </trkpt>
      <trkpt lat="46.0244" lon="6.37693">
        <ele>952</ele>
        <time>2017-12-19T10:03:16Z</time>
      </trkpt>
      <trkpt lat="46.0244" lon="6.37692">
        <ele>952</ele>
        <time>2017-12-19T10:03:17Z</time>
      </trkpt>
      <trkpt lat="46.0244" lon="6.3769">
        <ele>953</ele>
        <time>2017-12-19T10:03:20Z</time>
      </trkpt>
      <trkpt lat="46.02441" lon="6.3768">
        <ele>955</ele>
        <time>2017-12-19T10:03:28Z</time>
      </trkpt>
      <trkpt lat="46.02441" lon="6.37678">
        <ele>955</ele>
        <time>2017-12-19T10:03:29Z</time>
      </trkpt>
      <trkpt lat="46.02441" lon="6.37676">
        <ele>956</ele>
        <time>2017-12-19T10:03:30Z</time>
      </trkpt>
      <trkpt lat="46.02445" lon="6.37661">
        <ele>976</ele>
        <time>2017-12-19T10:03:37Z</time>
      </trkpt>
      <trkpt lat="46.02446" lon="6.3766">
        <ele>977</ele>
        <time>2017-12-19T10:03:38Z</time>
      </trkpt>
      <trkpt lat="46.02442" lon="6.3766">
        <ele>977</ele>
        <time>2017-12-19T10:03:45Z</time>
      </trkpt>
      <trkpt lat="46.02441" lon="6.37661">
        <ele>977</ele>
        <time>2017-12-19T10:03:46Z</time>
      </trkpt>
      <trkpt lat="46.0244" lon="6.37662">
        <ele>977</ele>
        <time>2017-12-19T10:03:47Z</time>
      </trkpt>
      <trkpt lat="46.02435" lon="6.37671">
        <ele>960</ele>
        <time>2017-12-19T10:03:52Z</time>
      </trkpt>
      <trkpt lat="46.02434" lon="6.37672">
        <ele>960</ele>
        <time>2017-12-19T10:03:53Z</time>
      </trkpt>
      <trkpt lat="46.02431" lon="6.37699">
        <ele>952</ele>
        <time>2017-12-19T10:04:11Z</time>
      </trkpt>
      <trkpt lat="46.0243" lon="6.37701">
        <ele>952</ele>
        <time>2017-12-19T10:04:14Z</time>
      </trkpt>
      <trkpt lat="46.02429" lon="6.37705">
        <ele>951</ele>
        <time>2017-12-19T10:04:18Z</time>
      </trkpt>
      <trkpt lat="46.0243" lon="6.37707">
        <ele>950</ele>
        <time>2017-12-19T10:04:20Z</time>
      </trkpt>
      <trkpt lat="46.02429" lon="6.37709">
        <ele>950</ele>
        <time>2017-12-19T10:04:21Z</time>
      </trkpt>
      <trkpt lat="46.02427" lon="6.3772">
        <ele>948</ele>
        <time>2017-12-19T10:04:26Z</time>
      </trkpt>
      <trkpt lat="46.0243" lon="6.37725">
        <ele>947</ele>
        <time>2017-12-19T10:04:32Z</time>
      </trkpt>
      <trkpt lat="46.02433" lon="6.37726">
        <ele>947</ele>
        <time>2017-12-19T10:04:35Z</time>
      </trkpt>
      <trkpt lat="46.02434" lon="6.37731">
        <ele>946</ele>
        <time>2017-12-19T10:04:38Z</time>
      </trkpt>
      <trkpt lat="46.02433" lon="6.37738">
        <ele>946</ele>
        <time>2017-12-19T10:04:41Z</time>
      </trkpt>
      <trkpt lat="46.02427" lon="6.37758">
        <ele>937</ele>
        <time>2017-12-19T10:04:54Z</time>
      </trkpt>
      <trkpt lat="46.02425" lon="6.37759">
        <ele>938</ele>
        <time>2017-12-19T10:04:55Z</time>
      </trkpt>
      <trkpt lat="46.02424" lon="6.3776">
        <ele>938</ele>
        <time>2017-12-19T10:04:56Z</time>
      </trkpt>
      <trkpt lat="46.02423" lon="6.3776">
        <ele>939</ele>
        <time>2017-12-19T10:04:57Z</time>
      </trkpt>
      <trkpt lat="46.02422" lon="6.37761">
        <ele>939</ele>
        <time>2017-12-19T10:04:58Z</time>
      </trkpt>
      <trkpt lat="46.02421" lon="6.37761">
        <ele>939</ele>
        <time>2017-12-19T10:04:59Z</time>
      </trkpt>
      <trkpt lat="46.0242" lon="6.37761">
        <ele>939</ele>
        <time>2017-12-19T10:05:00Z</time>
      </trkpt>
      <trkpt lat="46.02419" lon="6.3776">
        <ele>940</ele>
        <time>2017-12-19T10:05:01Z</time>
      </trkpt>
      <trkpt lat="46.02417" lon="6.37758">
        <ele>942</ele>
        <time>2017-12-19T10:05:03Z</time>
      </trkpt>
      <trkpt lat="46.02417" lon="6.37754">
        <ele>945</ele>
        <time>2017-12-19T10:05:06Z</time>
      </trkpt>
      <trkpt lat="46.02417" lon="6.37753">
        <ele>946</ele>
        <time>2017-12-19T10:05:07Z</time>
      </trkpt>
      <trkpt lat="46.02417" lon="6.37751">
        <ele>948</ele>
        <time>2017-12-19T10:05:08Z</time>
      </trkpt>
      <trkpt lat="46.02418" lon="6.37747">
        <ele>949</ele>
        <time>2017-12-19T10:05:10Z</time>
      </trkpt>
      <trkpt lat="46.02418" lon="6.37746">
        <ele>949</ele>
        <time>2017-12-19T10:05:11Z</time>
      </trkpt>
      <trkpt lat="46.02419" lon="6.37744">
        <ele>949</ele>
        <time>2017-12-19T10:05:12Z</time>
      </trkpt>
      <trkpt lat="46.02419" lon="6.37743">
        <ele>949</ele>
        <time>2017-12-19T10:05:13Z</time>
      </trkpt>
      <trkpt lat="46.02419" lon="6.37741">
        <ele>948</ele>
        <time>2017-12-19T10:05:14Z</time>
      </trkpt>
      <trkpt lat="46.02419" lon="6.37739">
        <ele>948</ele>
        <time>2017-12-19T10:05:15Z</time>
      </trkpt>
      <trkpt lat="46.02419" lon="6.37738">
        <ele>948</ele>
        <time>2017-12-19T10:05:16Z</time>
      </trkpt>
      <trkpt lat="46.02419" lon="6.37737">
        <ele>948</ele>
        <time>2017-12-19T10:05:17Z</time>
      </trkpt>
      <trkpt lat="46.02421" lon="6.37724">
        <ele>948</ele>
        <time>2017-12-19T10:05:25Z</time>
      </trkpt>
      <trkpt lat="46.02421" lon="6.37711">
        <ele>950</ele>
        <time>2017-12-19T10:05:33Z</time>
      </trkpt>
      <trkpt lat="46.02421" lon="6.3771">
        <ele>951</ele>
        <time>2017-12-19T10:05:34Z</time>
      </trkpt>
      <trkpt lat="46.0242" lon="6.37709">
        <ele>951</ele>
        <time>2017-12-19T10:05:35Z</time>
      </trkpt>
      <trkpt lat="46.0242" lon="6.37708">
        <ele>951</ele>
        <time>2017-12-19T10:05:36Z</time>
      </trkpt>
      <trkpt lat="46.02419" lon="6.37707">
        <ele>952</ele>
        <time>2017-12-19T10:05:37Z</time>
      </trkpt>
      <trkpt lat="46.02419" lon="6.37705">
        <ele>952</ele>
        <time>2017-12-19T10:05:38Z</time>
      </trkpt>
      <trkpt lat="46.02419" lon="6.37704">
        <ele>952</ele>
        <time>2017-12-19T10:05:39Z</time>
      </trkpt>
      <trkpt lat="46.02419" lon="6.37702">
        <ele>953</ele>
        <time>2017-12-19T10:05:40Z</time>
      </trkpt>
      <trkpt lat="46.02418" lon="6.37701">
        <ele>953</ele>
        <time>2017-12-19T10:05:41Z</time>
      </trkpt>
      <trkpt lat="46.0242" lon="6.37678">
        <ele>965</ele>
        <time>2017-12-19T10:05:57Z</time>
      </trkpt>
      <trkpt lat="46.02419" lon="6.37677">
        <ele>965</ele>
        <time>2017-12-19T10:05:58Z</time>
      </trkpt>
      <trkpt lat="46.02419" lon="6.37675">
        <ele>967</ele>
        <time>2017-12-19T10:05:59Z</time>
      </trkpt>
      <trkpt lat="46.02422" lon="6.3766">
        <ele>977</ele>
        <time>2017-12-19T10:06:14Z</time>
      </trkpt>
      <trkpt lat="46.02423" lon="6.37659">
        <ele>978</ele>
        <time>2017-12-19T10:06:15Z</time>
      </trkpt>
      <trkpt lat="46.02431" lon="6.37642">
        <ele>981</ele>
        <time>2017-12-19T10:06:30Z</time>
      </trkpt>
      <trkpt lat="46.02432" lon="6.37637">
        <ele>982</ele>
        <time>2017-12-19T10:06:32Z</time>
      </trkpt>
      <trkpt lat="46.02433" lon="6.37635">
        <ele>982</ele>
        <time>2017-12-19T10:06:33Z</time>
      </trkpt>
      <trkpt lat="46.02435" lon="6.37632">
        <ele>983</ele>
        <time>2017-12-19T10:06:34Z</time>
      </trkpt>
      <trkpt lat="46.02436" lon="6.3763">
        <ele>983</ele>
        <time>2017-12-19T10:06:35Z</time>
      </trkpt>
      <trkpt lat="46.02437" lon="6.37628">
        <ele>984</ele>
        <time>2017-12-19T10:06:36Z</time>
      </trkpt>
      <trkpt lat="46.02438" lon="6.37626">
        <ele>984</ele>
        <time>2017-12-19T10:06:37Z</time>
      </trkpt>
      <trkpt lat="46.02439" lon="6.37624">
        <ele>985</ele>
        <time>2017-12-19T10:06:38Z</time>
      </trkpt>
      <trkpt lat="46.02446" lon="6.3761">
        <ele>987</ele>
        <time>2017-12-19T10:06:46Z</time>
      </trkpt>
      <trkpt lat="46.02447" lon="6.37609">
        <ele>987</ele>
        <time>2017-12-19T10:06:47Z</time>
      </trkpt>
      <trkpt lat="46.02449" lon="6.37606">
        <ele>987</ele>
        <time>2017-12-19T10:06:48Z</time>
      </trkpt>
      <trkpt lat="46.0245" lon="6.37605">
        <ele>988</ele>
        <time>2017-12-19T10:06:49Z</time>
      </trkpt>
      <trkpt lat="46.02451" lon="6.37603">
        <ele>987</ele>
        <time>2017-12-19T10:06:50Z</time>
      </trkpt>
      <trkpt lat="46.02453" lon="6.376">
        <ele>987</ele>
        <time>2017-12-19T10:06:51Z</time>
      </trkpt>
      <trkpt lat="46.02454" lon="6.37598">
        <ele>987</ele>
        <time>2017-12-19T10:06:52Z</time>
      </trkpt>
      <trkpt lat="46.02456" lon="6.37597">
        <ele>987</ele>
        <time>2017-12-19T10:06:53Z</time>
      </trkpt>
      <trkpt lat="46.02457" lon="6.37596">
        <ele>986</ele>
        <time>2017-12-19T10:06:54Z</time>
      </trkpt>
      <trkpt lat="46.0248" lon="6.37576">
        <ele>993</ele>
        <time>2017-12-19T10:07:10Z</time>
      </trkpt>
      <trkpt lat="46.02492" lon="6.37569">
        <ele>989</ele>
        <time>2017-12-19T10:07:26Z</time>
      </trkpt>
      <trkpt lat="46.02494" lon="6.37565">
        <ele>991</ele>
        <time>2017-12-19T10:07:29Z</time>
      </trkpt>
      <trkpt lat="46.02494" lon="6.37563">
        <ele>991</ele>
        <time>2017-12-19T10:07:30Z</time>
      </trkpt>
      <trkpt lat="46.02494" lon="6.37562">
        <ele>992</ele>
        <time>2017-12-19T10:07:31Z</time>
      </trkpt>
      <trkpt lat="46.02493" lon="6.3756">
        <ele>993</ele>
        <time>2017-12-19T10:07:32Z</time>
      </trkpt>
      <trkpt lat="46.02493" lon="6.37559">
        <ele>993</ele>
        <time>2017-12-19T10:07:33Z</time>
      </trkpt>
      <trkpt lat="46.02493" lon="6.37558">
        <ele>993</ele>
        <time>2017-12-19T10:07:34Z</time>
      </trkpt>
      <trkpt lat="46.02493" lon="6.37556">
        <ele>994</ele>
        <time>2017-12-19T10:07:35Z</time>
      </trkpt>
      <trkpt lat="46.02492" lon="6.3755">
        <ele>996</ele>
        <time>2017-12-19T10:07:40Z</time>
      </trkpt>
      <trkpt lat="46.02492" lon="6.37548">
        <ele>996</ele>
        <time>2017-12-19T10:07:41Z</time>
      </trkpt>
      <trkpt lat="46.02492" lon="6.37547">
        <ele>996</ele>
        <time>2017-12-19T10:07:42Z</time>
      </trkpt>
      <trkpt lat="46.02492" lon="6.37545">
        <ele>996</ele>
        <time>2017-12-19T10:07:43Z</time>
      </trkpt>
      <trkpt lat="46.02492" lon="6.37543">
        <ele>997</ele>
        <time>2017-12-19T10:07:44Z</time>
      </trkpt>
      <trkpt lat="46.02491" lon="6.37542">
        <ele>997</ele>
        <time>2017-12-19T10:07:45Z</time>
      </trkpt>
      <trkpt lat="46.02491" lon="6.3754">
        <ele>997</ele>
        <time>2017-12-19T10:07:46Z</time>
      </trkpt>
      <trkpt lat="46.02491" lon="6.37538">
        <ele>997</ele>
        <time>2017-12-19T10:07:47Z</time>
      </trkpt>
      <trkpt lat="46.02491" lon="6.37537">
        <ele>997</ele>
        <time>2017-12-19T10:07:48Z</time>
      </trkpt>
      <trkpt lat="46.0249" lon="6.37535">
        <ele>998</ele>
        <time>2017-12-19T10:07:49Z</time>
      </trkpt>
      <trkpt lat="46.02489" lon="6.37533">
        <ele>998</ele>
        <time>2017-12-19T10:07:50Z</time>
      </trkpt>
      <trkpt lat="46.02486" lon="6.375">
        <ele>997</ele>
        <time>2017-12-19T10:08:08Z</time>
      </trkpt>
      <trkpt lat="46.02485" lon="6.37498">
        <ele>998</ele>
        <time>2017-12-19T10:08:09Z</time>
      </trkpt>
      <trkpt lat="46.02482" lon="6.37487">
        <ele>1001</ele>
        <time>2017-12-19T10:08:15Z</time>
      </trkpt>
      <trkpt lat="46.02482" lon="6.37486">
        <ele>1002</ele>
        <time>2017-12-19T10:08:16Z</time>
      </trkpt>
      <trkpt lat="46.02481" lon="6.37484">
        <ele>1002</ele>
        <time>2017-12-19T10:08:17Z</time>
      </trkpt>
      <trkpt lat="46.02481" lon="6.37482">
        <ele>1003</ele>
        <time>2017-12-19T10:08:18Z</time>
      </trkpt>
      <trkpt lat="46.0248" lon="6.37481">
        <ele>1003</ele>
        <time>2017-12-19T10:08:19Z</time>
      </trkpt>
      <trkpt lat="46.02478" lon="6.37477">
        <ele>1005</ele>
        <time>2017-12-19T10:08:21Z</time>
      </trkpt>
      <trkpt lat="46.02477" lon="6.37476">
        <ele>1005</ele>
        <time>2017-12-19T10:08:22Z</time>
      </trkpt>
      <trkpt lat="46.02477" lon="6.37474">
        <ele>1005</ele>
        <time>2017-12-19T10:08:23Z</time>
      </trkpt>
      <trkpt lat="46.02478" lon="6.37473">
        <ele>1005</ele>
        <time>2017-12-19T10:08:24Z</time>
      </trkpt>
      <trkpt lat="46.02478" lon="6.37471">
        <ele>1006</ele>
        <time>2017-12-19T10:08:25Z</time>
      </trkpt>
      <trkpt lat="46.02478" lon="6.37469">
        <ele>1006</ele>
        <time>2017-12-19T10:08:26Z</time>
      </trkpt>
      <trkpt lat="46.02477" lon="6.37467">
        <ele>1006</ele>
        <time>2017-12-19T10:08:27Z</time>
      </trkpt>
      <trkpt lat="46.02474" lon="6.37458">
        <ele>1007</ele>
        <time>2017-12-19T10:08:33Z</time>
      </trkpt>
      <trkpt lat="46.02472" lon="6.37453">
        <ele>1008</ele>
        <time>2017-12-19T10:08:36Z</time>
      </trkpt>
      <trkpt lat="46.02472" lon="6.37452">
        <ele>1008</ele>
        <time>2017-12-19T10:08:37Z</time>
      </trkpt>
      <trkpt lat="46.02471" lon="6.3745">
        <ele>1008</ele>
        <time>2017-12-19T10:08:38Z</time>
      </trkpt>
      <trkpt lat="46.02471" lon="6.37448">
        <ele>1008</ele>
        <time>2017-12-19T10:08:39Z</time>
      </trkpt>
      <trkpt lat="46.02467" lon="6.37437">
        <ele>1009</ele>
        <time>2017-12-19T10:08:46Z</time>
      </trkpt>
      <trkpt lat="46.02466" lon="6.37436">
        <ele>1009</ele>
        <time>2017-12-19T10:08:47Z</time>
      </trkpt>
      <trkpt lat="46.02465" lon="6.37434">
        <ele>1009</ele>
        <time>2017-12-19T10:08:48Z</time>
      </trkpt>
      <trkpt lat="46.02464" lon="6.37433">
        <ele>1009</ele>
        <time>2017-12-19T10:08:49Z</time>
      </trkpt>
      <trkpt lat="46.02463" lon="6.3743">
        <ele>1010</ele>
        <time>2017-12-19T10:08:51Z</time>
      </trkpt>
      <trkpt lat="46.02462" lon="6.37428">
        <ele>1010</ele>
        <time>2017-12-19T10:08:52Z</time>
      </trkpt>
      <trkpt lat="46.02461" lon="6.37418">
        <ele>1010</ele>
        <time>2017-12-19T10:08:58Z</time>
      </trkpt>
      <trkpt lat="46.02461" lon="6.37416">
        <ele>1012</ele>
        <time>2017-12-19T10:08:59Z</time>
      </trkpt>
      <trkpt lat="46.0246" lon="6.37415">
        <ele>1013</ele>
        <time>2017-12-19T10:09:00Z</time>
      </trkpt>
      <trkpt lat="46.0246" lon="6.37413">
        <ele>1013</ele>
        <time>2017-12-19T10:09:01Z</time>
      </trkpt>
      <trkpt lat="46.02459" lon="6.37411">
        <ele>1013</ele>
        <time>2017-12-19T10:09:02Z</time>
      </trkpt>
      <trkpt lat="46.02459" lon="6.37409">
        <ele>1013</ele>
        <time>2017-12-19T10:09:03Z</time>
      </trkpt>
      <trkpt lat="46.02459" lon="6.37407">
        <ele>1013</ele>
        <time>2017-12-19T10:09:04Z</time>
      </trkpt>
      <trkpt lat="46.02461" lon="6.37395">
        <ele>1013</ele>
        <time>2017-12-19T10:09:10Z</time>
      </trkpt>
      <trkpt lat="46.02461" lon="6.37393">
        <ele>1013</ele>
        <time>2017-12-19T10:09:11Z</time>
      </trkpt>
      <trkpt lat="46.02464" lon="6.3739">
        <ele>1013</ele>
        <time>2017-12-19T10:09:13Z</time>
      </trkpt>
      <trkpt lat="46.02472" lon="6.37388">
        <ele>1011</ele>
        <time>2017-12-19T10:09:18Z</time>
      </trkpt>
      <trkpt lat="46.02474" lon="6.37389">
        <ele>1011</ele>
        <time>2017-12-19T10:09:19Z</time>
      </trkpt>
      <trkpt lat="46.02475" lon="6.37389">
        <ele>1011</ele>
        <time>2017-12-19T10:09:20Z</time>
      </trkpt>
      <trkpt lat="46.02477" lon="6.37389">
        <ele>1010</ele>
        <time>2017-12-19T10:09:21Z</time>
      </trkpt>
      <trkpt lat="46.02478" lon="6.3739">
        <ele>1010</ele>
        <time>2017-12-19T10:09:22Z</time>
      </trkpt>
      <trkpt lat="46.02478" lon="6.37391">
        <ele>1010</ele>
        <time>2017-12-19T10:09:23Z</time>
      </trkpt>
      <trkpt lat="46.0248" lon="6.37391">
        <ele>1009</ele>
        <time>2017-12-19T10:09:26Z</time>
      </trkpt>
      <trkpt lat="46.02482" lon="6.37391">
        <ele>1009</ele>
        <time>2017-12-19T10:09:27Z</time>
      </trkpt>
      <trkpt lat="46.02482" lon="6.37392">
        <ele>1009</ele>
        <time>2017-12-19T10:09:28Z</time>
      </trkpt>
      <trkpt lat="46.02484" lon="6.37392">
        <ele>1008</ele>
        <time>2017-12-19T10:09:29Z</time>
      </trkpt>
      <trkpt lat="46.02485" lon="6.37392">
        <ele>1008</ele>
        <time>2017-12-19T10:09:30Z</time>
      </trkpt>
      <trkpt lat="46.02486" lon="6.37393">
        <ele>1008</ele>
        <time>2017-12-19T10:09:31Z</time>
      </trkpt>
      <trkpt lat="46.02487" lon="6.37393">
        <ele>1008</ele>
        <time>2017-12-19T10:09:32Z</time>
      </trkpt>
      <trkpt lat="46.02492" lon="6.37396">
        <ele>1006</ele>
        <time>2017-12-19T10:09:37Z</time>
      </trkpt>
      <trkpt lat="46.02492" lon="6.37396">
        <ele>1005</ele>
        <time>2017-12-19T10:09:38Z</time>
      </trkpt>
      <trkpt lat="46.02493" lon="6.37397">
        <ele>1005</ele>
        <time>2017-12-19T10:09:39Z</time>
      </trkpt>
      <trkpt lat="46.02497" lon="6.37399">
        <ele>1003</ele>
        <time>2017-12-19T10:09:44Z</time>
      </trkpt>
      <trkpt lat="46.02498" lon="6.374">
        <ele>1003</ele>
        <time>2017-12-19T10:09:45Z</time>
      </trkpt>
      <trkpt lat="46.025" lon="6.374">
        <ele>1006</ele>
        <time>2017-12-19T10:09:46Z</time>
      </trkpt>
      <trkpt lat="46.02501" lon="6.37401">
        <ele>1005</ele>
        <time>2017-12-19T10:09:47Z</time>
      </trkpt>
      <trkpt lat="46.02501" lon="6.37403">
        <ele>1004</ele>
        <time>2017-12-19T10:09:48Z</time>
      </trkpt>
      <trkpt lat="46.02503" lon="6.37403">
        <ele>1004</ele>
        <time>2017-12-19T10:09:49Z</time>
      </trkpt>
      <trkpt lat="46.02503" lon="6.37404">
        <ele>1003</ele>
        <time>2017-12-19T10:09:50Z</time>
      </trkpt>
      <trkpt lat="46.02505" lon="6.37408">
        <ele>1001</ele>
        <time>2017-12-19T10:09:53Z</time>
      </trkpt>
      <trkpt lat="46.02507" lon="6.37412">
        <ele>1000</ele>
        <time>2017-12-19T10:09:56Z</time>
      </trkpt>
      <trkpt lat="46.02517" lon="6.37423">
        <ele>997</ele>
        <time>2017-12-19T10:10:07Z</time>
      </trkpt>
      <trkpt lat="46.0252" lon="6.37423">
        <ele>998</ele>
        <time>2017-12-19T10:10:08Z</time>
      </trkpt>
      <trkpt lat="46.02521" lon="6.37424">
        <ele>998</ele>
        <time>2017-12-19T10:10:09Z</time>
      </trkpt>
      <trkpt lat="46.02522" lon="6.37425">
        <ele>998</ele>
        <time>2017-12-19T10:10:10Z</time>
      </trkpt>
      <trkpt lat="46.02523" lon="6.37426">
        <ele>999</ele>
        <time>2017-12-19T10:10:11Z</time>
      </trkpt>
      <trkpt lat="46.02524" lon="6.37427">
        <ele>999</ele>
        <time>2017-12-19T10:10:12Z</time>
      </trkpt>
      <trkpt lat="46.02525" lon="6.37429">
        <ele>999</ele>
        <time>2017-12-19T10:10:13Z</time>
      </trkpt>
      <trkpt lat="46.02526" lon="6.3743">
        <ele>1000</ele>
        <time>2017-12-19T10:10:14Z</time>
      </trkpt>
      <trkpt lat="46.02529" lon="6.37434">
        <ele>1000</ele>
        <time>2017-12-19T10:10:18Z</time>
      </trkpt>
      <trkpt lat="46.0253" lon="6.37435">
        <ele>1000</ele>
        <time>2017-12-19T10:10:19Z</time>
      </trkpt>
      <trkpt lat="46.02531" lon="6.37436">
        <ele>1001</ele>
        <time>2017-12-19T10:10:20Z</time>
      </trkpt>
      <trkpt lat="46.02532" lon="6.37437">
        <ele>1001</ele>
        <time>2017-12-19T10:10:21Z</time>
      </trkpt>
      <trkpt lat="46.02533" lon="6.37438">
        <ele>1001</ele>
        <time>2017-12-19T10:10:22Z</time>
      </trkpt>
      <trkpt lat="46.02534" lon="6.37439">
        <ele>1001</ele>
        <time>2017-12-19T10:10:23Z</time>
      </trkpt>
      <trkpt lat="46.02535" lon="6.3744">
        <ele>1001</ele>
        <time>2017-12-19T10:10:24Z</time>
      </trkpt>
      <trkpt lat="46.02536" lon="6.37443">
        <ele>1001</ele>
        <time>2017-12-19T10:10:26Z</time>
      </trkpt>
      <trkpt lat="46.02538" lon="6.37445">
        <ele>1002</ele>
        <time>2017-12-19T10:10:28Z</time>
      </trkpt>
      <trkpt lat="46.0254" lon="6.37447">
        <ele>1002</ele>
        <time>2017-12-19T10:10:29Z</time>
      </trkpt>
      <trkpt lat="46.0254" lon="6.37448">
        <ele>1002</ele>
        <time>2017-12-19T10:10:30Z</time>
      </trkpt>
      <trkpt lat="46.02541" lon="6.37449">
        <ele>1002</ele>
        <time>2017-12-19T10:10:31Z</time>
      </trkpt>
      <trkpt lat="46.02542" lon="6.3745">
        <ele>1002</ele>
        <time>2017-12-19T10:10:32Z</time>
      </trkpt>
      <trkpt lat="46.02542" lon="6.37452">
        <ele>1002</ele>
        <time>2017-12-19T10:10:33Z</time>
      </trkpt>
      <trkpt lat="46.02543" lon="6.37453">
        <ele>1002</ele>
        <time>2017-12-19T10:10:34Z</time>
      </trkpt>
      <trkpt lat="46.02545" lon="6.37454">
        <ele>1002</ele>
        <time>2017-12-19T10:10:35Z</time>
      </trkpt>
      <trkpt lat="46.02548" lon="6.3746">
        <ele>1002</ele>
        <time>2017-12-19T10:10:39Z</time>
      </trkpt>
      <trkpt lat="46.02549" lon="6.37461">
        <ele>1002</ele>
        <time>2017-12-19T10:10:40Z</time>
      </trkpt>
      <trkpt lat="46.0255" lon="6.37463">
        <ele>1002</ele>
        <time>2017-12-19T10:10:41Z</time>
      </trkpt>
      <trkpt lat="46.02551" lon="6.37464">
        <ele>1002</ele>
        <time>2017-12-19T10:10:42Z</time>
      </trkpt>
      <trkpt lat="46.02552" lon="6.37465">
        <ele>1002</ele>
        <time>2017-12-19T10:10:43Z</time>
      </trkpt>
      <trkpt lat="46.02553" lon="6.37466">
        <ele>1002</ele>
        <time>2017-12-19T10:10:44Z</time>
      </trkpt>
      <trkpt lat="46.02554" lon="6.37466">
        <ele>1002</ele>
        <time>2017-12-19T10:10:45Z</time>
      </trkpt>
      <trkpt lat="46.02556" lon="6.37468">
        <ele>1002</ele>
        <time>2017-12-19T10:10:46Z</time>
      </trkpt>
      <trkpt lat="46.02556" lon="6.3747">
        <ele>1002</ele>
        <time>2017-12-19T10:10:47Z</time>
      </trkpt>
      <trkpt lat="46.02558" lon="6.37471">
        <ele>1002</ele>
        <time>2017-12-19T10:10:48Z</time>
      </trkpt>
      <trkpt lat="46.02559" lon="6.37472">
        <ele>1002</ele>
        <time>2017-12-19T10:10:49Z</time>
      </trkpt>
      <trkpt lat="46.0256" lon="6.37474">
        <ele>1002</ele>
        <time>2017-12-19T10:10:50Z</time>
      </trkpt>
      <trkpt lat="46.0256" lon="6.37475">
        <ele>1002</ele>
        <time>2017-12-19T10:10:51Z</time>
      </trkpt>
      <trkpt lat="46.02563" lon="6.37476">
        <ele>1002</ele>
        <time>2017-12-19T10:10:53Z</time>
      </trkpt>
      <trkpt lat="46.02564" lon="6.37477">
        <ele>1002</ele>
        <time>2017-12-19T10:10:54Z</time>
      </trkpt>
      <trkpt lat="46.02565" lon="6.37478">
        <ele>1002</ele>
        <time>2017-12-19T10:10:55Z</time>
      </trkpt>
      <trkpt lat="46.02566" lon="6.3748">
        <ele>1002</ele>
        <time>2017-12-19T10:10:56Z</time>
      </trkpt>
      <trkpt lat="46.02567" lon="6.37482">
        <ele>1002</ele>
        <time>2017-12-19T10:10:58Z</time>
      </trkpt>
      <trkpt lat="46.02569" lon="6.37483">
        <ele>1002</ele>
        <time>2017-12-19T10:10:59Z</time>
      </trkpt>
      <trkpt lat="46.0257" lon="6.37484">
        <ele>1002</ele>
        <time>2017-12-19T10:11:00Z</time>
      </trkpt>
      <trkpt lat="46.02571" lon="6.37485">
        <ele>1002</ele>
        <time>2017-12-19T10:11:01Z</time>
      </trkpt>
      <trkpt lat="46.02573" lon="6.37486">
        <ele>1002</ele>
        <time>2017-12-19T10:11:02Z</time>
      </trkpt>
      <trkpt lat="46.02574" lon="6.37486">
        <ele>1002</ele>
        <time>2017-12-19T10:11:03Z</time>
      </trkpt>
      <trkpt lat="46.02575" lon="6.37487">
        <ele>1002</ele>
        <time>2017-12-19T10:11:04Z</time>
      </trkpt>
      <trkpt lat="46.02576" lon="6.37489">
        <ele>1002</ele>
        <time>2017-12-19T10:11:05Z</time>
      </trkpt>
      <trkpt lat="46.02577" lon="6.3749">
        <ele>1002</ele>
        <time>2017-12-19T10:11:06Z</time>
      </trkpt>
      <trkpt lat="46.0258" lon="6.37496">
        <ele>1002</ele>
        <time>2017-12-19T10:11:10Z</time>
      </trkpt>
      <trkpt lat="46.02581" lon="6.37497">
        <ele>1002</ele>
        <time>2017-12-19T10:11:11Z</time>
      </trkpt>
      <trkpt lat="46.02582" lon="6.37498">
        <ele>1002</ele>
        <time>2017-12-19T10:11:12Z</time>
      </trkpt>
      <trkpt lat="46.02583" lon="6.37499">
        <ele>1002</ele>
        <time>2017-12-19T10:11:13Z</time>
      </trkpt>
      <trkpt lat="46.02584" lon="6.375">
        <ele>1002</ele>
        <time>2017-12-19T10:11:14Z</time>
      </trkpt>
      <trkpt lat="46.02584" lon="6.37502">
        <ele>1002</ele>
        <time>2017-12-19T10:11:15Z</time>
      </trkpt>
      <trkpt lat="46.02585" lon="6.37503">
        <ele>1003</ele>
        <time>2017-12-19T10:11:16Z</time>
      </trkpt>
      <trkpt lat="46.02585" lon="6.37505">
        <ele>1003</ele>
        <time>2017-12-19T10:11:17Z</time>
      </trkpt>
      <trkpt lat="46.02587" lon="6.37511">
        <ele>1004</ele>
        <time>2017-12-19T10:11:22Z</time>
      </trkpt>
      <trkpt lat="46.02588" lon="6.37513">
        <ele>1005</ele>
        <time>2017-12-19T10:11:23Z</time>
      </trkpt>
      <trkpt lat="46.02602" lon="6.37539">
        <ele>1005</ele>
        <time>2017-12-19T10:11:43Z</time>
      </trkpt>
      <trkpt lat="46.02604" lon="6.3754">
        <ele>1005</ele>
        <time>2017-12-19T10:11:45Z</time>
      </trkpt>
      <trkpt lat="46.02605" lon="6.37541">
        <ele>1005</ele>
        <time>2017-12-19T10:11:46Z</time>
      </trkpt>
      <trkpt lat="46.02606" lon="6.37541">
        <ele>1005</ele>
        <time>2017-12-19T10:11:47Z</time>
      </trkpt>
      <trkpt lat="46.02607" lon="6.37541">
        <ele>1005</ele>
        <time>2017-12-19T10:11:48Z</time>
      </trkpt>
      <trkpt lat="46.02608" lon="6.37542">
        <ele>1005</ele>
        <time>2017-12-19T10:11:49Z</time>
      </trkpt>
      <trkpt lat="46.02612" lon="6.37544">
        <ele>1006</ele>
        <time>2017-12-19T10:11:53Z</time>
      </trkpt>
      <trkpt lat="46.02613" lon="6.37544">
        <ele>1006</ele>
        <time>2017-12-19T10:11:54Z</time>
      </trkpt>
      <trkpt lat="46.02616" lon="6.37543">
        <ele>1007</ele>
        <time>2017-12-19T10:11:58Z</time>
      </trkpt>
      <trkpt lat="46.02618" lon="6.37542">
        <ele>1007</ele>
        <time>2017-12-19T10:11:59Z</time>
      </trkpt>
      <trkpt lat="46.02619" lon="6.37541">
        <ele>1008</ele>
        <time>2017-12-19T10:12:00Z</time>
      </trkpt>
      <trkpt lat="46.02621" lon="6.37541">
        <ele>1008</ele>
        <time>2017-12-19T10:12:02Z</time>
      </trkpt>
      <trkpt lat="46.02627" lon="6.37541">
        <ele>1009</ele>
        <time>2017-12-19T10:12:09Z</time>
      </trkpt>
      <trkpt lat="46.02628" lon="6.37542">
        <ele>1010</ele>
        <time>2017-12-19T10:12:10Z</time>
      </trkpt>
      <trkpt lat="46.0263" lon="6.37542">
        <ele>1010</ele>
        <time>2017-12-19T10:12:12Z</time>
      </trkpt>
      <trkpt lat="46.02631" lon="6.37543">
        <ele>1010</ele>
        <time>2017-12-19T10:12:13Z</time>
      </trkpt>
      <trkpt lat="46.02637" lon="6.37544">
        <ele>1011</ele>
        <time>2017-12-19T10:12:18Z</time>
      </trkpt>
      <trkpt lat="46.02639" lon="6.37544">
        <ele>1012</ele>
        <time>2017-12-19T10:12:19Z</time>
      </trkpt>
      <trkpt lat="46.02649" lon="6.37555">
        <ele>1012</ele>
        <time>2017-12-19T10:12:29Z</time>
      </trkpt>
      <trkpt lat="46.02651" lon="6.37555">
        <ele>1012</ele>
        <time>2017-12-19T10:12:30Z</time>
      </trkpt>
      <trkpt lat="46.02652" lon="6.37557">
        <ele>1012</ele>
        <time>2017-12-19T10:12:31Z</time>
      </trkpt>
      <trkpt lat="46.02653" lon="6.3756">
        <ele>1012</ele>
        <time>2017-12-19T10:12:33Z</time>
      </trkpt>
      <trkpt lat="46.02654" lon="6.37561">
        <ele>1012</ele>
        <time>2017-12-19T10:12:34Z</time>
      </trkpt>
      <trkpt lat="46.02665" lon="6.37587">
        <ele>1012</ele>
        <time>2017-12-19T10:12:51Z</time>
      </trkpt>
      <trkpt lat="46.02675" lon="6.37606">
        <ele>1022</ele>
        <time>2017-12-19T10:13:04Z</time>
      </trkpt>
      <trkpt lat="46.02676" lon="6.37608">
        <ele>1022</ele>
        <time>2017-12-19T10:13:05Z</time>
      </trkpt>
      <trkpt lat="46.02687" lon="6.37632">
        <ele>1022</ele>
        <time>2017-12-19T10:13:22Z</time>
      </trkpt>
      <trkpt lat="46.02688" lon="6.37634">
        <ele>1021</ele>
        <time>2017-12-19T10:13:23Z</time>
      </trkpt>
      <trkpt lat="46.02689" lon="6.37635">
        <ele>1021</ele>
        <time>2017-12-19T10:13:24Z</time>
      </trkpt>
      <trkpt lat="46.02689" lon="6.37637">
        <ele>1021</ele>
        <time>2017-12-19T10:13:25Z</time>
      </trkpt>
      <trkpt lat="46.0269" lon="6.37638">
        <ele>1021</ele>
        <time>2017-12-19T10:13:26Z</time>
      </trkpt>
      <trkpt lat="46.02691" lon="6.3764">
        <ele>1021</ele>
        <time>2017-12-19T10:13:27Z</time>
      </trkpt>
      <trkpt lat="46.02692" lon="6.37641">
        <ele>1021</ele>
        <time>2017-12-19T10:13:28Z</time>
      </trkpt>
      <trkpt lat="46.02693" lon="6.37642">
        <ele>1021</ele>
        <time>2017-12-19T10:13:29Z</time>
      </trkpt>
      <trkpt lat="46.02694" lon="6.37643">
        <ele>1021</ele>
        <time>2017-12-19T10:13:30Z</time>
      </trkpt>
      <trkpt lat="46.02701" lon="6.37652">
        <ele>1022</ele>
        <time>2017-12-19T10:13:38Z</time>
      </trkpt>
      <trkpt lat="46.02701" lon="6.37653">
        <ele>1022</ele>
        <time>2017-12-19T10:13:39Z</time>
      </trkpt>
      <trkpt lat="46.0272" lon="6.37667">
        <ele>1017</ele>
        <time>2017-12-19T10:13:57Z</time>
      </trkpt>
      <trkpt lat="46.0273" lon="6.37672">
        <ele>1021</ele>
        <time>2017-12-19T10:14:05Z</time>
      </trkpt>
      <trkpt lat="46.02731" lon="6.37672">
        <ele>1022</ele>
        <time>2017-12-19T10:14:06Z</time>
      </trkpt>
      <trkpt lat="46.02732" lon="6.37672">
        <ele>1022</ele>
        <time>2017-12-19T10:14:07Z</time>
      </trkpt>
      <trkpt lat="46.02733" lon="6.37673">
        <ele>1023</ele>
        <time>2017-12-19T10:14:08Z</time>
      </trkpt>
      <trkpt lat="46.02734" lon="6.37673">
        <ele>1023</ele>
        <time>2017-12-19T10:14:09Z</time>
      </trkpt>
      <trkpt lat="46.02741" lon="6.37677">
        <ele>1025</ele>
        <time>2017-12-19T10:14:16Z</time>
      </trkpt>
      <trkpt lat="46.02742" lon="6.37679">
        <ele>1025</ele>
        <time>2017-12-19T10:14:17Z</time>
      </trkpt>
      <trkpt lat="46.02743" lon="6.37679">
        <ele>1025</ele>
        <time>2017-12-19T10:14:18Z</time>
      </trkpt>
      <trkpt lat="46.02744" lon="6.3768">
        <ele>1025</ele>
        <time>2017-12-19T10:14:19Z</time>
      </trkpt>
      <trkpt lat="46.02745" lon="6.37681">
        <ele>1025</ele>
        <time>2017-12-19T10:14:20Z</time>
      </trkpt>
      <trkpt lat="46.02746" lon="6.37681">
        <ele>1025</ele>
        <time>2017-12-19T10:14:21Z</time>
      </trkpt>
      <trkpt lat="46.02753" lon="6.37683">
        <ele>1039</ele>
        <time>2017-12-19T10:14:30Z</time>
      </trkpt>
      <trkpt lat="46.02754" lon="6.37682">
        <ele>1039</ele>
        <time>2017-12-19T10:14:31Z</time>
      </trkpt>
      <trkpt lat="46.02754" lon="6.37677">
        <ele>1039</ele>
        <time>2017-12-19T10:14:35Z</time>
      </trkpt>
      <trkpt lat="46.02754" lon="6.37676">
        <ele>1038</ele>
        <time>2017-12-19T10:14:36Z</time>
      </trkpt>
      <trkpt lat="46.02753" lon="6.37675">
        <ele>1038</ele>
        <time>2017-12-19T10:14:37Z</time>
      </trkpt>
      <trkpt lat="46.02753" lon="6.37674">
        <ele>1038</ele>
        <time>2017-12-19T10:14:38Z</time>
      </trkpt>
      <trkpt lat="46.02752" lon="6.37672">
        <ele>1038</ele>
        <time>2017-12-19T10:14:39Z</time>
      </trkpt>
      <trkpt lat="46.02748" lon="6.37667">
        <ele>1034</ele>
        <time>2017-12-19T10:14:44Z</time>
      </trkpt>
      <trkpt lat="46.02747" lon="6.37666">
        <ele>1035</ele>
        <time>2017-12-19T10:14:45Z</time>
      </trkpt>
      <trkpt lat="46.02746" lon="6.37665">
        <ele>1034</ele>
        <time>2017-12-19T10:14:46Z</time>
      </trkpt>
      <trkpt lat="46.02745" lon="6.37664">
        <ele>1034</ele>
        <time>2017-12-19T10:14:47Z</time>
      </trkpt>
      <trkpt lat="46.02743" lon="6.37663">
        <ele>1034</ele>
        <time>2017-12-19T10:14:48Z</time>
      </trkpt>
      <trkpt lat="46.02742" lon="6.37662">
        <ele>1033</ele>
        <time>2017-12-19T10:14:49Z</time>
      </trkpt>
      <trkpt lat="46.02742" lon="6.37661">
        <ele>1033</ele>
        <time>2017-12-19T10:14:50Z</time>
      </trkpt>
      <trkpt lat="46.02741" lon="6.3766">
        <ele>1033</ele>
        <time>2017-12-19T10:14:51Z</time>
      </trkpt>
      <trkpt lat="46.0274" lon="6.37659">
        <ele>1032</ele>
        <time>2017-12-19T10:14:52Z</time>
      </trkpt>
      <trkpt lat="46.02739" lon="6.37658">
        <ele>1032</ele>
        <time>2017-12-19T10:14:53Z</time>
      </trkpt>
      <trkpt lat="46.02738" lon="6.37657">
        <ele>1032</ele>
        <time>2017-12-19T10:14:54Z</time>
      </trkpt>
      <trkpt lat="46.02737" lon="6.37656">
        <ele>1032</ele>
        <time>2017-12-19T10:14:55Z</time>
      </trkpt>
      <trkpt lat="46.02736" lon="6.37655">
        <ele>1031</ele>
        <time>2017-12-19T10:14:56Z</time>
      </trkpt>
      <trkpt lat="46.02735" lon="6.37653">
        <ele>1031</ele>
        <time>2017-12-19T10:14:57Z</time>
      </trkpt>
      <trkpt lat="46.02734" lon="6.37652">
        <ele>1031</ele>
        <time>2017-12-19T10:14:58Z</time>
      </trkpt>
      <trkpt lat="46.02733" lon="6.37651">
        <ele>1031</ele>
        <time>2017-12-19T10:14:59Z</time>
      </trkpt>
      <trkpt lat="46.0272" lon="6.37627">
        <ele>1029</ele>
        <time>2017-12-19T10:15:18Z</time>
      </trkpt>
      <trkpt lat="46.02719" lon="6.37623">
        <ele>1030</ele>
        <time>2017-12-19T10:15:21Z</time>
      </trkpt>
      <trkpt lat="46.02718" lon="6.37621">
        <ele>1030</ele>
        <time>2017-12-19T10:15:22Z</time>
      </trkpt>
      <trkpt lat="46.02718" lon="6.3762">
        <ele>1030</ele>
        <time>2017-12-19T10:15:23Z</time>
      </trkpt>
      <trkpt lat="46.02715" lon="6.37604">
        <ele>1031</ele>
        <time>2017-12-19T10:15:33Z</time>
      </trkpt>
      <trkpt lat="46.02715" lon="6.37602">
        <ele>1031</ele>
        <time>2017-12-19T10:15:34Z</time>
      </trkpt>
      <trkpt lat="46.02713" lon="6.37576">
        <ele>1044</ele>
        <time>2017-12-19T10:15:51Z</time>
      </trkpt>
      <trkpt lat="46.02711" lon="6.37555">
        <ele>1045</ele>
        <time>2017-12-19T10:16:04Z</time>
      </trkpt>
      <trkpt lat="46.02711" lon="6.37554">
        <ele>1045</ele>
        <time>2017-12-19T10:16:05Z</time>
      </trkpt>
      <trkpt lat="46.02708" lon="6.37529">
        <ele>1047</ele>
        <time>2017-12-19T10:16:21Z</time>
      </trkpt>
      <trkpt lat="46.02706" lon="6.37505">
        <ele>1049</ele>
        <time>2017-12-19T10:16:36Z</time>
      </trkpt>
      <trkpt lat="46.02704" lon="6.37492">
        <ele>1061</ele>
        <time>2017-12-19T10:16:46Z</time>
      </trkpt>
      <trkpt lat="46.02704" lon="6.3749">
        <ele>1061</ele>
        <time>2017-12-19T10:16:47Z</time>
      </trkpt>
      <trkpt lat="46.02704" lon="6.37488">
        <ele>1062</ele>
        <time>2017-12-19T10:17:03Z</time>
      </trkpt>
      <trkpt lat="46.02704" lon="6.37487">
        <ele>1062</ele>
        <time>2017-12-19T10:17:08Z</time>
      </trkpt>
      <trkpt lat="46.02703" lon="6.37487">
        <ele>1061</ele>
        <time>2017-12-19T10:17:10Z</time>
      </trkpt>
      <trkpt lat="46.02703" lon="6.37487">
        <ele>1061</ele>
        <time>2017-12-19T10:17:12Z</time>
      </trkpt>
      <trkpt lat="46.02703" lon="6.37487">
        <ele>1061</ele>
        <time>2017-12-19T10:17:16Z</time>
      </trkpt>
      <trkpt lat="46.02703" lon="6.37488">
        <ele>1061</ele>
        <time>2017-12-19T10:17:25Z</time>
      </trkpt>
      <trkpt lat="46.02704" lon="6.37488">
        <ele>1062</ele>
        <time>2017-12-19T10:17:38Z</time>
      </trkpt>
      <trkpt lat="46.02705" lon="6.37488">
        <ele>1062</ele>
        <time>2017-12-19T10:17:47Z</time>
      </trkpt>
      <trkpt lat="46.02705" lon="6.37488">
        <ele>1062</ele>
        <time>2017-12-19T10:17:57Z</time>
      </trkpt>
      <trkpt lat="46.02704" lon="6.37489">
        <ele>1062</ele>
        <time>2017-12-19T10:18:04Z</time>
      </trkpt>
      <trkpt lat="46.02702" lon="6.37491">
        <ele>1061</ele>
        <time>2017-12-19T10:18:29Z</time>
      </trkpt>
      <trkpt lat="46.02703" lon="6.37489">
        <ele>1061</ele>
        <time>2017-12-19T10:18:36Z</time>
      </trkpt>
      <trkpt lat="46.02703" lon="6.37489">
        <ele>1061</ele>
        <time>2017-12-19T10:18:38Z</time>
      </trkpt>
      <trkpt lat="46.02703" lon="6.3749">
        <ele>1061</ele>
        <time>2017-12-19T10:18:46Z</time>
      </trkpt>
      <trkpt lat="46.02703" lon="6.37488">
        <ele>1061</ele>
        <time>2017-12-19T10:18:59Z</time>
      </trkpt>
      <trkpt lat="46.02704" lon="6.37488">
        <ele>1062</ele>
        <time>2017-12-19T10:19:01Z</time>
      </trkpt>
      <trkpt lat="46.02704" lon="6.37487">
        <ele>1062</ele>
        <time>2017-12-19T10:19:04Z</time>
      </trkpt>
      <trkpt lat="46.02704" lon="6.37488">
        <ele>1062</ele>
        <time>2017-12-19T10:19:14Z</time>
      </trkpt>
      <trkpt lat="46.02704" lon="6.37488">
        <ele>1062</ele>
        <time>2017-12-19T10:19:17Z</time>
      </trkpt>
      <trkpt lat="46.02704" lon="6.37488">
        <ele>1062</ele>
        <time>2017-12-19T10:19:21Z</time>
      </trkpt>
      <trkpt lat="46.02704" lon="6.37488">
        <ele>1062</ele>
        <time>2017-12-19T10:19:24Z</time>
      </trkpt>
      <trkpt lat="46.02704" lon="6.37483">
        <ele>1062</ele>
        <time>2017-12-19T10:19:47Z</time>
      </trkpt>
      <trkpt lat="46.02699" lon="6.37456">
        <ele>1065</ele>
        <time>2017-12-19T10:20:04Z</time>
      </trkpt>
      <trkpt lat="46.02698" lon="6.37449">
        <ele>1066</ele>
        <time>2017-12-19T10:20:08Z</time>
      </trkpt>
      <trkpt lat="46.02697" lon="6.37448">
        <ele>1066</ele>
        <time>2017-12-19T10:20:09Z</time>
      </trkpt>
      <trkpt lat="46.02697" lon="6.37446">
        <ele>1066</ele>
        <time>2017-12-19T10:20:10Z</time>
      </trkpt>
      <trkpt lat="46.02696" lon="6.3744">
        <ele>1066</ele>
        <time>2017-12-19T10:20:14Z</time>
      </trkpt>
      <trkpt lat="46.02694" lon="6.37434">
        <ele>1067</ele>
        <time>2017-12-19T10:20:18Z</time>
      </trkpt>
      <trkpt lat="46.02692" lon="6.37428">
        <ele>1067</ele>
        <time>2017-12-19T10:20:22Z</time>
      </trkpt>
      <trkpt lat="46.0269" lon="6.37423">
        <ele>1066</ele>
        <time>2017-12-19T10:20:25Z</time>
      </trkpt>
      <trkpt lat="46.02672" lon="6.37413">
        <ele>1070</ele>
        <time>2017-12-19T10:20:39Z</time>
      </trkpt>
      <trkpt lat="46.02663" lon="6.37408">
        <ele>1062</ele>
        <time>2017-12-19T10:20:48Z</time>
      </trkpt>
      <trkpt lat="46.02644" lon="6.37395">
        <ele>1059</ele>
        <time>2017-12-19T10:21:05Z</time>
      </trkpt>
      <trkpt lat="46.0264" lon="6.37387">
        <ele>1059</ele>
        <time>2017-12-19T10:21:12Z</time>
      </trkpt>
      <trkpt lat="46.02639" lon="6.37386">
        <ele>1059</ele>
        <time>2017-12-19T10:21:13Z</time>
      </trkpt>
      <trkpt lat="46.02639" lon="6.37384">
        <ele>1059</ele>
        <time>2017-12-19T10:21:14Z</time>
      </trkpt>
      <trkpt lat="46.02631" lon="6.37359">
        <ele>1061</ele>
        <time>2017-12-19T10:21:31Z</time>
      </trkpt>
      <trkpt lat="46.02633" lon="6.3734">
        <ele>1064</ele>
        <time>2017-12-19T10:21:44Z</time>
      </trkpt>
      <trkpt lat="46.02636" lon="6.37324">
        <ele>1081</ele>
        <time>2017-12-19T10:21:54Z</time>
      </trkpt>
      <trkpt lat="46.02636" lon="6.37322">
        <ele>1081</ele>
        <time>2017-12-19T10:21:55Z</time>
      </trkpt>
      <trkpt lat="46.02636" lon="6.37321">
        <ele>1081</ele>
        <time>2017-12-19T10:21:56Z</time>
      </trkpt>
      <trkpt lat="46.02636" lon="6.37319">
        <ele>1081</ele>
        <time>2017-12-19T10:21:57Z</time>
      </trkpt>
      <trkpt lat="46.02637" lon="6.37318">
        <ele>1081</ele>
        <time>2017-12-19T10:21:58Z</time>
      </trkpt>
      <trkpt lat="46.02637" lon="6.37316">
        <ele>1082</ele>
        <time>2017-12-19T10:21:59Z</time>
      </trkpt>
      <trkpt lat="46.02637" lon="6.37315">
        <ele>1082</ele>
        <time>2017-12-19T10:22:00Z</time>
      </trkpt>
      <trkpt lat="46.02637" lon="6.37313">
        <ele>1082</ele>
        <time>2017-12-19T10:22:01Z</time>
      </trkpt>
      <trkpt lat="46.02638" lon="6.37305">
        <ele>1083</ele>
        <time>2017-12-19T10:22:06Z</time>
      </trkpt>
      <trkpt lat="46.02638" lon="6.37304">
        <ele>1083</ele>
        <time>2017-12-19T10:22:07Z</time>
      </trkpt>
      <trkpt lat="46.02638" lon="6.37302">
        <ele>1083</ele>
        <time>2017-12-19T10:22:08Z</time>
      </trkpt>
      <trkpt lat="46.02638" lon="6.37301">
        <ele>1084</ele>
        <time>2017-12-19T10:22:09Z</time>
      </trkpt>
      <trkpt lat="46.02638" lon="6.37299">
        <ele>1084</ele>
        <time>2017-12-19T10:22:10Z</time>
      </trkpt>
      <trkpt lat="46.02637" lon="6.37298">
        <ele>1084</ele>
        <time>2017-12-19T10:22:11Z</time>
      </trkpt>
      <trkpt lat="46.02637" lon="6.37297">
        <ele>1084</ele>
        <time>2017-12-19T10:22:12Z</time>
      </trkpt>
      <trkpt lat="46.02626" lon="6.37282">
        <ele>1084</ele>
        <time>2017-12-19T10:22:27Z</time>
      </trkpt>
      <trkpt lat="46.02622" lon="6.37274">
        <ele>1085</ele>
        <time>2017-12-19T10:22:33Z</time>
      </trkpt>
      <trkpt lat="46.02621" lon="6.37273">
        <ele>1085</ele>
        <time>2017-12-19T10:22:34Z</time>
      </trkpt>
      <trkpt lat="46.02621" lon="6.37273">
        <ele>1084</ele>
        <time>2017-12-19T10:22:35Z</time>
      </trkpt>
      <trkpt lat="46.0262" lon="6.37271">
        <ele>1085</ele>
        <time>2017-12-19T10:22:36Z</time>
      </trkpt>
      <trkpt lat="46.02619" lon="6.3727">
        <ele>1084</ele>
        <time>2017-12-19T10:22:37Z</time>
      </trkpt>
      <trkpt lat="46.02619" lon="6.37269">
        <ele>1084</ele>
        <time>2017-12-19T10:22:38Z</time>
      </trkpt>
      <trkpt lat="46.02618" lon="6.37268">
        <ele>1084</ele>
        <time>2017-12-19T10:22:39Z</time>
      </trkpt>
      <trkpt lat="46.0261" lon="6.37249">
        <ele>1101</ele>
        <time>2017-12-19T10:22:55Z</time>
      </trkpt>
      <trkpt lat="46.02596" lon="6.37233">
        <ele>1099</ele>
        <time>2017-12-19T10:23:12Z</time>
      </trkpt>
      <trkpt lat="46.02579" lon="6.3723">
        <ele>1082</ele>
        <time>2017-12-19T10:23:29Z</time>
      </trkpt>
      <trkpt lat="46.02567" lon="6.37211">
        <ele>1085</ele>
        <time>2017-12-19T10:23:44Z</time>
      </trkpt>
      <trkpt lat="46.02558" lon="6.37188">
        <ele>1090</ele>
        <time>2017-12-19T10:24:00Z</time>
      </trkpt>
      <trkpt lat="46.02554" lon="6.37166">
        <ele>1114</ele>
        <time>2017-12-19T10:24:15Z</time>
      </trkpt>
      <trkpt lat="46.02552" lon="6.37146">
        <ele>1116</ele>
        <time>2017-12-19T10:24:30Z</time>
      </trkpt>
      <trkpt lat="46.02552" lon="6.37145">
        <ele>1116</ele>
        <time>2017-12-19T10:24:31Z</time>
      </trkpt>
      <trkpt lat="46.02551" lon="6.37144">
        <ele>1116</ele>
        <time>2017-12-19T10:24:32Z</time>
      </trkpt>
      <trkpt lat="46.0255" lon="6.37142">
        <ele>1116</ele>
        <time>2017-12-19T10:24:33Z</time>
      </trkpt>
      <trkpt lat="46.02549" lon="6.37141">
        <ele>1117</ele>
        <time>2017-12-19T10:24:34Z</time>
      </trkpt>
      <trkpt lat="46.02548" lon="6.3714">
        <ele>1116</ele>
        <time>2017-12-19T10:24:35Z</time>
      </trkpt>
      <trkpt lat="46.02548" lon="6.37139">
        <ele>1117</ele>
        <time>2017-12-19T10:24:36Z</time>
      </trkpt>
      <trkpt lat="46.02548" lon="6.37137">
        <ele>1117</ele>
        <time>2017-12-19T10:24:37Z</time>
      </trkpt>
      <trkpt lat="46.02546" lon="6.37135">
        <ele>1117</ele>
        <time>2017-12-19T10:24:39Z</time>
      </trkpt>
      <trkpt lat="46.02546" lon="6.37134">
        <ele>1117</ele>
        <time>2017-12-19T10:24:40Z</time>
      </trkpt>
      <trkpt lat="46.02538" lon="6.37126">
        <ele>1118</ele>
        <time>2017-12-19T10:24:53Z</time>
      </trkpt>
      <trkpt lat="46.02525" lon="6.37114">
        <ele>1118</ele>
        <time>2017-12-19T10:25:08Z</time>
      </trkpt>
      <trkpt lat="46.02514" lon="6.37099">
        <ele>1119</ele>
        <time>2017-12-19T10:25:23Z</time>
      </trkpt>
      <trkpt lat="46.02501" lon="6.37085">
        <ele>1119</ele>
        <time>2017-12-19T10:25:40Z</time>
      </trkpt>
      <trkpt lat="46.02491" lon="6.37071">
        <ele>1121</ele>
        <time>2017-12-19T10:25:55Z</time>
      </trkpt>
      <trkpt lat="46.02485" lon="6.37056">
        <ele>1124</ele>
        <time>2017-12-19T10:26:08Z</time>
      </trkpt>
      <trkpt lat="46.02485" lon="6.37054">
        <ele>1125</ele>
        <time>2017-12-19T10:26:09Z</time>
      </trkpt>
      <trkpt lat="46.02478" lon="6.37044">
        <ele>1127</ele>
        <time>2017-12-19T10:26:21Z</time>
      </trkpt>
      <trkpt lat="46.0247" lon="6.3703">
        <ele>1129</ele>
        <time>2017-12-19T10:26:35Z</time>
      </trkpt>
      <trkpt lat="46.02465" lon="6.37013">
        <ele>1132</ele>
        <time>2017-12-19T10:26:49Z</time>
      </trkpt>
      <trkpt lat="46.02459" lon="6.37">
        <ele>1131</ele>
        <time>2017-12-19T10:27:02Z</time>
      </trkpt>
      <trkpt lat="46.02455" lon="6.36986">
        <ele>1157</ele>
        <time>2017-12-19T10:27:15Z</time>
      </trkpt>
      <trkpt lat="46.02449" lon="6.36972">
        <ele>1158</ele>
        <time>2017-12-19T10:27:28Z</time>
      </trkpt>
      <trkpt lat="46.02448" lon="6.36967">
        <ele>1159</ele>
        <time>2017-12-19T10:27:33Z</time>
      </trkpt>
      <trkpt lat="46.02448" lon="6.36966">
        <ele>1160</ele>
        <time>2017-12-19T10:27:34Z</time>
      </trkpt>
      <trkpt lat="46.02448" lon="6.36964">
        <ele>1160</ele>
        <time>2017-12-19T10:27:35Z</time>
      </trkpt>
      <trkpt lat="46.02447" lon="6.36963">
        <ele>1160</ele>
        <time>2017-12-19T10:27:36Z</time>
      </trkpt>
      <trkpt lat="46.02445" lon="6.36953">
        <ele>1162</ele>
        <time>2017-12-19T10:27:44Z</time>
      </trkpt>
      <trkpt lat="46.02444" lon="6.36952">
        <ele>1162</ele>
        <time>2017-12-19T10:27:45Z</time>
      </trkpt>
      <trkpt lat="46.02437" lon="6.36939">
        <ele>1163</ele>
        <time>2017-12-19T10:27:59Z</time>
      </trkpt>
      <trkpt lat="46.02437" lon="6.36934">
        <ele>1164</ele>
        <time>2017-12-19T10:28:04Z</time>
      </trkpt>
      <trkpt lat="46.02435" lon="6.36932">
        <ele>1164</ele>
        <time>2017-12-19T10:28:06Z</time>
      </trkpt>
      <trkpt lat="46.02435" lon="6.36931">
        <ele>1164</ele>
        <time>2017-12-19T10:28:07Z</time>
      </trkpt>
      <trkpt lat="46.02434" lon="6.36929">
        <ele>1164</ele>
        <time>2017-12-19T10:28:09Z</time>
      </trkpt>
      <trkpt lat="46.02434" lon="6.36925">
        <ele>1164</ele>
        <time>2017-12-19T10:28:12Z</time>
      </trkpt>
      <trkpt lat="46.02433" lon="6.36923">
        <ele>1164</ele>
        <time>2017-12-19T10:28:14Z</time>
      </trkpt>
      <trkpt lat="46.02433" lon="6.36921">
        <ele>1164</ele>
        <time>2017-12-19T10:28:15Z</time>
      </trkpt>
      <trkpt lat="46.02432" lon="6.36919">
        <ele>1164</ele>
        <time>2017-12-19T10:28:17Z</time>
      </trkpt>
      <trkpt lat="46.02431" lon="6.36912">
        <ele>1179</ele>
        <time>2017-12-19T10:28:23Z</time>
      </trkpt>
      <trkpt lat="46.02431" lon="6.36908">
        <ele>1181</ele>
        <time>2017-12-19T10:28:26Z</time>
      </trkpt>
      <trkpt lat="46.0243" lon="6.36906">
        <ele>1181</ele>
        <time>2017-12-19T10:28:28Z</time>
      </trkpt>
      <trkpt lat="46.02429" lon="6.36906">
        <ele>1181</ele>
        <time>2017-12-19T10:28:29Z</time>
      </trkpt>
      <trkpt lat="46.02423" lon="6.36899">
        <ele>1182</ele>
        <time>2017-12-19T10:28:38Z</time>
      </trkpt>
      <trkpt lat="46.02422" lon="6.36898">
        <ele>1182</ele>
        <time>2017-12-19T10:28:39Z</time>
      </trkpt>
      <trkpt lat="46.02415" lon="6.36889">
        <ele>1174</ele>
        <time>2017-12-19T10:28:49Z</time>
      </trkpt>
      <trkpt lat="46.02413" lon="6.36888">
        <ele>1175</ele>
        <time>2017-12-19T10:28:50Z</time>
      </trkpt>
      <trkpt lat="46.02403" lon="6.36877">
        <ele>1178</ele>
        <time>2017-12-19T10:29:03Z</time>
      </trkpt>
      <trkpt lat="46.02402" lon="6.36874">
        <ele>1179</ele>
        <time>2017-12-19T10:29:06Z</time>
      </trkpt>
      <trkpt lat="46.02403" lon="6.36872">
        <ele>1179</ele>
        <time>2017-12-19T10:29:08Z</time>
      </trkpt>
      <trkpt lat="46.02402" lon="6.3687">
        <ele>1180</ele>
        <time>2017-12-19T10:29:09Z</time>
      </trkpt>
      <trkpt lat="46.024" lon="6.36869">
        <ele>1180</ele>
        <time>2017-12-19T10:29:11Z</time>
      </trkpt>
      <trkpt lat="46.02397" lon="6.36868">
        <ele>1180</ele>
        <time>2017-12-19T10:29:13Z</time>
      </trkpt>
      <trkpt lat="46.02396" lon="6.36868">
        <ele>1180</ele>
        <time>2017-12-19T10:29:14Z</time>
      </trkpt>
      <trkpt lat="46.02394" lon="6.36868">
        <ele>1180</ele>
        <time>2017-12-19T10:29:15Z</time>
      </trkpt>
      <trkpt lat="46.02394" lon="6.36867">
        <ele>1180</ele>
        <time>2017-12-19T10:29:16Z</time>
      </trkpt>
      <trkpt lat="46.02393" lon="6.36866">
        <ele>1180</ele>
        <time>2017-12-19T10:29:17Z</time>
      </trkpt>
      <trkpt lat="46.02393" lon="6.36864">
        <ele>1181</ele>
        <time>2017-12-19T10:29:18Z</time>
      </trkpt>
      <trkpt lat="46.02392" lon="6.36863">
        <ele>1181</ele>
        <time>2017-12-19T10:29:19Z</time>
      </trkpt>
      <trkpt lat="46.02387" lon="6.36852">
        <ele>1183</ele>
        <time>2017-12-19T10:29:29Z</time>
      </trkpt>
      <trkpt lat="46.02385" lon="6.3685">
        <ele>1183</ele>
        <time>2017-12-19T10:29:31Z</time>
      </trkpt>
      <trkpt lat="46.02386" lon="6.36849">
        <ele>1183</ele>
        <time>2017-12-19T10:29:32Z</time>
      </trkpt>
      <trkpt lat="46.02383" lon="6.36847">
        <ele>1183</ele>
        <time>2017-12-19T10:29:34Z</time>
      </trkpt>
      <trkpt lat="46.02381" lon="6.36845">
        <ele>1183</ele>
        <time>2017-12-19T10:29:37Z</time>
      </trkpt>
      <trkpt lat="46.0238" lon="6.36845">
        <ele>1183</ele>
        <time>2017-12-19T10:29:38Z</time>
      </trkpt>
      <trkpt lat="46.0238" lon="6.36844">
        <ele>1183</ele>
        <time>2017-12-19T10:29:39Z</time>
      </trkpt>
      <trkpt lat="46.0238" lon="6.36843">
        <ele>1183</ele>
        <time>2017-12-19T10:29:40Z</time>
      </trkpt>
      <trkpt lat="46.02379" lon="6.36841">
        <ele>1184</ele>
        <time>2017-12-19T10:29:42Z</time>
      </trkpt>
      <trkpt lat="46.02378" lon="6.3684">
        <ele>1184</ele>
        <time>2017-12-19T10:29:43Z</time>
      </trkpt>
      <trkpt lat="46.02377" lon="6.3684">
        <ele>1184</ele>
        <time>2017-12-19T10:29:44Z</time>
      </trkpt>
      <trkpt lat="46.02376" lon="6.36839">
        <ele>1184</ele>
        <time>2017-12-19T10:29:45Z</time>
      </trkpt>
      <trkpt lat="46.02375" lon="6.36838">
        <ele>1184</ele>
        <time>2017-12-19T10:29:46Z</time>
      </trkpt>
      <trkpt lat="46.02376" lon="6.36837">
        <ele>1184</ele>
        <time>2017-12-19T10:29:47Z</time>
      </trkpt>
      <trkpt lat="46.02376" lon="6.36836">
        <ele>1184</ele>
        <time>2017-12-19T10:29:48Z</time>
      </trkpt>
      <trkpt lat="46.02373" lon="6.36835">
        <ele>1184</ele>
        <time>2017-12-19T10:29:50Z</time>
      </trkpt>
      <trkpt lat="46.02373" lon="6.36833">
        <ele>1198</ele>
        <time>2017-12-19T10:29:51Z</time>
      </trkpt>
      <trkpt lat="46.02372" lon="6.36832">
        <ele>1198</ele>
        <time>2017-12-19T10:29:52Z</time>
      </trkpt>
      <trkpt lat="46.02374" lon="6.36827">
        <ele>1199</ele>
        <time>2017-12-19T10:29:56Z</time>
      </trkpt>
      <trkpt lat="46.02374" lon="6.36824">
        <ele>1199</ele>
        <time>2017-12-19T10:29:58Z</time>
      </trkpt>
      <trkpt lat="46.02373" lon="6.36822">
        <ele>1199</ele>
        <time>2017-12-19T10:30:00Z</time>
      </trkpt>
      <trkpt lat="46.02372" lon="6.36821">
        <ele>1199</ele>
        <time>2017-12-19T10:30:01Z</time>
      </trkpt>
      <trkpt lat="46.02372" lon="6.36819">
        <ele>1199</ele>
        <time>2017-12-19T10:30:03Z</time>
      </trkpt>
      <trkpt lat="46.02372" lon="6.36815">
        <ele>1200</ele>
        <time>2017-12-19T10:30:06Z</time>
      </trkpt>
      <trkpt lat="46.02371" lon="6.36814">
        <ele>1200</ele>
        <time>2017-12-19T10:30:08Z</time>
      </trkpt>
      <trkpt lat="46.0237" lon="6.36811">
        <ele>1200</ele>
        <time>2017-12-19T10:30:11Z</time>
      </trkpt>
      <trkpt lat="46.02367" lon="6.3681">
        <ele>1200</ele>
        <time>2017-12-19T10:30:13Z</time>
      </trkpt>
      <trkpt lat="46.02366" lon="6.36809">
        <ele>1200</ele>
        <time>2017-12-19T10:30:14Z</time>
      </trkpt>
      <trkpt lat="46.02367" lon="6.36805">
        <ele>1200</ele>
        <time>2017-12-19T10:30:16Z</time>
      </trkpt>
      <trkpt lat="46.02369" lon="6.36803">
        <ele>1200</ele>
        <time>2017-12-19T10:30:17Z</time>
      </trkpt>
      <trkpt lat="46.0237" lon="6.36802">
        <ele>1201</ele>
        <time>2017-12-19T10:30:18Z</time>
      </trkpt>
      <trkpt lat="46.0237" lon="6.368">
        <ele>1201</ele>
        <time>2017-12-19T10:30:19Z</time>
      </trkpt>
      <trkpt lat="46.0237" lon="6.36799">
        <ele>1201</ele>
        <time>2017-12-19T10:30:20Z</time>
      </trkpt>
      <trkpt lat="46.02369" lon="6.36798">
        <ele>1201</ele>
        <time>2017-12-19T10:30:21Z</time>
      </trkpt>
      <trkpt lat="46.02368" lon="6.36797">
        <ele>1201</ele>
        <time>2017-12-19T10:30:22Z</time>
      </trkpt>
      <trkpt lat="46.02366" lon="6.36795">
        <ele>1201</ele>
        <time>2017-12-19T10:30:24Z</time>
      </trkpt>
      <trkpt lat="46.02363" lon="6.36792">
        <ele>1201</ele>
        <time>2017-12-19T10:30:27Z</time>
      </trkpt>
      <trkpt lat="46.0236" lon="6.36792">
        <ele>1201</ele>
        <time>2017-12-19T10:30:29Z</time>
      </trkpt>
      <trkpt lat="46.02358" lon="6.36791">
        <ele>1201</ele>
        <time>2017-12-19T10:30:30Z</time>
      </trkpt>
      <trkpt lat="46.02357" lon="6.3679">
        <ele>1201</ele>
        <time>2017-12-19T10:30:32Z</time>
      </trkpt>
      <trkpt lat="46.02354" lon="6.36789">
        <ele>1201</ele>
        <time>2017-12-19T10:30:34Z</time>
      </trkpt>
      <trkpt lat="46.02343" lon="6.36776">
        <ele>1201</ele>
        <time>2017-12-19T10:30:46Z</time>
      </trkpt>
      <trkpt lat="46.02342" lon="6.36775">
        <ele>1201</ele>
        <time>2017-12-19T10:30:47Z</time>
      </trkpt>
      <trkpt lat="46.02342" lon="6.36772">
        <ele>1201</ele>
        <time>2017-12-19T10:30:49Z</time>
      </trkpt>
      <trkpt lat="46.02342" lon="6.36771">
        <ele>1201</ele>
        <time>2017-12-19T10:30:50Z</time>
      </trkpt>
      <trkpt lat="46.02341" lon="6.3677">
        <ele>1201</ele>
        <time>2017-12-19T10:30:51Z</time>
      </trkpt>
      <trkpt lat="46.02341" lon="6.36768">
        <ele>1201</ele>
        <time>2017-12-19T10:30:52Z</time>
      </trkpt>
      <trkpt lat="46.0234" lon="6.36767">
        <ele>1201</ele>
        <time>2017-12-19T10:30:53Z</time>
      </trkpt>
      <trkpt lat="46.0234" lon="6.36766">
        <ele>1201</ele>
        <time>2017-12-19T10:30:54Z</time>
      </trkpt>
      <trkpt lat="46.02338" lon="6.3676">
        <ele>1200</ele>
        <time>2017-12-19T10:30:59Z</time>
      </trkpt>
      <trkpt lat="46.02338" lon="6.36758">
        <ele>1200</ele>
        <time>2017-12-19T10:31:00Z</time>
      </trkpt>
      <trkpt lat="46.02333" lon="6.36751">
        <ele>1200</ele>
        <time>2017-12-19T10:31:05Z</time>
      </trkpt>
      <trkpt lat="46.02332" lon="6.3675">
        <ele>1201</ele>
        <time>2017-12-19T10:31:06Z</time>
      </trkpt>
      <trkpt lat="46.02314" lon="6.36729">
        <ele>1215</ele>
        <time>2017-12-19T10:31:24Z</time>
      </trkpt>
      <trkpt lat="46.02314" lon="6.36725">
        <ele>1216</ele>
        <time>2017-12-19T10:31:26Z</time>
      </trkpt>
      <trkpt lat="46.02315" lon="6.36722">
        <ele>1216</ele>
        <time>2017-12-19T10:31:27Z</time>
      </trkpt>
      <trkpt lat="46.02313" lon="6.36721">
        <ele>1217</ele>
        <time>2017-12-19T10:31:28Z</time>
      </trkpt>
      <trkpt lat="46.02311" lon="6.36718">
        <ele>1218</ele>
        <time>2017-12-19T10:31:31Z</time>
      </trkpt>
      <trkpt lat="46.0231" lon="6.36717">
        <ele>1218</ele>
        <time>2017-12-19T10:31:32Z</time>
      </trkpt>
      <trkpt lat="46.02309" lon="6.36716">
        <ele>1218</ele>
        <time>2017-12-19T10:31:33Z</time>
      </trkpt>
      <trkpt lat="46.02308" lon="6.36714">
        <ele>1218</ele>
        <time>2017-12-19T10:31:34Z</time>
      </trkpt>
      <trkpt lat="46.02308" lon="6.36713">
        <ele>1219</ele>
        <time>2017-12-19T10:31:35Z</time>
      </trkpt>
      <trkpt lat="46.02307" lon="6.36712">
        <ele>1219</ele>
        <time>2017-12-19T10:31:36Z</time>
      </trkpt>
      <trkpt lat="46.02307" lon="6.36711">
        <ele>1219</ele>
        <time>2017-12-19T10:31:37Z</time>
      </trkpt>
      <trkpt lat="46.02308" lon="6.36687">
        <ele>1221</ele>
        <time>2017-12-19T10:31:58Z</time>
      </trkpt>
      <trkpt lat="46.02309" lon="6.36688">
        <ele>1221</ele>
        <time>2017-12-19T10:31:59Z</time>
      </trkpt>
      <trkpt lat="46.0231" lon="6.36688">
        <ele>1221</ele>
        <time>2017-12-19T10:32:00Z</time>
      </trkpt>
      <trkpt lat="46.02312" lon="6.36689">
        <ele>1221</ele>
        <time>2017-12-19T10:32:02Z</time>
      </trkpt>
      <trkpt lat="46.02314" lon="6.36691">
        <ele>1221</ele>
        <time>2017-12-19T10:32:05Z</time>
      </trkpt>
      <trkpt lat="46.02314" lon="6.36693">
        <ele>1221</ele>
        <time>2017-12-19T10:32:06Z</time>
      </trkpt>
      <trkpt lat="46.02314" lon="6.36694">
        <ele>1220</ele>
        <time>2017-12-19T10:32:07Z</time>
      </trkpt>
      <trkpt lat="46.02314" lon="6.36695">
        <ele>1220</ele>
        <time>2017-12-19T10:32:08Z</time>
      </trkpt>
      <trkpt lat="46.02315" lon="6.36709">
        <ele>1219</ele>
        <time>2017-12-19T10:32:18Z</time>
      </trkpt>
      <trkpt lat="46.02316" lon="6.3671">
        <ele>1218</ele>
        <time>2017-12-19T10:32:19Z</time>
      </trkpt>
      <trkpt lat="46.02318" lon="6.36715">
        <ele>1217</ele>
        <time>2017-12-19T10:32:24Z</time>
      </trkpt>
      <trkpt lat="46.02318" lon="6.36717">
        <ele>1217</ele>
        <time>2017-12-19T10:32:25Z</time>
      </trkpt>
      <trkpt lat="46.02318" lon="6.3672">
        <ele>1216</ele>
        <time>2017-12-19T10:32:28Z</time>
      </trkpt>
      <trkpt lat="46.02318" lon="6.36741">
        <ele>1211</ele>
        <time>2017-12-19T10:32:42Z</time>
      </trkpt>
      <trkpt lat="46.02318" lon="6.36764">
        <ele>1209</ele>
        <time>2017-12-19T10:32:58Z</time>
      </trkpt>
      <trkpt lat="46.02318" lon="6.36783">
        <ele>1211</ele>
        <time>2017-12-19T10:33:13Z</time>
      </trkpt>
      <trkpt lat="46.02316" lon="6.36801">
        <ele>1211</ele>
        <time>2017-12-19T10:33:25Z</time>
      </trkpt>
      <trkpt lat="46.02308" lon="6.36825">
        <ele>1210</ele>
        <time>2017-12-19T10:33:40Z</time>
      </trkpt>
      <trkpt lat="46.02302" lon="6.36845">
        <ele>1207</ele>
        <time>2017-12-19T10:33:55Z</time>
      </trkpt>
      <trkpt lat="46.02291" lon="6.36866">
        <ele>1209</ele>
        <time>2017-12-19T10:34:10Z</time>
      </trkpt>
      <trkpt lat="46.02281" lon="6.36885">
        <ele>1211</ele>
        <time>2017-12-19T10:34:27Z</time>
      </trkpt>
      <trkpt lat="46.02269" lon="6.36899">
        <ele>1216</ele>
        <time>2017-12-19T10:34:41Z</time>
      </trkpt>
      <trkpt lat="46.02261" lon="6.36919">
        <ele>1218</ele>
        <time>2017-12-19T10:34:58Z</time>
      </trkpt>
      <trkpt lat="46.02252" lon="6.36934">
        <ele>1213</ele>
        <time>2017-12-19T10:35:14Z</time>
      </trkpt>
      <trkpt lat="46.02249" lon="6.36936">
        <ele>1236</ele>
        <time>2017-12-19T10:35:17Z</time>
      </trkpt>
      <trkpt lat="46.0224" lon="6.36963">
        <ele>1236</ele>
        <time>2017-12-19T10:35:35Z</time>
      </trkpt>
      <trkpt lat="46.02238" lon="6.36983">
        <ele>1234</ele>
        <time>2017-12-19T10:35:51Z</time>
      </trkpt>
      <trkpt lat="46.02232" lon="6.37004">
        <ele>1230</ele>
        <time>2017-12-19T10:36:09Z</time>
      </trkpt>
      <trkpt lat="46.02226" lon="6.37007">
        <ele>1231</ele>
        <time>2017-12-19T10:36:18Z</time>
      </trkpt>
      <trkpt lat="46.02225" lon="6.37008">
        <ele>1231</ele>
        <time>2017-12-19T10:36:25Z</time>
      </trkpt>
      <trkpt lat="46.02225" lon="6.37009">
        <ele>1231</ele>
        <time>2017-12-19T10:36:29Z</time>
      </trkpt>
      <trkpt lat="46.02224" lon="6.37011">
        <ele>1231</ele>
        <time>2017-12-19T10:36:34Z</time>
      </trkpt>
      <trkpt lat="46.02224" lon="6.37012">
        <ele>1232</ele>
        <time>2017-12-19T10:36:38Z</time>
      </trkpt>
      <trkpt lat="46.02225" lon="6.37011">
        <ele>1231</ele>
        <time>2017-12-19T10:36:42Z</time>
      </trkpt>
      <trkpt lat="46.02225" lon="6.37011">
        <ele>1231</ele>
        <time>2017-12-19T10:36:47Z</time>
      </trkpt>
      <trkpt lat="46.02224" lon="6.37011">
        <ele>1231</ele>
        <time>2017-12-19T10:36:52Z</time>
      </trkpt>
      <trkpt lat="46.02224" lon="6.37011">
        <ele>1231</ele>
        <time>2017-12-19T10:37:02Z</time>
      </trkpt>
      <trkpt lat="46.02225" lon="6.3701">
        <ele>1231</ele>
        <time>2017-12-19T10:37:07Z</time>
      </trkpt>
      <trkpt lat="46.02226" lon="6.37003">
        <ele>1231</ele>
        <time>2017-12-19T10:37:34Z</time>
      </trkpt>
      <trkpt lat="46.02226" lon="6.36996">
        <ele>1235</ele>
        <time>2017-12-19T10:37:38Z</time>
      </trkpt>
      <trkpt lat="46.02222" lon="6.36976">
        <ele>1238</ele>
        <time>2017-12-19T10:37:53Z</time>
      </trkpt>
      <trkpt lat="46.0222" lon="6.36971">
        <ele>1238</ele>
        <time>2017-12-19T10:37:57Z</time>
      </trkpt>
      <trkpt lat="46.02215" lon="6.36968">
        <ele>1239</ele>
        <time>2017-12-19T10:38:01Z</time>
      </trkpt>
      <trkpt lat="46.02213" lon="6.36964">
        <ele>1239</ele>
        <time>2017-12-19T10:38:04Z</time>
      </trkpt>
      <trkpt lat="46.02211" lon="6.36957">
        <ele>1240</ele>
        <time>2017-12-19T10:38:09Z</time>
      </trkpt>
      <trkpt lat="46.02209" lon="6.36948">
        <ele>1240</ele>
        <time>2017-12-19T10:38:15Z</time>
      </trkpt>
      <trkpt lat="46.02207" lon="6.36943">
        <ele>1241</ele>
        <time>2017-12-19T10:38:19Z</time>
      </trkpt>
      <trkpt lat="46.02202" lon="6.36934">
        <ele>1242</ele>
        <time>2017-12-19T10:38:26Z</time>
      </trkpt>
      <trkpt lat="46.02192" lon="6.36913">
        <ele>1246</ele>
        <time>2017-12-19T10:38:44Z</time>
      </trkpt>
      <trkpt lat="46.02183" lon="6.36901">
        <ele>1247</ele>
        <time>2017-12-19T10:38:57Z</time>
      </trkpt>
      <trkpt lat="46.02181" lon="6.3689">
        <ele>1247</ele>
        <time>2017-12-19T10:39:06Z</time>
      </trkpt>
      <trkpt lat="46.02178" lon="6.36876">
        <ele>1247</ele>
        <time>2017-12-19T10:39:18Z</time>
      </trkpt>
      <trkpt lat="46.02176" lon="6.36867">
        <ele>1248</ele>
        <time>2017-12-19T10:39:26Z</time>
      </trkpt>
      <trkpt lat="46.02176" lon="6.36866">
        <ele>1248</ele>
        <time>2017-12-19T10:39:27Z</time>
      </trkpt>
      <trkpt lat="46.02176" lon="6.36865">
        <ele>1248</ele>
        <time>2017-12-19T10:39:28Z</time>
      </trkpt>
      <trkpt lat="46.02175" lon="6.36863">
        <ele>1248</ele>
        <time>2017-12-19T10:39:29Z</time>
      </trkpt>
      <trkpt lat="46.02172" lon="6.36844">
        <ele>1251</ele>
        <time>2017-12-19T10:39:43Z</time>
      </trkpt>
      <trkpt lat="46.02172" lon="6.36842">
        <ele>1251</ele>
        <time>2017-12-19T10:39:44Z</time>
      </trkpt>
      <trkpt lat="46.02168" lon="6.36821">
        <ele>1252</ele>
        <time>2017-12-19T10:40:01Z</time>
      </trkpt>
      <trkpt lat="46.02163" lon="6.36808">
        <ele>1264</ele>
        <time>2017-12-19T10:40:14Z</time>
      </trkpt>
      <trkpt lat="46.02155" lon="6.36797">
        <ele>1266</ele>
        <time>2017-12-19T10:40:26Z</time>
      </trkpt>
      <trkpt lat="46.02149" lon="6.36789">
        <ele>1268</ele>
        <time>2017-12-19T10:40:35Z</time>
      </trkpt>
      <trkpt lat="46.02144" lon="6.3678">
        <ele>1269</ele>
        <time>2017-12-19T10:40:44Z</time>
      </trkpt>
      <trkpt lat="46.02137" lon="6.36767">
        <ele>1270</ele>
        <time>2017-12-19T10:40:57Z</time>
      </trkpt>
      <trkpt lat="46.02131" lon="6.36759">
        <ele>1272</ele>
        <time>2017-12-19T10:41:10Z</time>
      </trkpt>
      <trkpt lat="46.0213" lon="6.36762">
        <ele>1272</ele>
        <time>2017-12-19T10:41:12Z</time>
      </trkpt>
      <trkpt lat="46.02122" lon="6.36776">
        <ele>1273</ele>
        <time>2017-12-19T10:41:27Z</time>
      </trkpt>
      <trkpt lat="46.02117" lon="6.36783">
        <ele>1273</ele>
        <time>2017-12-19T10:41:36Z</time>
      </trkpt>
      <trkpt lat="46.02116" lon="6.36783">
        <ele>1273</ele>
        <time>2017-12-19T10:41:38Z</time>
      </trkpt>
      <trkpt lat="46.02115" lon="6.36783">
        <ele>1274</ele>
        <time>2017-12-19T10:41:39Z</time>
      </trkpt>
      <trkpt lat="46.02113" lon="6.36777">
        <ele>1275</ele>
        <time>2017-12-19T10:41:45Z</time>
      </trkpt>
      <trkpt lat="46.02113" lon="6.3676">
        <ele>1277</ele>
        <time>2017-12-19T10:41:59Z</time>
      </trkpt>
      <trkpt lat="46.02108" lon="6.36751">
        <ele>1280</ele>
        <time>2017-12-19T10:42:10Z</time>
      </trkpt>
      <trkpt lat="46.02108" lon="6.36738">
        <ele>1285</ele>
        <time>2017-12-19T10:42:27Z</time>
      </trkpt>
      <trkpt lat="46.02106" lon="6.36726">
        <ele>1285</ele>
        <time>2017-12-19T10:42:39Z</time>
      </trkpt>
      <trkpt lat="46.02102" lon="6.36711">
        <ele>1286</ele>
        <time>2017-12-19T10:42:49Z</time>
      </trkpt>
      <trkpt lat="46.02099" lon="6.36669">
        <ele>1294</ele>
        <time>2017-12-19T10:43:08Z</time>
      </trkpt>
      <trkpt lat="46.02099" lon="6.36667">
        <ele>1294</ele>
        <time>2017-12-19T10:43:09Z</time>
      </trkpt>
      <trkpt lat="46.02099" lon="6.36665">
        <ele>1298</ele>
        <time>2017-12-19T10:43:10Z</time>
      </trkpt>
      <trkpt lat="46.02093" lon="6.36646">
        <ele>1297</ele>
        <time>2017-12-19T10:43:23Z</time>
      </trkpt>
      <trkpt lat="46.02092" lon="6.36642">
        <ele>1297</ele>
        <time>2017-12-19T10:43:26Z</time>
      </trkpt>
      <trkpt lat="46.02087" lon="6.3662">
        <ele>1298</ele>
        <time>2017-12-19T10:43:43Z</time>
      </trkpt>
      <trkpt lat="46.02088" lon="6.36613">
        <ele>1299</ele>
        <time>2017-12-19T10:43:48Z</time>
      </trkpt>
      <trkpt lat="46.02088" lon="6.36611">
        <ele>1299</ele>
        <time>2017-12-19T10:43:49Z</time>
      </trkpt>
      <trkpt lat="46.02085" lon="6.36604">
        <ele>1302</ele>
        <time>2017-12-19T10:43:54Z</time>
      </trkpt>
      <trkpt lat="46.02084" lon="6.36593">
        <ele>1308</ele>
        <time>2017-12-19T10:44:00Z</time>
      </trkpt>
      <trkpt lat="46.02081" lon="6.36573">
        <ele>1325</ele>
        <time>2017-12-19T10:44:14Z</time>
      </trkpt>
      <trkpt lat="46.0208" lon="6.3657">
        <ele>1327</ele>
        <time>2017-12-19T10:44:16Z</time>
      </trkpt>
      <trkpt lat="46.0208" lon="6.3657">
        <ele>1327</ele>
        <time>2017-12-19T10:44:17Z</time>
      </trkpt>
      <trkpt lat="46.02078" lon="6.36569">
        <ele>1328</ele>
        <time>2017-12-19T10:44:18Z</time>
      </trkpt>
      <trkpt lat="46.02076" lon="6.36561">
        <ele>1331</ele>
        <time>2017-12-19T10:44:23Z</time>
      </trkpt>
      <trkpt lat="46.02077" lon="6.36559">
        <ele>1331</ele>
        <time>2017-12-19T10:44:24Z</time>
      </trkpt>
      <trkpt lat="46.02077" lon="6.36558">
        <ele>1331</ele>
        <time>2017-12-19T10:44:25Z</time>
      </trkpt>
      <trkpt lat="46.02075" lon="6.36557">
        <ele>1332</ele>
        <time>2017-12-19T10:44:26Z</time>
      </trkpt>
      <trkpt lat="46.02074" lon="6.36555">
        <ele>1332</ele>
        <time>2017-12-19T10:44:27Z</time>
      </trkpt>
      <trkpt lat="46.0207" lon="6.36535">
        <ele>1334</ele>
        <time>2017-12-19T10:44:40Z</time>
      </trkpt>
      <trkpt lat="46.02072" lon="6.36521">
        <ele>1332</ele>
        <time>2017-12-19T10:44:50Z</time>
      </trkpt>
      <trkpt lat="46.02072" lon="6.3652">
        <ele>1332</ele>
        <time>2017-12-19T10:44:51Z</time>
      </trkpt>
      <trkpt lat="46.02072" lon="6.36519">
        <ele>1332</ele>
        <time>2017-12-19T10:44:52Z</time>
      </trkpt>
      <trkpt lat="46.02071" lon="6.36517">
        <ele>1332</ele>
        <time>2017-12-19T10:44:53Z</time>
      </trkpt>
      <trkpt lat="46.02068" lon="6.36514">
        <ele>1332</ele>
        <time>2017-12-19T10:44:58Z</time>
      </trkpt>
      <trkpt lat="46.02069" lon="6.36511">
        <ele>1332</ele>
        <time>2017-12-19T10:45:00Z</time>
      </trkpt>
      <trkpt lat="46.02062" lon="6.36506">
        <ele>1334</ele>
        <time>2017-12-19T10:45:07Z</time>
      </trkpt>
      <trkpt lat="46.0206" lon="6.36501">
        <ele>1334</ele>
        <time>2017-12-19T10:45:10Z</time>
      </trkpt>
      <trkpt lat="46.0206" lon="6.365">
        <ele>1336</ele>
        <time>2017-12-19T10:45:11Z</time>
      </trkpt>
      <trkpt lat="46.0206" lon="6.36498">
        <ele>1336</ele>
        <time>2017-12-19T10:45:12Z</time>
      </trkpt>
      <trkpt lat="46.0206" lon="6.36497">
        <ele>1336</ele>
        <time>2017-12-19T10:45:13Z</time>
      </trkpt>
      <trkpt lat="46.02061" lon="6.36491">
        <ele>1336</ele>
        <time>2017-12-19T10:45:17Z</time>
      </trkpt>
      <trkpt lat="46.02061" lon="6.36489">
        <ele>1336</ele>
        <time>2017-12-19T10:45:18Z</time>
      </trkpt>
      <trkpt lat="46.02061" lon="6.36488">
        <ele>1336</ele>
        <time>2017-12-19T10:45:19Z</time>
      </trkpt>
      <trkpt lat="46.02061" lon="6.36486">
        <ele>1336</ele>
        <time>2017-12-19T10:45:20Z</time>
      </trkpt>
      <trkpt lat="46.02061" lon="6.36485">
        <ele>1337</ele>
        <time>2017-12-19T10:45:21Z</time>
      </trkpt>
      <trkpt lat="46.0206" lon="6.36483">
        <ele>1337</ele>
        <time>2017-12-19T10:45:22Z</time>
      </trkpt>
      <trkpt lat="46.02061" lon="6.36482">
        <ele>1337</ele>
        <time>2017-12-19T10:45:23Z</time>
      </trkpt>
      <trkpt lat="46.02061" lon="6.36481">
        <ele>1337</ele>
        <time>2017-12-19T10:45:24Z</time>
      </trkpt>
      <trkpt lat="46.02062" lon="6.3648">
        <ele>1337</ele>
        <time>2017-12-19T10:45:25Z</time>
      </trkpt>
      <trkpt lat="46.02062" lon="6.36478">
        <ele>1337</ele>
        <time>2017-12-19T10:45:26Z</time>
      </trkpt>
      <trkpt lat="46.02062" lon="6.36477">
        <ele>1337</ele>
        <time>2017-12-19T10:45:27Z</time>
      </trkpt>
      <trkpt lat="46.02061" lon="6.36472">
        <ele>1338</ele>
        <time>2017-12-19T10:45:30Z</time>
      </trkpt>
      <trkpt lat="46.02062" lon="6.36468">
        <ele>1338</ele>
        <time>2017-12-19T10:45:33Z</time>
      </trkpt>
      <trkpt lat="46.02062" lon="6.36466">
        <ele>1339</ele>
        <time>2017-12-19T10:45:34Z</time>
      </trkpt>
      <trkpt lat="46.02062" lon="6.36454">
        <ele>1339</ele>
        <time>2017-12-19T10:45:41Z</time>
      </trkpt>
      <trkpt lat="46.02061" lon="6.36453">
        <ele>1339</ele>
        <time>2017-12-19T10:45:42Z</time>
      </trkpt>
      <trkpt lat="46.02058" lon="6.36449">
        <ele>1340</ele>
        <time>2017-12-19T10:45:48Z</time>
      </trkpt>
      <trkpt lat="46.02057" lon="6.36444">
        <ele>1340</ele>
        <time>2017-12-19T10:45:52Z</time>
      </trkpt>
      <trkpt lat="46.02056" lon="6.36438">
        <ele>1340</ele>
        <time>2017-12-19T10:45:56Z</time>
      </trkpt>
      <trkpt lat="46.02056" lon="6.36436">
        <ele>1340</ele>
        <time>2017-12-19T10:45:57Z</time>
      </trkpt>
      <trkpt lat="46.02057" lon="6.36434">
        <ele>1339</ele>
        <time>2017-12-19T10:45:58Z</time>
      </trkpt>
      <trkpt lat="46.02057" lon="6.36432">
        <ele>1339</ele>
        <time>2017-12-19T10:45:59Z</time>
      </trkpt>
      <trkpt lat="46.02057" lon="6.3643">
        <ele>1339</ele>
        <time>2017-12-19T10:46:00Z</time>
      </trkpt>
      <trkpt lat="46.02055" lon="6.36424">
        <ele>1340</ele>
        <time>2017-12-19T10:46:04Z</time>
      </trkpt>
      <trkpt lat="46.02055" lon="6.36423">
        <ele>1339</ele>
        <time>2017-12-19T10:46:05Z</time>
      </trkpt>
      <trkpt lat="46.02053" lon="6.36421">
        <ele>1340</ele>
        <time>2017-12-19T10:46:07Z</time>
      </trkpt>
      <trkpt lat="46.02054" lon="6.3642">
        <ele>1340</ele>
        <time>2017-12-19T10:46:08Z</time>
      </trkpt>
      <trkpt lat="46.02055" lon="6.36419">
        <ele>1339</ele>
        <time>2017-12-19T10:46:09Z</time>
      </trkpt>
      <trkpt lat="46.02055" lon="6.36417">
        <ele>1339</ele>
        <time>2017-12-19T10:46:10Z</time>
      </trkpt>
      <trkpt lat="46.02055" lon="6.36416">
        <ele>1338</ele>
        <time>2017-12-19T10:46:11Z</time>
      </trkpt>
      <trkpt lat="46.02055" lon="6.36403">
        <ele>1338</ele>
        <time>2017-12-19T10:46:20Z</time>
      </trkpt>
      <trkpt lat="46.02056" lon="6.36401">
        <ele>1338</ele>
        <time>2017-12-19T10:46:21Z</time>
      </trkpt>
      <trkpt lat="46.02056" lon="6.36399">
        <ele>1339</ele>
        <time>2017-12-19T10:46:23Z</time>
      </trkpt>
      <trkpt lat="46.02058" lon="6.36394">
        <ele>1338</ele>
        <time>2017-12-19T10:46:25Z</time>
      </trkpt>
      <trkpt lat="46.02058" lon="6.36393">
        <ele>1338</ele>
        <time>2017-12-19T10:46:26Z</time>
      </trkpt>
      <trkpt lat="46.02057" lon="6.36391">
        <ele>1339</ele>
        <time>2017-12-19T10:46:27Z</time>
      </trkpt>
      <trkpt lat="46.02058" lon="6.36389">
        <ele>1339</ele>
        <time>2017-12-19T10:46:28Z</time>
      </trkpt>
      <trkpt lat="46.02055" lon="6.36366">
        <ele>1339</ele>
        <time>2017-12-19T10:46:42Z</time>
      </trkpt>
      <trkpt lat="46.02055" lon="6.36364">
        <ele>1339</ele>
        <time>2017-12-19T10:46:43Z</time>
      </trkpt>
      <trkpt lat="46.02055" lon="6.36363">
        <ele>1339</ele>
        <time>2017-12-19T10:46:44Z</time>
      </trkpt>
      <trkpt lat="46.02053" lon="6.36355">
        <ele>1339</ele>
        <time>2017-12-19T10:46:50Z</time>
      </trkpt>
      <trkpt lat="46.02052" lon="6.36353">
        <ele>1339</ele>
        <time>2017-12-19T10:46:51Z</time>
      </trkpt>
      <trkpt lat="46.02051" lon="6.36352">
        <ele>1339</ele>
        <time>2017-12-19T10:46:52Z</time>
      </trkpt>
      <trkpt lat="46.02049" lon="6.36351">
        <ele>1340</ele>
        <time>2017-12-19T10:46:54Z</time>
      </trkpt>
      <trkpt lat="46.02047" lon="6.36349">
        <ele>1340</ele>
        <time>2017-12-19T10:46:56Z</time>
      </trkpt>
      <trkpt lat="46.02044" lon="6.36349">
        <ele>1341</ele>
        <time>2017-12-19T10:46:57Z</time>
      </trkpt>
      <trkpt lat="46.02042" lon="6.36348">
        <ele>1341</ele>
        <time>2017-12-19T10:46:58Z</time>
      </trkpt>
      <trkpt lat="46.0204" lon="6.36347">
        <ele>1342</ele>
        <time>2017-12-19T10:46:59Z</time>
      </trkpt>
      <trkpt lat="46.02038" lon="6.36347">
        <ele>1342</ele>
        <time>2017-12-19T10:47:00Z</time>
      </trkpt>
      <trkpt lat="46.02036" lon="6.36346">
        <ele>1343</ele>
        <time>2017-12-19T10:47:01Z</time>
      </trkpt>
      <trkpt lat="46.02033" lon="6.36344">
        <ele>1344</ele>
        <time>2017-12-19T10:47:03Z</time>
      </trkpt>
      <trkpt lat="46.02032" lon="6.36343">
        <ele>1344</ele>
        <time>2017-12-19T10:47:04Z</time>
      </trkpt>
      <trkpt lat="46.02031" lon="6.36342">
        <ele>1344</ele>
        <time>2017-12-19T10:47:05Z</time>
      </trkpt>
      <trkpt lat="46.02031" lon="6.36337">
        <ele>1344</ele>
        <time>2017-12-19T10:47:08Z</time>
      </trkpt>
      <trkpt lat="46.02032" lon="6.36335">
        <ele>1344</ele>
        <time>2017-12-19T10:47:09Z</time>
      </trkpt>
      <trkpt lat="46.02031" lon="6.36334">
        <ele>1344</ele>
        <time>2017-12-19T10:47:10Z</time>
      </trkpt>
      <trkpt lat="46.02031" lon="6.36332">
        <ele>1342</ele>
        <time>2017-12-19T10:47:11Z</time>
      </trkpt>
      <trkpt lat="46.02031" lon="6.3633">
        <ele>1342</ele>
        <time>2017-12-19T10:47:12Z</time>
      </trkpt>
      <trkpt lat="46.02029" lon="6.36329">
        <ele>1343</ele>
        <time>2017-12-19T10:47:13Z</time>
      </trkpt>
      <trkpt lat="46.02028" lon="6.36327">
        <ele>1343</ele>
        <time>2017-12-19T10:47:14Z</time>
      </trkpt>
      <trkpt lat="46.02026" lon="6.36313">
        <ele>1343</ele>
        <time>2017-12-19T10:47:23Z</time>
      </trkpt>
      <trkpt lat="46.02026" lon="6.36312">
        <ele>1343</ele>
        <time>2017-12-19T10:47:24Z</time>
      </trkpt>
      <trkpt lat="46.02025" lon="6.36312">
        <ele>1343</ele>
        <time>2017-12-19T10:47:25Z</time>
      </trkpt>
      <trkpt lat="46.02025" lon="6.36311">
        <ele>1343</ele>
        <time>2017-12-19T10:47:26Z</time>
      </trkpt>
      <trkpt lat="46.02023" lon="6.3631">
        <ele>1343</ele>
        <time>2017-12-19T10:47:27Z</time>
      </trkpt>
      <trkpt lat="46.0201" lon="6.36309">
        <ele>1345</ele>
        <time>2017-12-19T10:47:41Z</time>
      </trkpt>
      <trkpt lat="46.02001" lon="6.36324">
        <ele>1351</ele>
        <time>2017-12-19T10:47:51Z</time>
      </trkpt>
      <trkpt lat="46.02" lon="6.36325">
        <ele>1351</ele>
        <time>2017-12-19T10:47:52Z</time>
      </trkpt>
      <trkpt lat="46.01999" lon="6.36326">
        <ele>1360</ele>
        <time>2017-12-19T10:47:53Z</time>
      </trkpt>
      <trkpt lat="46.01999" lon="6.36328">
        <ele>1359</ele>
        <time>2017-12-19T10:47:54Z</time>
      </trkpt>
      <trkpt lat="46.02" lon="6.36328">
        <ele>1359</ele>
        <time>2017-12-19T10:47:55Z</time>
      </trkpt>
      <trkpt lat="46.02004" lon="6.36335">
        <ele>1354</ele>
        <time>2017-12-19T10:48:02Z</time>
      </trkpt>
      <trkpt lat="46.02006" lon="6.36337">
        <ele>1353</ele>
        <time>2017-12-19T10:48:03Z</time>
      </trkpt>
      <trkpt lat="46.02006" lon="6.3634">
        <ele>1352</ele>
        <time>2017-12-19T10:48:04Z</time>
      </trkpt>
      <trkpt lat="46.02007" lon="6.36341">
        <ele>1351</ele>
        <time>2017-12-19T10:48:05Z</time>
      </trkpt>
      <trkpt lat="46.02007" lon="6.36343">
        <ele>1351</ele>
        <time>2017-12-19T10:48:06Z</time>
      </trkpt>
      <trkpt lat="46.02007" lon="6.36351">
        <ele>1349</ele>
        <time>2017-12-19T10:48:11Z</time>
      </trkpt>
      <trkpt lat="46.02006" lon="6.36353">
        <ele>1349</ele>
        <time>2017-12-19T10:48:12Z</time>
      </trkpt>
      <trkpt lat="46.02006" lon="6.36367">
        <ele>1348</ele>
        <time>2017-12-19T10:48:23Z</time>
      </trkpt>
      <trkpt lat="46.02004" lon="6.36369">
        <ele>1348</ele>
        <time>2017-12-19T10:48:28Z</time>
      </trkpt>
      <trkpt lat="46.02003" lon="6.36369">
        <ele>1348</ele>
        <time>2017-12-19T10:48:29Z</time>
      </trkpt>
      <trkpt lat="46.02002" lon="6.36368">
        <ele>1348</ele>
        <time>2017-12-19T10:48:30Z</time>
      </trkpt>
      <trkpt lat="46.02001" lon="6.36367">
        <ele>1348</ele>
        <time>2017-12-19T10:48:31Z</time>
      </trkpt>
      <trkpt lat="46.02" lon="6.36366">
        <ele>1366</ele>
        <time>2017-12-19T10:48:32Z</time>
      </trkpt>
      <trkpt lat="46.01998" lon="6.36366">
        <ele>1366</ele>
        <time>2017-12-19T10:48:33Z</time>
      </trkpt>
      <trkpt lat="46.01997" lon="6.36364">
        <ele>1366</ele>
        <time>2017-12-19T10:48:34Z</time>
      </trkpt>
      <trkpt lat="46.0199" lon="6.36348">
        <ele>1364</ele>
        <time>2017-12-19T10:48:49Z</time>
      </trkpt>
      <trkpt lat="46.01989" lon="6.36345">
        <ele>1364</ele>
        <time>2017-12-19T10:48:52Z</time>
      </trkpt>
      <trkpt lat="46.01987" lon="6.36344">
        <ele>1364</ele>
        <time>2017-12-19T10:48:54Z</time>
      </trkpt>
      <trkpt lat="46.01987" lon="6.36343">
        <ele>1364</ele>
        <time>2017-12-19T10:48:55Z</time>
      </trkpt>
      <trkpt lat="46.01987" lon="6.3634">
        <ele>1363</ele>
        <time>2017-12-19T10:48:57Z</time>
      </trkpt>
      <trkpt lat="46.01986" lon="6.36339">
        <ele>1364</ele>
        <time>2017-12-19T10:48:58Z</time>
      </trkpt>
      <trkpt lat="46.01985" lon="6.36338">
        <ele>1364</ele>
        <time>2017-12-19T10:48:59Z</time>
      </trkpt>
      <trkpt lat="46.01983" lon="6.36337">
        <ele>1364</ele>
        <time>2017-12-19T10:49:00Z</time>
      </trkpt>
      <trkpt lat="46.01973" lon="6.36325">
        <ele>1367</ele>
        <time>2017-12-19T10:49:14Z</time>
      </trkpt>
      <trkpt lat="46.01971" lon="6.36324">
        <ele>1367</ele>
        <time>2017-12-19T10:49:16Z</time>
      </trkpt>
      <trkpt lat="46.01969" lon="6.36321">
        <ele>1368</ele>
        <time>2017-12-19T10:49:18Z</time>
      </trkpt>
      <trkpt lat="46.01968" lon="6.36321">
        <ele>1368</ele>
        <time>2017-12-19T10:49:19Z</time>
      </trkpt>
      <trkpt lat="46.01967" lon="6.3632">
        <ele>1369</ele>
        <time>2017-12-19T10:49:20Z</time>
      </trkpt>
      <trkpt lat="46.01967" lon="6.36319">
        <ele>1369</ele>
        <time>2017-12-19T10:49:21Z</time>
      </trkpt>
      <trkpt lat="46.01966" lon="6.36318">
        <ele>1369</ele>
        <time>2017-12-19T10:49:22Z</time>
      </trkpt>
      <trkpt lat="46.01966" lon="6.36317">
        <ele>1369</ele>
        <time>2017-12-19T10:49:23Z</time>
      </trkpt>
      <trkpt lat="46.01966" lon="6.36312">
        <ele>1369</ele>
        <time>2017-12-19T10:49:26Z</time>
      </trkpt>
      <trkpt lat="46.01965" lon="6.36311">
        <ele>1369</ele>
        <time>2017-12-19T10:49:27Z</time>
      </trkpt>
      <trkpt lat="46.01965" lon="6.36309">
        <ele>1369</ele>
        <time>2017-12-19T10:49:28Z</time>
      </trkpt>
      <trkpt lat="46.01958" lon="6.36299">
        <ele>1371</ele>
        <time>2017-12-19T10:49:37Z</time>
      </trkpt>
      <trkpt lat="46.01957" lon="6.36298">
        <ele>1371</ele>
        <time>2017-12-19T10:49:38Z</time>
      </trkpt>
      <trkpt lat="46.01958" lon="6.36296">
        <ele>1371</ele>
        <time>2017-12-19T10:49:39Z</time>
      </trkpt>
      <trkpt lat="46.01958" lon="6.36294">
        <ele>1371</ele>
        <time>2017-12-19T10:49:40Z</time>
      </trkpt>
      <trkpt lat="46.01957" lon="6.3629">
        <ele>1371</ele>
        <time>2017-12-19T10:49:43Z</time>
      </trkpt>
      <trkpt lat="46.01956" lon="6.36289">
        <ele>1371</ele>
        <time>2017-12-19T10:49:44Z</time>
      </trkpt>
      <trkpt lat="46.01955" lon="6.36287">
        <ele>1371</ele>
        <time>2017-12-19T10:49:45Z</time>
      </trkpt>
      <trkpt lat="46.01955" lon="6.36284">
        <ele>1371</ele>
        <time>2017-12-19T10:49:47Z</time>
      </trkpt>
      <trkpt lat="46.01955" lon="6.36283">
        <ele>1371</ele>
        <time>2017-12-19T10:49:48Z</time>
      </trkpt>
      <trkpt lat="46.01955" lon="6.36281">
        <ele>1371</ele>
        <time>2017-12-19T10:49:49Z</time>
      </trkpt>
      <trkpt lat="46.01954" lon="6.3628">
        <ele>1371</ele>
        <time>2017-12-19T10:49:50Z</time>
      </trkpt>
      <trkpt lat="46.01953" lon="6.36279">
        <ele>1371</ele>
        <time>2017-12-19T10:49:51Z</time>
      </trkpt>
      <trkpt lat="46.01953" lon="6.36277">
        <ele>1371</ele>
        <time>2017-12-19T10:49:53Z</time>
      </trkpt>
      <trkpt lat="46.0195" lon="6.36268">
        <ele>1372</ele>
        <time>2017-12-19T10:49:58Z</time>
      </trkpt>
      <trkpt lat="46.01949" lon="6.36262">
        <ele>1372</ele>
        <time>2017-12-19T10:50:03Z</time>
      </trkpt>
      <trkpt lat="46.01948" lon="6.36259">
        <ele>1373</ele>
        <time>2017-12-19T10:50:05Z</time>
      </trkpt>
      <trkpt lat="46.01948" lon="6.36258">
        <ele>1373</ele>
        <time>2017-12-19T10:50:06Z</time>
      </trkpt>
      <trkpt lat="46.01947" lon="6.36255">
        <ele>1373</ele>
        <time>2017-12-19T10:50:08Z</time>
      </trkpt>
      <trkpt lat="46.01945" lon="6.36253">
        <ele>1373</ele>
        <time>2017-12-19T10:50:10Z</time>
      </trkpt>
      <trkpt lat="46.01944" lon="6.36252">
        <ele>1374</ele>
        <time>2017-12-19T10:50:11Z</time>
      </trkpt>
      <trkpt lat="46.01943" lon="6.36252">
        <ele>1374</ele>
        <time>2017-12-19T10:50:12Z</time>
      </trkpt>
      <trkpt lat="46.01942" lon="6.36252">
        <ele>1374</ele>
        <time>2017-12-19T10:50:13Z</time>
      </trkpt>
      <trkpt lat="46.01941" lon="6.36251">
        <ele>1375</ele>
        <time>2017-12-19T10:50:14Z</time>
      </trkpt>
      <trkpt lat="46.01941" lon="6.36249">
        <ele>1373</ele>
        <time>2017-12-19T10:50:15Z</time>
      </trkpt>
      <trkpt lat="46.01941" lon="6.36248">
        <ele>1373</ele>
        <time>2017-12-19T10:50:16Z</time>
      </trkpt>
      <trkpt lat="46.01941" lon="6.36235">
        <ele>1372</ele>
        <time>2017-12-19T10:50:24Z</time>
      </trkpt>
      <trkpt lat="46.01937" lon="6.36219">
        <ele>1371</ele>
        <time>2017-12-19T10:50:36Z</time>
      </trkpt>
      <trkpt lat="46.01936" lon="6.36217">
        <ele>1371</ele>
        <time>2017-12-19T10:50:37Z</time>
      </trkpt>
      <trkpt lat="46.01921" lon="6.36202">
        <ele>1372</ele>
        <time>2017-12-19T10:50:54Z</time>
      </trkpt>
      <trkpt lat="46.01908" lon="6.36181">
        <ele>1383</ele>
        <time>2017-12-19T10:51:12Z</time>
      </trkpt>
      <trkpt lat="46.01902" lon="6.3617">
        <ele>1383</ele>
        <time>2017-12-19T10:51:20Z</time>
      </trkpt>
      <trkpt lat="46.01902" lon="6.36169">
        <ele>1383</ele>
        <time>2017-12-19T10:51:21Z</time>
      </trkpt>
      <trkpt lat="46.01901" lon="6.36168">
        <ele>1383</ele>
        <time>2017-12-19T10:51:22Z</time>
      </trkpt>
      <trkpt lat="46.019" lon="6.36167">
        <ele>1384</ele>
        <time>2017-12-19T10:51:23Z</time>
      </trkpt>
      <trkpt lat="46.019" lon="6.36166">
        <ele>1381</ele>
        <time>2017-12-19T10:51:24Z</time>
      </trkpt>
      <trkpt lat="46.01899" lon="6.36162">
        <ele>1381</ele>
        <time>2017-12-19T10:51:27Z</time>
      </trkpt>
      <trkpt lat="46.01898" lon="6.36159">
        <ele>1382</ele>
        <time>2017-12-19T10:51:29Z</time>
      </trkpt>
      <trkpt lat="46.01897" lon="6.36158">
        <ele>1382</ele>
        <time>2017-12-19T10:51:30Z</time>
      </trkpt>
      <trkpt lat="46.01897" lon="6.36157">
        <ele>1382</ele>
        <time>2017-12-19T10:51:31Z</time>
      </trkpt>
      <trkpt lat="46.01897" lon="6.36155">
        <ele>1382</ele>
        <time>2017-12-19T10:51:32Z</time>
      </trkpt>
      <trkpt lat="46.01896" lon="6.36153">
        <ele>1382</ele>
        <time>2017-12-19T10:51:34Z</time>
      </trkpt>
      <trkpt lat="46.01869" lon="6.36139">
        <ele>1385</ele>
        <time>2017-12-19T10:51:52Z</time>
      </trkpt>
      <trkpt lat="46.01857" lon="6.36128">
        <ele>1386</ele>
        <time>2017-12-19T10:52:00Z</time>
      </trkpt>
      <trkpt lat="46.01856" lon="6.36127">
        <ele>1386</ele>
        <time>2017-12-19T10:52:01Z</time>
      </trkpt>
      <trkpt lat="46.01843" lon="6.36116">
        <ele>1386</ele>
        <time>2017-12-19T10:52:11Z</time>
      </trkpt>
      <trkpt lat="46.01834" lon="6.3611">
        <ele>1386</ele>
        <time>2017-12-19T10:52:19Z</time>
      </trkpt>
      <trkpt lat="46.01827" lon="6.36102">
        <ele>1395</ele>
        <time>2017-12-19T10:52:26Z</time>
      </trkpt>
      <trkpt lat="46.01826" lon="6.36101">
        <ele>1394</ele>
        <time>2017-12-19T10:52:27Z</time>
      </trkpt>
      <trkpt lat="46.01825" lon="6.361">
        <ele>1394</ele>
        <time>2017-12-19T10:52:28Z</time>
      </trkpt>
      <trkpt lat="46.01824" lon="6.36099">
        <ele>1394</ele>
        <time>2017-12-19T10:52:29Z</time>
      </trkpt>
      <trkpt lat="46.01823" lon="6.36098">
        <ele>1394</ele>
        <time>2017-12-19T10:52:30Z</time>
      </trkpt>
      <trkpt lat="46.01822" lon="6.36096">
        <ele>1394</ele>
        <time>2017-12-19T10:52:31Z</time>
      </trkpt>
      <trkpt lat="46.01818" lon="6.36091">
        <ele>1394</ele>
        <time>2017-12-19T10:52:35Z</time>
      </trkpt>
      <trkpt lat="46.01817" lon="6.36089">
        <ele>1394</ele>
        <time>2017-12-19T10:52:36Z</time>
      </trkpt>
      <trkpt lat="46.01816" lon="6.36087">
        <ele>1394</ele>
        <time>2017-12-19T10:52:37Z</time>
      </trkpt>
      <trkpt lat="46.01812" lon="6.36081">
        <ele>1393</ele>
        <time>2017-12-19T10:52:41Z</time>
      </trkpt>
      <trkpt lat="46.01805" lon="6.36061">
        <ele>1396</ele>
        <time>2017-12-19T10:52:52Z</time>
      </trkpt>
      <trkpt lat="46.01789" lon="6.36027">
        <ele>1397</ele>
        <time>2017-12-19T10:53:15Z</time>
      </trkpt>
      <trkpt lat="46.01789" lon="6.36026">
        <ele>1397</ele>
        <time>2017-12-19T10:53:16Z</time>
      </trkpt>
      <trkpt lat="46.01788" lon="6.36025">
        <ele>1398</ele>
        <time>2017-12-19T10:53:17Z</time>
      </trkpt>
      <trkpt lat="46.01787" lon="6.36023">
        <ele>1398</ele>
        <time>2017-12-19T10:53:18Z</time>
      </trkpt>
      <trkpt lat="46.01786" lon="6.36022">
        <ele>1398</ele>
        <time>2017-12-19T10:53:19Z</time>
      </trkpt>
      <trkpt lat="46.01785" lon="6.36021">
        <ele>1398</ele>
        <time>2017-12-19T10:53:20Z</time>
      </trkpt>
      <trkpt lat="46.01784" lon="6.36019">
        <ele>1398</ele>
        <time>2017-12-19T10:53:21Z</time>
      </trkpt>
      <trkpt lat="46.0178" lon="6.36015">
        <ele>1398</ele>
        <time>2017-12-19T10:53:25Z</time>
      </trkpt>
      <trkpt lat="46.0178" lon="6.36013">
        <ele>1398</ele>
        <time>2017-12-19T10:53:26Z</time>
      </trkpt>
      <trkpt lat="46.01774" lon="6.36006">
        <ele>1399</ele>
        <time>2017-12-19T10:53:32Z</time>
      </trkpt>
      <trkpt lat="46.01773" lon="6.36005">
        <ele>1399</ele>
        <time>2017-12-19T10:53:33Z</time>
      </trkpt>
      <trkpt lat="46.01772" lon="6.36003">
        <ele>1399</ele>
        <time>2017-12-19T10:53:34Z</time>
      </trkpt>
      <trkpt lat="46.01771" lon="6.36002">
        <ele>1399</ele>
        <time>2017-12-19T10:53:35Z</time>
      </trkpt>
      <trkpt lat="46.0177" lon="6.36001">
        <ele>1399</ele>
        <time>2017-12-19T10:53:36Z</time>
      </trkpt>
      <trkpt lat="46.01769" lon="6.35999">
        <ele>1400</ele>
        <time>2017-12-19T10:53:37Z</time>
      </trkpt>
      <trkpt lat="46.01768" lon="6.35998">
        <ele>1400</ele>
        <time>2017-12-19T10:53:38Z</time>
      </trkpt>
      <trkpt lat="46.01767" lon="6.35997">
        <ele>1400</ele>
        <time>2017-12-19T10:53:39Z</time>
      </trkpt>
      <trkpt lat="46.01766" lon="6.35995">
        <ele>1400</ele>
        <time>2017-12-19T10:53:40Z</time>
      </trkpt>
      <trkpt lat="46.01752" lon="6.35964">
        <ele>1400</ele>
        <time>2017-12-19T10:54:01Z</time>
      </trkpt>
      <trkpt lat="46.0175" lon="6.3596">
        <ele>1411</ele>
        <time>2017-12-19T10:54:03Z</time>
      </trkpt>
      <trkpt lat="46.01749" lon="6.35959">
        <ele>1411</ele>
        <time>2017-12-19T10:54:04Z</time>
      </trkpt>
      <trkpt lat="46.01748" lon="6.35957">
        <ele>1411</ele>
        <time>2017-12-19T10:54:05Z</time>
      </trkpt>
      <trkpt lat="46.01748" lon="6.35955">
        <ele>1411</ele>
        <time>2017-12-19T10:54:06Z</time>
      </trkpt>
      <trkpt lat="46.01748" lon="6.35953">
        <ele>1411</ele>
        <time>2017-12-19T10:54:07Z</time>
      </trkpt>
      <trkpt lat="46.01747" lon="6.35952">
        <ele>1411</ele>
        <time>2017-12-19T10:54:08Z</time>
      </trkpt>
      <trkpt lat="46.01746" lon="6.35949">
        <ele>1411</ele>
        <time>2017-12-19T10:54:10Z</time>
      </trkpt>
      <trkpt lat="46.01746" lon="6.35947">
        <ele>1411</ele>
        <time>2017-12-19T10:54:11Z</time>
      </trkpt>
      <trkpt lat="46.01736" lon="6.3592">
        <ele>1409</ele>
        <time>2017-12-19T10:54:30Z</time>
      </trkpt>
      <trkpt lat="46.01736" lon="6.35918">
        <ele>1409</ele>
        <time>2017-12-19T10:54:31Z</time>
      </trkpt>
      <trkpt lat="46.01736" lon="6.35917">
        <ele>1409</ele>
        <time>2017-12-19T10:54:32Z</time>
      </trkpt>
      <trkpt lat="46.01736" lon="6.35915">
        <ele>1409</ele>
        <time>2017-12-19T10:54:33Z</time>
      </trkpt>
      <trkpt lat="46.01736" lon="6.35914">
        <ele>1409</ele>
        <time>2017-12-19T10:54:34Z</time>
      </trkpt>
      <trkpt lat="46.01736" lon="6.35912">
        <ele>1409</ele>
        <time>2017-12-19T10:54:35Z</time>
      </trkpt>
      <trkpt lat="46.01736" lon="6.35911">
        <ele>1410</ele>
        <time>2017-12-19T10:54:36Z</time>
      </trkpt>
      <trkpt lat="46.01735" lon="6.35909">
        <ele>1410</ele>
        <time>2017-12-19T10:54:37Z</time>
      </trkpt>
      <trkpt lat="46.01733" lon="6.35908">
        <ele>1411</ele>
        <time>2017-12-19T10:54:38Z</time>
      </trkpt>
      <trkpt lat="46.01732" lon="6.35907">
        <ele>1411</ele>
        <time>2017-12-19T10:54:39Z</time>
      </trkpt>
      <trkpt lat="46.01731" lon="6.35906">
        <ele>1412</ele>
        <time>2017-12-19T10:54:40Z</time>
      </trkpt>
      <trkpt lat="46.01731" lon="6.35904">
        <ele>1412</ele>
        <time>2017-12-19T10:54:41Z</time>
      </trkpt>
      <trkpt lat="46.01731" lon="6.35903">
        <ele>1412</ele>
        <time>2017-12-19T10:54:42Z</time>
      </trkpt>
      <trkpt lat="46.01729" lon="6.35892">
        <ele>1414</ele>
        <time>2017-12-19T10:54:49Z</time>
      </trkpt>
      <trkpt lat="46.01728" lon="6.3589">
        <ele>1414</ele>
        <time>2017-12-19T10:54:50Z</time>
      </trkpt>
      <trkpt lat="46.01728" lon="6.35888">
        <ele>1414</ele>
        <time>2017-12-19T10:54:51Z</time>
      </trkpt>
      <trkpt lat="46.01726" lon="6.35876">
        <ele>1415</ele>
        <time>2017-12-19T10:54:58Z</time>
      </trkpt>
      <trkpt lat="46.01727" lon="6.35874">
        <ele>1415</ele>
        <time>2017-12-19T10:54:59Z</time>
      </trkpt>
      <trkpt lat="46.01728" lon="6.35873">
        <ele>1415</ele>
        <time>2017-12-19T10:55:00Z</time>
      </trkpt>
      <trkpt lat="46.01732" lon="6.3587">
        <ele>1415</ele>
        <time>2017-12-19T10:55:03Z</time>
      </trkpt>
      <trkpt lat="46.01733" lon="6.3587">
        <ele>1415</ele>
        <time>2017-12-19T10:55:04Z</time>
      </trkpt>
      <trkpt lat="46.01735" lon="6.35869">
        <ele>1415</ele>
        <time>2017-12-19T10:55:05Z</time>
      </trkpt>
      <trkpt lat="46.01736" lon="6.35869">
        <ele>1415</ele>
        <time>2017-12-19T10:55:06Z</time>
      </trkpt>
      <trkpt lat="46.01737" lon="6.35868">
        <ele>1415</ele>
        <time>2017-12-19T10:55:07Z</time>
      </trkpt>
      <trkpt lat="46.01739" lon="6.35868">
        <ele>1414</ele>
        <time>2017-12-19T10:55:08Z</time>
      </trkpt>
      <trkpt lat="46.0174" lon="6.35867">
        <ele>1414</ele>
        <time>2017-12-19T10:55:09Z</time>
      </trkpt>
      <trkpt lat="46.01746" lon="6.35865">
        <ele>1414</ele>
        <time>2017-12-19T10:55:15Z</time>
      </trkpt>
      <trkpt lat="46.01748" lon="6.35864">
        <ele>1414</ele>
        <time>2017-12-19T10:55:18Z</time>
      </trkpt>
      <trkpt lat="46.0175" lon="6.35863">
        <ele>1414</ele>
        <time>2017-12-19T10:55:20Z</time>
      </trkpt>
      <trkpt lat="46.01766" lon="6.35855">
        <ele>1409</ele>
        <time>2017-12-19T10:55:35Z</time>
      </trkpt>
      <trkpt lat="46.01767" lon="6.35854">
        <ele>1409</ele>
        <time>2017-12-19T10:55:37Z</time>
      </trkpt>
      <trkpt lat="46.01768" lon="6.35853">
        <ele>1409</ele>
        <time>2017-12-19T10:55:39Z</time>
      </trkpt>
      <trkpt lat="46.01783" lon="6.35845">
        <ele>1409</ele>
        <time>2017-12-19T10:55:55Z</time>
      </trkpt>
      <trkpt lat="46.0178" lon="6.3583">
        <ele>1417</ele>
        <time>2017-12-19T10:56:09Z</time>
      </trkpt>
      <trkpt lat="46.01777" lon="6.35822">
        <ele>1417</ele>
        <time>2017-12-19T10:56:17Z</time>
      </trkpt>
      <trkpt lat="46.01775" lon="6.3582">
        <ele>1417</ele>
        <time>2017-12-19T10:56:20Z</time>
      </trkpt>
      <trkpt lat="46.01775" lon="6.35818">
        <ele>1417</ele>
        <time>2017-12-19T10:56:22Z</time>
      </trkpt>
      <trkpt lat="46.01772" lon="6.35803">
        <ele>1419</ele>
        <time>2017-12-19T10:56:35Z</time>
      </trkpt>
      <trkpt lat="46.01775" lon="6.35796">
        <ele>1420</ele>
        <time>2017-12-19T10:56:39Z</time>
      </trkpt>
      <trkpt lat="46.01776" lon="6.35795">
        <ele>1420</ele>
        <time>2017-12-19T10:56:40Z</time>
      </trkpt>
      <trkpt lat="46.01781" lon="6.35796">
        <ele>1420</ele>
        <time>2017-12-19T10:56:48Z</time>
      </trkpt>
      <trkpt lat="46.01782" lon="6.35797">
        <ele>1420</ele>
        <time>2017-12-19T10:56:50Z</time>
      </trkpt>
      <trkpt lat="46.01784" lon="6.35797">
        <ele>1420</ele>
        <time>2017-12-19T10:56:51Z</time>
      </trkpt>
      <trkpt lat="46.01803" lon="6.35803">
        <ele>1419</ele>
        <time>2017-12-19T10:57:08Z</time>
      </trkpt>
      <trkpt lat="46.01804" lon="6.35804">
        <ele>1419</ele>
        <time>2017-12-19T10:57:10Z</time>
      </trkpt>
      <trkpt lat="46.01805" lon="6.35804">
        <ele>1419</ele>
        <time>2017-12-19T10:57:11Z</time>
      </trkpt>
      <trkpt lat="46.01806" lon="6.35805">
        <ele>1419</ele>
        <time>2017-12-19T10:57:12Z</time>
      </trkpt>
      <trkpt lat="46.01808" lon="6.35801">
        <ele>1419</ele>
        <time>2017-12-19T10:57:20Z</time>
      </trkpt>
      <trkpt lat="46.01808" lon="6.358">
        <ele>1419</ele>
        <time>2017-12-19T10:57:21Z</time>
      </trkpt>
      <trkpt lat="46.01809" lon="6.35798">
        <ele>1420</ele>
        <time>2017-12-19T10:57:23Z</time>
      </trkpt>
      <trkpt lat="46.01809" lon="6.35798">
        <ele>1420</ele>
        <time>2017-12-19T10:57:24Z</time>
      </trkpt>
      <trkpt lat="46.0181" lon="6.35796">
        <ele>1420</ele>
        <time>2017-12-19T10:57:25Z</time>
      </trkpt>
      <trkpt lat="46.0181" lon="6.35795">
        <ele>1420</ele>
        <time>2017-12-19T10:57:26Z</time>
      </trkpt>
      <trkpt lat="46.0181" lon="6.35794">
        <ele>1420</ele>
        <time>2017-12-19T10:57:27Z</time>
      </trkpt>
      <trkpt lat="46.01809" lon="6.35793">
        <ele>1420</ele>
        <time>2017-12-19T10:57:28Z</time>
      </trkpt>
      <trkpt lat="46.01807" lon="6.35779">
        <ele>1421</ele>
        <time>2017-12-19T10:57:41Z</time>
      </trkpt>
      <trkpt lat="46.01807" lon="6.35777">
        <ele>1422</ele>
        <time>2017-12-19T10:57:43Z</time>
      </trkpt>
      <trkpt lat="46.01807" lon="6.35771">
        <ele>1422</ele>
        <time>2017-12-19T10:57:48Z</time>
      </trkpt>
      <trkpt lat="46.01808" lon="6.35769">
        <ele>1422</ele>
        <time>2017-12-19T10:57:50Z</time>
      </trkpt>
      <trkpt lat="46.01807" lon="6.35768">
        <ele>1422</ele>
        <time>2017-12-19T10:57:51Z</time>
      </trkpt>
      <trkpt lat="46.01806" lon="6.35764">
        <ele>1423</ele>
        <time>2017-12-19T10:57:55Z</time>
      </trkpt>
      <trkpt lat="46.01805" lon="6.35761">
        <ele>1423</ele>
        <time>2017-12-19T10:57:58Z</time>
      </trkpt>
      <trkpt lat="46.01804" lon="6.35755">
        <ele>1423</ele>
        <time>2017-12-19T10:58:04Z</time>
      </trkpt>
      <trkpt lat="46.01806" lon="6.35743">
        <ele>1433</ele>
        <time>2017-12-19T10:58:16Z</time>
      </trkpt>
      <trkpt lat="46.01808" lon="6.35741">
        <ele>1433</ele>
        <time>2017-12-19T10:58:18Z</time>
      </trkpt>
      <trkpt lat="46.01815" lon="6.35729">
        <ele>1433</ele>
        <time>2017-12-19T10:58:31Z</time>
      </trkpt>
      <trkpt lat="46.01813" lon="6.35717">
        <ele>1435</ele>
        <time>2017-12-19T10:58:44Z</time>
      </trkpt>
      <trkpt lat="46.0181" lon="6.35715">
        <ele>1435</ele>
        <time>2017-12-19T10:58:47Z</time>
      </trkpt>
      <trkpt lat="46.01801" lon="6.35704">
        <ele>1437</ele>
        <time>2017-12-19T10:59:00Z</time>
      </trkpt>
      <trkpt lat="46.01797" lon="6.35691">
        <ele>1438</ele>
        <time>2017-12-19T10:59:13Z</time>
      </trkpt>
      <trkpt lat="46.01793" lon="6.3568">
        <ele>1440</ele>
        <time>2017-12-19T10:59:25Z</time>
      </trkpt>
      <trkpt lat="46.01791" lon="6.35677">
        <ele>1440</ele>
        <time>2017-12-19T10:59:28Z</time>
      </trkpt>
      <trkpt lat="46.0179" lon="6.35675">
        <ele>1440</ele>
        <time>2017-12-19T10:59:30Z</time>
      </trkpt>
      <trkpt lat="46.01789" lon="6.35672">
        <ele>1441</ele>
        <time>2017-12-19T10:59:33Z</time>
      </trkpt>
      <trkpt lat="46.01785" lon="6.35658">
        <ele>1452</ele>
        <time>2017-12-19T10:59:45Z</time>
      </trkpt>
      <trkpt lat="46.01782" lon="6.35646">
        <ele>1453</ele>
        <time>2017-12-19T10:59:57Z</time>
      </trkpt>
      <trkpt lat="46.01779" lon="6.35635">
        <ele>1454</ele>
        <time>2017-12-19T11:00:08Z</time>
      </trkpt>
      <trkpt lat="46.01775" lon="6.35623">
        <ele>1456</ele>
        <time>2017-12-19T11:00:20Z</time>
      </trkpt>
      <trkpt lat="46.01775" lon="6.35613">
        <ele>1457</ele>
        <time>2017-12-19T11:00:31Z</time>
      </trkpt>
      <trkpt lat="46.01773" lon="6.35605">
        <ele>1459</ele>
        <time>2017-12-19T11:00:40Z</time>
      </trkpt>
      <trkpt lat="46.01768" lon="6.35596">
        <ele>1461</ele>
        <time>2017-12-19T11:00:51Z</time>
      </trkpt>
      <trkpt lat="46.01768" lon="6.35595">
        <ele>1462</ele>
        <time>2017-12-19T11:00:52Z</time>
      </trkpt>
      <trkpt lat="46.01763" lon="6.35587">
        <ele>1464</ele>
        <time>2017-12-19T11:01:01Z</time>
      </trkpt>
      <trkpt lat="46.01759" lon="6.3558">
        <ele>1472</ele>
        <time>2017-12-19T11:01:10Z</time>
      </trkpt>
      <trkpt lat="46.01758" lon="6.35577">
        <ele>1472</ele>
        <time>2017-12-19T11:01:13Z</time>
      </trkpt>
      <trkpt lat="46.01753" lon="6.35565">
        <ele>1473</ele>
        <time>2017-12-19T11:01:33Z</time>
      </trkpt>
      <trkpt lat="46.01752" lon="6.35563">
        <ele>1473</ele>
        <time>2017-12-19T11:01:35Z</time>
      </trkpt>
      <trkpt lat="46.01751" lon="6.35562">
        <ele>1473</ele>
        <time>2017-12-19T11:01:36Z</time>
      </trkpt>
      <trkpt lat="46.0175" lon="6.35561">
        <ele>1477</ele>
        <time>2017-12-19T11:01:37Z</time>
      </trkpt>
      <trkpt lat="46.01734" lon="6.35544">
        <ele>1480</ele>
        <time>2017-12-19T11:01:52Z</time>
      </trkpt>
      <trkpt lat="46.01726" lon="6.35532">
        <ele>1481</ele>
        <time>2017-12-19T11:02:05Z</time>
      </trkpt>
      <trkpt lat="46.01719" lon="6.35521">
        <ele>1483</ele>
        <time>2017-12-19T11:02:15Z</time>
      </trkpt>
      <trkpt lat="46.01703" lon="6.35495">
        <ele>1496</ele>
        <time>2017-12-19T11:02:37Z</time>
      </trkpt>
      <trkpt lat="46.01702" lon="6.35494">
        <ele>1496</ele>
        <time>2017-12-19T11:02:38Z</time>
      </trkpt>
      <trkpt lat="46.01701" lon="6.35493">
        <ele>1496</ele>
        <time>2017-12-19T11:02:39Z</time>
      </trkpt>
      <trkpt lat="46.017" lon="6.35492">
        <ele>1496</ele>
        <time>2017-12-19T11:02:40Z</time>
      </trkpt>
      <trkpt lat="46.01699" lon="6.35491">
        <ele>1496</ele>
        <time>2017-12-19T11:02:41Z</time>
      </trkpt>
      <trkpt lat="46.01698" lon="6.35489">
        <ele>1496</ele>
        <time>2017-12-19T11:02:42Z</time>
      </trkpt>
      <trkpt lat="46.01697" lon="6.35488">
        <ele>1496</ele>
        <time>2017-12-19T11:02:43Z</time>
      </trkpt>
      <trkpt lat="46.01697" lon="6.35487">
        <ele>1496</ele>
        <time>2017-12-19T11:02:44Z</time>
      </trkpt>
      <trkpt lat="46.01696" lon="6.35486">
        <ele>1496</ele>
        <time>2017-12-19T11:02:45Z</time>
      </trkpt>
      <trkpt lat="46.01695" lon="6.35485">
        <ele>1496</ele>
        <time>2017-12-19T11:02:46Z</time>
      </trkpt>
      <trkpt lat="46.01694" lon="6.35484">
        <ele>1496</ele>
        <time>2017-12-19T11:02:47Z</time>
      </trkpt>
      <trkpt lat="46.01693" lon="6.35483">
        <ele>1496</ele>
        <time>2017-12-19T11:02:48Z</time>
      </trkpt>
      <trkpt lat="46.01692" lon="6.35482">
        <ele>1497</ele>
        <time>2017-12-19T11:02:49Z</time>
      </trkpt>
      <trkpt lat="46.01691" lon="6.35481">
        <ele>1497</ele>
        <time>2017-12-19T11:02:50Z</time>
      </trkpt>
      <trkpt lat="46.0169" lon="6.3548">
        <ele>1497</ele>
        <time>2017-12-19T11:02:51Z</time>
      </trkpt>
      <trkpt lat="46.01689" lon="6.35478">
        <ele>1497</ele>
        <time>2017-12-19T11:02:52Z</time>
      </trkpt>
      <trkpt lat="46.01688" lon="6.35477">
        <ele>1497</ele>
        <time>2017-12-19T11:02:53Z</time>
      </trkpt>
      <trkpt lat="46.01687" lon="6.35476">
        <ele>1497</ele>
        <time>2017-12-19T11:02:54Z</time>
      </trkpt>
      <trkpt lat="46.01686" lon="6.35475">
        <ele>1497</ele>
        <time>2017-12-19T11:02:55Z</time>
      </trkpt>
      <trkpt lat="46.01685" lon="6.35474">
        <ele>1497</ele>
        <time>2017-12-19T11:02:56Z</time>
      </trkpt>
      <trkpt lat="46.01684" lon="6.35472">
        <ele>1497</ele>
        <time>2017-12-19T11:02:57Z</time>
      </trkpt>
      <trkpt lat="46.01683" lon="6.35472">
        <ele>1498</ele>
        <time>2017-12-19T11:02:58Z</time>
      </trkpt>
      <trkpt lat="46.01682" lon="6.3547">
        <ele>1498</ele>
        <time>2017-12-19T11:02:59Z</time>
      </trkpt>
      <trkpt lat="46.01681" lon="6.35469">
        <ele>1498</ele>
        <time>2017-12-19T11:03:00Z</time>
      </trkpt>
      <trkpt lat="46.01679" lon="6.35468">
        <ele>1498</ele>
        <time>2017-12-19T11:03:01Z</time>
      </trkpt>
      <trkpt lat="46.01678" lon="6.35467">
        <ele>1498</ele>
        <time>2017-12-19T11:03:02Z</time>
      </trkpt>
      <trkpt lat="46.01657" lon="6.35445">
        <ele>1496</ele>
        <time>2017-12-19T11:03:22Z</time>
      </trkpt>
      <trkpt lat="46.01644" lon="6.35432">
        <ele>1497</ele>
        <time>2017-12-19T11:03:35Z</time>
      </trkpt>
      <trkpt lat="46.0163" lon="6.35421">
        <ele>1494</ele>
        <time>2017-12-19T11:03:47Z</time>
      </trkpt>
      <trkpt lat="46.01626" lon="6.35418">
        <ele>1493</ele>
        <time>2017-12-19T11:03:50Z</time>
      </trkpt>
      <trkpt lat="46.01626" lon="6.35417">
        <ele>1493</ele>
        <time>2017-12-19T11:03:51Z</time>
      </trkpt>
      <trkpt lat="46.01625" lon="6.35416">
        <ele>1507</ele>
        <time>2017-12-19T11:03:52Z</time>
      </trkpt>
      <trkpt lat="46.01624" lon="6.35415">
        <ele>1507</ele>
        <time>2017-12-19T11:03:53Z</time>
      </trkpt>
      <trkpt lat="46.01624" lon="6.35414">
        <ele>1507</ele>
        <time>2017-12-19T11:03:54Z</time>
      </trkpt>
      <trkpt lat="46.0161" lon="6.35402">
        <ele>1505</ele>
        <time>2017-12-19T11:04:06Z</time>
      </trkpt>
      <trkpt lat="46.01599" lon="6.35391">
        <ele>1505</ele>
        <time>2017-12-19T11:04:16Z</time>
      </trkpt>
      <trkpt lat="46.01594" lon="6.35388">
        <ele>1505</ele>
        <time>2017-12-19T11:04:29Z</time>
      </trkpt>
      <trkpt lat="46.01588" lon="6.35383">
        <ele>1506</ele>
        <time>2017-12-19T11:04:35Z</time>
      </trkpt>
      <trkpt lat="46.01587" lon="6.35382">
        <ele>1506</ele>
        <time>2017-12-19T11:04:36Z</time>
      </trkpt>
      <trkpt lat="46.01586" lon="6.35381">
        <ele>1506</ele>
        <time>2017-12-19T11:04:37Z</time>
      </trkpt>
      <trkpt lat="46.01584" lon="6.35381">
        <ele>1507</ele>
        <time>2017-12-19T11:04:38Z</time>
      </trkpt>
      <trkpt lat="46.01583" lon="6.3538">
        <ele>1507</ele>
        <time>2017-12-19T11:04:39Z</time>
      </trkpt>
      <trkpt lat="46.01583" lon="6.35379">
        <ele>1494</ele>
        <time>2017-12-19T11:04:40Z</time>
      </trkpt>
      <trkpt lat="46.01582" lon="6.35379">
        <ele>1495</ele>
        <time>2017-12-19T11:04:41Z</time>
      </trkpt>
      <trkpt lat="46.01581" lon="6.35378">
        <ele>1495</ele>
        <time>2017-12-19T11:04:42Z</time>
      </trkpt>
      <trkpt lat="46.01579" lon="6.35377">
        <ele>1495</ele>
        <time>2017-12-19T11:04:43Z</time>
      </trkpt>
      <trkpt lat="46.01578" lon="6.35377">
        <ele>1495</ele>
        <time>2017-12-19T11:04:44Z</time>
      </trkpt>
      <trkpt lat="46.01574" lon="6.35374">
        <ele>1495</ele>
        <time>2017-12-19T11:04:47Z</time>
      </trkpt>
      <trkpt lat="46.01562" lon="6.35361">
        <ele>1497</ele>
        <time>2017-12-19T11:05:00Z</time>
      </trkpt>
      <trkpt lat="46.01546" lon="6.35348">
        <ele>1496</ele>
        <time>2017-12-19T11:05:15Z</time>
      </trkpt>
      <trkpt lat="46.01536" lon="6.35339">
        <ele>1495</ele>
        <time>2017-12-19T11:05:24Z</time>
      </trkpt>
      <trkpt lat="46.01519" lon="6.35322">
        <ele>1505</ele>
        <time>2017-12-19T11:05:43Z</time>
      </trkpt>
      <trkpt lat="46.01514" lon="6.35317">
        <ele>1505</ele>
        <time>2017-12-19T11:05:48Z</time>
      </trkpt>
      <trkpt lat="46.01493" lon="6.35295">
        <ele>1498</ele>
        <time>2017-12-19T11:06:10Z</time>
      </trkpt>
      <trkpt lat="46.01476" lon="6.35278">
        <ele>1501</ele>
        <time>2017-12-19T11:06:28Z</time>
      </trkpt>
      <trkpt lat="46.01457" lon="6.35263">
        <ele>1500</ele>
        <time>2017-12-19T11:06:46Z</time>
      </trkpt>
      <trkpt lat="46.0144" lon="6.35253">
        <ele>1499</ele>
        <time>2017-12-19T11:07:01Z</time>
      </trkpt>
      <trkpt lat="46.01418" lon="6.35237">
        <ele>1507</ele>
        <time>2017-12-19T11:07:23Z</time>
      </trkpt>
      <trkpt lat="46.01417" lon="6.35237">
        <ele>1508</ele>
        <time>2017-12-19T11:07:24Z</time>
      </trkpt>
      <trkpt lat="46.01416" lon="6.35236">
        <ele>1503</ele>
        <time>2017-12-19T11:07:25Z</time>
      </trkpt>
      <trkpt lat="46.01416" lon="6.35235">
        <ele>1503</ele>
        <time>2017-12-19T11:07:26Z</time>
      </trkpt>
      <trkpt lat="46.01415" lon="6.35234">
        <ele>1504</ele>
        <time>2017-12-19T11:07:27Z</time>
      </trkpt>
      <trkpt lat="46.01414" lon="6.35234">
        <ele>1504</ele>
        <time>2017-12-19T11:07:28Z</time>
      </trkpt>
      <trkpt lat="46.01413" lon="6.35233">
        <ele>1504</ele>
        <time>2017-12-19T11:07:29Z</time>
      </trkpt>
      <trkpt lat="46.01412" lon="6.35233">
        <ele>1504</ele>
        <time>2017-12-19T11:07:30Z</time>
      </trkpt>
      <trkpt lat="46.01411" lon="6.35232">
        <ele>1504</ele>
        <time>2017-12-19T11:07:31Z</time>
      </trkpt>
      <trkpt lat="46.01401" lon="6.35224">
        <ele>1507</ele>
        <time>2017-12-19T11:07:42Z</time>
      </trkpt>
      <trkpt lat="46.014" lon="6.35223">
        <ele>1507</ele>
        <time>2017-12-19T11:07:43Z</time>
      </trkpt>
      <trkpt lat="46.01399" lon="6.35223">
        <ele>1507</ele>
        <time>2017-12-19T11:07:44Z</time>
      </trkpt>
      <trkpt lat="46.01389" lon="6.35218">
        <ele>1508</ele>
        <time>2017-12-19T11:07:55Z</time>
      </trkpt>
      <trkpt lat="46.01388" lon="6.35217">
        <ele>1508</ele>
        <time>2017-12-19T11:07:56Z</time>
      </trkpt>
      <trkpt lat="46.01387" lon="6.35217">
        <ele>1508</ele>
        <time>2017-12-19T11:07:57Z</time>
      </trkpt>
      <trkpt lat="46.0137" lon="6.35203">
        <ele>1509</ele>
        <time>2017-12-19T11:08:17Z</time>
      </trkpt>
      <trkpt lat="46.01369" lon="6.35203">
        <ele>1509</ele>
        <time>2017-12-19T11:08:18Z</time>
      </trkpt>
      <trkpt lat="46.01368" lon="6.35202">
        <ele>1509</ele>
        <time>2017-12-19T11:08:19Z</time>
      </trkpt>
      <trkpt lat="46.01367" lon="6.35202">
        <ele>1509</ele>
        <time>2017-12-19T11:08:20Z</time>
      </trkpt>
      <trkpt lat="46.01366" lon="6.35201">
        <ele>1509</ele>
        <time>2017-12-19T11:08:21Z</time>
      </trkpt>
      <trkpt lat="46.01365" lon="6.35201">
        <ele>1509</ele>
        <time>2017-12-19T11:08:22Z</time>
      </trkpt>
      <trkpt lat="46.01364" lon="6.352">
        <ele>1509</ele>
        <time>2017-12-19T11:08:23Z</time>
      </trkpt>
      <trkpt lat="46.01348" lon="6.35189">
        <ele>1510</ele>
        <time>2017-12-19T11:08:39Z</time>
      </trkpt>
      <trkpt lat="46.01343" lon="6.35184">
        <ele>1511</ele>
        <time>2017-12-19T11:08:47Z</time>
      </trkpt>
      <trkpt lat="46.01343" lon="6.35183">
        <ele>1511</ele>
        <time>2017-12-19T11:08:48Z</time>
      </trkpt>
      <trkpt lat="46.01342" lon="6.35182">
        <ele>1511</ele>
        <time>2017-12-19T11:08:49Z</time>
      </trkpt>
      <trkpt lat="46.0134" lon="6.35181">
        <ele>1512</ele>
        <time>2017-12-19T11:08:53Z</time>
      </trkpt>
      <trkpt lat="46.0134" lon="6.35181">
        <ele>1512</ele>
        <time>2017-12-19T11:08:54Z</time>
      </trkpt>
      <trkpt lat="46.01339" lon="6.35181">
        <ele>1512</ele>
        <time>2017-12-19T11:08:55Z</time>
      </trkpt>
      <trkpt lat="46.01339" lon="6.35181">
        <ele>1512</ele>
        <time>2017-12-19T11:08:56Z</time>
      </trkpt>
      <trkpt lat="46.01338" lon="6.35182">
        <ele>1512</ele>
        <time>2017-12-19T11:08:57Z</time>
      </trkpt>
      <trkpt lat="46.01337" lon="6.35181">
        <ele>1512</ele>
        <time>2017-12-19T11:08:58Z</time>
      </trkpt>
      <trkpt lat="46.01336" lon="6.35181">
        <ele>1512</ele>
        <time>2017-12-19T11:08:59Z</time>
      </trkpt>
      <trkpt lat="46.01335" lon="6.3518">
        <ele>1512</ele>
        <time>2017-12-19T11:09:00Z</time>
      </trkpt>
      <trkpt lat="46.01335" lon="6.35179">
        <ele>1512</ele>
        <time>2017-12-19T11:09:01Z</time>
      </trkpt>
      <trkpt lat="46.01334" lon="6.35179">
        <ele>1512</ele>
        <time>2017-12-19T11:09:02Z</time>
      </trkpt>
      <trkpt lat="46.01333" lon="6.35178">
        <ele>1512</ele>
        <time>2017-12-19T11:09:03Z</time>
      </trkpt>
      <trkpt lat="46.01325" lon="6.35169">
        <ele>1512</ele>
        <time>2017-12-19T11:09:14Z</time>
      </trkpt>
      <trkpt lat="46.01324" lon="6.35168">
        <ele>1512</ele>
        <time>2017-12-19T11:09:15Z</time>
      </trkpt>
      <trkpt lat="46.01323" lon="6.35167">
        <ele>1512</ele>
        <time>2017-12-19T11:09:16Z</time>
      </trkpt>
      <trkpt lat="46.01322" lon="6.35166">
        <ele>1517</ele>
        <time>2017-12-19T11:09:17Z</time>
      </trkpt>
      <trkpt lat="46.01321" lon="6.35166">
        <ele>1517</ele>
        <time>2017-12-19T11:09:18Z</time>
      </trkpt>
      <trkpt lat="46.0132" lon="6.35166">
        <ele>1517</ele>
        <time>2017-12-19T11:09:19Z</time>
      </trkpt>
      <trkpt lat="46.01318" lon="6.35165">
        <ele>1518</ele>
        <time>2017-12-19T11:09:20Z</time>
      </trkpt>
      <trkpt lat="46.01318" lon="6.35165">
        <ele>1518</ele>
        <time>2017-12-19T11:09:21Z</time>
      </trkpt>
      <trkpt lat="46.01317" lon="6.35164">
        <ele>1518</ele>
        <time>2017-12-19T11:09:22Z</time>
      </trkpt>
      <trkpt lat="46.01316" lon="6.35164">
        <ele>1518</ele>
        <time>2017-12-19T11:09:23Z</time>
      </trkpt>
      <trkpt lat="46.01315" lon="6.35163">
        <ele>1518</ele>
        <time>2017-12-19T11:09:24Z</time>
      </trkpt>
      <trkpt lat="46.01314" lon="6.35162">
        <ele>1518</ele>
        <time>2017-12-19T11:09:25Z</time>
      </trkpt>
      <trkpt lat="46.01313" lon="6.35162">
        <ele>1518</ele>
        <time>2017-12-19T11:09:26Z</time>
      </trkpt>
      <trkpt lat="46.01311" lon="6.35161">
        <ele>1519</ele>
        <time>2017-12-19T11:09:27Z</time>
      </trkpt>
      <trkpt lat="46.0131" lon="6.35161">
        <ele>1519</ele>
        <time>2017-12-19T11:09:28Z</time>
      </trkpt>
      <trkpt lat="46.01309" lon="6.3516">
        <ele>1519</ele>
        <time>2017-12-19T11:09:29Z</time>
      </trkpt>
      <trkpt lat="46.01308" lon="6.35159">
        <ele>1519</ele>
        <time>2017-12-19T11:09:30Z</time>
      </trkpt>
      <trkpt lat="46.01305" lon="6.35158">
        <ele>1519</ele>
        <time>2017-12-19T11:09:31Z</time>
      </trkpt>
      <trkpt lat="46.01303" lon="6.35157">
        <ele>1519</ele>
        <time>2017-12-19T11:09:32Z</time>
      </trkpt>
      <trkpt lat="46.01302" lon="6.35156">
        <ele>1519</ele>
        <time>2017-12-19T11:09:33Z</time>
      </trkpt>
      <trkpt lat="46.013" lon="6.35154">
        <ele>1520</ele>
        <time>2017-12-19T11:09:35Z</time>
      </trkpt>
      <trkpt lat="46.01293" lon="6.35143">
        <ele>1521</ele>
        <time>2017-12-19T11:09:47Z</time>
      </trkpt>
      <trkpt lat="46.01283" lon="6.35141">
        <ele>1520</ele>
        <time>2017-12-19T11:10:00Z</time>
      </trkpt>
      <trkpt lat="46.01281" lon="6.35141">
        <ele>1520</ele>
        <time>2017-12-19T11:10:01Z</time>
      </trkpt>
      <trkpt lat="46.0128" lon="6.35141">
        <ele>1520</ele>
        <time>2017-12-19T11:10:02Z</time>
      </trkpt>
      <trkpt lat="46.01268" lon="6.35133">
        <ele>1521</ele>
        <time>2017-12-19T11:10:17Z</time>
      </trkpt>
      <trkpt lat="46.01253" lon="6.35129">
        <ele>1521</ele>
        <time>2017-12-19T11:10:49Z</time>
      </trkpt>
      <trkpt lat="46.01247" lon="6.35122">
        <ele>1520</ele>
        <time>2017-12-19T11:10:57Z</time>
      </trkpt>
      <trkpt lat="46.01216" lon="6.35117">
        <ele>1521</ele>
        <time>2017-12-19T11:11:32Z</time>
      </trkpt>
      <trkpt lat="46.01212" lon="6.35122">
        <ele>1521</ele>
        <time>2017-12-19T11:11:39Z</time>
      </trkpt>
      <trkpt lat="46.0121" lon="6.35124">
        <ele>1521</ele>
        <time>2017-12-19T11:11:42Z</time>
      </trkpt>
      <trkpt lat="46.01208" lon="6.35128">
        <ele>1521</ele>
        <time>2017-12-19T11:11:46Z</time>
      </trkpt>
      <trkpt lat="46.01205" lon="6.3513">
        <ele>1521</ele>
        <time>2017-12-19T11:11:50Z</time>
      </trkpt>
      <trkpt lat="46.01198" lon="6.35133">
        <ele>1520</ele>
        <time>2017-12-19T11:11:59Z</time>
      </trkpt>
      <trkpt lat="46.01173" lon="6.35151">
        <ele>1519</ele>
        <time>2017-12-19T11:12:23Z</time>
      </trkpt>
      <trkpt lat="46.01158" lon="6.35156">
        <ele>1523</ele>
        <time>2017-12-19T11:12:35Z</time>
      </trkpt>
      <trkpt lat="46.01114" lon="6.35169">
        <ele>1526</ele>
        <time>2017-12-19T11:13:11Z</time>
      </trkpt>
      <trkpt lat="46.01101" lon="6.35176">
        <ele>1527</ele>
        <time>2017-12-19T11:13:25Z</time>
      </trkpt>
      <trkpt lat="46.011" lon="6.35177">
        <ele>1527</ele>
        <time>2017-12-19T11:13:26Z</time>
      </trkpt>
      <trkpt lat="46.01084" lon="6.35182">
        <ele>1528</ele>
        <time>2017-12-19T11:13:46Z</time>
      </trkpt>
      <trkpt lat="46.01078" lon="6.35182">
        <ele>1532</ele>
        <time>2017-12-19T11:13:56Z</time>
      </trkpt>
      <trkpt lat="46.01077" lon="6.35183">
        <ele>1532</ele>
        <time>2017-12-19T11:13:57Z</time>
      </trkpt>
      <trkpt lat="46.01063" lon="6.3519">
        <ele>1533</ele>
        <time>2017-12-19T11:14:21Z</time>
      </trkpt>
      <trkpt lat="46.0106" lon="6.35193">
        <ele>1533</ele>
        <time>2017-12-19T11:14:26Z</time>
      </trkpt>
      <trkpt lat="46.01059" lon="6.35195">
        <ele>1533</ele>
        <time>2017-12-19T11:14:28Z</time>
      </trkpt>
      <trkpt lat="46.01045" lon="6.35209">
        <ele>1534</ele>
        <time>2017-12-19T11:14:33Z</time>
      </trkpt>
      <trkpt lat="46.01041" lon="6.35214">
        <ele>1534</ele>
        <time>2017-12-19T11:14:36Z</time>
      </trkpt>
      <trkpt lat="46.01037" lon="6.35222">
        <ele>1534</ele>
        <time>2017-12-19T11:14:42Z</time>
      </trkpt>
      <trkpt lat="46.01036" lon="6.35223">
        <ele>1534</ele>
        <time>2017-12-19T11:14:43Z</time>
      </trkpt>
      <trkpt lat="46.01035" lon="6.35224">
        <ele>1535</ele>
        <time>2017-12-19T11:14:44Z</time>
      </trkpt>
      <trkpt lat="46.01034" lon="6.35225">
        <ele>1535</ele>
        <time>2017-12-19T11:14:45Z</time>
      </trkpt>
      <trkpt lat="46.01032" lon="6.35227">
        <ele>1535</ele>
        <time>2017-12-19T11:14:47Z</time>
      </trkpt>
      <trkpt lat="46.0103" lon="6.35228">
        <ele>1535</ele>
        <time>2017-12-19T11:14:50Z</time>
      </trkpt>
      <trkpt lat="46.01003" lon="6.35235">
        <ele>1538</ele>
        <time>2017-12-19T11:15:15Z</time>
      </trkpt>
      <trkpt lat="46.00987" lon="6.35247">
        <ele>1584</ele>
        <time>2017-12-19T11:15:34Z</time>
      </trkpt>
      <trkpt lat="46.00979" lon="6.35254">
        <ele>1590</ele>
        <time>2017-12-19T11:15:44Z</time>
      </trkpt>
      <trkpt lat="46.00967" lon="6.35265">
        <ele>1612</ele>
        <time>2017-12-19T11:16:00Z</time>
      </trkpt>
      <trkpt lat="46.00955" lon="6.3527">
        <ele>1627</ele>
        <time>2017-12-19T11:16:15Z</time>
      </trkpt>
      <trkpt lat="46.0095" lon="6.35258">
        <ele>1636</ele>
        <time>2017-12-19T11:16:28Z</time>
      </trkpt>
      <trkpt lat="46.00949" lon="6.35233">
        <ele>1658</ele>
        <time>2017-12-19T11:16:39Z</time>
      </trkpt>
      <trkpt lat="46.00966" lon="6.35208">
        <ele>1639</ele>
        <time>2017-12-19T11:16:55Z</time>
      </trkpt>
      <trkpt lat="46.00966" lon="6.35208">
        <ele>1638</ele>
        <time>2017-12-19T11:16:56Z</time>
      </trkpt>
      <trkpt lat="46.00974" lon="6.35202">
        <ele>1629</ele>
        <time>2017-12-19T11:17:20Z</time>
      </trkpt>
      <trkpt lat="46.00974" lon="6.35205">
        <ele>1628</ele>
        <time>2017-12-19T11:17:24Z</time>
      </trkpt>
      <trkpt lat="46.00974" lon="6.35213">
        <ele>1627</ele>
        <time>2017-12-19T11:17:31Z</time>
      </trkpt>
      <trkpt lat="46.00973" lon="6.3522">
        <ele>1627</ele>
        <time>2017-12-19T11:17:41Z</time>
      </trkpt>
      <trkpt lat="46.00967" lon="6.35237">
        <ele>1630</ele>
        <time>2017-12-19T11:17:59Z</time>
      </trkpt>
      <trkpt lat="46.00964" lon="6.35222">
        <ele>1638</ele>
        <time>2017-12-19T11:18:12Z</time>
      </trkpt>
      <trkpt lat="46.00965" lon="6.35215">
        <ele>1638</ele>
        <time>2017-12-19T11:18:15Z</time>
      </trkpt>
      <trkpt lat="46.00973" lon="6.3519">
        <ele>1628</ele>
        <time>2017-12-19T11:18:35Z</time>
      </trkpt>
      <trkpt lat="46.00977" lon="6.35189">
        <ele>1620</ele>
        <time>2017-12-19T11:18:47Z</time>
      </trkpt>
      <trkpt lat="46.00974" lon="6.35194">
        <ele>1627</ele>
        <time>2017-12-19T11:18:52Z</time>
      </trkpt>
      <trkpt lat="46.00972" lon="6.35198">
        <ele>1630</ele>
        <time>2017-12-19T11:18:55Z</time>
      </trkpt>
      <trkpt lat="46.00963" lon="6.35214">
        <ele>1642</ele>
        <time>2017-12-19T11:19:13Z</time>
      </trkpt>
      <trkpt lat="46.00955" lon="6.35232">
        <ele>1649</ele>
        <time>2017-12-19T11:19:33Z</time>
      </trkpt>
      <trkpt lat="46.00946" lon="6.35229">
        <ele>1661</ele>
        <time>2017-12-19T11:19:57Z</time>
      </trkpt>
      <trkpt lat="46.00944" lon="6.35221">
        <ele>1664</ele>
        <time>2017-12-19T11:20:07Z</time>
      </trkpt>
      <trkpt lat="46.00937" lon="6.35229">
        <ele>1673</ele>
        <time>2017-12-19T11:20:27Z</time>
      </trkpt>
      <trkpt lat="46.0093" lon="6.35242">
        <ele>1687</ele>
        <time>2017-12-19T11:20:45Z</time>
      </trkpt>
      <trkpt lat="46.00926" lon="6.3525">
        <ele>1698</ele>
        <time>2017-12-19T11:20:55Z</time>
      </trkpt>
      <trkpt lat="46.00921" lon="6.35253">
        <ele>1701</ele>
        <time>2017-12-19T11:20:59Z</time>
      </trkpt>
      <trkpt lat="46.00911" lon="6.35269">
        <ele>1717</ele>
        <time>2017-12-19T11:21:19Z</time>
      </trkpt>
      <trkpt lat="46.00907" lon="6.35281">
        <ele>1715</ele>
        <time>2017-12-19T11:21:37Z</time>
      </trkpt>
      <trkpt lat="46.00899" lon="6.3529">
        <ele>1713</ele>
        <time>2017-12-19T11:21:55Z</time>
      </trkpt>
      <trkpt lat="46.00893" lon="6.35303">
        <ele>1710</ele>
        <time>2017-12-19T11:22:14Z</time>
      </trkpt>
      <trkpt lat="46.00891" lon="6.35309">
        <ele>1708</ele>
        <time>2017-12-19T11:22:21Z</time>
      </trkpt>
      <trkpt lat="46.00885" lon="6.3532">
        <ele>1708</ele>
        <time>2017-12-19T11:22:39Z</time>
      </trkpt>
      <trkpt lat="46.00885" lon="6.35335">
        <ele>1681</ele>
        <time>2017-12-19T11:22:56Z</time>
      </trkpt>
      <trkpt lat="46.00884" lon="6.35336">
        <ele>1682</ele>
        <time>2017-12-19T11:23:05Z</time>
      </trkpt>
      <trkpt lat="46.00875" lon="6.3532">
        <ele>1715</ele>
        <time>2017-12-19T11:23:26Z</time>
      </trkpt>
      <trkpt lat="46.00874" lon="6.35316">
        <ele>1716</ele>
        <time>2017-12-19T11:23:30Z</time>
      </trkpt>
      <trkpt lat="46.00872" lon="6.35304">
        <ele>1719</ele>
        <time>2017-12-19T11:23:49Z</time>
      </trkpt>
      <trkpt lat="46.0087" lon="6.35291">
        <ele>1723</ele>
        <time>2017-12-19T11:24:10Z</time>
      </trkpt>
      <trkpt lat="46.00869" lon="6.3529">
        <ele>1724</ele>
        <time>2017-12-19T11:24:14Z</time>
      </trkpt>
      <trkpt lat="46.00868" lon="6.35292">
        <ele>1724</ele>
        <time>2017-12-19T11:24:23Z</time>
      </trkpt>
      <trkpt lat="46.0086" lon="6.35309">
        <ele>1725</ele>
        <time>2017-12-19T11:24:46Z</time>
      </trkpt>
      <trkpt lat="46.00859" lon="6.35311">
        <ele>1725</ele>
        <time>2017-12-19T11:24:48Z</time>
      </trkpt>
      <trkpt lat="46.00855" lon="6.35331">
        <ele>1727</ele>
        <time>2017-12-19T11:25:12Z</time>
      </trkpt>
      <trkpt lat="46.00854" lon="6.35345">
        <ele>1705</ele>
        <time>2017-12-19T11:25:33Z</time>
      </trkpt>
      <trkpt lat="46.00852" lon="6.35353">
        <ele>1703</ele>
        <time>2017-12-19T11:25:44Z</time>
      </trkpt>
      <trkpt lat="46.00854" lon="6.35373">
        <ele>1693</ele>
        <time>2017-12-19T11:26:05Z</time>
      </trkpt>
      <trkpt lat="46.00849" lon="6.35389">
        <ele>1692</ele>
        <time>2017-12-19T11:26:26Z</time>
      </trkpt>
      <trkpt lat="46.00848" lon="6.35403">
        <ele>1693</ele>
        <time>2017-12-19T11:26:46Z</time>
      </trkpt>
      <trkpt lat="46.00838" lon="6.3536">
        <ele>1705</ele>
        <time>2017-12-19T11:27:07Z</time>
      </trkpt>
      <trkpt lat="46.00855" lon="6.35401">
        <ele>1689</ele>
        <time>2017-12-19T11:27:28Z</time>
      </trkpt>
      <trkpt lat="46.00853" lon="6.35413">
        <ele>1690</ele>
        <time>2017-12-19T11:27:38Z</time>
      </trkpt>
      <trkpt lat="46.00853" lon="6.35414">
        <ele>1691</ele>
        <time>2017-12-19T11:27:39Z</time>
      </trkpt>
      <trkpt lat="46.00856" lon="6.35416">
        <ele>1688</ele>
        <time>2017-12-19T11:27:43Z</time>
      </trkpt>
      <trkpt lat="46.00856" lon="6.35419">
        <ele>1684</ele>
        <time>2017-12-19T11:27:46Z</time>
      </trkpt>
      <trkpt lat="46.00857" lon="6.3543">
        <ele>1682</ele>
        <time>2017-12-19T11:28:01Z</time>
      </trkpt>
      <trkpt lat="46.00849" lon="6.35425">
        <ele>1688</ele>
        <time>2017-12-19T11:28:24Z</time>
      </trkpt>
      <trkpt lat="46.00845" lon="6.35427">
        <ele>1691</ele>
        <time>2017-12-19T11:28:52Z</time>
      </trkpt>
      <trkpt lat="46.00839" lon="6.35428">
        <ele>1693</ele>
        <time>2017-12-19T11:29:21Z</time>
      </trkpt>
      <trkpt lat="46.0084" lon="6.35432">
        <ele>1691</ele>
        <time>2017-12-19T11:29:30Z</time>
      </trkpt>
      <trkpt lat="46.0084" lon="6.35435">
        <ele>1690</ele>
        <time>2017-12-19T11:29:35Z</time>
      </trkpt>
      <trkpt lat="46.00836" lon="6.35433">
        <ele>1692</ele>
        <time>2017-12-19T11:29:48Z</time>
      </trkpt>
      <trkpt lat="46.0083" lon="6.3543">
        <ele>1708</ele>
        <time>2017-12-19T11:30:15Z</time>
      </trkpt>
      <trkpt lat="46.00832" lon="6.35435">
        <ele>1708</ele>
        <time>2017-12-19T11:30:28Z</time>
      </trkpt>
      <trkpt lat="46.00831" lon="6.35434">
        <ele>1708</ele>
        <time>2017-12-19T11:30:45Z</time>
      </trkpt>
      <trkpt lat="46.00824" lon="6.35427">
        <ele>1708</ele>
        <time>2017-12-19T11:31:11Z</time>
      </trkpt>
      <trkpt lat="46.00825" lon="6.35427">
        <ele>1708</ele>
        <time>2017-12-19T11:31:17Z</time>
      </trkpt>
      <trkpt lat="46.00825" lon="6.35431">
        <ele>1708</ele>
        <time>2017-12-19T11:31:32Z</time>
      </trkpt>
      <trkpt lat="46.00826" lon="6.35433">
        <ele>1708</ele>
        <time>2017-12-19T11:31:34Z</time>
      </trkpt>
      <trkpt lat="46.00827" lon="6.35447">
        <ele>1709</ele>
        <time>2017-12-19T11:31:54Z</time>
      </trkpt>
      <trkpt lat="46.00828" lon="6.35453">
        <ele>1709</ele>
        <time>2017-12-19T11:32:04Z</time>
      </trkpt>
      <trkpt lat="46.00829" lon="6.35454">
        <ele>1709</ele>
        <time>2017-12-19T11:32:08Z</time>
      </trkpt>
      <trkpt lat="46.00827" lon="6.35453">
        <ele>1709</ele>
        <time>2017-12-19T11:32:10Z</time>
      </trkpt>
      <trkpt lat="46.00822" lon="6.35439">
        <ele>1709</ele>
        <time>2017-12-19T11:32:46Z</time>
      </trkpt>
      <trkpt lat="46.0082" lon="6.35443">
        <ele>1709</ele>
        <time>2017-12-19T11:33:01Z</time>
      </trkpt>
      <trkpt lat="46.00823" lon="6.35456">
        <ele>1709</ele>
        <time>2017-12-19T11:33:32Z</time>
      </trkpt>
      <trkpt lat="46.00821" lon="6.35464">
        <ele>1709</ele>
        <time>2017-12-19T11:33:42Z</time>
      </trkpt>
      <trkpt lat="46.00821" lon="6.35466">
        <ele>1709</ele>
        <time>2017-12-19T11:33:43Z</time>
      </trkpt>
      <trkpt lat="46.00818" lon="6.35476">
        <ele>1708</ele>
        <time>2017-12-19T11:33:53Z</time>
      </trkpt>
      <trkpt lat="46.00816" lon="6.35488">
        <ele>1708</ele>
        <time>2017-12-19T11:34:06Z</time>
      </trkpt>
      <trkpt lat="46.00808" lon="6.35489">
        <ele>1708</ele>
        <time>2017-12-19T11:34:17Z</time>
      </trkpt>
      <trkpt lat="46.00802" lon="6.35483">
        <ele>1708</ele>
        <time>2017-12-19T11:34:31Z</time>
      </trkpt>
      <trkpt lat="46.00797" lon="6.35487">
        <ele>1707</ele>
        <time>2017-12-19T11:34:38Z</time>
      </trkpt>
      <trkpt lat="46.00795" lon="6.3549">
        <ele>1707</ele>
        <time>2017-12-19T11:34:42Z</time>
      </trkpt>
      <trkpt lat="46.00787" lon="6.35503">
        <ele>1704</ele>
        <time>2017-12-19T11:34:58Z</time>
      </trkpt>
      <trkpt lat="46.00781" lon="6.35508">
        <ele>1703</ele>
        <time>2017-12-19T11:35:07Z</time>
      </trkpt>
      <trkpt lat="46.00779" lon="6.35508">
        <ele>1703</ele>
        <time>2017-12-19T11:35:09Z</time>
      </trkpt>
      <trkpt lat="46.00776" lon="6.35502">
        <ele>1702</ele>
        <time>2017-12-19T11:35:21Z</time>
      </trkpt>
      <trkpt lat="46.00775" lon="6.35501">
        <ele>1702</ele>
        <time>2017-12-19T11:35:31Z</time>
      </trkpt>
      <trkpt lat="46.00775" lon="6.35501">
        <ele>1702</ele>
        <time>2017-12-19T11:35:36Z</time>
      </trkpt>
      <trkpt lat="46.00776" lon="6.35502">
        <ele>1702</ele>
        <time>2017-12-19T11:35:38Z</time>
      </trkpt>
      <trkpt lat="46.00776" lon="6.35503">
        <ele>1702</ele>
        <time>2017-12-19T11:35:43Z</time>
      </trkpt>
      <trkpt lat="46.00776" lon="6.35503">
        <ele>1702</ele>
        <time>2017-12-19T11:35:50Z</time>
      </trkpt>
      <trkpt lat="46.00776" lon="6.35503">
        <ele>1702</ele>
        <time>2017-12-19T11:35:53Z</time>
      </trkpt>
      <trkpt lat="46.00776" lon="6.35503">
        <ele>1702</ele>
        <time>2017-12-19T11:35:56Z</time>
      </trkpt>
      <trkpt lat="46.00776" lon="6.35504">
        <ele>1702</ele>
        <time>2017-12-19T11:35:59Z</time>
      </trkpt>
      <trkpt lat="46.00775" lon="6.35506">
        <ele>1702</ele>
        <time>2017-12-19T11:36:04Z</time>
      </trkpt>
      <trkpt lat="46.00775" lon="6.35506">
        <ele>1702</ele>
        <time>2017-12-19T11:36:06Z</time>
      </trkpt>
      <trkpt lat="46.00775" lon="6.35507">
        <ele>1702</ele>
        <time>2017-12-19T11:36:09Z</time>
      </trkpt>
      <trkpt lat="46.00777" lon="6.35508">
        <ele>1703</ele>
        <time>2017-12-19T11:36:22Z</time>
      </trkpt>
      <trkpt lat="46.00778" lon="6.35508">
        <ele>1703</ele>
        <time>2017-12-19T11:36:36Z</time>
      </trkpt>
      <trkpt lat="46.00779" lon="6.35507">
        <ele>1703</ele>
        <time>2017-12-19T11:36:45Z</time>
      </trkpt>
      <trkpt lat="46.00779" lon="6.35506">
        <ele>1703</ele>
        <time>2017-12-19T11:36:56Z</time>
      </trkpt>
      <trkpt lat="46.0078" lon="6.35506">
        <ele>1703</ele>
        <time>2017-12-19T11:37:01Z</time>
      </trkpt>
      <trkpt lat="46.00778" lon="6.35506">
        <ele>1703</ele>
        <time>2017-12-19T11:37:17Z</time>
      </trkpt>
      <trkpt lat="46.00778" lon="6.35505">
        <ele>1703</ele>
        <time>2017-12-19T11:37:21Z</time>
      </trkpt>
      <trkpt lat="46.00776" lon="6.35506">
        <ele>1702</ele>
        <time>2017-12-19T11:37:36Z</time>
      </trkpt>
      <trkpt lat="46.00776" lon="6.35506">
        <ele>1702</ele>
        <time>2017-12-19T11:37:52Z</time>
      </trkpt>
      <trkpt lat="46.00776" lon="6.35506">
        <ele>1702</ele>
        <time>2017-12-19T11:38:01Z</time>
      </trkpt>
      <trkpt lat="46.0077" lon="6.35498">
        <ele>1703</ele>
        <time>2017-12-19T11:38:25Z</time>
      </trkpt>
      <trkpt lat="46.00768" lon="6.35495">
        <ele>1703</ele>
        <time>2017-12-19T11:38:30Z</time>
      </trkpt>
      <trkpt lat="46.00767" lon="6.35493">
        <ele>1703</ele>
        <time>2017-12-19T11:38:33Z</time>
      </trkpt>
      <trkpt lat="46.00766" lon="6.35492">
        <ele>1703</ele>
        <time>2017-12-19T11:38:34Z</time>
      </trkpt>
      <trkpt lat="46.00765" lon="6.3549">
        <ele>1703</ele>
        <time>2017-12-19T11:38:36Z</time>
      </trkpt>
      <trkpt lat="46.00765" lon="6.35489">
        <ele>1703</ele>
        <time>2017-12-19T11:38:38Z</time>
      </trkpt>
      <trkpt lat="46.00765" lon="6.35487">
        <ele>1704</ele>
        <time>2017-12-19T11:38:41Z</time>
      </trkpt>
      <trkpt lat="46.00762" lon="6.35484">
        <ele>1704</ele>
        <time>2017-12-19T11:38:45Z</time>
      </trkpt>
      <trkpt lat="46.0076" lon="6.35478">
        <ele>1705</ele>
        <time>2017-12-19T11:38:51Z</time>
      </trkpt>
      <trkpt lat="46.00756" lon="6.35472">
        <ele>1706</ele>
        <time>2017-12-19T11:38:59Z</time>
      </trkpt>
      <trkpt lat="46.00753" lon="6.35465">
        <ele>1708</ele>
        <time>2017-12-19T11:39:07Z</time>
      </trkpt>
      <trkpt lat="46.00745" lon="6.35447">
        <ele>1704</ele>
        <time>2017-12-19T11:39:27Z</time>
      </trkpt>
      <trkpt lat="46.00741" lon="6.35432">
        <ele>1709</ele>
        <time>2017-12-19T11:39:45Z</time>
      </trkpt>
      <trkpt lat="46.00736" lon="6.35422">
        <ele>1711</ele>
        <time>2017-12-19T11:40:00Z</time>
      </trkpt>
      <trkpt lat="46.00732" lon="6.35409">
        <ele>1723</ele>
        <time>2017-12-19T11:40:17Z</time>
      </trkpt>
      <trkpt lat="46.00732" lon="6.35407">
        <ele>1723</ele>
        <time>2017-12-19T11:40:18Z</time>
      </trkpt>
      <trkpt lat="46.00728" lon="6.35396">
        <ele>1724</ele>
        <time>2017-12-19T11:40:35Z</time>
      </trkpt>
      <trkpt lat="46.00724" lon="6.35382">
        <ele>1726</ele>
        <time>2017-12-19T11:40:55Z</time>
      </trkpt>
      <trkpt lat="46.00718" lon="6.35369">
        <ele>1727</ele>
        <time>2017-12-19T11:41:14Z</time>
      </trkpt>
      <trkpt lat="46.00714" lon="6.35357">
        <ele>1728</ele>
        <time>2017-12-19T11:41:30Z</time>
      </trkpt>
      <trkpt lat="46.00708" lon="6.35344">
        <ele>1729</ele>
        <time>2017-12-19T11:41:47Z</time>
      </trkpt>
      <trkpt lat="46.00706" lon="6.35331">
        <ele>1749</ele>
        <time>2017-12-19T11:42:05Z</time>
      </trkpt>
      <trkpt lat="46.00704" lon="6.35318">
        <ele>1749</ele>
        <time>2017-12-19T11:42:22Z</time>
      </trkpt>
      <trkpt lat="46.00702" lon="6.35309">
        <ele>1751</ele>
        <time>2017-12-19T11:42:35Z</time>
      </trkpt>
      <trkpt lat="46.00695" lon="6.35304">
        <ele>1750</ele>
        <time>2017-12-19T11:42:56Z</time>
      </trkpt>
      <trkpt lat="46.00691" lon="6.35295">
        <ele>1751</ele>
        <time>2017-12-19T11:43:13Z</time>
      </trkpt>
      <trkpt lat="46.00686" lon="6.35286">
        <ele>1753</ele>
        <time>2017-12-19T11:43:30Z</time>
      </trkpt>
      <trkpt lat="46.00684" lon="6.35274">
        <ele>1755</ele>
        <time>2017-12-19T11:43:45Z</time>
      </trkpt>
      <trkpt lat="46.00683" lon="6.35262">
        <ele>1756</ele>
        <time>2017-12-19T11:44:02Z</time>
      </trkpt>
      <trkpt lat="46.0068" lon="6.35251">
        <ele>1757</ele>
        <time>2017-12-19T11:44:18Z</time>
      </trkpt>
      <trkpt lat="46.00678" lon="6.35247">
        <ele>1769</ele>
        <time>2017-12-19T11:44:26Z</time>
      </trkpt>
      <trkpt lat="46.00675" lon="6.35235">
        <ele>1772</ele>
        <time>2017-12-19T11:44:42Z</time>
      </trkpt>
      <trkpt lat="46.00673" lon="6.35228">
        <ele>1775</ele>
        <time>2017-12-19T11:44:51Z</time>
      </trkpt>
      <trkpt lat="46.00674" lon="6.35221">
        <ele>1778</ele>
        <time>2017-12-19T11:45:11Z</time>
      </trkpt>
      <trkpt lat="46.00683" lon="6.35228">
        <ele>1777</ele>
        <time>2017-12-19T11:45:32Z</time>
      </trkpt>
      <trkpt lat="46.00692" lon="6.35234">
        <ele>1778</ele>
        <time>2017-12-19T11:45:51Z</time>
      </trkpt>
      <trkpt lat="46.007" lon="6.35235">
        <ele>1780</ele>
        <time>2017-12-19T11:46:06Z</time>
      </trkpt>
      <trkpt lat="46.00708" lon="6.35243">
        <ele>1780</ele>
        <time>2017-12-19T11:46:26Z</time>
      </trkpt>
      <trkpt lat="46.00715" lon="6.35246">
        <ele>1781</ele>
        <time>2017-12-19T11:46:49Z</time>
      </trkpt>
      <trkpt lat="46.00726" lon="6.35249">
        <ele>1783</ele>
        <time>2017-12-19T11:47:09Z</time>
      </trkpt>
      <trkpt lat="46.0073" lon="6.35251">
        <ele>1768</ele>
        <time>2017-12-19T11:47:18Z</time>
      </trkpt>
      <trkpt lat="46.00735" lon="6.35254">
        <ele>1769</ele>
        <time>2017-12-19T11:47:41Z</time>
      </trkpt>
      <trkpt lat="46.00733" lon="6.35247">
        <ele>1783</ele>
        <time>2017-12-19T11:47:53Z</time>
      </trkpt>
      <trkpt lat="46.00731" lon="6.35231">
        <ele>1785</ele>
        <time>2017-12-19T11:48:15Z</time>
      </trkpt>
      <trkpt lat="46.00728" lon="6.35221">
        <ele>1786</ele>
        <time>2017-12-19T11:48:32Z</time>
      </trkpt>
      <trkpt lat="46.00725" lon="6.35211">
        <ele>1788</ele>
        <time>2017-12-19T11:48:50Z</time>
      </trkpt>
      <trkpt lat="46.00723" lon="6.35199">
        <ele>1790</ele>
        <time>2017-12-19T11:49:09Z</time>
      </trkpt>
      <trkpt lat="46.00723" lon="6.35189">
        <ele>1792</ele>
        <time>2017-12-19T11:49:25Z</time>
      </trkpt>
      <trkpt lat="46.00732" lon="6.35193">
        <ele>1793</ele>
        <time>2017-12-19T11:49:48Z</time>
      </trkpt>
      <trkpt lat="46.00739" lon="6.35195">
        <ele>1794</ele>
        <time>2017-12-19T11:50:03Z</time>
      </trkpt>
      <trkpt lat="46.00744" lon="6.35198">
        <ele>1794</ele>
        <time>2017-12-19T11:50:18Z</time>
      </trkpt>
      <trkpt lat="46.00743" lon="6.35185">
        <ele>1799</ele>
        <time>2017-12-19T11:50:37Z</time>
      </trkpt>
      <trkpt lat="46.0074" lon="6.35173">
        <ele>1804</ele>
        <time>2017-12-19T11:50:57Z</time>
      </trkpt>
      <trkpt lat="46.00738" lon="6.35159">
        <ele>1813</ele>
        <time>2017-12-19T11:51:14Z</time>
      </trkpt>
      <trkpt lat="46.00733" lon="6.35146">
        <ele>1814</ele>
        <time>2017-12-19T11:51:34Z</time>
      </trkpt>
      <trkpt lat="46.00731" lon="6.35136">
        <ele>1815</ele>
        <time>2017-12-19T11:51:47Z</time>
      </trkpt>
      <trkpt lat="46.0073" lon="6.35133">
        <ele>1815</ele>
        <time>2017-12-19T11:51:51Z</time>
      </trkpt>
      <trkpt lat="46.0073" lon="6.35131">
        <ele>1815</ele>
        <time>2017-12-19T11:51:54Z</time>
      </trkpt>
      <trkpt lat="46.00729" lon="6.35124">
        <ele>1816</ele>
        <time>2017-12-19T11:52:00Z</time>
      </trkpt>
      <trkpt lat="46.00724" lon="6.35099">
        <ele>1820</ele>
        <time>2017-12-19T11:52:22Z</time>
      </trkpt>
      <trkpt lat="46.0072" lon="6.35085">
        <ele>1820</ele>
        <time>2017-12-19T11:52:39Z</time>
      </trkpt>
      <trkpt lat="46.00717" lon="6.35074">
        <ele>1833</ele>
        <time>2017-12-19T11:52:55Z</time>
      </trkpt>
      <trkpt lat="46.00715" lon="6.35061">
        <ele>1833</ele>
        <time>2017-12-19T11:53:13Z</time>
      </trkpt>
      <trkpt lat="46.00713" lon="6.35049">
        <ele>1834</ele>
        <time>2017-12-19T11:53:30Z</time>
      </trkpt>
      <trkpt lat="46.00713" lon="6.35043">
        <ele>1835</ele>
        <time>2017-12-19T11:53:37Z</time>
      </trkpt>
      <trkpt lat="46.00719" lon="6.35038">
        <ele>1837</ele>
        <time>2017-12-19T11:53:56Z</time>
      </trkpt>
      <trkpt lat="46.00727" lon="6.35042">
        <ele>1837</ele>
        <time>2017-12-19T11:54:14Z</time>
      </trkpt>
      <trkpt lat="46.00726" lon="6.35036">
        <ele>1838</ele>
        <time>2017-12-19T11:54:24Z</time>
      </trkpt>
      <trkpt lat="46.00727" lon="6.35026">
        <ele>1840</ele>
        <time>2017-12-19T11:54:43Z</time>
      </trkpt>
      <trkpt lat="46.00731" lon="6.35032">
        <ele>1840</ele>
        <time>2017-12-19T11:55:00Z</time>
      </trkpt>
      <trkpt lat="46.0073" lon="6.3503">
        <ele>1840</ele>
        <time>2017-12-19T11:55:10Z</time>
      </trkpt>
      <trkpt lat="46.00726" lon="6.35024">
        <ele>1840</ele>
        <time>2017-12-19T11:55:23Z</time>
      </trkpt>
      <trkpt lat="46.00723" lon="6.35007">
        <ele>1843</ele>
        <time>2017-12-19T11:55:41Z</time>
      </trkpt>
      <trkpt lat="46.00723" lon="6.34998">
        <ele>1834</ele>
        <time>2017-12-19T11:55:52Z</time>
      </trkpt>
      <trkpt lat="46.00723" lon="6.34992">
        <ele>1833</ele>
        <time>2017-12-19T11:55:58Z</time>
      </trkpt>
      <trkpt lat="46.00732" lon="6.34996">
        <ele>1839</ele>
        <time>2017-12-19T11:56:16Z</time>
      </trkpt>
      <trkpt lat="46.00736" lon="6.34999">
        <ele>1842</ele>
        <time>2017-12-19T11:56:27Z</time>
      </trkpt>
      <trkpt lat="46.00735" lon="6.34994">
        <ele>1840</ele>
        <time>2017-12-19T11:56:36Z</time>
      </trkpt>
      <trkpt lat="46.00733" lon="6.34981">
        <ele>1833</ele>
        <time>2017-12-19T11:56:52Z</time>
      </trkpt>
      <trkpt lat="46.00733" lon="6.34969">
        <ele>1826</ele>
        <time>2017-12-19T11:57:08Z</time>
      </trkpt>
      <trkpt lat="46.0074" lon="6.34972">
        <ele>1829</ele>
        <time>2017-12-19T11:57:28Z</time>
      </trkpt>
      <trkpt lat="46.00742" lon="6.34974">
        <ele>1830</ele>
        <time>2017-12-19T11:57:33Z</time>
      </trkpt>
      <trkpt lat="46.00741" lon="6.34963">
        <ele>1823</ele>
        <time>2017-12-19T11:57:51Z</time>
      </trkpt>
      <trkpt lat="46.00742" lon="6.34958">
        <ele>1820</ele>
        <time>2017-12-19T11:57:57Z</time>
      </trkpt>
      <trkpt lat="46.00749" lon="6.34964">
        <ele>1823</ele>
        <time>2017-12-19T11:58:16Z</time>
      </trkpt>
      <trkpt lat="46.00747" lon="6.34955">
        <ele>1818</ele>
        <time>2017-12-19T11:58:32Z</time>
      </trkpt>
      <trkpt lat="46.00748" lon="6.34949">
        <ele>1813</ele>
        <time>2017-12-19T11:58:42Z</time>
      </trkpt>
      <trkpt lat="46.00755" lon="6.34951">
        <ele>1796</ele>
        <time>2017-12-19T11:59:02Z</time>
      </trkpt>
      <trkpt lat="46.0076" lon="6.34946">
        <ele>1791</ele>
        <time>2017-12-19T11:59:14Z</time>
      </trkpt>
      <trkpt lat="46.00766" lon="6.34953">
        <ele>1795</ele>
        <time>2017-12-19T11:59:27Z</time>
      </trkpt>
      <trkpt lat="46.00767" lon="6.34954">
        <ele>1795</ele>
        <time>2017-12-19T11:59:28Z</time>
      </trkpt>
      <trkpt lat="46.00768" lon="6.34957">
        <ele>1797</ele>
        <time>2017-12-19T11:59:33Z</time>
      </trkpt>
      <trkpt lat="46.00768" lon="6.34958">
        <ele>1798</ele>
        <time>2017-12-19T11:59:44Z</time>
      </trkpt>
      <trkpt lat="46.00768" lon="6.34958">
        <ele>1798</ele>
        <time>2017-12-19T11:59:47Z</time>
      </trkpt>
      <trkpt lat="46.00766" lon="6.34957">
        <ele>1797</ele>
        <time>2017-12-19T11:59:52Z</time>
      </trkpt>
      <trkpt lat="46.00765" lon="6.34958">
        <ele>1798</ele>
        <time>2017-12-19T11:59:57Z</time>
      </trkpt>
      <trkpt lat="46.00766" lon="6.34958">
        <ele>1798</ele>
        <time>2017-12-19T11:59:58Z</time>
      </trkpt>
      <trkpt lat="46.00765" lon="6.34958">
        <ele>1798</ele>
        <time>2017-12-19T12:00:00Z</time>
      </trkpt>
      <trkpt lat="46.00765" lon="6.34958">
        <ele>1798</ele>
        <time>2017-12-19T12:00:02Z</time>
      </trkpt>
      <trkpt lat="46.00765" lon="6.34957">
        <ele>1798</ele>
        <time>2017-12-19T12:00:08Z</time>
      </trkpt>
      <trkpt lat="46.00764" lon="6.34959">
        <ele>1799</ele>
        <time>2017-12-19T12:00:09Z</time>
      </trkpt>
      <trkpt lat="46.00763" lon="6.34965">
        <ele>1805</ele>
        <time>2017-12-19T12:00:24Z</time>
      </trkpt>
      <trkpt lat="46.00763" lon="6.34965">
        <ele>1805</ele>
        <time>2017-12-19T12:00:27Z</time>
      </trkpt>
      <trkpt lat="46.00763" lon="6.34966">
        <ele>1805</ele>
        <time>2017-12-19T12:00:28Z</time>
      </trkpt>
      <trkpt lat="46.00762" lon="6.34965">
        <ele>1805</ele>
        <time>2017-12-19T12:00:35Z</time>
      </trkpt>
      <trkpt lat="46.00762" lon="6.34965">
        <ele>1805</ele>
        <time>2017-12-19T12:00:40Z</time>
      </trkpt>
      <trkpt lat="46.00761" lon="6.34965">
        <ele>1805</ele>
        <time>2017-12-19T12:00:48Z</time>
      </trkpt>
      <trkpt lat="46.0076" lon="6.34965">
        <ele>1805</ele>
        <time>2017-12-19T12:00:58Z</time>
      </trkpt>
      <trkpt lat="46.00761" lon="6.34965">
        <ele>1805</ele>
        <time>2017-12-19T12:01:01Z</time>
      </trkpt>
      <trkpt lat="46.00761" lon="6.34966">
        <ele>1806</ele>
        <time>2017-12-19T12:01:06Z</time>
      </trkpt>
      <trkpt lat="46.00762" lon="6.34967">
        <ele>1806</ele>
        <time>2017-12-19T12:01:15Z</time>
      </trkpt>
      <trkpt lat="46.00762" lon="6.34967">
        <ele>1806</ele>
        <time>2017-12-19T12:01:26Z</time>
      </trkpt>
      <trkpt lat="46.00764" lon="6.34966">
        <ele>1805</ele>
        <time>2017-12-19T12:01:39Z</time>
      </trkpt>
      <trkpt lat="46.00764" lon="6.34966">
        <ele>1805</ele>
        <time>2017-12-19T12:01:46Z</time>
      </trkpt>
      <trkpt lat="46.00762" lon="6.34967">
        <ele>1806</ele>
        <time>2017-12-19T12:01:56Z</time>
      </trkpt>
      <trkpt lat="46.00762" lon="6.34966">
        <ele>1805</ele>
        <time>2017-12-19T12:02:05Z</time>
      </trkpt>
      <trkpt lat="46.00764" lon="6.34965">
        <ele>1805</ele>
        <time>2017-12-19T12:02:14Z</time>
      </trkpt>
      <trkpt lat="46.00764" lon="6.34966">
        <ele>1805</ele>
        <time>2017-12-19T12:02:21Z</time>
      </trkpt>
      <trkpt lat="46.00763" lon="6.34963">
        <ele>1803</ele>
        <time>2017-12-19T12:02:45Z</time>
      </trkpt>
      <trkpt lat="46.00763" lon="6.34963">
        <ele>1803</ele>
        <time>2017-12-19T12:02:49Z</time>
      </trkpt>
      <trkpt lat="46.00763" lon="6.34964">
        <ele>1804</ele>
        <time>2017-12-19T12:02:57Z</time>
      </trkpt>
      <trkpt lat="46.00763" lon="6.34964">
        <ele>1804</ele>
        <time>2017-12-19T12:03:03Z</time>
      </trkpt>
      <trkpt lat="46.00763" lon="6.34963">
        <ele>1803</ele>
        <time>2017-12-19T12:03:29Z</time>
      </trkpt>
      <trkpt lat="46.00764" lon="6.34965">
        <ele>1804</ele>
        <time>2017-12-19T12:03:46Z</time>
      </trkpt>
      <trkpt lat="46.00765" lon="6.34965">
        <ele>1804</ele>
        <time>2017-12-19T12:03:48Z</time>
      </trkpt>
      <trkpt lat="46.00764" lon="6.34965">
        <ele>1804</ele>
        <time>2017-12-19T12:03:51Z</time>
      </trkpt>
      <trkpt lat="46.00766" lon="6.34961">
        <ele>1801</ele>
        <time>2017-12-19T12:04:03Z</time>
      </trkpt>
      <trkpt lat="46.00766" lon="6.34961">
        <ele>1801</ele>
        <time>2017-12-19T12:04:05Z</time>
      </trkpt>
      <trkpt lat="46.00766" lon="6.34961">
        <ele>1801</ele>
        <time>2017-12-19T12:04:09Z</time>
      </trkpt>
      <trkpt lat="46.00765" lon="6.34961">
        <ele>1801</ele>
        <time>2017-12-19T12:04:21Z</time>
      </trkpt>
      <trkpt lat="46.00766" lon="6.34964">
        <ele>1803</ele>
        <time>2017-12-19T12:04:29Z</time>
      </trkpt>
      <trkpt lat="46.00768" lon="6.34966">
        <ele>1804</ele>
        <time>2017-12-19T12:04:30Z</time>
      </trkpt>
      <trkpt lat="46.00768" lon="6.34968">
        <ele>1805</ele>
        <time>2017-12-19T12:04:31Z</time>
      </trkpt>
      <trkpt lat="46.00769" lon="6.3497">
        <ele>1806</ele>
        <time>2017-12-19T12:04:35Z</time>
      </trkpt>
      <trkpt lat="46.00773" lon="6.34973">
        <ele>1807</ele>
        <time>2017-12-19T12:04:43Z</time>
      </trkpt>
      <trkpt lat="46.00774" lon="6.34973">
        <ele>1807</ele>
        <time>2017-12-19T12:04:47Z</time>
      </trkpt>
      <trkpt lat="46.00781" lon="6.34972">
        <ele>1804</ele>
        <time>2017-12-19T12:05:10Z</time>
      </trkpt>
      <trkpt lat="46.00781" lon="6.34972">
        <ele>1803</ele>
        <time>2017-12-19T12:05:13Z</time>
      </trkpt>
      <trkpt lat="46.00781" lon="6.34973">
        <ele>1804</ele>
        <time>2017-12-19T12:05:21Z</time>
      </trkpt>
      <trkpt lat="46.00781" lon="6.34973">
        <ele>1804</ele>
        <time>2017-12-19T12:05:24Z</time>
      </trkpt>
      <trkpt lat="46.00787" lon="6.34975">
        <ele>1803</ele>
        <time>2017-12-19T12:05:40Z</time>
      </trkpt>
      <trkpt lat="46.00788" lon="6.34976">
        <ele>1803</ele>
        <time>2017-12-19T12:05:41Z</time>
      </trkpt>
      <trkpt lat="46.00789" lon="6.34976">
        <ele>1803</ele>
        <time>2017-12-19T12:05:42Z</time>
      </trkpt>
      <trkpt lat="46.0079" lon="6.34977">
        <ele>1803</ele>
        <time>2017-12-19T12:05:43Z</time>
      </trkpt>
      <trkpt lat="46.00791" lon="6.34978">
        <ele>1804</ele>
        <time>2017-12-19T12:05:44Z</time>
      </trkpt>
      <trkpt lat="46.00793" lon="6.34981">
        <ele>1805</ele>
        <time>2017-12-19T12:05:45Z</time>
      </trkpt>
      <trkpt lat="46.00795" lon="6.34985">
        <ele>1807</ele>
        <time>2017-12-19T12:05:46Z</time>
      </trkpt>
      <trkpt lat="46.00793" lon="6.34991">
        <ele>1809</ele>
        <time>2017-12-19T12:05:47Z</time>
      </trkpt>
      <trkpt lat="46.0079" lon="6.34996">
        <ele>1812</ele>
        <time>2017-12-19T12:05:48Z</time>
      </trkpt>
      <trkpt lat="46.00787" lon="6.35001">
        <ele>1847</ele>
        <time>2017-12-19T12:05:49Z</time>
      </trkpt>
      <trkpt lat="46.00784" lon="6.35006">
        <ele>1847</ele>
        <time>2017-12-19T12:05:50Z</time>
      </trkpt>
      <trkpt lat="46.00782" lon="6.35011">
        <ele>1847</ele>
        <time>2017-12-19T12:05:51Z</time>
      </trkpt>
      <trkpt lat="46.00783" lon="6.35014">
        <ele>1847</ele>
        <time>2017-12-19T12:05:52Z</time>
      </trkpt>
      <trkpt lat="46.00784" lon="6.35019">
        <ele>1846</ele>
        <time>2017-12-19T12:05:53Z</time>
      </trkpt>
      <trkpt lat="46.00785" lon="6.35025">
        <ele>1846</ele>
        <time>2017-12-19T12:05:54Z</time>
      </trkpt>
      <trkpt lat="46.00787" lon="6.35029">
        <ele>1845</ele>
        <time>2017-12-19T12:05:55Z</time>
      </trkpt>
      <trkpt lat="46.00791" lon="6.35032">
        <ele>1845</ele>
        <time>2017-12-19T12:05:56Z</time>
      </trkpt>
      <trkpt lat="46.00793" lon="6.35033">
        <ele>1844</ele>
        <time>2017-12-19T12:05:57Z</time>
      </trkpt>
      <trkpt lat="46.00796" lon="6.35033">
        <ele>1844</ele>
        <time>2017-12-19T12:05:58Z</time>
      </trkpt>
      <trkpt lat="46.00801" lon="6.35037">
        <ele>1844</ele>
        <time>2017-12-19T12:06:01Z</time>
      </trkpt>
      <trkpt lat="46.00803" lon="6.3504">
        <ele>1844</ele>
        <time>2017-12-19T12:06:02Z</time>
      </trkpt>
      <trkpt lat="46.00805" lon="6.35043">
        <ele>1843</ele>
        <time>2017-12-19T12:06:03Z</time>
      </trkpt>
      <trkpt lat="46.00807" lon="6.35049">
        <ele>1843</ele>
        <time>2017-12-19T12:06:04Z</time>
      </trkpt>
      <trkpt lat="46.00809" lon="6.35055">
        <ele>1843</ele>
        <time>2017-12-19T12:06:05Z</time>
      </trkpt>
      <trkpt lat="46.00811" lon="6.35064">
        <ele>1843</ele>
        <time>2017-12-19T12:06:06Z</time>
      </trkpt>
      <trkpt lat="46.00812" lon="6.35073">
        <ele>1843</ele>
        <time>2017-12-19T12:06:07Z</time>
      </trkpt>
      <trkpt lat="46.00813" lon="6.35082">
        <ele>1843</ele>
        <time>2017-12-19T12:06:08Z</time>
      </trkpt>
      <trkpt lat="46.00815" lon="6.35084">
        <ele>1833</ele>
        <time>2017-12-19T12:06:10Z</time>
      </trkpt>
      <trkpt lat="46.00815" lon="6.35086">
        <ele>1832</ele>
        <time>2017-12-19T12:06:13Z</time>
      </trkpt>
      <trkpt lat="46.00815" lon="6.35084">
        <ele>1833</ele>
        <time>2017-12-19T12:06:21Z</time>
      </trkpt>
      <trkpt lat="46.00817" lon="6.35082">
        <ele>1843</ele>
        <time>2017-12-19T12:06:22Z</time>
      </trkpt>
      <trkpt lat="46.00821" lon="6.35088">
        <ele>1834</ele>
        <time>2017-12-19T12:06:32Z</time>
      </trkpt>
      <trkpt lat="46.0082" lon="6.35091">
        <ele>1833</ele>
        <time>2017-12-19T12:06:33Z</time>
      </trkpt>
      <trkpt lat="46.0082" lon="6.35092">
        <ele>1833</ele>
        <time>2017-12-19T12:06:34Z</time>
      </trkpt>
      <trkpt lat="46.00819" lon="6.35092">
        <ele>1833</ele>
        <time>2017-12-19T12:06:37Z</time>
      </trkpt>
      <trkpt lat="46.00818" lon="6.35094">
        <ele>1832</ele>
        <time>2017-12-19T12:06:41Z</time>
      </trkpt>
      <trkpt lat="46.00816" lon="6.35097">
        <ele>1830</ele>
        <time>2017-12-19T12:06:42Z</time>
      </trkpt>
      <trkpt lat="46.00812" lon="6.35098">
        <ele>1829</ele>
        <time>2017-12-19T12:06:43Z</time>
      </trkpt>
      <trkpt lat="46.00807" lon="6.35098">
        <ele>1828</ele>
        <time>2017-12-19T12:06:44Z</time>
      </trkpt>
      <trkpt lat="46.00801" lon="6.35101">
        <ele>1827</ele>
        <time>2017-12-19T12:06:45Z</time>
      </trkpt>
      <trkpt lat="46.00796" lon="6.35107">
        <ele>1826</ele>
        <time>2017-12-19T12:06:46Z</time>
      </trkpt>
      <trkpt lat="46.00791" lon="6.35115">
        <ele>1824</ele>
        <time>2017-12-19T12:06:47Z</time>
      </trkpt>
      <trkpt lat="46.00785" lon="6.35124">
        <ele>1822</ele>
        <time>2017-12-19T12:06:48Z</time>
      </trkpt>
      <trkpt lat="46.0078" lon="6.35136">
        <ele>1820</ele>
        <time>2017-12-19T12:06:49Z</time>
      </trkpt>
      <trkpt lat="46.00775" lon="6.35156">
        <ele>1818</ele>
        <time>2017-12-19T12:06:51Z</time>
      </trkpt>
      <trkpt lat="46.00775" lon="6.35168">
        <ele>1799</ele>
        <time>2017-12-19T12:06:52Z</time>
      </trkpt>
      <trkpt lat="46.00774" lon="6.35174">
        <ele>1799</ele>
        <time>2017-12-19T12:06:53Z</time>
      </trkpt>
      <trkpt lat="46.00772" lon="6.35179">
        <ele>1798</ele>
        <time>2017-12-19T12:06:54Z</time>
      </trkpt>
      <trkpt lat="46.00773" lon="6.35186">
        <ele>1796</ele>
        <time>2017-12-19T12:06:55Z</time>
      </trkpt>
      <trkpt lat="46.00773" lon="6.35195">
        <ele>1794</ele>
        <time>2017-12-19T12:06:56Z</time>
      </trkpt>
      <trkpt lat="46.00774" lon="6.35207">
        <ele>1791</ele>
        <time>2017-12-19T12:06:57Z</time>
      </trkpt>
      <trkpt lat="46.00774" lon="6.3522">
        <ele>1788</ele>
        <time>2017-12-19T12:06:58Z</time>
      </trkpt>
      <trkpt lat="46.00773" lon="6.35232">
        <ele>1786</ele>
        <time>2017-12-19T12:06:59Z</time>
      </trkpt>
      <trkpt lat="46.0077" lon="6.35243">
        <ele>1785</ele>
        <time>2017-12-19T12:07:00Z</time>
      </trkpt>
      <trkpt lat="46.00768" lon="6.35251">
        <ele>1771</ele>
        <time>2017-12-19T12:07:01Z</time>
      </trkpt>
      <trkpt lat="46.00765" lon="6.35255">
        <ele>1772</ele>
        <time>2017-12-19T12:07:02Z</time>
      </trkpt>
      <trkpt lat="46.00765" lon="6.35258">
        <ele>1772</ele>
        <time>2017-12-19T12:07:03Z</time>
      </trkpt>
      <trkpt lat="46.00763" lon="6.35264">
        <ele>1770</ele>
        <time>2017-12-19T12:07:04Z</time>
      </trkpt>
      <trkpt lat="46.00761" lon="6.35272">
        <ele>1768</ele>
        <time>2017-12-19T12:07:05Z</time>
      </trkpt>
      <trkpt lat="46.0076" lon="6.35282">
        <ele>1765</ele>
        <time>2017-12-19T12:07:06Z</time>
      </trkpt>
      <trkpt lat="46.00761" lon="6.35289">
        <ele>1763</ele>
        <time>2017-12-19T12:07:07Z</time>
      </trkpt>
      <trkpt lat="46.00763" lon="6.35294">
        <ele>1762</ele>
        <time>2017-12-19T12:07:08Z</time>
      </trkpt>
      <trkpt lat="46.00765" lon="6.353">
        <ele>1761</ele>
        <time>2017-12-19T12:07:09Z</time>
      </trkpt>
      <trkpt lat="46.00767" lon="6.35309">
        <ele>1759</ele>
        <time>2017-12-19T12:07:10Z</time>
      </trkpt>
      <trkpt lat="46.00767" lon="6.35316">
        <ele>1758</ele>
        <time>2017-12-19T12:07:11Z</time>
      </trkpt>
      <trkpt lat="46.0077" lon="6.35322">
        <ele>1757</ele>
        <time>2017-12-19T12:07:12Z</time>
      </trkpt>
      <trkpt lat="46.00771" lon="6.35328">
        <ele>1757</ele>
        <time>2017-12-19T12:07:13Z</time>
      </trkpt>
      <trkpt lat="46.0077" lon="6.35333">
        <ele>1756</ele>
        <time>2017-12-19T12:07:14Z</time>
      </trkpt>
      <trkpt lat="46.00769" lon="6.3534">
        <ele>1742</ele>
        <time>2017-12-19T12:07:15Z</time>
      </trkpt>
      <trkpt lat="46.00769" lon="6.35349">
        <ele>1740</ele>
        <time>2017-12-19T12:07:16Z</time>
      </trkpt>
      <trkpt lat="46.00769" lon="6.35359">
        <ele>1738</ele>
        <time>2017-12-19T12:07:17Z</time>
      </trkpt>
      <trkpt lat="46.00768" lon="6.35369">
        <ele>1735</ele>
        <time>2017-12-19T12:07:18Z</time>
      </trkpt>
      <trkpt lat="46.00769" lon="6.35378">
        <ele>1733</ele>
        <time>2017-12-19T12:07:19Z</time>
      </trkpt>
      <trkpt lat="46.00767" lon="6.35388">
        <ele>1731</ele>
        <time>2017-12-19T12:07:20Z</time>
      </trkpt>
      <trkpt lat="46.00764" lon="6.35396">
        <ele>1729</ele>
        <time>2017-12-19T12:07:21Z</time>
      </trkpt>
      <trkpt lat="46.00763" lon="6.35401">
        <ele>1728</ele>
        <time>2017-12-19T12:07:22Z</time>
      </trkpt>
      <trkpt lat="46.00762" lon="6.35407">
        <ele>1727</ele>
        <time>2017-12-19T12:07:23Z</time>
      </trkpt>
      <trkpt lat="46.00763" lon="6.35415">
        <ele>1727</ele>
        <time>2017-12-19T12:07:24Z</time>
      </trkpt>
      <trkpt lat="46.00764" lon="6.35422">
        <ele>1717</ele>
        <time>2017-12-19T12:07:25Z</time>
      </trkpt>
      <trkpt lat="46.00765" lon="6.35429">
        <ele>1715</ele>
        <time>2017-12-19T12:07:26Z</time>
      </trkpt>
      <trkpt lat="46.00768" lon="6.35445">
        <ele>1712</ele>
        <time>2017-12-19T12:07:29Z</time>
      </trkpt>
      <trkpt lat="46.00767" lon="6.35453">
        <ele>1710</ele>
        <time>2017-12-19T12:07:30Z</time>
      </trkpt>
      <trkpt lat="46.00765" lon="6.35465">
        <ele>1708</ele>
        <time>2017-12-19T12:07:32Z</time>
      </trkpt>
      <trkpt lat="46.00769" lon="6.35473">
        <ele>1707</ele>
        <time>2017-12-19T12:07:34Z</time>
      </trkpt>
      <trkpt lat="46.00772" lon="6.35479">
        <ele>1706</ele>
        <time>2017-12-19T12:07:35Z</time>
      </trkpt>
      <trkpt lat="46.00774" lon="6.35486">
        <ele>1705</ele>
        <time>2017-12-19T12:07:36Z</time>
      </trkpt>
      <trkpt lat="46.00775" lon="6.35491">
        <ele>1705</ele>
        <time>2017-12-19T12:07:37Z</time>
      </trkpt>
      <trkpt lat="46.00776" lon="6.35496">
        <ele>1705</ele>
        <time>2017-12-19T12:07:38Z</time>
      </trkpt>
      <trkpt lat="46.00777" lon="6.35497">
        <ele>1705</ele>
        <time>2017-12-19T12:07:39Z</time>
      </trkpt>
      <trkpt lat="46.00778" lon="6.35495">
        <ele>1705</ele>
        <time>2017-12-19T12:07:41Z</time>
      </trkpt>
      <trkpt lat="46.00778" lon="6.35494">
        <ele>1705</ele>
        <time>2017-12-19T12:07:42Z</time>
      </trkpt>
      <trkpt lat="46.00781" lon="6.35495">
        <ele>1705</ele>
        <time>2017-12-19T12:07:44Z</time>
      </trkpt>
      <trkpt lat="46.00782" lon="6.35495">
        <ele>1706</ele>
        <time>2017-12-19T12:07:45Z</time>
      </trkpt>
      <trkpt lat="46.00785" lon="6.35495">
        <ele>1706</ele>
        <time>2017-12-19T12:07:46Z</time>
      </trkpt>
      <trkpt lat="46.00787" lon="6.35496">
        <ele>1706</ele>
        <time>2017-12-19T12:07:47Z</time>
      </trkpt>
      <trkpt lat="46.00789" lon="6.35496">
        <ele>1706</ele>
        <time>2017-12-19T12:07:48Z</time>
      </trkpt>
      <trkpt lat="46.00791" lon="6.35494">
        <ele>1707</ele>
        <time>2017-12-19T12:07:49Z</time>
      </trkpt>
      <trkpt lat="46.00793" lon="6.35491">
        <ele>1707</ele>
        <time>2017-12-19T12:07:50Z</time>
      </trkpt>
      <trkpt lat="46.00794" lon="6.35489">
        <ele>1707</ele>
        <time>2017-12-19T12:07:51Z</time>
      </trkpt>
      <trkpt lat="46.00796" lon="6.35487">
        <ele>1707</ele>
        <time>2017-12-19T12:07:52Z</time>
      </trkpt>
      <trkpt lat="46.00798" lon="6.35488">
        <ele>1707</ele>
        <time>2017-12-19T12:07:53Z</time>
      </trkpt>
      <trkpt lat="46.008" lon="6.35488">
        <ele>1708</ele>
        <time>2017-12-19T12:07:54Z</time>
      </trkpt>
      <trkpt lat="46.00804" lon="6.35487">
        <ele>1708</ele>
        <time>2017-12-19T12:07:57Z</time>
      </trkpt>
      <trkpt lat="46.00807" lon="6.35487">
        <ele>1708</ele>
        <time>2017-12-19T12:07:58Z</time>
      </trkpt>
      <trkpt lat="46.0081" lon="6.35487">
        <ele>1708</ele>
        <time>2017-12-19T12:07:59Z</time>
      </trkpt>
      <trkpt lat="46.00811" lon="6.35484">
        <ele>1708</ele>
        <time>2017-12-19T12:08:00Z</time>
      </trkpt>
      <trkpt lat="46.00813" lon="6.35478">
        <ele>1708</ele>
        <time>2017-12-19T12:08:03Z</time>
      </trkpt>
      <trkpt lat="46.00813" lon="6.35475">
        <ele>1708</ele>
        <time>2017-12-19T12:08:04Z</time>
      </trkpt>
      <trkpt lat="46.00812" lon="6.35473">
        <ele>1708</ele>
        <time>2017-12-19T12:08:05Z</time>
      </trkpt>
      <trkpt lat="46.00813" lon="6.3547">
        <ele>1708</ele>
        <time>2017-12-19T12:08:07Z</time>
      </trkpt>
      <trkpt lat="46.00813" lon="6.35467">
        <ele>1709</ele>
        <time>2017-12-19T12:08:08Z</time>
      </trkpt>
      <trkpt lat="46.00813" lon="6.35463">
        <ele>1709</ele>
        <time>2017-12-19T12:08:09Z</time>
      </trkpt>
      <trkpt lat="46.00814" lon="6.35458">
        <ele>1709</ele>
        <time>2017-12-19T12:08:10Z</time>
      </trkpt>
      <trkpt lat="46.00814" lon="6.35453">
        <ele>1709</ele>
        <time>2017-12-19T12:08:11Z</time>
      </trkpt>
      <trkpt lat="46.00814" lon="6.35451">
        <ele>1709</ele>
        <time>2017-12-19T12:08:12Z</time>
      </trkpt>
      <trkpt lat="46.00813" lon="6.3545">
        <ele>1709</ele>
        <time>2017-12-19T12:08:15Z</time>
      </trkpt>
      <trkpt lat="46.00814" lon="6.35449">
        <ele>1709</ele>
        <time>2017-12-19T12:08:22Z</time>
      </trkpt>
      <trkpt lat="46.00818" lon="6.35447">
        <ele>1709</ele>
        <time>2017-12-19T12:08:24Z</time>
      </trkpt>
      <trkpt lat="46.00819" lon="6.35444">
        <ele>1709</ele>
        <time>2017-12-19T12:08:25Z</time>
      </trkpt>
      <trkpt lat="46.00821" lon="6.35441">
        <ele>1709</ele>
        <time>2017-12-19T12:08:26Z</time>
      </trkpt>
      <trkpt lat="46.00822" lon="6.35438">
        <ele>1709</ele>
        <time>2017-12-19T12:08:27Z</time>
      </trkpt>
      <trkpt lat="46.00823" lon="6.35436">
        <ele>1709</ele>
        <time>2017-12-19T12:08:28Z</time>
      </trkpt>
      <trkpt lat="46.00823" lon="6.35434">
        <ele>1709</ele>
        <time>2017-12-19T12:08:29Z</time>
      </trkpt>
      <trkpt lat="46.00824" lon="6.35433">
        <ele>1709</ele>
        <time>2017-12-19T12:08:30Z</time>
      </trkpt>
      <trkpt lat="46.00826" lon="6.35432">
        <ele>1708</ele>
        <time>2017-12-19T12:08:31Z</time>
      </trkpt>
      <trkpt lat="46.00827" lon="6.3543">
        <ele>1708</ele>
        <time>2017-12-19T12:08:33Z</time>
      </trkpt>
      <trkpt lat="46.00828" lon="6.35429">
        <ele>1708</ele>
        <time>2017-12-19T12:08:34Z</time>
      </trkpt>
      <trkpt lat="46.00829" lon="6.35427">
        <ele>1708</ele>
        <time>2017-12-19T12:08:35Z</time>
      </trkpt>
      <trkpt lat="46.00833" lon="6.35425">
        <ele>1708</ele>
        <time>2017-12-19T12:08:36Z</time>
      </trkpt>
      <trkpt lat="46.00837" lon="6.35424">
        <ele>1697</ele>
        <time>2017-12-19T12:08:37Z</time>
      </trkpt>
      <trkpt lat="46.0084" lon="6.35424">
        <ele>1696</ele>
        <time>2017-12-19T12:08:38Z</time>
      </trkpt>
      <trkpt lat="46.00847" lon="6.35422">
        <ele>1691</ele>
        <time>2017-12-19T12:08:39Z</time>
      </trkpt>
      <trkpt lat="46.00853" lon="6.35422">
        <ele>1686</ele>
        <time>2017-12-19T12:08:40Z</time>
      </trkpt>
      <trkpt lat="46.00858" lon="6.35423">
        <ele>1682</ele>
        <time>2017-12-19T12:08:41Z</time>
      </trkpt>
      <trkpt lat="46.00862" lon="6.35423">
        <ele>1679</ele>
        <time>2017-12-19T12:08:42Z</time>
      </trkpt>
      <trkpt lat="46.0087" lon="6.35421">
        <ele>1673</ele>
        <time>2017-12-19T12:08:43Z</time>
      </trkpt>
      <trkpt lat="46.00871" lon="6.35419">
        <ele>1672</ele>
        <time>2017-12-19T12:08:44Z</time>
      </trkpt>
      <trkpt lat="46.00872" lon="6.3542">
        <ele>1671</ele>
        <time>2017-12-19T12:08:45Z</time>
      </trkpt>
      <trkpt lat="46.0087" lon="6.3542">
        <ele>1673</ele>
        <time>2017-12-19T12:08:46Z</time>
      </trkpt>
      <trkpt lat="46.0087" lon="6.35419">
        <ele>1673</ele>
        <time>2017-12-19T12:08:47Z</time>
      </trkpt>
      <trkpt lat="46.00872" lon="6.35416">
        <ele>1677</ele>
        <time>2017-12-19T12:08:48Z</time>
      </trkpt>
      <trkpt lat="46.00875" lon="6.35411">
        <ele>1675</ele>
        <time>2017-12-19T12:08:49Z</time>
      </trkpt>
      <trkpt lat="46.00875" lon="6.35406">
        <ele>1675</ele>
        <time>2017-12-19T12:08:50Z</time>
      </trkpt>
      <trkpt lat="46.00882" lon="6.354">
        <ele>1671</ele>
        <time>2017-12-19T12:08:51Z</time>
      </trkpt>
      <trkpt lat="46.0089" lon="6.35393">
        <ele>1668</ele>
        <time>2017-12-19T12:08:52Z</time>
      </trkpt>
      <trkpt lat="46.00897" lon="6.35387">
        <ele>1666</ele>
        <time>2017-12-19T12:08:53Z</time>
      </trkpt>
      <trkpt lat="46.00902" lon="6.35379">
        <ele>1667</ele>
        <time>2017-12-19T12:08:54Z</time>
      </trkpt>
      <trkpt lat="46.00909" lon="6.35373">
        <ele>1667</ele>
        <time>2017-12-19T12:08:55Z</time>
      </trkpt>
      <trkpt lat="46.00918" lon="6.35367">
        <ele>1620</ele>
        <time>2017-12-19T12:08:56Z</time>
      </trkpt>
      <trkpt lat="46.00926" lon="6.35359">
        <ele>1622</ele>
        <time>2017-12-19T12:08:57Z</time>
      </trkpt>
      <trkpt lat="46.00933" lon="6.35354">
        <ele>1622</ele>
        <time>2017-12-19T12:08:58Z</time>
      </trkpt>
      <trkpt lat="46.00941" lon="6.35351">
        <ele>1618</ele>
        <time>2017-12-19T12:08:59Z</time>
      </trkpt>
      <trkpt lat="46.00949" lon="6.35345">
        <ele>1613</ele>
        <time>2017-12-19T12:09:00Z</time>
      </trkpt>
      <trkpt lat="46.00967" lon="6.35337">
        <ele>1599</ele>
        <time>2017-12-19T12:09:01Z</time>
      </trkpt>
      <trkpt lat="46.00979" lon="6.35332">
        <ele>1594</ele>
        <time>2017-12-19T12:09:02Z</time>
      </trkpt>
      <trkpt lat="46.00993" lon="6.35327">
        <ele>1576</ele>
        <time>2017-12-19T12:09:03Z</time>
      </trkpt>
      <trkpt lat="46.01003" lon="6.35318">
        <ele>1552</ele>
        <time>2017-12-19T12:09:04Z</time>
      </trkpt>
      <trkpt lat="46.01014" lon="6.35312">
        <ele>1550</ele>
        <time>2017-12-19T12:09:05Z</time>
      </trkpt>
      <trkpt lat="46.01028" lon="6.35309">
        <ele>1548</ele>
        <time>2017-12-19T12:09:06Z</time>
      </trkpt>
      <trkpt lat="46.01043" lon="6.35301">
        <ele>1546</ele>
        <time>2017-12-19T12:09:07Z</time>
      </trkpt>
      <trkpt lat="46.01062" lon="6.35293">
        <ele>1544</ele>
        <time>2017-12-19T12:09:08Z</time>
      </trkpt>
      <trkpt lat="46.01075" lon="6.35285">
        <ele>1542</ele>
        <time>2017-12-19T12:09:09Z</time>
      </trkpt>
      <trkpt lat="46.0103" lon="6.35279">
        <ele>1544</ele>
        <time>2017-12-19T12:09:10Z</time>
      </trkpt>
      <trkpt lat="46.01037" lon="6.35268">
        <ele>1543</ele>
        <time>2017-12-19T12:09:11Z</time>
      </trkpt>
      <trkpt lat="46.01041" lon="6.35259">
        <ele>1542</ele>
        <time>2017-12-19T12:09:12Z</time>
      </trkpt>
      <trkpt lat="46.01046" lon="6.35252">
        <ele>1541</ele>
        <time>2017-12-19T12:09:13Z</time>
      </trkpt>
      <trkpt lat="46.01052" lon="6.35246">
        <ele>1533</ele>
        <time>2017-12-19T12:09:14Z</time>
      </trkpt>
      <trkpt lat="46.01057" lon="6.35243">
        <ele>1533</ele>
        <time>2017-12-19T12:09:15Z</time>
      </trkpt>
      <trkpt lat="46.0106" lon="6.3524">
        <ele>1533</ele>
        <time>2017-12-19T12:09:16Z</time>
      </trkpt>
      <trkpt lat="46.01063" lon="6.35234">
        <ele>1532</ele>
        <time>2017-12-19T12:09:17Z</time>
      </trkpt>
      <trkpt lat="46.01067" lon="6.35229">
        <ele>1532</ele>
        <time>2017-12-19T12:09:18Z</time>
      </trkpt>
      <trkpt lat="46.01073" lon="6.35223">
        <ele>1532</ele>
        <time>2017-12-19T12:09:19Z</time>
      </trkpt>
      <trkpt lat="46.01079" lon="6.35221">
        <ele>1532</ele>
        <time>2017-12-19T12:09:20Z</time>
      </trkpt>
      <trkpt lat="46.01084" lon="6.35219">
        <ele>1526</ele>
        <time>2017-12-19T12:09:21Z</time>
      </trkpt>
      <trkpt lat="46.01088" lon="6.35218">
        <ele>1526</ele>
        <time>2017-12-19T12:09:22Z</time>
      </trkpt>
      <trkpt lat="46.01093" lon="6.35216">
        <ele>1526</ele>
        <time>2017-12-19T12:09:23Z</time>
      </trkpt>
      <trkpt lat="46.01075" lon="6.35214">
        <ele>1532</ele>
        <time>2017-12-19T12:09:24Z</time>
      </trkpt>
      <trkpt lat="46.01069" lon="6.35208">
        <ele>1533</ele>
        <time>2017-12-19T12:09:25Z</time>
      </trkpt>
      <trkpt lat="46.01066" lon="6.35201">
        <ele>1533</ele>
        <time>2017-12-19T12:09:26Z</time>
      </trkpt>
      <trkpt lat="46.01067" lon="6.35197">
        <ele>1533</ele>
        <time>2017-12-19T12:09:27Z</time>
      </trkpt>
      <trkpt lat="46.0107" lon="6.35193">
        <ele>1533</ele>
        <time>2017-12-19T12:09:28Z</time>
      </trkpt>
      <trkpt lat="46.01075" lon="6.35189">
        <ele>1532</ele>
        <time>2017-12-19T12:09:29Z</time>
      </trkpt>
      <trkpt lat="46.01084" lon="6.35184">
        <ele>1528</ele>
        <time>2017-12-19T12:09:31Z</time>
      </trkpt>
      <trkpt lat="46.01093" lon="6.35179">
        <ele>1528</ele>
        <time>2017-12-19T12:09:33Z</time>
      </trkpt>
      <trkpt lat="46.01111" lon="6.35172">
        <ele>1526</ele>
        <time>2017-12-19T12:09:36Z</time>
      </trkpt>
      <trkpt lat="46.01131" lon="6.35165">
        <ele>1527</ele>
        <time>2017-12-19T12:09:41Z</time>
      </trkpt>
      <trkpt lat="46.01134" lon="6.35164">
        <ele>1526</ele>
        <time>2017-12-19T12:09:42Z</time>
      </trkpt>
      <trkpt lat="46.01134" lon="6.35162">
        <ele>1526</ele>
        <time>2017-12-19T12:09:48Z</time>
      </trkpt>
      <trkpt lat="46.01133" lon="6.35162">
        <ele>1527</ele>
        <time>2017-12-19T12:09:52Z</time>
      </trkpt>
      <trkpt lat="46.01131" lon="6.35162">
        <ele>1527</ele>
        <time>2017-12-19T12:10:01Z</time>
      </trkpt>
      <trkpt lat="46.0113" lon="6.35162">
        <ele>1527</ele>
        <time>2017-12-19T12:10:04Z</time>
      </trkpt>
      <trkpt lat="46.01129" lon="6.35163">
        <ele>1527</ele>
        <time>2017-12-19T12:10:07Z</time>
      </trkpt>
      <trkpt lat="46.0113" lon="6.35163">
        <ele>1527</ele>
        <time>2017-12-19T12:10:27Z</time>
      </trkpt>
      <trkpt lat="46.0113" lon="6.35163">
        <ele>1527</ele>
        <time>2017-12-19T12:10:31Z</time>
      </trkpt>
      <trkpt lat="46.0113" lon="6.35161">
        <ele>1527</ele>
        <time>2017-12-19T12:10:40Z</time>
      </trkpt>
      <trkpt lat="46.01129" lon="6.35163">
        <ele>1527</ele>
        <time>2017-12-19T12:10:51Z</time>
      </trkpt>
      <trkpt lat="46.01129" lon="6.35163">
        <ele>1527</ele>
        <time>2017-12-19T12:10:56Z</time>
      </trkpt>
      <trkpt lat="46.01129" lon="6.35162">
        <ele>1527</ele>
        <time>2017-12-19T12:11:01Z</time>
      </trkpt>
      <trkpt lat="46.01129" lon="6.35162">
        <ele>1527</ele>
        <time>2017-12-19T12:11:10Z</time>
      </trkpt>
      <trkpt lat="46.01128" lon="6.35162">
        <ele>1527</ele>
        <time>2017-12-19T12:11:19Z</time>
      </trkpt>
      <trkpt lat="46.01127" lon="6.3516">
        <ele>1527</ele>
        <time>2017-12-19T12:11:41Z</time>
      </trkpt>
      <trkpt lat="46.01127" lon="6.35159">
        <ele>1527</ele>
        <time>2017-12-19T12:11:43Z</time>
      </trkpt>
      <trkpt lat="46.01128" lon="6.35158">
        <ele>1527</ele>
        <time>2017-12-19T12:11:51Z</time>
      </trkpt>
      <trkpt lat="46.01128" lon="6.35159">
        <ele>1527</ele>
        <time>2017-12-19T12:11:53Z</time>
      </trkpt>
      <trkpt lat="46.01128" lon="6.35159">
        <ele>1527</ele>
        <time>2017-12-19T12:11:56Z</time>
      </trkpt>
      <trkpt lat="46.01128" lon="6.35159">
        <ele>1527</ele>
        <time>2017-12-19T12:11:59Z</time>
      </trkpt>
      <trkpt lat="46.01126" lon="6.35158">
        <ele>1527</ele>
        <time>2017-12-19T12:12:11Z</time>
      </trkpt>
      <trkpt lat="46.01127" lon="6.35159">
        <ele>1527</ele>
        <time>2017-12-19T12:12:20Z</time>
      </trkpt>
      <trkpt lat="46.01127" lon="6.35159">
        <ele>1527</ele>
        <time>2017-12-19T12:12:46Z</time>
      </trkpt>
      <trkpt lat="46.01127" lon="6.35159">
        <ele>1527</ele>
        <time>2017-12-19T12:13:00Z</time>
      </trkpt>
      <trkpt lat="46.01128" lon="6.3516">
        <ele>1527</ele>
        <time>2017-12-19T12:13:13Z</time>
      </trkpt>
      <trkpt lat="46.01126" lon="6.3516">
        <ele>1527</ele>
        <time>2017-12-19T12:13:16Z</time>
      </trkpt>
      <trkpt lat="46.01126" lon="6.3516">
        <ele>1527</ele>
        <time>2017-12-19T12:13:19Z</time>
      </trkpt>
      <trkpt lat="46.01126" lon="6.3516">
        <ele>1528</ele>
        <time>2017-12-19T12:13:34Z</time>
      </trkpt>
      <trkpt lat="46.01126" lon="6.3516">
        <ele>1527</ele>
        <time>2017-12-19T12:13:35Z</time>
      </trkpt>
      <trkpt lat="46.01126" lon="6.3516">
        <ele>1527</ele>
        <time>2017-12-19T12:13:37Z</time>
      </trkpt>
      <trkpt lat="46.01126" lon="6.35159">
        <ele>1527</ele>
        <time>2017-12-19T12:13:39Z</time>
      </trkpt>
      <trkpt lat="46.01127" lon="6.3516">
        <ele>1527</ele>
        <time>2017-12-19T12:13:43Z</time>
      </trkpt>
      <trkpt lat="46.01128" lon="6.35159">
        <ele>1527</ele>
        <time>2017-12-19T12:13:58Z</time>
      </trkpt>
      <trkpt lat="46.01129" lon="6.3516">
        <ele>1527</ele>
        <time>2017-12-19T12:14:03Z</time>
      </trkpt>
      <trkpt lat="46.01128" lon="6.35159">
        <ele>1527</ele>
        <time>2017-12-19T12:14:05Z</time>
      </trkpt>
      <trkpt lat="46.01127" lon="6.35159">
        <ele>1527</ele>
        <time>2017-12-19T12:14:09Z</time>
      </trkpt>
      <trkpt lat="46.01128" lon="6.35159">
        <ele>1527</ele>
        <time>2017-12-19T12:14:18Z</time>
      </trkpt>
      <trkpt lat="46.01128" lon="6.3516">
        <ele>1527</ele>
        <time>2017-12-19T12:14:20Z</time>
      </trkpt>
      <trkpt lat="46.01129" lon="6.35156">
        <ele>1527</ele>
        <time>2017-12-19T12:14:25Z</time>
      </trkpt>
      <trkpt lat="46.0113" lon="6.35153">
        <ele>1527</ele>
        <time>2017-12-19T12:14:27Z</time>
      </trkpt>
      <trkpt lat="46.01136" lon="6.35135">
        <ele>1528</ele>
        <time>2017-12-19T12:14:43Z</time>
      </trkpt>
      <trkpt lat="46.01137" lon="6.35132">
        <ele>1528</ele>
        <time>2017-12-19T12:14:46Z</time>
      </trkpt>
      <trkpt lat="46.01139" lon="6.3513">
        <ele>1528</ele>
        <time>2017-12-19T12:14:49Z</time>
      </trkpt>
      <trkpt lat="46.01142" lon="6.35127">
        <ele>1528</ele>
        <time>2017-12-19T12:14:53Z</time>
      </trkpt>
      <trkpt lat="46.01144" lon="6.35124">
        <ele>1528</ele>
        <time>2017-12-19T12:14:56Z</time>
      </trkpt>
      <trkpt lat="46.01146" lon="6.3512">
        <ele>1528</ele>
        <time>2017-12-19T12:15:00Z</time>
      </trkpt>
      <trkpt lat="46.01147" lon="6.35116">
        <ele>1528</ele>
        <time>2017-12-19T12:15:04Z</time>
      </trkpt>
      <trkpt lat="46.01148" lon="6.35109">
        <ele>1528</ele>
        <time>2017-12-19T12:15:09Z</time>
      </trkpt>
      <trkpt lat="46.0115" lon="6.35099">
        <ele>1528</ele>
        <time>2017-12-19T12:15:16Z</time>
      </trkpt>
      <trkpt lat="46.0115" lon="6.35075">
        <ele>1537</ele>
        <time>2017-12-19T12:15:35Z</time>
      </trkpt>
      <trkpt lat="46.01149" lon="6.35052">
        <ele>1543</ele>
        <time>2017-12-19T12:15:53Z</time>
      </trkpt>
      <trkpt lat="46.01149" lon="6.35051">
        <ele>1543</ele>
        <time>2017-12-19T12:15:54Z</time>
      </trkpt>
      <trkpt lat="46.01149" lon="6.3505">
        <ele>1543</ele>
        <time>2017-12-19T12:15:55Z</time>
      </trkpt>
      <trkpt lat="46.01149" lon="6.35045">
        <ele>1544</ele>
        <time>2017-12-19T12:15:59Z</time>
      </trkpt>
      <trkpt lat="46.01149" lon="6.35043">
        <ele>1545</ele>
        <time>2017-12-19T12:16:01Z</time>
      </trkpt>
      <trkpt lat="46.01149" lon="6.35042">
        <ele>1545</ele>
        <time>2017-12-19T12:16:02Z</time>
      </trkpt>
      <trkpt lat="46.01144" lon="6.35028">
        <ele>1547</ele>
        <time>2017-12-19T12:16:23Z</time>
      </trkpt>
      <trkpt lat="46.01143" lon="6.35027">
        <ele>1547</ele>
        <time>2017-12-19T12:16:24Z</time>
      </trkpt>
      <trkpt lat="46.01134" lon="6.35029">
        <ele>1548</ele>
        <time>2017-12-19T12:16:41Z</time>
      </trkpt>
      <trkpt lat="46.01128" lon="6.35032">
        <ele>1548</ele>
        <time>2017-12-19T12:16:49Z</time>
      </trkpt>
      <trkpt lat="46.01127" lon="6.35033">
        <ele>1548</ele>
        <time>2017-12-19T12:16:50Z</time>
      </trkpt>
      <trkpt lat="46.01116" lon="6.35027">
        <ele>1551</ele>
        <time>2017-12-19T12:17:15Z</time>
      </trkpt>
      <trkpt lat="46.01105" lon="6.35031">
        <ele>1552</ele>
        <time>2017-12-19T12:17:31Z</time>
      </trkpt>
      <trkpt lat="46.01102" lon="6.35032">
        <ele>1552</ele>
        <time>2017-12-19T12:17:34Z</time>
      </trkpt>
      <trkpt lat="46.01101" lon="6.35031">
        <ele>1552</ele>
        <time>2017-12-19T12:17:36Z</time>
      </trkpt>
      <trkpt lat="46.01098" lon="6.35023">
        <ele>1555</ele>
        <time>2017-12-19T12:17:53Z</time>
      </trkpt>
      <trkpt lat="46.01098" lon="6.35022">
        <ele>1555</ele>
        <time>2017-12-19T12:17:54Z</time>
      </trkpt>
      <trkpt lat="46.01101" lon="6.35015">
        <ele>1557</ele>
        <time>2017-12-19T12:18:03Z</time>
      </trkpt>
      <trkpt lat="46.01101" lon="6.35001">
        <ele>1560</ele>
        <time>2017-12-19T12:18:23Z</time>
      </trkpt>
      <trkpt lat="46.01099" lon="6.34996">
        <ele>1572</ele>
        <time>2017-12-19T12:18:39Z</time>
      </trkpt>
      <trkpt lat="46.01096" lon="6.34977">
        <ele>1574</ele>
        <time>2017-12-19T12:18:58Z</time>
      </trkpt>
      <trkpt lat="46.01105" lon="6.34963">
        <ele>1575</ele>
        <time>2017-12-19T12:19:17Z</time>
      </trkpt>
      <trkpt lat="46.0111" lon="6.3496">
        <ele>1575</ele>
        <time>2017-12-19T12:19:24Z</time>
      </trkpt>
      <trkpt lat="46.01124" lon="6.34953">
        <ele>1575</ele>
        <time>2017-12-19T12:19:47Z</time>
      </trkpt>
      <trkpt lat="46.01126" lon="6.3495">
        <ele>1575</ele>
        <time>2017-12-19T12:19:50Z</time>
      </trkpt>
      <trkpt lat="46.01126" lon="6.34949">
        <ele>1575</ele>
        <time>2017-12-19T12:19:51Z</time>
      </trkpt>
      <trkpt lat="46.01132" lon="6.34942">
        <ele>1575</ele>
        <time>2017-12-19T12:20:06Z</time>
      </trkpt>
      <trkpt lat="46.01144" lon="6.34934">
        <ele>1575</ele>
        <time>2017-12-19T12:20:34Z</time>
      </trkpt>
      <trkpt lat="46.01153" lon="6.34923">
        <ele>1576</ele>
        <time>2017-12-19T12:21:01Z</time>
      </trkpt>
      <trkpt lat="46.01183" lon="6.349">
        <ele>1580</ele>
        <time>2017-12-19T12:21:43Z</time>
      </trkpt>
      <trkpt lat="46.01189" lon="6.34887">
        <ele>1581</ele>
        <time>2017-12-19T12:21:52Z</time>
      </trkpt>
      <trkpt lat="46.0119" lon="6.34885">
        <ele>1581</ele>
        <time>2017-12-19T12:21:53Z</time>
      </trkpt>
      <trkpt lat="46.01191" lon="6.34884">
        <ele>1581</ele>
        <time>2017-12-19T12:21:54Z</time>
      </trkpt>
      <trkpt lat="46.01196" lon="6.34879">
        <ele>1581</ele>
        <time>2017-12-19T12:22:00Z</time>
      </trkpt>
      <trkpt lat="46.01224" lon="6.34881">
        <ele>1582</ele>
        <time>2017-12-19T12:22:26Z</time>
      </trkpt>
      <trkpt lat="46.0124" lon="6.34877">
        <ele>1582</ele>
        <time>2017-12-19T12:22:43Z</time>
      </trkpt>
      <trkpt lat="46.01252" lon="6.34874">
        <ele>1589</ele>
        <time>2017-12-19T12:22:54Z</time>
      </trkpt>
      <trkpt lat="46.01258" lon="6.34872">
        <ele>1590</ele>
        <time>2017-12-19T12:23:01Z</time>
      </trkpt>
      <trkpt lat="46.01259" lon="6.34872">
        <ele>1590</ele>
        <time>2017-12-19T12:23:02Z</time>
      </trkpt>
      <trkpt lat="46.0126" lon="6.34872">
        <ele>1590</ele>
        <time>2017-12-19T12:23:03Z</time>
      </trkpt>
      <trkpt lat="46.01261" lon="6.34872">
        <ele>1590</ele>
        <time>2017-12-19T12:23:04Z</time>
      </trkpt>
      <trkpt lat="46.01262" lon="6.34872">
        <ele>1590</ele>
        <time>2017-12-19T12:23:05Z</time>
      </trkpt>
      <trkpt lat="46.01275" lon="6.34868">
        <ele>1591</ele>
        <time>2017-12-19T12:23:22Z</time>
      </trkpt>
      <trkpt lat="46.01287" lon="6.34868">
        <ele>1592</ele>
        <time>2017-12-19T12:23:37Z</time>
      </trkpt>
      <trkpt lat="46.01288" lon="6.34867">
        <ele>1592</ele>
        <time>2017-12-19T12:23:39Z</time>
      </trkpt>
      <trkpt lat="46.01298" lon="6.34866">
        <ele>1593</ele>
        <time>2017-12-19T12:23:55Z</time>
      </trkpt>
      <trkpt lat="46.01308" lon="6.34865">
        <ele>1594</ele>
        <time>2017-12-19T12:24:13Z</time>
      </trkpt>
      <trkpt lat="46.01315" lon="6.34866">
        <ele>1595</ele>
        <time>2017-12-19T12:24:23Z</time>
      </trkpt>
      <trkpt lat="46.01321" lon="6.34865">
        <ele>1595</ele>
        <time>2017-12-19T12:24:31Z</time>
      </trkpt>
      <trkpt lat="46.01326" lon="6.34866">
        <ele>1596</ele>
        <time>2017-12-19T12:24:41Z</time>
      </trkpt>
      <trkpt lat="46.01336" lon="6.34866">
        <ele>1600</ele>
        <time>2017-12-19T12:24:54Z</time>
      </trkpt>
      <trkpt lat="46.01338" lon="6.34866">
        <ele>1600</ele>
        <time>2017-12-19T12:24:57Z</time>
      </trkpt>
      <trkpt lat="46.01351" lon="6.34865">
        <ele>1600</ele>
        <time>2017-12-19T12:25:14Z</time>
      </trkpt>
      <trkpt lat="46.01353" lon="6.34865">
        <ele>1600</ele>
        <time>2017-12-19T12:25:16Z</time>
      </trkpt>
      <trkpt lat="46.01361" lon="6.34863">
        <ele>1600</ele>
        <time>2017-12-19T12:25:30Z</time>
      </trkpt>
      <trkpt lat="46.01364" lon="6.34864">
        <ele>1600</ele>
        <time>2017-12-19T12:25:34Z</time>
      </trkpt>
      <trkpt lat="46.01365" lon="6.34864">
        <ele>1600</ele>
        <time>2017-12-19T12:25:35Z</time>
      </trkpt>
      <trkpt lat="46.01375" lon="6.34868">
        <ele>1600</ele>
        <time>2017-12-19T12:25:45Z</time>
      </trkpt>
      <trkpt lat="46.01376" lon="6.34869">
        <ele>1600</ele>
        <time>2017-12-19T12:25:46Z</time>
      </trkpt>
      <trkpt lat="46.01377" lon="6.3487">
        <ele>1600</ele>
        <time>2017-12-19T12:25:47Z</time>
      </trkpt>
      <trkpt lat="46.01381" lon="6.34873">
        <ele>1599</ele>
        <time>2017-12-19T12:25:52Z</time>
      </trkpt>
      <trkpt lat="46.01382" lon="6.34874">
        <ele>1599</ele>
        <time>2017-12-19T12:25:53Z</time>
      </trkpt>
      <trkpt lat="46.0139" lon="6.34883">
        <ele>1600</ele>
        <time>2017-12-19T12:26:04Z</time>
      </trkpt>
      <trkpt lat="46.014" lon="6.34892">
        <ele>1600</ele>
        <time>2017-12-19T12:26:14Z</time>
      </trkpt>
      <trkpt lat="46.01402" lon="6.34895">
        <ele>1600</ele>
        <time>2017-12-19T12:26:16Z</time>
      </trkpt>
      <trkpt lat="46.01403" lon="6.34896">
        <ele>1600</ele>
        <time>2017-12-19T12:26:17Z</time>
      </trkpt>
      <trkpt lat="46.01405" lon="6.34897">
        <ele>1600</ele>
        <time>2017-12-19T12:26:18Z</time>
      </trkpt>
      <trkpt lat="46.01406" lon="6.34898">
        <ele>1600</ele>
        <time>2017-12-19T12:26:19Z</time>
      </trkpt>
      <trkpt lat="46.01407" lon="6.34899">
        <ele>1600</ele>
        <time>2017-12-19T12:26:20Z</time>
      </trkpt>
      <trkpt lat="46.01409" lon="6.349">
        <ele>1600</ele>
        <time>2017-12-19T12:26:21Z</time>
      </trkpt>
      <trkpt lat="46.01411" lon="6.34902">
        <ele>1601</ele>
        <time>2017-12-19T12:26:22Z</time>
      </trkpt>
      <trkpt lat="46.01412" lon="6.34903">
        <ele>1601</ele>
        <time>2017-12-19T12:26:23Z</time>
      </trkpt>
      <trkpt lat="46.01413" lon="6.34904">
        <ele>1601</ele>
        <time>2017-12-19T12:26:24Z</time>
      </trkpt>
      <trkpt lat="46.01414" lon="6.34906">
        <ele>1601</ele>
        <time>2017-12-19T12:26:25Z</time>
      </trkpt>
      <trkpt lat="46.01425" lon="6.34915">
        <ele>1601</ele>
        <time>2017-12-19T12:26:33Z</time>
      </trkpt>
      <trkpt lat="46.01444" lon="6.34929">
        <ele>1602</ele>
        <time>2017-12-19T12:26:46Z</time>
      </trkpt>
      <trkpt lat="46.01445" lon="6.34929">
        <ele>1602</ele>
        <time>2017-12-19T12:26:47Z</time>
      </trkpt>
      <trkpt lat="46.0148" lon="6.34955">
        <ele>1603</ele>
        <time>2017-12-19T12:27:11Z</time>
      </trkpt>
      <trkpt lat="46.01525" lon="6.34973">
        <ele>1609</ele>
        <time>2017-12-19T12:27:38Z</time>
      </trkpt>
      <trkpt lat="46.0157" lon="6.34977">
        <ele>1609</ele>
        <time>2017-12-19T12:28:05Z</time>
      </trkpt>
      <trkpt lat="46.01586" lon="6.34969">
        <ele>1615</ele>
        <time>2017-12-19T12:28:15Z</time>
      </trkpt>
      <trkpt lat="46.01587" lon="6.34968">
        <ele>1615</ele>
        <time>2017-12-19T12:28:16Z</time>
      </trkpt>
      <trkpt lat="46.01588" lon="6.34968">
        <ele>1615</ele>
        <time>2017-12-19T12:28:17Z</time>
      </trkpt>
      <trkpt lat="46.01589" lon="6.34967">
        <ele>1615</ele>
        <time>2017-12-19T12:28:18Z</time>
      </trkpt>
      <trkpt lat="46.0159" lon="6.34966">
        <ele>1615</ele>
        <time>2017-12-19T12:28:19Z</time>
      </trkpt>
      <trkpt lat="46.01605" lon="6.34953">
        <ele>1617</ele>
        <time>2017-12-19T12:28:35Z</time>
      </trkpt>
      <trkpt lat="46.01606" lon="6.34952">
        <ele>1617</ele>
        <time>2017-12-19T12:28:36Z</time>
      </trkpt>
      <trkpt lat="46.01614" lon="6.3494">
        <ele>1618</ele>
        <time>2017-12-19T12:28:49Z</time>
      </trkpt>
      <trkpt lat="46.01617" lon="6.34936">
        <ele>1619</ele>
        <time>2017-12-19T12:29:04Z</time>
      </trkpt>
      <trkpt lat="46.01619" lon="6.34924">
        <ele>1620</ele>
        <time>2017-12-19T12:29:24Z</time>
      </trkpt>
      <trkpt lat="46.01619" lon="6.34924">
        <ele>1619</ele>
        <time>2017-12-19T12:29:28Z</time>
      </trkpt>
      <trkpt lat="46.01618" lon="6.34924">
        <ele>1619</ele>
        <time>2017-12-19T12:29:29Z</time>
      </trkpt>
      <trkpt lat="46.01617" lon="6.34924">
        <ele>1619</ele>
        <time>2017-12-19T12:29:32Z</time>
      </trkpt>
      <trkpt lat="46.01618" lon="6.34925">
        <ele>1619</ele>
        <time>2017-12-19T12:29:34Z</time>
      </trkpt>
      <trkpt lat="46.01619" lon="6.34922">
        <ele>1620</ele>
        <time>2017-12-19T12:29:37Z</time>
      </trkpt>
      <trkpt lat="46.01621" lon="6.34919">
        <ele>1620</ele>
        <time>2017-12-19T12:29:40Z</time>
      </trkpt>
      <trkpt lat="46.01623" lon="6.34916">
        <ele>1627</ele>
        <time>2017-12-19T12:29:44Z</time>
      </trkpt>
      <trkpt lat="46.01627" lon="6.34908">
        <ele>1629</ele>
        <time>2017-12-19T12:29:54Z</time>
      </trkpt>
      <trkpt lat="46.01631" lon="6.34895">
        <ele>1630</ele>
        <time>2017-12-19T12:30:05Z</time>
      </trkpt>
      <trkpt lat="46.01633" lon="6.3489">
        <ele>1631</ele>
        <time>2017-12-19T12:30:10Z</time>
      </trkpt>
      <trkpt lat="46.01635" lon="6.3488">
        <ele>1632</ele>
        <time>2017-12-19T12:30:18Z</time>
      </trkpt>
      <trkpt lat="46.01636" lon="6.34874">
        <ele>1632</ele>
        <time>2017-12-19T12:30:24Z</time>
      </trkpt>
      <trkpt lat="46.01638" lon="6.34859">
        <ele>1635</ele>
        <time>2017-12-19T12:30:37Z</time>
      </trkpt>
      <trkpt lat="46.01641" lon="6.34846">
        <ele>1638</ele>
        <time>2017-12-19T12:30:50Z</time>
      </trkpt>
      <trkpt lat="46.01644" lon="6.34831">
        <ele>1645</ele>
        <time>2017-12-19T12:31:03Z</time>
      </trkpt>
      <trkpt lat="46.01644" lon="6.34821">
        <ele>1645</ele>
        <time>2017-12-19T12:31:13Z</time>
      </trkpt>
      <trkpt lat="46.01645" lon="6.34806">
        <ele>1645</ele>
        <time>2017-12-19T12:31:28Z</time>
      </trkpt>
      <trkpt lat="46.01646" lon="6.34799">
        <ele>1645</ele>
        <time>2017-12-19T12:31:36Z</time>
      </trkpt>
      <trkpt lat="46.01646" lon="6.34798">
        <ele>1645</ele>
        <time>2017-12-19T12:31:37Z</time>
      </trkpt>
      <trkpt lat="46.01647" lon="6.34796">
        <ele>1645</ele>
        <time>2017-12-19T12:31:38Z</time>
      </trkpt>
      <trkpt lat="46.01647" lon="6.34789">
        <ele>1646</ele>
        <time>2017-12-19T12:31:43Z</time>
      </trkpt>
      <trkpt lat="46.01649" lon="6.34781">
        <ele>1648</ele>
        <time>2017-12-19T12:31:55Z</time>
      </trkpt>
      <trkpt lat="46.01652" lon="6.3477">
        <ele>1651</ele>
        <time>2017-12-19T12:32:07Z</time>
      </trkpt>
      <trkpt lat="46.01654" lon="6.34745">
        <ele>1660</ele>
        <time>2017-12-19T12:32:27Z</time>
      </trkpt>
      <trkpt lat="46.01655" lon="6.3474">
        <ele>1659</ele>
        <time>2017-12-19T12:32:31Z</time>
      </trkpt>
      <trkpt lat="46.01658" lon="6.34725">
        <ele>1656</ele>
        <time>2017-12-19T12:32:44Z</time>
      </trkpt>
      <trkpt lat="46.01662" lon="6.34708">
        <ele>1655</ele>
        <time>2017-12-19T12:32:58Z</time>
      </trkpt>
      <trkpt lat="46.01664" lon="6.34685">
        <ele>1660</ele>
        <time>2017-12-19T12:33:14Z</time>
      </trkpt>
      <trkpt lat="46.01666" lon="6.34666">
        <ele>1672</ele>
        <time>2017-12-19T12:33:29Z</time>
      </trkpt>
      <trkpt lat="46.01669" lon="6.34652">
        <ele>1682</ele>
        <time>2017-12-19T12:33:42Z</time>
      </trkpt>
      <trkpt lat="46.01671" lon="6.34633">
        <ele>1687</ele>
        <time>2017-12-19T12:33:55Z</time>
      </trkpt>
      <trkpt lat="46.01673" lon="6.34624">
        <ele>1687</ele>
        <time>2017-12-19T12:34:03Z</time>
      </trkpt>
      <trkpt lat="46.01678" lon="6.34614">
        <ele>1687</ele>
        <time>2017-12-19T12:34:15Z</time>
      </trkpt>
      <trkpt lat="46.01683" lon="6.34599">
        <ele>1686</ele>
        <time>2017-12-19T12:34:30Z</time>
      </trkpt>
      <trkpt lat="46.0169" lon="6.34586">
        <ele>1687</ele>
        <time>2017-12-19T12:34:44Z</time>
      </trkpt>
      <trkpt lat="46.01697" lon="6.34572">
        <ele>1687</ele>
        <time>2017-12-19T12:34:59Z</time>
      </trkpt>
      <trkpt lat="46.01704" lon="6.34561">
        <ele>1689</ele>
        <time>2017-12-19T12:35:14Z</time>
      </trkpt>
      <trkpt lat="46.01704" lon="6.34569">
        <ele>1689</ele>
        <time>2017-12-19T12:35:23Z</time>
      </trkpt>
      <trkpt lat="46.01707" lon="6.34584">
        <ele>1694</ele>
        <time>2017-12-19T12:35:36Z</time>
      </trkpt>
      <trkpt lat="46.01708" lon="6.34596">
        <ele>1695</ele>
        <time>2017-12-19T12:35:46Z</time>
      </trkpt>
      <trkpt lat="46.01708" lon="6.34597">
        <ele>1695</ele>
        <time>2017-12-19T12:35:47Z</time>
      </trkpt>
      <trkpt lat="46.01709" lon="6.34598">
        <ele>1695</ele>
        <time>2017-12-19T12:35:48Z</time>
      </trkpt>
      <trkpt lat="46.0171" lon="6.346">
        <ele>1695</ele>
        <time>2017-12-19T12:35:50Z</time>
      </trkpt>
      <trkpt lat="46.0171" lon="6.34601">
        <ele>1695</ele>
        <time>2017-12-19T12:35:51Z</time>
      </trkpt>
      <trkpt lat="46.0171" lon="6.34603">
        <ele>1695</ele>
        <time>2017-12-19T12:35:52Z</time>
      </trkpt>
      <trkpt lat="46.01711" lon="6.34604">
        <ele>1696</ele>
        <time>2017-12-19T12:35:53Z</time>
      </trkpt>
      <trkpt lat="46.01711" lon="6.34605">
        <ele>1696</ele>
        <time>2017-12-19T12:35:54Z</time>
      </trkpt>
      <trkpt lat="46.01712" lon="6.34606">
        <ele>1696</ele>
        <time>2017-12-19T12:35:55Z</time>
      </trkpt>
      <trkpt lat="46.01716" lon="6.34619">
        <ele>1697</ele>
        <time>2017-12-19T12:36:08Z</time>
      </trkpt>
      <trkpt lat="46.0172" lon="6.34632">
        <ele>1699</ele>
        <time>2017-12-19T12:36:20Z</time>
      </trkpt>
      <trkpt lat="46.01725" lon="6.34646">
        <ele>1701</ele>
        <time>2017-12-19T12:36:35Z</time>
      </trkpt>
      <trkpt lat="46.01731" lon="6.3466">
        <ele>1706</ele>
        <time>2017-12-19T12:36:49Z</time>
      </trkpt>
      <trkpt lat="46.01733" lon="6.34663">
        <ele>1708</ele>
        <time>2017-12-19T12:36:52Z</time>
      </trkpt>
      <trkpt lat="46.01738" lon="6.3467">
        <ele>1710</ele>
        <time>2017-12-19T12:37:00Z</time>
      </trkpt>
      <trkpt lat="46.01744" lon="6.34681">
        <ele>1709</ele>
        <time>2017-12-19T12:37:12Z</time>
      </trkpt>
      <trkpt lat="46.0175" lon="6.34691">
        <ele>1727</ele>
        <time>2017-12-19T12:37:24Z</time>
      </trkpt>
      <trkpt lat="46.01757" lon="6.34702">
        <ele>1728</ele>
        <time>2017-12-19T12:37:37Z</time>
      </trkpt>
      <trkpt lat="46.01766" lon="6.34713">
        <ele>1729</ele>
        <time>2017-12-19T12:37:51Z</time>
      </trkpt>
      <trkpt lat="46.01775" lon="6.34722">
        <ele>1729</ele>
        <time>2017-12-19T12:38:04Z</time>
      </trkpt>
      <trkpt lat="46.01783" lon="6.34729">
        <ele>1730</ele>
        <time>2017-12-19T12:38:16Z</time>
      </trkpt>
      <trkpt lat="46.01787" lon="6.3473">
        <ele>1731</ele>
        <time>2017-12-19T12:38:21Z</time>
      </trkpt>
      <trkpt lat="46.01793" lon="6.34723">
        <ele>1733</ele>
        <time>2017-12-19T12:38:32Z</time>
      </trkpt>
      <trkpt lat="46.01794" lon="6.34722">
        <ele>1733</ele>
        <time>2017-12-19T12:38:33Z</time>
      </trkpt>
      <trkpt lat="46.01799" lon="6.34708">
        <ele>1735</ele>
        <time>2017-12-19T12:38:45Z</time>
      </trkpt>
      <trkpt lat="46.01803" lon="6.3471">
        <ele>1736</ele>
        <time>2017-12-19T12:38:50Z</time>
      </trkpt>
      <trkpt lat="46.01803" lon="6.34711">
        <ele>1736</ele>
        <time>2017-12-19T12:38:51Z</time>
      </trkpt>
      <trkpt lat="46.01804" lon="6.34712">
        <ele>1736</ele>
        <time>2017-12-19T12:38:52Z</time>
      </trkpt>
      <trkpt lat="46.01805" lon="6.34713">
        <ele>1736</ele>
        <time>2017-12-19T12:38:53Z</time>
      </trkpt>
      <trkpt lat="46.01805" lon="6.34713">
        <ele>1736</ele>
        <time>2017-12-19T12:38:54Z</time>
      </trkpt>
      <trkpt lat="46.01806" lon="6.34714">
        <ele>1736</ele>
        <time>2017-12-19T12:38:55Z</time>
      </trkpt>
      <trkpt lat="46.01814" lon="6.34725">
        <ele>1737</ele>
        <time>2017-12-19T12:39:07Z</time>
      </trkpt>
      <trkpt lat="46.01815" lon="6.34726">
        <ele>1738</ele>
        <time>2017-12-19T12:39:08Z</time>
      </trkpt>
      <trkpt lat="46.01816" lon="6.34727">
        <ele>1738</ele>
        <time>2017-12-19T12:39:09Z</time>
      </trkpt>
      <trkpt lat="46.01826" lon="6.34736">
        <ele>1740</ele>
        <time>2017-12-19T12:39:22Z</time>
      </trkpt>
      <trkpt lat="46.01834" lon="6.34735">
        <ele>1753</ele>
        <time>2017-12-19T12:39:34Z</time>
      </trkpt>
      <trkpt lat="46.01839" lon="6.34714">
        <ele>1757</ele>
        <time>2017-12-19T12:39:50Z</time>
      </trkpt>
      <trkpt lat="46.01843" lon="6.34713">
        <ele>1758</ele>
        <time>2017-12-19T12:39:56Z</time>
      </trkpt>
      <trkpt lat="46.01852" lon="6.34709">
        <ele>1759</ele>
        <time>2017-12-19T12:40:06Z</time>
      </trkpt>
      <trkpt lat="46.01854" lon="6.34708">
        <ele>1759</ele>
        <time>2017-12-19T12:40:08Z</time>
      </trkpt>
      <trkpt lat="46.01856" lon="6.34708">
        <ele>1760</ele>
        <time>2017-12-19T12:40:10Z</time>
      </trkpt>
      <trkpt lat="46.01865" lon="6.34705">
        <ele>1761</ele>
        <time>2017-12-19T12:40:21Z</time>
      </trkpt>
      <trkpt lat="46.01873" lon="6.34701">
        <ele>1763</ele>
        <time>2017-12-19T12:40:32Z</time>
      </trkpt>
      <trkpt lat="46.0188" lon="6.34698">
        <ele>1764</ele>
        <time>2017-12-19T12:40:41Z</time>
      </trkpt>
      <trkpt lat="46.01884" lon="6.34697">
        <ele>1765</ele>
        <time>2017-12-19T12:40:45Z</time>
      </trkpt>
      <trkpt lat="46.01886" lon="6.34696">
        <ele>1765</ele>
        <time>2017-12-19T12:40:47Z</time>
      </trkpt>
      <trkpt lat="46.01886" lon="6.34696">
        <ele>1765</ele>
        <time>2017-12-19T12:40:48Z</time>
      </trkpt>
      <trkpt lat="46.01896" lon="6.34692">
        <ele>1767</ele>
        <time>2017-12-19T12:40:59Z</time>
      </trkpt>
      <trkpt lat="46.01903" lon="6.34688">
        <ele>1770</ele>
        <time>2017-12-19T12:41:09Z</time>
      </trkpt>
      <trkpt lat="46.01909" lon="6.34681">
        <ele>1773</ele>
        <time>2017-12-19T12:41:19Z</time>
      </trkpt>
      <trkpt lat="46.01917" lon="6.34675">
        <ele>1781</ele>
        <time>2017-12-19T12:41:30Z</time>
      </trkpt>
      <trkpt lat="46.01923" lon="6.34668">
        <ele>1782</ele>
        <time>2017-12-19T12:41:38Z</time>
      </trkpt>
      <trkpt lat="46.01924" lon="6.34667">
        <ele>1782</ele>
        <time>2017-12-19T12:41:39Z</time>
      </trkpt>
      <trkpt lat="46.01926" lon="6.34667">
        <ele>1783</ele>
        <time>2017-12-19T12:41:41Z</time>
      </trkpt>
      <trkpt lat="46.01927" lon="6.34666">
        <ele>1783</ele>
        <time>2017-12-19T12:41:42Z</time>
      </trkpt>
      <trkpt lat="46.01928" lon="6.34664">
        <ele>1783</ele>
        <time>2017-12-19T12:41:44Z</time>
      </trkpt>
      <trkpt lat="46.0193" lon="6.34663">
        <ele>1784</ele>
        <time>2017-12-19T12:41:45Z</time>
      </trkpt>
      <trkpt lat="46.01935" lon="6.34659">
        <ele>1784</ele>
        <time>2017-12-19T12:41:52Z</time>
      </trkpt>
      <trkpt lat="46.01936" lon="6.34659">
        <ele>1784</ele>
        <time>2017-12-19T12:41:53Z</time>
      </trkpt>
      <trkpt lat="46.0194" lon="6.34656">
        <ele>1784</ele>
        <time>2017-12-19T12:42:00Z</time>
      </trkpt>
      <trkpt lat="46.01944" lon="6.34653">
        <ele>1784</ele>
        <time>2017-12-19T12:42:07Z</time>
      </trkpt>
      <trkpt lat="46.01951" lon="6.34649">
        <ele>1784</ele>
        <time>2017-12-19T12:42:18Z</time>
      </trkpt>
      <trkpt lat="46.01952" lon="6.34649">
        <ele>1784</ele>
        <time>2017-12-19T12:42:19Z</time>
      </trkpt>
      <trkpt lat="46.01959" lon="6.34651">
        <ele>1785</ele>
        <time>2017-12-19T12:42:28Z</time>
      </trkpt>
      <trkpt lat="46.01962" lon="6.34651">
        <ele>1785</ele>
        <time>2017-12-19T12:42:32Z</time>
      </trkpt>
      <trkpt lat="46.01966" lon="6.34651">
        <ele>1785</ele>
        <time>2017-12-19T12:42:37Z</time>
      </trkpt>
      <trkpt lat="46.0197" lon="6.3465">
        <ele>1785</ele>
        <time>2017-12-19T12:42:42Z</time>
      </trkpt>
      <trkpt lat="46.01971" lon="6.34649">
        <ele>1785</ele>
        <time>2017-12-19T12:42:43Z</time>
      </trkpt>
      <trkpt lat="46.01975" lon="6.34648">
        <ele>1785</ele>
        <time>2017-12-19T12:42:48Z</time>
      </trkpt>
      <trkpt lat="46.01976" lon="6.34648">
        <ele>1785</ele>
        <time>2017-12-19T12:42:49Z</time>
      </trkpt>
      <trkpt lat="46.01979" lon="6.34649">
        <ele>1786</ele>
        <time>2017-12-19T12:42:52Z</time>
      </trkpt>
      <trkpt lat="46.0198" lon="6.34649">
        <ele>1786</ele>
        <time>2017-12-19T12:42:53Z</time>
      </trkpt>
      <trkpt lat="46.01986" lon="6.34648">
        <ele>1786</ele>
        <time>2017-12-19T12:43:01Z</time>
      </trkpt>
      <trkpt lat="46.01989" lon="6.34646">
        <ele>1786</ele>
        <time>2017-12-19T12:43:06Z</time>
      </trkpt>
      <trkpt lat="46.01993" lon="6.34641">
        <ele>1786</ele>
        <time>2017-12-19T12:43:12Z</time>
      </trkpt>
      <trkpt lat="46.01994" lon="6.34639">
        <ele>1786</ele>
        <time>2017-12-19T12:43:13Z</time>
      </trkpt>
      <trkpt lat="46.01994" lon="6.34638">
        <ele>1786</ele>
        <time>2017-12-19T12:43:14Z</time>
      </trkpt>
      <trkpt lat="46.01995" lon="6.34637">
        <ele>1785</ele>
        <time>2017-12-19T12:43:15Z</time>
      </trkpt>
      <trkpt lat="46.01995" lon="6.34636">
        <ele>1785</ele>
        <time>2017-12-19T12:43:16Z</time>
      </trkpt>
      <trkpt lat="46.01998" lon="6.3463">
        <ele>1785</ele>
        <time>2017-12-19T12:43:30Z</time>
      </trkpt>
      <trkpt lat="46.01998" lon="6.3463">
        <ele>1785</ele>
        <time>2017-12-19T12:43:35Z</time>
      </trkpt>
      <trkpt lat="46.01999" lon="6.34632">
        <ele>1785</ele>
        <time>2017-12-19T12:43:42Z</time>
      </trkpt>
      <trkpt lat="46.01998" lon="6.34632">
        <ele>1785</ele>
        <time>2017-12-19T12:43:44Z</time>
      </trkpt>
      <trkpt lat="46.01999" lon="6.34632">
        <ele>1785</ele>
        <time>2017-12-19T12:43:48Z</time>
      </trkpt>
      <trkpt lat="46.01999" lon="6.34633">
        <ele>1785</ele>
        <time>2017-12-19T12:43:54Z</time>
      </trkpt>
      <trkpt lat="46.01998" lon="6.34633">
        <ele>1785</ele>
        <time>2017-12-19T12:43:57Z</time>
      </trkpt>
      <trkpt lat="46.01999" lon="6.34633">
        <ele>1785</ele>
        <time>2017-12-19T12:43:58Z</time>
      </trkpt>
      <trkpt lat="46.01998" lon="6.34633">
        <ele>1785</ele>
        <time>2017-12-19T12:44:06Z</time>
      </trkpt>
      <trkpt lat="46.01998" lon="6.34633">
        <ele>1785</ele>
        <time>2017-12-19T12:44:11Z</time>
      </trkpt>
      <trkpt lat="46.01997" lon="6.34632">
        <ele>1785</ele>
        <time>2017-12-19T12:44:12Z</time>
      </trkpt>
      <trkpt lat="46.01997" lon="6.34634">
        <ele>1785</ele>
        <time>2017-12-19T12:44:22Z</time>
      </trkpt>
      <trkpt lat="46.01996" lon="6.34634">
        <ele>1785</ele>
        <time>2017-12-19T12:44:26Z</time>
      </trkpt>
      <trkpt lat="46.01996" lon="6.34634">
        <ele>1785</ele>
        <time>2017-12-19T12:44:39Z</time>
      </trkpt>
      <trkpt lat="46.01997" lon="6.34633">
        <ele>1785</ele>
        <time>2017-12-19T12:44:48Z</time>
      </trkpt>
      <trkpt lat="46.01999" lon="6.34635">
        <ele>1785</ele>
        <time>2017-12-19T12:44:59Z</time>
      </trkpt>
      <trkpt lat="46.02" lon="6.34635">
        <ele>1785</ele>
        <time>2017-12-19T12:45:05Z</time>
      </trkpt>
      <trkpt lat="46.01999" lon="6.34635">
        <ele>1785</ele>
        <time>2017-12-19T12:45:08Z</time>
      </trkpt>
      <trkpt lat="46.02" lon="6.34636">
        <ele>1774</ele>
        <time>2017-12-19T12:45:16Z</time>
      </trkpt>
      <trkpt lat="46.02" lon="6.34634">
        <ele>1785</ele>
        <time>2017-12-19T12:45:27Z</time>
      </trkpt>
      <trkpt lat="46.01999" lon="6.34633">
        <ele>1785</ele>
        <time>2017-12-19T12:45:34Z</time>
      </trkpt>
      <trkpt lat="46.01999" lon="6.34633">
        <ele>1785</ele>
        <time>2017-12-19T12:45:41Z</time>
      </trkpt>
      <trkpt lat="46.01998" lon="6.34632">
        <ele>1785</ele>
        <time>2017-12-19T12:45:50Z</time>
      </trkpt>
      <trkpt lat="46.01999" lon="6.34632">
        <ele>1785</ele>
        <time>2017-12-19T12:46:11Z</time>
      </trkpt>
      <trkpt lat="46.01999" lon="6.34632">
        <ele>1785</ele>
        <time>2017-12-19T12:46:32Z</time>
      </trkpt>
      <trkpt lat="46.01999" lon="6.34633">
        <ele>1785</ele>
        <time>2017-12-19T12:46:39Z</time>
      </trkpt>
      <trkpt lat="46.01999" lon="6.34633">
        <ele>1785</ele>
        <time>2017-12-19T12:46:43Z</time>
      </trkpt>
      <trkpt lat="46.02" lon="6.34633">
        <ele>1785</ele>
        <time>2017-12-19T12:46:45Z</time>
      </trkpt>
      <trkpt lat="46.01999" lon="6.34634">
        <ele>1785</ele>
        <time>2017-12-19T12:46:55Z</time>
      </trkpt>
      <trkpt lat="46.01999" lon="6.34634">
        <ele>1785</ele>
        <time>2017-12-19T12:47:00Z</time>
      </trkpt>
      <trkpt lat="46.01999" lon="6.34634">
        <ele>1785</ele>
        <time>2017-12-19T12:47:19Z</time>
      </trkpt>
      <trkpt lat="46.02" lon="6.34635">
        <ele>1785</ele>
        <time>2017-12-19T12:47:26Z</time>
      </trkpt>
      <trkpt lat="46.02" lon="6.34635">
        <ele>1785</ele>
        <time>2017-12-19T12:47:28Z</time>
      </trkpt>
      <trkpt lat="46.02" lon="6.34634">
        <ele>1785</ele>
        <time>2017-12-19T12:47:38Z</time>
      </trkpt>
      <trkpt lat="46.02" lon="6.34634">
        <ele>1785</ele>
        <time>2017-12-19T12:47:45Z</time>
      </trkpt>
      <trkpt lat="46.02" lon="6.34633">
        <ele>1785</ele>
        <time>2017-12-19T12:47:50Z</time>
      </trkpt>
      <trkpt lat="46.02" lon="6.34635">
        <ele>1773</ele>
        <time>2017-12-19T12:48:11Z</time>
      </trkpt>
      <trkpt lat="46.01999" lon="6.34634">
        <ele>1785</ele>
        <time>2017-12-19T12:48:23Z</time>
      </trkpt>
      <trkpt lat="46.01998" lon="6.34633">
        <ele>1785</ele>
        <time>2017-12-19T12:48:26Z</time>
      </trkpt>
      <trkpt lat="46.01998" lon="6.34632">
        <ele>1785</ele>
        <time>2017-12-19T12:48:32Z</time>
      </trkpt>
      <trkpt lat="46.01998" lon="6.34633">
        <ele>1785</ele>
        <time>2017-12-19T12:48:38Z</time>
      </trkpt>
      <trkpt lat="46.01998" lon="6.34633">
        <ele>1785</ele>
        <time>2017-12-19T12:48:43Z</time>
      </trkpt>
      <trkpt lat="46.01998" lon="6.34633">
        <ele>1785</ele>
        <time>2017-12-19T12:48:47Z</time>
      </trkpt>
      <trkpt lat="46.01999" lon="6.34634">
        <ele>1785</ele>
        <time>2017-12-19T12:48:53Z</time>
      </trkpt>
      <trkpt lat="46.01999" lon="6.34635">
        <ele>1785</ele>
        <time>2017-12-19T12:48:56Z</time>
      </trkpt>
      <trkpt lat="46.01998" lon="6.34635">
        <ele>1785</ele>
        <time>2017-12-19T12:48:59Z</time>
      </trkpt>
      <trkpt lat="46.01998" lon="6.34635">
        <ele>1785</ele>
        <time>2017-12-19T12:49:01Z</time>
      </trkpt>
      <trkpt lat="46.01998" lon="6.34634">
        <ele>1785</ele>
        <time>2017-12-19T12:49:12Z</time>
      </trkpt>
      <trkpt lat="46.01997" lon="6.34634">
        <ele>1785</ele>
        <time>2017-12-19T12:49:20Z</time>
      </trkpt>
      <trkpt lat="46.01997" lon="6.34634">
        <ele>1785</ele>
        <time>2017-12-19T12:49:34Z</time>
      </trkpt>
      <trkpt lat="46.01996" lon="6.34633">
        <ele>1785</ele>
        <time>2017-12-19T12:49:42Z</time>
      </trkpt>
      <trkpt lat="46.01995" lon="6.34633">
        <ele>1785</ele>
        <time>2017-12-19T12:49:56Z</time>
      </trkpt>
      <trkpt lat="46.01995" lon="6.34633">
        <ele>1785</ele>
        <time>2017-12-19T12:49:58Z</time>
      </trkpt>
      <trkpt lat="46.01994" lon="6.34637">
        <ele>1785</ele>
        <time>2017-12-19T12:50:04Z</time>
      </trkpt>
      <trkpt lat="46.01995" lon="6.34643">
        <ele>1786</ele>
        <time>2017-12-19T12:50:06Z</time>
      </trkpt>
      <trkpt lat="46.01999" lon="6.34658">
        <ele>1788</ele>
        <time>2017-12-19T12:50:09Z</time>
      </trkpt>
      <trkpt lat="46.01998" lon="6.34663">
        <ele>1788</ele>
        <time>2017-12-19T12:50:10Z</time>
      </trkpt>
      <trkpt lat="46.01996" lon="6.34665">
        <ele>1788</ele>
        <time>2017-12-19T12:50:11Z</time>
      </trkpt>
      <trkpt lat="46.01994" lon="6.34667">
        <ele>1788</ele>
        <time>2017-12-19T12:50:12Z</time>
      </trkpt>
      <trkpt lat="46.01993" lon="6.34671">
        <ele>1786</ele>
        <time>2017-12-19T12:50:13Z</time>
      </trkpt>
      <trkpt lat="46.01993" lon="6.34676">
        <ele>1785</ele>
        <time>2017-12-19T12:50:14Z</time>
      </trkpt>
      <trkpt lat="46.01993" lon="6.34682">
        <ele>1783</ele>
        <time>2017-12-19T12:50:15Z</time>
      </trkpt>
      <trkpt lat="46.0199" lon="6.34687">
        <ele>1782</ele>
        <time>2017-12-19T12:50:16Z</time>
      </trkpt>
      <trkpt lat="46.01987" lon="6.34694">
        <ele>1781</ele>
        <time>2017-12-19T12:50:17Z</time>
      </trkpt>
      <trkpt lat="46.01986" lon="6.34702">
        <ele>1780</ele>
        <time>2017-12-19T12:50:18Z</time>
      </trkpt>
      <trkpt lat="46.01983" lon="6.3471">
        <ele>1778</ele>
        <time>2017-12-19T12:50:19Z</time>
      </trkpt>
      <trkpt lat="46.0198" lon="6.34718">
        <ele>1777</ele>
        <time>2017-12-19T12:50:20Z</time>
      </trkpt>
      <trkpt lat="46.01978" lon="6.34726">
        <ele>1777</ele>
        <time>2017-12-19T12:50:21Z</time>
      </trkpt>
      <trkpt lat="46.01974" lon="6.34735">
        <ele>1776</ele>
        <time>2017-12-19T12:50:22Z</time>
      </trkpt>
      <trkpt lat="46.01968" lon="6.3474">
        <ele>1775</ele>
        <time>2017-12-19T12:50:23Z</time>
      </trkpt>
      <trkpt lat="46.01963" lon="6.34745">
        <ele>1775</ele>
        <time>2017-12-19T12:50:24Z</time>
      </trkpt>
      <trkpt lat="46.01962" lon="6.34752">
        <ele>1759</ele>
        <time>2017-12-19T12:50:25Z</time>
      </trkpt>
      <trkpt lat="46.01962" lon="6.3476">
        <ele>1758</ele>
        <time>2017-12-19T12:50:26Z</time>
      </trkpt>
      <trkpt lat="46.01958" lon="6.34763">
        <ele>1757</ele>
        <time>2017-12-19T12:50:27Z</time>
      </trkpt>
      <trkpt lat="46.01954" lon="6.34765">
        <ele>1757</ele>
        <time>2017-12-19T12:50:28Z</time>
      </trkpt>
      <trkpt lat="46.01944" lon="6.34768">
        <ele>1757</ele>
        <time>2017-12-19T12:50:32Z</time>
      </trkpt>
      <trkpt lat="46.01942" lon="6.34769">
        <ele>1756</ele>
        <time>2017-12-19T12:50:33Z</time>
      </trkpt>
      <trkpt lat="46.01941" lon="6.34772">
        <ele>1756</ele>
        <time>2017-12-19T12:50:34Z</time>
      </trkpt>
      <trkpt lat="46.01941" lon="6.34778">
        <ele>1755</ele>
        <time>2017-12-19T12:50:35Z</time>
      </trkpt>
      <trkpt lat="46.01942" lon="6.34785">
        <ele>1753</ele>
        <time>2017-12-19T12:50:36Z</time>
      </trkpt>
      <trkpt lat="46.01943" lon="6.34792">
        <ele>1751</ele>
        <time>2017-12-19T12:50:37Z</time>
      </trkpt>
      <trkpt lat="46.0194" lon="6.34799">
        <ele>1749</ele>
        <time>2017-12-19T12:50:38Z</time>
      </trkpt>
      <trkpt lat="46.01941" lon="6.34806">
        <ele>1748</ele>
        <time>2017-12-19T12:50:39Z</time>
      </trkpt>
      <trkpt lat="46.01942" lon="6.34815">
        <ele>1746</ele>
        <time>2017-12-19T12:50:40Z</time>
      </trkpt>
      <trkpt lat="46.0194" lon="6.34825">
        <ele>1743</ele>
        <time>2017-12-19T12:50:41Z</time>
      </trkpt>
      <trkpt lat="46.01939" lon="6.34835">
        <ele>1724</ele>
        <time>2017-12-19T12:50:42Z</time>
      </trkpt>
      <trkpt lat="46.01939" lon="6.34847">
        <ele>1723</ele>
        <time>2017-12-19T12:50:43Z</time>
      </trkpt>
      <trkpt lat="46.01938" lon="6.34861">
        <ele>1720</ele>
        <time>2017-12-19T12:50:44Z</time>
      </trkpt>
      <trkpt lat="46.01935" lon="6.34872">
        <ele>1718</ele>
        <time>2017-12-19T12:50:45Z</time>
      </trkpt>
      <trkpt lat="46.01933" lon="6.34885">
        <ele>1714</ele>
        <time>2017-12-19T12:50:46Z</time>
      </trkpt>
      <trkpt lat="46.01931" lon="6.349">
        <ele>1709</ele>
        <time>2017-12-19T12:50:47Z</time>
      </trkpt>
      <trkpt lat="46.01929" lon="6.34914">
        <ele>1704</ele>
        <time>2017-12-19T12:50:48Z</time>
      </trkpt>
      <trkpt lat="46.01928" lon="6.34928">
        <ele>1692</ele>
        <time>2017-12-19T12:50:49Z</time>
      </trkpt>
      <trkpt lat="46.01928" lon="6.34943">
        <ele>1689</ele>
        <time>2017-12-19T12:50:50Z</time>
      </trkpt>
      <trkpt lat="46.01928" lon="6.34956">
        <ele>1686</ele>
        <time>2017-12-19T12:50:51Z</time>
      </trkpt>
      <trkpt lat="46.0193" lon="6.34969">
        <ele>1683</ele>
        <time>2017-12-19T12:50:52Z</time>
      </trkpt>
      <trkpt lat="46.01928" lon="6.34982">
        <ele>1679</ele>
        <time>2017-12-19T12:50:53Z</time>
      </trkpt>
      <trkpt lat="46.01925" lon="6.34992">
        <ele>1675</ele>
        <time>2017-12-19T12:50:54Z</time>
      </trkpt>
      <trkpt lat="46.01925" lon="6.35003">
        <ele>1664</ele>
        <time>2017-12-19T12:50:55Z</time>
      </trkpt>
      <trkpt lat="46.01923" lon="6.35015">
        <ele>1662</ele>
        <time>2017-12-19T12:50:56Z</time>
      </trkpt>
      <trkpt lat="46.01919" lon="6.35025">
        <ele>1659</ele>
        <time>2017-12-19T12:50:57Z</time>
      </trkpt>
      <trkpt lat="46.01916" lon="6.35035">
        <ele>1648</ele>
        <time>2017-12-19T12:50:58Z</time>
      </trkpt>
      <trkpt lat="46.01911" lon="6.35045">
        <ele>1644</ele>
        <time>2017-12-19T12:50:59Z</time>
      </trkpt>
      <trkpt lat="46.01904" lon="6.35054">
        <ele>1642</ele>
        <time>2017-12-19T12:51:00Z</time>
      </trkpt>
      <trkpt lat="46.01897" lon="6.35063">
        <ele>1640</ele>
        <time>2017-12-19T12:51:01Z</time>
      </trkpt>
      <trkpt lat="46.01892" lon="6.35074">
        <ele>1638</ele>
        <time>2017-12-19T12:51:02Z</time>
      </trkpt>
      <trkpt lat="46.01887" lon="6.35088">
        <ele>1616</ele>
        <time>2017-12-19T12:51:03Z</time>
      </trkpt>
      <trkpt lat="46.01882" lon="6.35102">
        <ele>1613</ele>
        <time>2017-12-19T12:51:04Z</time>
      </trkpt>
      <trkpt lat="46.01876" lon="6.35114">
        <ele>1610</ele>
        <time>2017-12-19T12:51:05Z</time>
      </trkpt>
      <trkpt lat="46.0187" lon="6.35125">
        <ele>1607</ele>
        <time>2017-12-19T12:51:06Z</time>
      </trkpt>
      <trkpt lat="46.01866" lon="6.35136">
        <ele>1605</ele>
        <time>2017-12-19T12:51:07Z</time>
      </trkpt>
      <trkpt lat="46.01859" lon="6.35144">
        <ele>1602</ele>
        <time>2017-12-19T12:51:08Z</time>
      </trkpt>
      <trkpt lat="46.01852" lon="6.3515">
        <ele>1599</ele>
        <time>2017-12-19T12:51:09Z</time>
      </trkpt>
      <trkpt lat="46.01848" lon="6.3515">
        <ele>1598</ele>
        <time>2017-12-19T12:51:10Z</time>
      </trkpt>
      <trkpt lat="46.01847" lon="6.3515">
        <ele>1598</ele>
        <time>2017-12-19T12:51:11Z</time>
      </trkpt>
      <trkpt lat="46.01847" lon="6.35148">
        <ele>1599</ele>
        <time>2017-12-19T12:51:13Z</time>
      </trkpt>
      <trkpt lat="46.01848" lon="6.35147">
        <ele>1600</ele>
        <time>2017-12-19T12:51:14Z</time>
      </trkpt>
      <trkpt lat="46.01848" lon="6.35145">
        <ele>1600</ele>
        <time>2017-12-19T12:51:18Z</time>
      </trkpt>
      <trkpt lat="46.01848" lon="6.35145">
        <ele>1600</ele>
        <time>2017-12-19T12:51:22Z</time>
      </trkpt>
      <trkpt lat="46.0185" lon="6.35149">
        <ele>1599</ele>
        <time>2017-12-19T12:51:23Z</time>
      </trkpt>
      <trkpt lat="46.01849" lon="6.35156">
        <ele>1597</ele>
        <time>2017-12-19T12:51:24Z</time>
      </trkpt>
      <trkpt lat="46.01846" lon="6.35161">
        <ele>1595</ele>
        <time>2017-12-19T12:51:25Z</time>
      </trkpt>
      <trkpt lat="46.01842" lon="6.35164">
        <ele>1592</ele>
        <time>2017-12-19T12:51:26Z</time>
      </trkpt>
      <trkpt lat="46.01839" lon="6.3517">
        <ele>1582</ele>
        <time>2017-12-19T12:51:27Z</time>
      </trkpt>
      <trkpt lat="46.01839" lon="6.35178">
        <ele>1580</ele>
        <time>2017-12-19T12:51:28Z</time>
      </trkpt>
      <trkpt lat="46.01839" lon="6.35188">
        <ele>1577</ele>
        <time>2017-12-19T12:51:29Z</time>
      </trkpt>
      <trkpt lat="46.0184" lon="6.35197">
        <ele>1574</ele>
        <time>2017-12-19T12:51:30Z</time>
      </trkpt>
      <trkpt lat="46.01837" lon="6.35206">
        <ele>1571</ele>
        <time>2017-12-19T12:51:31Z</time>
      </trkpt>
      <trkpt lat="46.01833" lon="6.35214">
        <ele>1558</ele>
        <time>2017-12-19T12:51:32Z</time>
      </trkpt>
      <trkpt lat="46.0183" lon="6.35221">
        <ele>1556</ele>
        <time>2017-12-19T12:51:33Z</time>
      </trkpt>
      <trkpt lat="46.01828" lon="6.3523">
        <ele>1554</ele>
        <time>2017-12-19T12:51:34Z</time>
      </trkpt>
      <trkpt lat="46.01829" lon="6.35239">
        <ele>1551</ele>
        <time>2017-12-19T12:51:35Z</time>
      </trkpt>
      <trkpt lat="46.01831" lon="6.35248">
        <ele>1549</ele>
        <time>2017-12-19T12:51:36Z</time>
      </trkpt>
      <trkpt lat="46.01832" lon="6.35256">
        <ele>1542</ele>
        <time>2017-12-19T12:51:37Z</time>
      </trkpt>
      <trkpt lat="46.01832" lon="6.35263">
        <ele>1538</ele>
        <time>2017-12-19T12:51:38Z</time>
      </trkpt>
      <trkpt lat="46.01832" lon="6.35272">
        <ele>1533</ele>
        <time>2017-12-19T12:51:39Z</time>
      </trkpt>
      <trkpt lat="46.01833" lon="6.35282">
        <ele>1529</ele>
        <time>2017-12-19T12:51:40Z</time>
      </trkpt>
      <trkpt lat="46.01834" lon="6.35293">
        <ele>1534</ele>
        <time>2017-12-19T12:51:41Z</time>
      </trkpt>
      <trkpt lat="46.01835" lon="6.35306">
        <ele>1529</ele>
        <time>2017-12-19T12:51:42Z</time>
      </trkpt>
      <trkpt lat="46.01834" lon="6.35317">
        <ele>1523</ele>
        <time>2017-12-19T12:51:43Z</time>
      </trkpt>
      <trkpt lat="46.01831" lon="6.3533">
        <ele>1512</ele>
        <time>2017-12-19T12:51:44Z</time>
      </trkpt>
      <trkpt lat="46.01829" lon="6.35343">
        <ele>1507</ele>
        <time>2017-12-19T12:51:45Z</time>
      </trkpt>
      <trkpt lat="46.0183" lon="6.35356">
        <ele>1504</ele>
        <time>2017-12-19T12:51:46Z</time>
      </trkpt>
      <trkpt lat="46.01833" lon="6.35369">
        <ele>1501</ele>
        <time>2017-12-19T12:51:47Z</time>
      </trkpt>
      <trkpt lat="46.01834" lon="6.35381">
        <ele>1503</ele>
        <time>2017-12-19T12:51:48Z</time>
      </trkpt>
      <trkpt lat="46.01835" lon="6.35393">
        <ele>1500</ele>
        <time>2017-12-19T12:51:49Z</time>
      </trkpt>
      <trkpt lat="46.01835" lon="6.35404">
        <ele>1495</ele>
        <time>2017-12-19T12:51:50Z</time>
      </trkpt>
      <trkpt lat="46.01836" lon="6.35413">
        <ele>1489</ele>
        <time>2017-12-19T12:51:51Z</time>
      </trkpt>
      <trkpt lat="46.01837" lon="6.35421">
        <ele>1487</ele>
        <time>2017-12-19T12:51:52Z</time>
      </trkpt>
      <trkpt lat="46.01841" lon="6.35425">
        <ele>1487</ele>
        <time>2017-12-19T12:51:53Z</time>
      </trkpt>
      <trkpt lat="46.01844" lon="6.35428">
        <ele>1488</ele>
        <time>2017-12-19T12:51:54Z</time>
      </trkpt>
      <trkpt lat="46.01846" lon="6.35432">
        <ele>1488</ele>
        <time>2017-12-19T12:51:55Z</time>
      </trkpt>
      <trkpt lat="46.01848" lon="6.35439">
        <ele>1488</ele>
        <time>2017-12-19T12:51:56Z</time>
      </trkpt>
      <trkpt lat="46.01849" lon="6.35447">
        <ele>1488</ele>
        <time>2017-12-19T12:51:57Z</time>
      </trkpt>
      <trkpt lat="46.01847" lon="6.35456">
        <ele>1487</ele>
        <time>2017-12-19T12:51:58Z</time>
      </trkpt>
      <trkpt lat="46.01846" lon="6.35469">
        <ele>1485</ele>
        <time>2017-12-19T12:52:00Z</time>
      </trkpt>
      <trkpt lat="46.01847" lon="6.35477">
        <ele>1483</ele>
        <time>2017-12-19T12:52:01Z</time>
      </trkpt>
      <trkpt lat="46.01846" lon="6.35486">
        <ele>1481</ele>
        <time>2017-12-19T12:52:02Z</time>
      </trkpt>
      <trkpt lat="46.01846" lon="6.35494">
        <ele>1479</ele>
        <time>2017-12-19T12:52:03Z</time>
      </trkpt>
      <trkpt lat="46.01844" lon="6.35502">
        <ele>1471</ele>
        <time>2017-12-19T12:52:04Z</time>
      </trkpt>
      <trkpt lat="46.01844" lon="6.3551">
        <ele>1471</ele>
        <time>2017-12-19T12:52:05Z</time>
      </trkpt>
      <trkpt lat="46.01844" lon="6.35518">
        <ele>1471</ele>
        <time>2017-12-19T12:52:06Z</time>
      </trkpt>
      <trkpt lat="46.01845" lon="6.35526">
        <ele>1470</ele>
        <time>2017-12-19T12:52:07Z</time>
      </trkpt>
      <trkpt lat="46.01848" lon="6.35536">
        <ele>1469</ele>
        <time>2017-12-19T12:52:08Z</time>
      </trkpt>
      <trkpt lat="46.01851" lon="6.35543">
        <ele>1469</ele>
        <time>2017-12-19T12:52:09Z</time>
      </trkpt>
      <trkpt lat="46.01855" lon="6.35549">
        <ele>1468</ele>
        <time>2017-12-19T12:52:10Z</time>
      </trkpt>
      <trkpt lat="46.01861" lon="6.35553">
        <ele>1468</ele>
        <time>2017-12-19T12:52:11Z</time>
      </trkpt>
      <trkpt lat="46.01863" lon="6.35558">
        <ele>1468</ele>
        <time>2017-12-19T12:52:12Z</time>
      </trkpt>
      <trkpt lat="46.01862" lon="6.35561">
        <ele>1467</ele>
        <time>2017-12-19T12:52:13Z</time>
      </trkpt>
      <trkpt lat="46.01861" lon="6.35564">
        <ele>1467</ele>
        <time>2017-12-19T12:52:14Z</time>
      </trkpt>
      <trkpt lat="46.01858" lon="6.35567">
        <ele>1466</ele>
        <time>2017-12-19T12:52:15Z</time>
      </trkpt>
      <trkpt lat="46.01857" lon="6.35572">
        <ele>1465</ele>
        <time>2017-12-19T12:52:16Z</time>
      </trkpt>
      <trkpt lat="46.01856" lon="6.35577">
        <ele>1464</ele>
        <time>2017-12-19T12:52:17Z</time>
      </trkpt>
      <trkpt lat="46.01854" lon="6.35584">
        <ele>1454</ele>
        <time>2017-12-19T12:52:18Z</time>
      </trkpt>
      <trkpt lat="46.01854" lon="6.35591">
        <ele>1453</ele>
        <time>2017-12-19T12:52:19Z</time>
      </trkpt>
      <trkpt lat="46.01853" lon="6.35599">
        <ele>1453</ele>
        <time>2017-12-19T12:52:20Z</time>
      </trkpt>
      <trkpt lat="46.01852" lon="6.35605">
        <ele>1453</ele>
        <time>2017-12-19T12:52:21Z</time>
      </trkpt>
      <trkpt lat="46.01854" lon="6.3561">
        <ele>1453</ele>
        <time>2017-12-19T12:52:22Z</time>
      </trkpt>
      <trkpt lat="46.01858" lon="6.35616">
        <ele>1452</ele>
        <time>2017-12-19T12:52:23Z</time>
      </trkpt>
      <trkpt lat="46.01862" lon="6.35623">
        <ele>1452</ele>
        <time>2017-12-19T12:52:24Z</time>
      </trkpt>
      <trkpt lat="46.01866" lon="6.35631">
        <ele>1452</ele>
        <time>2017-12-19T12:52:25Z</time>
      </trkpt>
      <trkpt lat="46.01867" lon="6.35639">
        <ele>1451</ele>
        <time>2017-12-19T12:52:26Z</time>
      </trkpt>
      <trkpt lat="46.01867" lon="6.35645">
        <ele>1450</ele>
        <time>2017-12-19T12:52:27Z</time>
      </trkpt>
      <trkpt lat="46.01866" lon="6.35651">
        <ele>1450</ele>
        <time>2017-12-19T12:52:28Z</time>
      </trkpt>
      <trkpt lat="46.01866" lon="6.35657">
        <ele>1449</ele>
        <time>2017-12-19T12:52:29Z</time>
      </trkpt>
      <trkpt lat="46.01867" lon="6.35662">
        <ele>1449</ele>
        <time>2017-12-19T12:52:30Z</time>
      </trkpt>
      <trkpt lat="46.01867" lon="6.35666">
        <ele>1449</ele>
        <time>2017-12-19T12:52:31Z</time>
      </trkpt>
      <trkpt lat="46.01866" lon="6.3567">
        <ele>1438</ele>
        <time>2017-12-19T12:52:32Z</time>
      </trkpt>
      <trkpt lat="46.01865" lon="6.35675">
        <ele>1438</ele>
        <time>2017-12-19T12:52:33Z</time>
      </trkpt>
      <trkpt lat="46.01864" lon="6.35681">
        <ele>1437</ele>
        <time>2017-12-19T12:52:34Z</time>
      </trkpt>
      <trkpt lat="46.01863" lon="6.35688">
        <ele>1437</ele>
        <time>2017-12-19T12:52:35Z</time>
      </trkpt>
      <trkpt lat="46.01862" lon="6.35695">
        <ele>1436</ele>
        <time>2017-12-19T12:52:36Z</time>
      </trkpt>
      <trkpt lat="46.01863" lon="6.35702">
        <ele>1436</ele>
        <time>2017-12-19T12:52:37Z</time>
      </trkpt>
      <trkpt lat="46.01864" lon="6.35709">
        <ele>1435</ele>
        <time>2017-12-19T12:52:38Z</time>
      </trkpt>
      <trkpt lat="46.01864" lon="6.35714">
        <ele>1434</ele>
        <time>2017-12-19T12:52:39Z</time>
      </trkpt>
      <trkpt lat="46.01863" lon="6.35719">
        <ele>1434</ele>
        <time>2017-12-19T12:52:40Z</time>
      </trkpt>
      <trkpt lat="46.01863" lon="6.35722">
        <ele>1433</ele>
        <time>2017-12-19T12:52:41Z</time>
      </trkpt>
      <trkpt lat="46.01863" lon="6.35725">
        <ele>1433</ele>
        <time>2017-12-19T12:52:42Z</time>
      </trkpt>
      <trkpt lat="46.01863" lon="6.35728">
        <ele>1433</ele>
        <time>2017-12-19T12:52:43Z</time>
      </trkpt>
      <trkpt lat="46.01864" lon="6.35731">
        <ele>1433</ele>
        <time>2017-12-19T12:52:44Z</time>
      </trkpt>
      <trkpt lat="46.01864" lon="6.35734">
        <ele>1432</ele>
        <time>2017-12-19T12:52:45Z</time>
      </trkpt>
      <trkpt lat="46.01862" lon="6.35742">
        <ele>1432</ele>
        <time>2017-12-19T12:52:46Z</time>
      </trkpt>
      <trkpt lat="46.01862" lon="6.35751">
        <ele>1422</ele>
        <time>2017-12-19T12:52:47Z</time>
      </trkpt>
      <trkpt lat="46.01862" lon="6.35762">
        <ele>1421</ele>
        <time>2017-12-19T12:52:48Z</time>
      </trkpt>
      <trkpt lat="46.01864" lon="6.35772">
        <ele>1421</ele>
        <time>2017-12-19T12:52:49Z</time>
      </trkpt>
      <trkpt lat="46.01869" lon="6.35793">
        <ele>1419</ele>
        <time>2017-12-19T12:52:51Z</time>
      </trkpt>
      <trkpt lat="46.01873" lon="6.35803">
        <ele>1418</ele>
        <time>2017-12-19T12:52:52Z</time>
      </trkpt>
      <trkpt lat="46.01876" lon="6.35814">
        <ele>1417</ele>
        <time>2017-12-19T12:52:53Z</time>
      </trkpt>
      <trkpt lat="46.01877" lon="6.35826">
        <ele>1417</ele>
        <time>2017-12-19T12:52:54Z</time>
      </trkpt>
      <trkpt lat="46.01876" lon="6.35836">
        <ele>1408</ele>
        <time>2017-12-19T12:52:55Z</time>
      </trkpt>
      <trkpt lat="46.01874" lon="6.35844">
        <ele>1408</ele>
        <time>2017-12-19T12:52:56Z</time>
      </trkpt>
      <trkpt lat="46.01871" lon="6.35851">
        <ele>1407</ele>
        <time>2017-12-19T12:52:57Z</time>
      </trkpt>
      <trkpt lat="46.01868" lon="6.35857">
        <ele>1407</ele>
        <time>2017-12-19T12:52:58Z</time>
      </trkpt>
      <trkpt lat="46.01865" lon="6.35863">
        <ele>1407</ele>
        <time>2017-12-19T12:52:59Z</time>
      </trkpt>
      <trkpt lat="46.0185" lon="6.35897">
        <ele>1405</ele>
        <time>2017-12-19T12:53:10Z</time>
      </trkpt>
      <trkpt lat="46.01802" lon="6.35894">
        <ele>1406</ele>
        <time>2017-12-19T12:53:29Z</time>
      </trkpt>
      <trkpt lat="46.01794" lon="6.35891">
        <ele>1407</ele>
        <time>2017-12-19T12:53:31Z</time>
      </trkpt>
      <trkpt lat="46.01769" lon="6.35879">
        <ele>1407</ele>
        <time>2017-12-19T12:53:37Z</time>
      </trkpt>
      <trkpt lat="46.01765" lon="6.35878">
        <ele>1407</ele>
        <time>2017-12-19T12:53:38Z</time>
      </trkpt>
      <trkpt lat="46.01756" lon="6.35874">
        <ele>1407</ele>
        <time>2017-12-19T12:53:40Z</time>
      </trkpt>
      <trkpt lat="46.01736" lon="6.35871">
        <ele>1415</ele>
        <time>2017-12-19T12:53:44Z</time>
      </trkpt>
      <trkpt lat="46.01726" lon="6.35872">
        <ele>1416</ele>
        <time>2017-12-19T12:53:46Z</time>
      </trkpt>
      <trkpt lat="46.01721" lon="6.35875">
        <ele>1416</ele>
        <time>2017-12-19T12:53:47Z</time>
      </trkpt>
      <trkpt lat="46.0172" lon="6.35882">
        <ele>1416</ele>
        <time>2017-12-19T12:53:48Z</time>
      </trkpt>
      <trkpt lat="46.0172" lon="6.35887">
        <ele>1416</ele>
        <time>2017-12-19T12:53:49Z</time>
      </trkpt>
      <trkpt lat="46.01721" lon="6.35891">
        <ele>1415</ele>
        <time>2017-12-19T12:53:50Z</time>
      </trkpt>
      <trkpt lat="46.01723" lon="6.35896">
        <ele>1415</ele>
        <time>2017-12-19T12:53:51Z</time>
      </trkpt>
      <trkpt lat="46.01724" lon="6.359">
        <ele>1414</ele>
        <time>2017-12-19T12:53:52Z</time>
      </trkpt>
      <trkpt lat="46.01726" lon="6.35904">
        <ele>1413</ele>
        <time>2017-12-19T12:53:53Z</time>
      </trkpt>
      <trkpt lat="46.01728" lon="6.35909">
        <ele>1412</ele>
        <time>2017-12-19T12:53:54Z</time>
      </trkpt>
      <trkpt lat="46.0173" lon="6.35915">
        <ele>1411</ele>
        <time>2017-12-19T12:53:55Z</time>
      </trkpt>
      <trkpt lat="46.01735" lon="6.3593">
        <ele>1410</ele>
        <time>2017-12-19T12:53:57Z</time>
      </trkpt>
      <trkpt lat="46.01737" lon="6.35938">
        <ele>1411</ele>
        <time>2017-12-19T12:53:58Z</time>
      </trkpt>
      <trkpt lat="46.01738" lon="6.35947">
        <ele>1412</ele>
        <time>2017-12-19T12:53:59Z</time>
      </trkpt>
      <trkpt lat="46.01741" lon="6.35964">
        <ele>1412</ele>
        <time>2017-12-19T12:54:01Z</time>
      </trkpt>
      <trkpt lat="46.01743" lon="6.35973">
        <ele>1411</ele>
        <time>2017-12-19T12:54:02Z</time>
      </trkpt>
      <trkpt lat="46.01746" lon="6.35981">
        <ele>1409</ele>
        <time>2017-12-19T12:54:03Z</time>
      </trkpt>
      <trkpt lat="46.01751" lon="6.35988">
        <ele>1400</ele>
        <time>2017-12-19T12:54:04Z</time>
      </trkpt>
      <trkpt lat="46.01755" lon="6.35994">
        <ele>1401</ele>
        <time>2017-12-19T12:54:05Z</time>
      </trkpt>
      <trkpt lat="46.01776" lon="6.36024">
        <ele>1398</ele>
        <time>2017-12-19T12:54:10Z</time>
      </trkpt>
      <trkpt lat="46.0179" lon="6.36047">
        <ele>1397</ele>
        <time>2017-12-19T12:54:14Z</time>
      </trkpt>
      <trkpt lat="46.01793" lon="6.36054">
        <ele>1397</ele>
        <time>2017-12-19T12:54:15Z</time>
      </trkpt>
      <trkpt lat="46.018" lon="6.36074">
        <ele>1396</ele>
        <time>2017-12-19T12:54:18Z</time>
      </trkpt>
      <trkpt lat="46.01802" lon="6.3608">
        <ele>1395</ele>
        <time>2017-12-19T12:54:19Z</time>
      </trkpt>
      <trkpt lat="46.01805" lon="6.36086">
        <ele>1397</ele>
        <time>2017-12-19T12:54:20Z</time>
      </trkpt>
      <trkpt lat="46.01808" lon="6.36091">
        <ele>1397</ele>
        <time>2017-12-19T12:54:21Z</time>
      </trkpt>
      <trkpt lat="46.01811" lon="6.36096">
        <ele>1396</ele>
        <time>2017-12-19T12:54:22Z</time>
      </trkpt>
      <trkpt lat="46.01818" lon="6.36103">
        <ele>1396</ele>
        <time>2017-12-19T12:54:24Z</time>
      </trkpt>
      <trkpt lat="46.01863" lon="6.36135">
        <ele>1386</ele>
        <time>2017-12-19T12:54:37Z</time>
      </trkpt>
      <trkpt lat="46.0187" lon="6.36139">
        <ele>1385</ele>
        <time>2017-12-19T12:54:45Z</time>
      </trkpt>
      <trkpt lat="46.01876" lon="6.36144">
        <ele>1385</ele>
        <time>2017-12-19T12:54:53Z</time>
      </trkpt>
      <trkpt lat="46.0189" lon="6.36158">
        <ele>1383</ele>
        <time>2017-12-19T12:55:05Z</time>
      </trkpt>
      <trkpt lat="46.01893" lon="6.36163">
        <ele>1382</ele>
        <time>2017-12-19T12:55:06Z</time>
      </trkpt>
      <trkpt lat="46.01895" lon="6.36169">
        <ele>1385</ele>
        <time>2017-12-19T12:55:07Z</time>
      </trkpt>
      <trkpt lat="46.01906" lon="6.36196">
        <ele>1386</ele>
        <time>2017-12-19T12:55:11Z</time>
      </trkpt>
      <trkpt lat="46.01918" lon="6.36215">
        <ele>1373</ele>
        <time>2017-12-19T12:55:14Z</time>
      </trkpt>
      <trkpt lat="46.01932" lon="6.36234">
        <ele>1374</ele>
        <time>2017-12-19T12:55:17Z</time>
      </trkpt>
      <trkpt lat="46.01945" lon="6.36257">
        <ele>1373</ele>
        <time>2017-12-19T12:55:20Z</time>
      </trkpt>
      <trkpt lat="46.01952" lon="6.36275">
        <ele>1372</ele>
        <time>2017-12-19T12:55:22Z</time>
      </trkpt>
      <trkpt lat="46.01963" lon="6.36304">
        <ele>1370</ele>
        <time>2017-12-19T12:55:25Z</time>
      </trkpt>
      <trkpt lat="46.01968" lon="6.36314">
        <ele>1369</ele>
        <time>2017-12-19T12:55:26Z</time>
      </trkpt>
      <trkpt lat="46.01979" lon="6.36335">
        <ele>1366</ele>
        <time>2017-12-19T12:55:28Z</time>
      </trkpt>
      <trkpt lat="46.01983" lon="6.36348">
        <ele>1366</ele>
        <time>2017-12-19T12:55:29Z</time>
      </trkpt>
      <trkpt lat="46.01991" lon="6.3637">
        <ele>1367</ele>
        <time>2017-12-19T12:55:31Z</time>
      </trkpt>
      <trkpt lat="46.01997" lon="6.36376">
        <ele>1367</ele>
        <time>2017-12-19T12:55:32Z</time>
      </trkpt>
      <trkpt lat="46.02002" lon="6.36381">
        <ele>1348</ele>
        <time>2017-12-19T12:55:33Z</time>
      </trkpt>
      <trkpt lat="46.02006" lon="6.36382">
        <ele>1348</ele>
        <time>2017-12-19T12:55:34Z</time>
      </trkpt>
      <trkpt lat="46.02006" lon="6.36376">
        <ele>1348</ele>
        <time>2017-12-19T12:55:35Z</time>
      </trkpt>
      <trkpt lat="46.02007" lon="6.36356">
        <ele>1348</ele>
        <time>2017-12-19T12:55:36Z</time>
      </trkpt>
      <trkpt lat="46.02008" lon="6.36345">
        <ele>1350</ele>
        <time>2017-12-19T12:55:37Z</time>
      </trkpt>
      <trkpt lat="46.02018" lon="6.36321">
        <ele>1346</ele>
        <time>2017-12-19T12:55:40Z</time>
      </trkpt>
      <trkpt lat="46.02022" lon="6.36321">
        <ele>1344</ele>
        <time>2017-12-19T12:55:41Z</time>
      </trkpt>
      <trkpt lat="46.02028" lon="6.36324">
        <ele>1343</ele>
        <time>2017-12-19T12:55:42Z</time>
      </trkpt>
      <trkpt lat="46.02031" lon="6.36328">
        <ele>1342</ele>
        <time>2017-12-19T12:55:43Z</time>
      </trkpt>
      <trkpt lat="46.02036" lon="6.36334">
        <ele>1343</ele>
        <time>2017-12-19T12:55:44Z</time>
      </trkpt>
      <trkpt lat="46.0204" lon="6.36342">
        <ele>1342</ele>
        <time>2017-12-19T12:55:45Z</time>
      </trkpt>
      <trkpt lat="46.02044" lon="6.36351">
        <ele>1341</ele>
        <time>2017-12-19T12:55:46Z</time>
      </trkpt>
      <trkpt lat="46.02051" lon="6.36367">
        <ele>1340</ele>
        <time>2017-12-19T12:55:48Z</time>
      </trkpt>
      <trkpt lat="46.02054" lon="6.36376">
        <ele>1339</ele>
        <time>2017-12-19T12:55:49Z</time>
      </trkpt>
      <trkpt lat="46.02054" lon="6.36385">
        <ele>1339</ele>
        <time>2017-12-19T12:55:50Z</time>
      </trkpt>
      <trkpt lat="46.02054" lon="6.36398">
        <ele>1339</ele>
        <time>2017-12-19T12:55:51Z</time>
      </trkpt>
      <trkpt lat="46.02054" lon="6.3641">
        <ele>1339</ele>
        <time>2017-12-19T12:55:52Z</time>
      </trkpt>
      <trkpt lat="46.02055" lon="6.36434">
        <ele>1340</ele>
        <time>2017-12-19T12:55:54Z</time>
      </trkpt>
      <trkpt lat="46.02055" lon="6.3646">
        <ele>1340</ele>
        <time>2017-12-19T12:55:56Z</time>
      </trkpt>
      <trkpt lat="46.02058" lon="6.36497">
        <ele>1337</ele>
        <time>2017-12-19T12:55:59Z</time>
      </trkpt>
      <trkpt lat="46.02064" lon="6.36521">
        <ele>1335</ele>
        <time>2017-12-19T12:56:01Z</time>
      </trkpt>
      <trkpt lat="46.02069" lon="6.36547">
        <ele>1334</ele>
        <time>2017-12-19T12:56:03Z</time>
      </trkpt>
      <trkpt lat="46.02074" lon="6.36574">
        <ele>1327</ele>
        <time>2017-12-19T12:56:05Z</time>
      </trkpt>
      <trkpt lat="46.02082" lon="6.36614">
        <ele>1325</ele>
        <time>2017-12-19T12:56:08Z</time>
      </trkpt>
      <trkpt lat="46.02084" lon="6.36628">
        <ele>1297</ele>
        <time>2017-12-19T12:56:09Z</time>
      </trkpt>
      <trkpt lat="46.02085" lon="6.36641">
        <ele>1297</ele>
        <time>2017-12-19T12:56:10Z</time>
      </trkpt>
      <trkpt lat="46.0209" lon="6.36668">
        <ele>1300</ele>
        <time>2017-12-19T12:56:12Z</time>
      </trkpt>
      <trkpt lat="46.02101" lon="6.36734">
        <ele>1287</ele>
        <time>2017-12-19T12:56:18Z</time>
      </trkpt>
      <trkpt lat="46.02106" lon="6.36761">
        <ele>1279</ele>
        <time>2017-12-19T12:56:22Z</time>
      </trkpt>
      <trkpt lat="46.02117" lon="6.36771">
        <ele>1275</ele>
        <time>2017-12-19T12:56:25Z</time>
      </trkpt>
      <trkpt lat="46.02124" lon="6.36774">
        <ele>1273</ele>
        <time>2017-12-19T12:56:26Z</time>
      </trkpt>
      <trkpt lat="46.0213" lon="6.3678">
        <ele>1271</ele>
        <time>2017-12-19T12:56:27Z</time>
      </trkpt>
      <trkpt lat="46.02137" lon="6.36787">
        <ele>1269</ele>
        <time>2017-12-19T12:56:28Z</time>
      </trkpt>
      <trkpt lat="46.02144" lon="6.36794">
        <ele>1268</ele>
        <time>2017-12-19T12:56:29Z</time>
      </trkpt>
      <trkpt lat="46.0215" lon="6.36802">
        <ele>1266</ele>
        <time>2017-12-19T12:56:30Z</time>
      </trkpt>
      <trkpt lat="46.02156" lon="6.3681">
        <ele>1264</ele>
        <time>2017-12-19T12:56:31Z</time>
      </trkpt>
      <trkpt lat="46.02163" lon="6.36817">
        <ele>1262</ele>
        <time>2017-12-19T12:56:32Z</time>
      </trkpt>
      <trkpt lat="46.02171" lon="6.36825">
        <ele>1252</ele>
        <time>2017-12-19T12:56:33Z</time>
      </trkpt>
      <trkpt lat="46.02176" lon="6.36836">
        <ele>1251</ele>
        <time>2017-12-19T12:56:34Z</time>
      </trkpt>
      <trkpt lat="46.0218" lon="6.36847">
        <ele>1249</ele>
        <time>2017-12-19T12:56:35Z</time>
      </trkpt>
      <trkpt lat="46.02184" lon="6.36859">
        <ele>1248</ele>
        <time>2017-12-19T12:56:36Z</time>
      </trkpt>
      <trkpt lat="46.02187" lon="6.3687">
        <ele>1247</ele>
        <time>2017-12-19T12:56:37Z</time>
      </trkpt>
      <trkpt lat="46.02191" lon="6.36892">
        <ele>1246</ele>
        <time>2017-12-19T12:56:39Z</time>
      </trkpt>
      <trkpt lat="46.02195" lon="6.369">
        <ele>1246</ele>
        <time>2017-12-19T12:56:40Z</time>
      </trkpt>
      <trkpt lat="46.02199" lon="6.36909">
        <ele>1245</ele>
        <time>2017-12-19T12:56:41Z</time>
      </trkpt>
      <trkpt lat="46.02202" lon="6.36918">
        <ele>1242</ele>
        <time>2017-12-19T12:56:42Z</time>
      </trkpt>
      <trkpt lat="46.02205" lon="6.36927">
        <ele>1241</ele>
        <time>2017-12-19T12:56:43Z</time>
      </trkpt>
      <trkpt lat="46.02207" lon="6.36937">
        <ele>1241</ele>
        <time>2017-12-19T12:56:44Z</time>
      </trkpt>
      <trkpt lat="46.02213" lon="6.36962">
        <ele>1239</ele>
        <time>2017-12-19T12:56:47Z</time>
      </trkpt>
      <trkpt lat="46.02218" lon="6.36975">
        <ele>1238</ele>
        <time>2017-12-19T12:56:49Z</time>
      </trkpt>
      <trkpt lat="46.02221" lon="6.36981">
        <ele>1237</ele>
        <time>2017-12-19T12:56:50Z</time>
      </trkpt>
      <trkpt lat="46.02226" lon="6.36994">
        <ele>1235</ele>
        <time>2017-12-19T12:56:52Z</time>
      </trkpt>
      <trkpt lat="46.02228" lon="6.37001">
        <ele>1231</ele>
        <time>2017-12-19T12:56:53Z</time>
      </trkpt>
      <trkpt lat="46.02229" lon="6.37007">
        <ele>1231</ele>
        <time>2017-12-19T12:56:54Z</time>
      </trkpt>
      <trkpt lat="46.02231" lon="6.3701">
        <ele>1230</ele>
        <time>2017-12-19T12:56:55Z</time>
      </trkpt>
      <trkpt lat="46.02232" lon="6.37011">
        <ele>1230</ele>
        <time>2017-12-19T12:56:56Z</time>
      </trkpt>
      <trkpt lat="46.02233" lon="6.37011">
        <ele>1230</ele>
        <time>2017-12-19T12:56:57Z</time>
      </trkpt>
      <trkpt lat="46.02234" lon="6.37009">
        <ele>1230</ele>
        <time>2017-12-19T12:56:58Z</time>
      </trkpt>
      <trkpt lat="46.02236" lon="6.37006">
        <ele>1229</ele>
        <time>2017-12-19T12:56:59Z</time>
      </trkpt>
      <trkpt lat="46.02238" lon="6.37003">
        <ele>1228</ele>
        <time>2017-12-19T12:57:00Z</time>
      </trkpt>
      <trkpt lat="46.02239" lon="6.37">
        <ele>1228</ele>
        <time>2017-12-19T12:57:01Z</time>
      </trkpt>
      <trkpt lat="46.02244" lon="6.36979">
        <ele>1234</ele>
        <time>2017-12-19T12:57:05Z</time>
      </trkpt>
      <trkpt lat="46.02245" lon="6.36971">
        <ele>1235</ele>
        <time>2017-12-19T12:57:06Z</time>
      </trkpt>
      <trkpt lat="46.02247" lon="6.36964">
        <ele>1235</ele>
        <time>2017-12-19T12:57:07Z</time>
      </trkpt>
      <trkpt lat="46.0225" lon="6.36957">
        <ele>1236</ele>
        <time>2017-12-19T12:57:08Z</time>
      </trkpt>
      <trkpt lat="46.02253" lon="6.36949">
        <ele>1207</ele>
        <time>2017-12-19T12:57:09Z</time>
      </trkpt>
      <trkpt lat="46.02258" lon="6.36941">
        <ele>1209</ele>
        <time>2017-12-19T12:57:10Z</time>
      </trkpt>
      <trkpt lat="46.0227" lon="6.36912">
        <ele>1217</ele>
        <time>2017-12-19T12:57:13Z</time>
      </trkpt>
      <trkpt lat="46.02286" lon="6.36883">
        <ele>1209</ele>
        <time>2017-12-19T12:57:16Z</time>
      </trkpt>
      <trkpt lat="46.02295" lon="6.36863">
        <ele>1208</ele>
        <time>2017-12-19T12:57:18Z</time>
      </trkpt>
      <trkpt lat="46.02299" lon="6.3685">
        <ele>1208</ele>
        <time>2017-12-19T12:57:19Z</time>
      </trkpt>
      <trkpt lat="46.02302" lon="6.36839">
        <ele>1207</ele>
        <time>2017-12-19T12:57:20Z</time>
      </trkpt>
      <trkpt lat="46.02305" lon="6.36827">
        <ele>1211</ele>
        <time>2017-12-19T12:57:21Z</time>
      </trkpt>
      <trkpt lat="46.02307" lon="6.36814">
        <ele>1212</ele>
        <time>2017-12-19T12:57:22Z</time>
      </trkpt>
      <trkpt lat="46.02308" lon="6.36801">
        <ele>1212</ele>
        <time>2017-12-19T12:57:23Z</time>
      </trkpt>
      <trkpt lat="46.02309" lon="6.36786">
        <ele>1213</ele>
        <time>2017-12-19T12:57:24Z</time>
      </trkpt>
      <trkpt lat="46.02309" lon="6.36771">
        <ele>1212</ele>
        <time>2017-12-19T12:57:25Z</time>
      </trkpt>
      <trkpt lat="46.02308" lon="6.36754">
        <ele>1211</ele>
        <time>2017-12-19T12:57:26Z</time>
      </trkpt>
      <trkpt lat="46.02305" lon="6.36737">
        <ele>1216</ele>
        <time>2017-12-19T12:57:27Z</time>
      </trkpt>
      <trkpt lat="46.02301" lon="6.36721">
        <ele>1219</ele>
        <time>2017-12-19T12:57:28Z</time>
      </trkpt>
      <trkpt lat="46.02299" lon="6.36706">
        <ele>1220</ele>
        <time>2017-12-19T12:57:29Z</time>
      </trkpt>
      <trkpt lat="46.02304" lon="6.36684">
        <ele>1221</ele>
        <time>2017-12-19T12:57:31Z</time>
      </trkpt>
      <trkpt lat="46.02309" lon="6.36678">
        <ele>1222</ele>
        <time>2017-12-19T12:57:32Z</time>
      </trkpt>
      <trkpt lat="46.02315" lon="6.3667">
        <ele>1222</ele>
        <time>2017-12-19T12:57:33Z</time>
      </trkpt>
      <trkpt lat="46.02325" lon="6.36664">
        <ele>1227</ele>
        <time>2017-12-19T12:57:35Z</time>
      </trkpt>
      <trkpt lat="46.02337" lon="6.36662">
        <ele>1229</ele>
        <time>2017-12-19T12:57:38Z</time>
      </trkpt>
      <trkpt lat="46.0234" lon="6.36664">
        <ele>1230</ele>
        <time>2017-12-19T12:57:39Z</time>
      </trkpt>
      <trkpt lat="46.02344" lon="6.36666">
        <ele>1232</ele>
        <time>2017-12-19T12:57:40Z</time>
      </trkpt>
      <trkpt lat="46.02351" lon="6.36672">
        <ele>1224</ele>
        <time>2017-12-19T12:57:42Z</time>
      </trkpt>
      <trkpt lat="46.02355" lon="6.36675">
        <ele>1225</ele>
        <time>2017-12-19T12:57:43Z</time>
      </trkpt>
      <trkpt lat="46.02359" lon="6.36678">
        <ele>1225</ele>
        <time>2017-12-19T12:57:44Z</time>
      </trkpt>
      <trkpt lat="46.02362" lon="6.36685">
        <ele>1225</ele>
        <time>2017-12-19T12:57:45Z</time>
      </trkpt>
      <trkpt lat="46.02366" lon="6.3669">
        <ele>1225</ele>
        <time>2017-12-19T12:57:46Z</time>
      </trkpt>
      <trkpt lat="46.0237" lon="6.36696">
        <ele>1225</ele>
        <time>2017-12-19T12:57:47Z</time>
      </trkpt>
      <trkpt lat="46.02373" lon="6.36702">
        <ele>1224</ele>
        <time>2017-12-19T12:57:48Z</time>
      </trkpt>
      <trkpt lat="46.02376" lon="6.3671">
        <ele>1223</ele>
        <time>2017-12-19T12:57:49Z</time>
      </trkpt>
      <trkpt lat="46.02379" lon="6.36717">
        <ele>1223</ele>
        <time>2017-12-19T12:57:50Z</time>
      </trkpt>
      <trkpt lat="46.02381" lon="6.36725">
        <ele>1222</ele>
        <time>2017-12-19T12:57:51Z</time>
      </trkpt>
      <trkpt lat="46.02383" lon="6.36737">
        <ele>1221</ele>
        <time>2017-12-19T12:57:52Z</time>
      </trkpt>
      <trkpt lat="46.02384" lon="6.3675">
        <ele>1207</ele>
        <time>2017-12-19T12:57:53Z</time>
      </trkpt>
      <trkpt lat="46.02385" lon="6.36764">
        <ele>1206</ele>
        <time>2017-12-19T12:57:54Z</time>
      </trkpt>
      <trkpt lat="46.02384" lon="6.36777">
        <ele>1205</ele>
        <time>2017-12-19T12:57:55Z</time>
      </trkpt>
      <trkpt lat="46.02384" lon="6.36791">
        <ele>1203</ele>
        <time>2017-12-19T12:57:56Z</time>
      </trkpt>
      <trkpt lat="46.02385" lon="6.36804">
        <ele>1201</ele>
        <time>2017-12-19T12:57:57Z</time>
      </trkpt>
      <trkpt lat="46.02386" lon="6.36817">
        <ele>1200</ele>
        <time>2017-12-19T12:57:58Z</time>
      </trkpt>
      <trkpt lat="46.02391" lon="6.36839">
        <ele>1185</ele>
        <time>2017-12-19T12:58:00Z</time>
      </trkpt>
      <trkpt lat="46.02393" lon="6.36851">
        <ele>1183</ele>
        <time>2017-12-19T12:58:01Z</time>
      </trkpt>
      <trkpt lat="46.02398" lon="6.36871">
        <ele>1179</ele>
        <time>2017-12-19T12:58:03Z</time>
      </trkpt>
      <trkpt lat="46.024" lon="6.3688">
        <ele>1177</ele>
        <time>2017-12-19T12:58:04Z</time>
      </trkpt>
      <trkpt lat="46.02402" lon="6.36887">
        <ele>1175</ele>
        <time>2017-12-19T12:58:05Z</time>
      </trkpt>
      <trkpt lat="46.02408" lon="6.36902">
        <ele>1171</ele>
        <time>2017-12-19T12:58:07Z</time>
      </trkpt>
      <trkpt lat="46.02412" lon="6.36908">
        <ele>1168</ele>
        <time>2017-12-19T12:58:08Z</time>
      </trkpt>
      <trkpt lat="46.02415" lon="6.36914">
        <ele>1164</ele>
        <time>2017-12-19T12:58:09Z</time>
      </trkpt>
      <trkpt lat="46.02418" lon="6.36922">
        <ele>1162</ele>
        <time>2017-12-19T12:58:10Z</time>
      </trkpt>
      <trkpt lat="46.0242" lon="6.36933">
        <ele>1162</ele>
        <time>2017-12-19T12:58:11Z</time>
      </trkpt>
      <trkpt lat="46.02423" lon="6.36942">
        <ele>1161</ele>
        <time>2017-12-19T12:58:12Z</time>
      </trkpt>
      <trkpt lat="46.02429" lon="6.36963">
        <ele>1156</ele>
        <time>2017-12-19T12:58:14Z</time>
      </trkpt>
      <trkpt lat="46.02432" lon="6.36974">
        <ele>1152</ele>
        <time>2017-12-19T12:58:15Z</time>
      </trkpt>
      <trkpt lat="46.02439" lon="6.36994">
        <ele>1147</ele>
        <time>2017-12-19T12:58:17Z</time>
      </trkpt>
      <trkpt lat="46.02446" lon="6.37012">
        <ele>1126</ele>
        <time>2017-12-19T12:58:19Z</time>
      </trkpt>
      <trkpt lat="46.0245" lon="6.37021">
        <ele>1125</ele>
        <time>2017-12-19T12:58:20Z</time>
      </trkpt>
      <trkpt lat="46.02454" lon="6.37029">
        <ele>1125</ele>
        <time>2017-12-19T12:58:21Z</time>
      </trkpt>
      <trkpt lat="46.02463" lon="6.37045">
        <ele>1123</ele>
        <time>2017-12-19T12:58:23Z</time>
      </trkpt>
      <trkpt lat="46.0247" lon="6.37051">
        <ele>1123</ele>
        <time>2017-12-19T12:58:24Z</time>
      </trkpt>
      <trkpt lat="46.02475" lon="6.3706">
        <ele>1122</ele>
        <time>2017-12-19T12:58:25Z</time>
      </trkpt>
      <trkpt lat="46.02485" lon="6.37076">
        <ele>1120</ele>
        <time>2017-12-19T12:58:27Z</time>
      </trkpt>
      <trkpt lat="46.02491" lon="6.37084">
        <ele>1108</ele>
        <time>2017-12-19T12:58:28Z</time>
      </trkpt>
      <trkpt lat="46.02496" lon="6.37091">
        <ele>1109</ele>
        <time>2017-12-19T12:58:29Z</time>
      </trkpt>
      <trkpt lat="46.02506" lon="6.37104">
        <ele>1117</ele>
        <time>2017-12-19T12:58:31Z</time>
      </trkpt>
      <trkpt lat="46.02518" lon="6.3712">
        <ele>1115</ele>
        <time>2017-12-19T12:58:34Z</time>
      </trkpt>
      <trkpt lat="46.02523" lon="6.37118">
        <ele>1116</ele>
        <time>2017-12-19T12:58:35Z</time>
      </trkpt>
      <trkpt lat="46.02528" lon="6.37119">
        <ele>1117</ele>
        <time>2017-12-19T12:58:36Z</time>
      </trkpt>
      <trkpt lat="46.02533" lon="6.37121">
        <ele>1118</ele>
        <time>2017-12-19T12:58:37Z</time>
      </trkpt>
      <trkpt lat="46.02538" lon="6.37123">
        <ele>1118</ele>
        <time>2017-12-19T12:58:38Z</time>
      </trkpt>
      <trkpt lat="46.02543" lon="6.37129">
        <ele>1118</ele>
        <time>2017-12-19T12:58:39Z</time>
      </trkpt>
      <trkpt lat="46.02547" lon="6.37137">
        <ele>1117</ele>
        <time>2017-12-19T12:58:40Z</time>
      </trkpt>
      <trkpt lat="46.0255" lon="6.37145">
        <ele>1116</ele>
        <time>2017-12-19T12:58:41Z</time>
      </trkpt>
      <trkpt lat="46.02556" lon="6.37162">
        <ele>1115</ele>
        <time>2017-12-19T12:58:44Z</time>
      </trkpt>
      <trkpt lat="46.02556" lon="6.37165">
        <ele>1114</ele>
        <time>2017-12-19T12:58:45Z</time>
      </trkpt>
      <trkpt lat="46.02554" lon="6.37169">
        <ele>1092</ele>
        <time>2017-12-19T12:58:46Z</time>
      </trkpt>
      <trkpt lat="46.02555" lon="6.37169">
        <ele>1092</ele>
        <time>2017-12-19T12:58:48Z</time>
      </trkpt>
      <trkpt lat="46.02558" lon="6.37164">
        <ele>1115</ele>
        <time>2017-12-19T12:58:49Z</time>
      </trkpt>
      <trkpt lat="46.02564" lon="6.37158">
        <ele>1116</ele>
        <time>2017-12-19T12:58:51Z</time>
      </trkpt>
      <trkpt lat="46.02566" lon="6.37159">
        <ele>1116</ele>
        <time>2017-12-19T12:58:52Z</time>
      </trkpt>
      <trkpt lat="46.02565" lon="6.37166">
        <ele>1116</ele>
        <time>2017-12-19T12:58:53Z</time>
      </trkpt>
      <trkpt lat="46.02565" lon="6.37174">
        <ele>1097</ele>
        <time>2017-12-19T12:58:54Z</time>
      </trkpt>
      <trkpt lat="46.02567" lon="6.3718">
        <ele>1096</ele>
        <time>2017-12-19T12:58:55Z</time>
      </trkpt>
      <trkpt lat="46.02569" lon="6.37186">
        <ele>1094</ele>
        <time>2017-12-19T12:58:56Z</time>
      </trkpt>
      <trkpt lat="46.02571" lon="6.37192">
        <ele>1092</ele>
        <time>2017-12-19T12:58:57Z</time>
      </trkpt>
      <trkpt lat="46.02577" lon="6.37201">
        <ele>1090</ele>
        <time>2017-12-19T12:58:59Z</time>
      </trkpt>
      <trkpt lat="46.02587" lon="6.3721">
        <ele>1107</ele>
        <time>2017-12-19T12:59:01Z</time>
      </trkpt>
      <trkpt lat="46.02592" lon="6.37213">
        <ele>1107</ele>
        <time>2017-12-19T12:59:02Z</time>
      </trkpt>
      <trkpt lat="46.02604" lon="6.37227">
        <ele>1104</ele>
        <time>2017-12-19T12:59:05Z</time>
      </trkpt>
      <trkpt lat="46.02606" lon="6.37232">
        <ele>1103</ele>
        <time>2017-12-19T12:59:06Z</time>
      </trkpt>
      <trkpt lat="46.02616" lon="6.37248">
        <ele>1104</ele>
        <time>2017-12-19T12:59:09Z</time>
      </trkpt>
      <trkpt lat="46.02619" lon="6.37255">
        <ele>1086</ele>
        <time>2017-12-19T12:59:10Z</time>
      </trkpt>
      <trkpt lat="46.02631" lon="6.37278">
        <ele>1086</ele>
        <time>2017-12-19T12:59:13Z</time>
      </trkpt>
      <trkpt lat="46.02635" lon="6.37286">
        <ele>1085</ele>
        <time>2017-12-19T12:59:14Z</time>
      </trkpt>
      <trkpt lat="46.02636" lon="6.373">
        <ele>1083</ele>
        <time>2017-12-19T12:59:15Z</time>
      </trkpt>
      <trkpt lat="46.02636" lon="6.37311">
        <ele>1082</ele>
        <time>2017-12-19T12:59:16Z</time>
      </trkpt>
      <trkpt lat="46.02635" lon="6.3732">
        <ele>1081</ele>
        <time>2017-12-19T12:59:17Z</time>
      </trkpt>
      <trkpt lat="46.02633" lon="6.37328">
        <ele>1080</ele>
        <time>2017-12-19T12:59:18Z</time>
      </trkpt>
      <trkpt lat="46.02632" lon="6.37335">
        <ele>1064</ele>
        <time>2017-12-19T12:59:19Z</time>
      </trkpt>
      <trkpt lat="46.0263" lon="6.37359">
        <ele>1060</ele>
        <time>2017-12-19T12:59:22Z</time>
      </trkpt>
      <trkpt lat="46.02632" lon="6.37367">
        <ele>1060</ele>
        <time>2017-12-19T12:59:23Z</time>
      </trkpt>
      <trkpt lat="46.02636" lon="6.37385">
        <ele>1058</ele>
        <time>2017-12-19T12:59:25Z</time>
      </trkpt>
      <trkpt lat="46.02641" lon="6.37393">
        <ele>1058</ele>
        <time>2017-12-19T12:59:26Z</time>
      </trkpt>
      <trkpt lat="46.02647" lon="6.374">
        <ele>1059</ele>
        <time>2017-12-19T12:59:27Z</time>
      </trkpt>
      <trkpt lat="46.02653" lon="6.37405">
        <ele>1060</ele>
        <time>2017-12-19T12:59:28Z</time>
      </trkpt>
      <trkpt lat="46.0266" lon="6.37409">
        <ele>1062</ele>
        <time>2017-12-19T12:59:29Z</time>
      </trkpt>
      <trkpt lat="46.02668" lon="6.37413">
        <ele>1068</ele>
        <time>2017-12-19T12:59:30Z</time>
      </trkpt>
      <trkpt lat="46.02686" lon="6.37426">
        <ele>1066</ele>
        <time>2017-12-19T12:59:33Z</time>
      </trkpt>
      <trkpt lat="46.02691" lon="6.37433">
        <ele>1066</ele>
        <time>2017-12-19T12:59:34Z</time>
      </trkpt>
      <trkpt lat="46.02694" lon="6.37441">
        <ele>1066</ele>
        <time>2017-12-19T12:59:35Z</time>
      </trkpt>
      <trkpt lat="46.02696" lon="6.37449">
        <ele>1065</ele>
        <time>2017-12-19T12:59:36Z</time>
      </trkpt>
      <trkpt lat="46.02699" lon="6.37457">
        <ele>1065</ele>
        <time>2017-12-19T12:59:37Z</time>
      </trkpt>
      <trkpt lat="46.02703" lon="6.3748">
        <ele>1062</ele>
        <time>2017-12-19T12:59:40Z</time>
      </trkpt>
      <trkpt lat="46.02704" lon="6.37487">
        <ele>1062</ele>
        <time>2017-12-19T12:59:41Z</time>
      </trkpt>
      <trkpt lat="46.02705" lon="6.37499">
        <ele>1061</ele>
        <time>2017-12-19T12:59:43Z</time>
      </trkpt>
      <trkpt lat="46.02708" lon="6.37529">
        <ele>1047</ele>
        <time>2017-12-19T12:59:47Z</time>
      </trkpt>
      <trkpt lat="46.0271" lon="6.37556">
        <ele>1045</ele>
        <time>2017-12-19T12:59:50Z</time>
      </trkpt>
      <trkpt lat="46.02711" lon="6.37564">
        <ele>1044</ele>
        <time>2017-12-19T12:59:51Z</time>
      </trkpt>
      <trkpt lat="46.02714" lon="6.37582">
        <ele>1044</ele>
        <time>2017-12-19T12:59:53Z</time>
      </trkpt>
      <trkpt lat="46.02715" lon="6.37591">
        <ele>1032</ele>
        <time>2017-12-19T12:59:54Z</time>
      </trkpt>
      <trkpt lat="46.02719" lon="6.37618">
        <ele>1030</ele>
        <time>2017-12-19T12:59:57Z</time>
      </trkpt>
      <trkpt lat="46.0272" lon="6.37626">
        <ele>1030</ele>
        <time>2017-12-19T12:59:58Z</time>
      </trkpt>
      <trkpt lat="46.02723" lon="6.37634">
        <ele>1029</ele>
        <time>2017-12-19T12:59:59Z</time>
      </trkpt>
      <trkpt lat="46.02738" lon="6.37665">
        <ele>1032</ele>
        <time>2017-12-19T13:00:03Z</time>
      </trkpt>
      <trkpt lat="46.02747" lon="6.37679">
        <ele>1026</ele>
        <time>2017-12-19T13:00:05Z</time>
      </trkpt>
      <trkpt lat="46.02747" lon="6.37686">
        <ele>1023</ele>
        <time>2017-12-19T13:00:06Z</time>
      </trkpt>
      <trkpt lat="46.02742" lon="6.3769">
        <ele>1021</ele>
        <time>2017-12-19T13:00:07Z</time>
      </trkpt>
      <trkpt lat="46.02738" lon="6.3769">
        <ele>1020</ele>
        <time>2017-12-19T13:00:08Z</time>
      </trkpt>
      <trkpt lat="46.02734" lon="6.37686">
        <ele>1020</ele>
        <time>2017-12-19T13:00:09Z</time>
      </trkpt>
      <trkpt lat="46.0273" lon="6.37681">
        <ele>1020</ele>
        <time>2017-12-19T13:00:10Z</time>
      </trkpt>
      <trkpt lat="46.02702" lon="6.37659">
        <ele>1022</ele>
        <time>2017-12-19T13:00:15Z</time>
      </trkpt>
      <trkpt lat="46.02696" lon="6.37652">
        <ele>1020</ele>
        <time>2017-12-19T13:00:16Z</time>
      </trkpt>
      <trkpt lat="46.02691" lon="6.37644">
        <ele>1020</ele>
        <time>2017-12-19T13:00:17Z</time>
      </trkpt>
      <trkpt lat="46.02686" lon="6.37635">
        <ele>1021</ele>
        <time>2017-12-19T13:00:18Z</time>
      </trkpt>
      <trkpt lat="46.02681" lon="6.37626">
        <ele>1021</ele>
        <time>2017-12-19T13:00:19Z</time>
      </trkpt>
      <trkpt lat="46.02673" lon="6.37606">
        <ele>1021</ele>
        <time>2017-12-19T13:00:21Z</time>
      </trkpt>
      <trkpt lat="46.02663" lon="6.37587">
        <ele>1011</ele>
        <time>2017-12-19T13:00:23Z</time>
      </trkpt>
      <trkpt lat="46.02648" lon="6.37559">
        <ele>1012</ele>
        <time>2017-12-19T13:00:26Z</time>
      </trkpt>
      <trkpt lat="46.0263" lon="6.37536">
        <ele>1011</ele>
        <time>2017-12-19T13:00:29Z</time>
      </trkpt>
      <trkpt lat="46.02623" lon="6.37532">
        <ele>1010</ele>
        <time>2017-12-19T13:00:30Z</time>
      </trkpt>
      <trkpt lat="46.02617" lon="6.3753">
        <ele>1009</ele>
        <time>2017-12-19T13:00:31Z</time>
      </trkpt>
      <trkpt lat="46.02609" lon="6.37528">
        <ele>1007</ele>
        <time>2017-12-19T13:00:32Z</time>
      </trkpt>
      <trkpt lat="46.02602" lon="6.37525">
        <ele>1006</ele>
        <time>2017-12-19T13:00:33Z</time>
      </trkpt>
      <trkpt lat="46.02596" lon="6.37518">
        <ele>1006</ele>
        <time>2017-12-19T13:00:34Z</time>
      </trkpt>
      <trkpt lat="46.0259" lon="6.37511">
        <ele>1005</ele>
        <time>2017-12-19T13:00:35Z</time>
      </trkpt>
      <trkpt lat="46.02578" lon="6.37494">
        <ele>1002</ele>
        <time>2017-12-19T13:00:37Z</time>
      </trkpt>
      <trkpt lat="46.02547" lon="6.3745">
        <ele>1003</ele>
        <time>2017-12-19T13:00:42Z</time>
      </trkpt>
      <trkpt lat="46.02527" lon="6.37426">
        <ele>1000</ele>
        <time>2017-12-19T13:00:45Z</time>
      </trkpt>
      <trkpt lat="46.02515" lon="6.3741">
        <ele>1006</ele>
        <time>2017-12-19T13:00:47Z</time>
      </trkpt>
      <trkpt lat="46.02507" lon="6.37402">
        <ele>1006</ele>
        <time>2017-12-19T13:00:48Z</time>
      </trkpt>
      <trkpt lat="46.02492" lon="6.37391">
        <ele>1007</ele>
        <time>2017-12-19T13:00:50Z</time>
      </trkpt>
      <trkpt lat="46.02477" lon="6.37379">
        <ele>1012</ele>
        <time>2017-12-19T13:00:52Z</time>
      </trkpt>
      <trkpt lat="46.0247" lon="6.37377">
        <ele>1013</ele>
        <time>2017-12-19T13:00:53Z</time>
      </trkpt>
      <trkpt lat="46.02466" lon="6.37377">
        <ele>1014</ele>
        <time>2017-12-19T13:00:54Z</time>
      </trkpt>
      <trkpt lat="46.02458" lon="6.37393">
        <ele>1014</ele>
        <time>2017-12-19T13:00:55Z</time>
      </trkpt>
      <trkpt lat="46.02458" lon="6.37402">
        <ele>1014</ele>
        <time>2017-12-19T13:00:56Z</time>
      </trkpt>
      <trkpt lat="46.02457" lon="6.37411">
        <ele>1014</ele>
        <time>2017-12-19T13:00:57Z</time>
      </trkpt>
      <trkpt lat="46.02459" lon="6.37418">
        <ele>1011</ele>
        <time>2017-12-19T13:00:58Z</time>
      </trkpt>
      <trkpt lat="46.0246" lon="6.37428">
        <ele>1011</ele>
        <time>2017-12-19T13:00:59Z</time>
      </trkpt>
      <trkpt lat="46.02462" lon="6.37436">
        <ele>1010</ele>
        <time>2017-12-19T13:01:00Z</time>
      </trkpt>
      <trkpt lat="46.0247" lon="6.3748">
        <ele>1007</ele>
        <time>2017-12-19T13:01:05Z</time>
      </trkpt>
      <trkpt lat="46.02475" lon="6.3753">
        <ele>1001</ele>
        <time>2017-12-19T13:01:10Z</time>
      </trkpt>
      <trkpt lat="46.02479" lon="6.37568">
        <ele>995</ele>
        <time>2017-12-19T13:01:14Z</time>
      </trkpt>
      <trkpt lat="46.02476" lon="6.37577">
        <ele>995</ele>
        <time>2017-12-19T13:01:15Z</time>
      </trkpt>
      <trkpt lat="46.02473" lon="6.37585">
        <ele>982</ele>
        <time>2017-12-19T13:01:16Z</time>
      </trkpt>
      <trkpt lat="46.02467" lon="6.37589">
        <ele>984</ele>
        <time>2017-12-19T13:01:17Z</time>
      </trkpt>
      <trkpt lat="46.02454" lon="6.37598">
        <ele>987</ele>
        <time>2017-12-19T13:01:19Z</time>
      </trkpt>
      <trkpt lat="46.02443" lon="6.37606">
        <ele>990</ele>
        <time>2017-12-19T13:01:21Z</time>
      </trkpt>
      <trkpt lat="46.02437" lon="6.37613">
        <ele>989</ele>
        <time>2017-12-19T13:01:22Z</time>
      </trkpt>
      <trkpt lat="46.02428" lon="6.37626">
        <ele>986</ele>
        <time>2017-12-19T13:01:24Z</time>
      </trkpt>
      <trkpt lat="46.02425" lon="6.37633">
        <ele>984</ele>
        <time>2017-12-19T13:01:25Z</time>
      </trkpt>
      <trkpt lat="46.0242" lon="6.37644">
        <ele>981</ele>
        <time>2017-12-19T13:01:26Z</time>
      </trkpt>
      <trkpt lat="46.0241" lon="6.37679">
        <ele>984</ele>
        <time>2017-12-19T13:01:29Z</time>
      </trkpt>
      <trkpt lat="46.02403" lon="6.37723">
        <ele>980</ele>
        <time>2017-12-19T13:01:33Z</time>
      </trkpt>
      <trkpt lat="46.024" lon="6.37744">
        <ele>972</ele>
        <time>2017-12-19T13:01:35Z</time>
      </trkpt>
      <trkpt lat="46.02401" lon="6.37755">
        <ele>960</ele>
        <time>2017-12-19T13:01:37Z</time>
      </trkpt>
      <trkpt lat="46.02406" lon="6.37753">
        <ele>957</ele>
        <time>2017-12-19T13:01:38Z</time>
      </trkpt>
      <trkpt lat="46.02409" lon="6.37748">
        <ele>962</ele>
        <time>2017-12-19T13:01:39Z</time>
      </trkpt>
      <trkpt lat="46.02411" lon="6.37742">
        <ele>965</ele>
        <time>2017-12-19T13:01:40Z</time>
      </trkpt>
      <trkpt lat="46.02413" lon="6.37736">
        <ele>969</ele>
        <time>2017-12-19T13:01:41Z</time>
      </trkpt>
      <trkpt lat="46.02428" lon="6.37691">
        <ele>956</ele>
        <time>2017-12-19T13:01:47Z</time>
      </trkpt>
      <trkpt lat="46.02432" lon="6.37683">
        <ele>958</ele>
        <time>2017-12-19T13:01:48Z</time>
      </trkpt>
      <trkpt lat="46.02443" lon="6.3766">
        <ele>977</ele>
        <time>2017-12-19T13:01:51Z</time>
      </trkpt>
      <trkpt lat="46.02447" lon="6.37656">
        <ele>977</ele>
        <time>2017-12-19T13:01:52Z</time>
      </trkpt>
      <trkpt lat="46.02448" lon="6.3766">
        <ele>976</ele>
        <time>2017-12-19T13:01:53Z</time>
      </trkpt>
      <trkpt lat="46.02448" lon="6.37664">
        <ele>976</ele>
        <time>2017-12-19T13:01:54Z</time>
      </trkpt>
      <trkpt lat="46.02448" lon="6.37666">
        <ele>975</ele>
        <time>2017-12-19T13:01:55Z</time>
      </trkpt>
      <trkpt lat="46.02449" lon="6.37669">
        <ele>954</ele>
        <time>2017-12-19T13:01:56Z</time>
      </trkpt>
      <trkpt lat="46.02448" lon="6.37676">
        <ele>953</ele>
        <time>2017-12-19T13:01:57Z</time>
      </trkpt>
      <trkpt lat="46.02446" lon="6.37693">
        <ele>950</ele>
        <time>2017-12-19T13:01:59Z</time>
      </trkpt>
      <trkpt lat="46.02444" lon="6.37703">
        <ele>948</ele>
        <time>2017-12-19T13:02:00Z</time>
      </trkpt>
      <trkpt lat="46.02438" lon="6.3774">
        <ele>945</ele>
        <time>2017-12-19T13:02:03Z</time>
      </trkpt>
      <trkpt lat="46.02435" lon="6.37754">
        <ele>933</ele>
        <time>2017-12-19T13:02:04Z</time>
      </trkpt>
      <trkpt lat="46.02435" lon="6.37775">
        <ele>928</ele>
        <time>2017-12-19T13:02:06Z</time>
      </trkpt>
      <trkpt lat="46.02434" lon="6.37784">
        <ele>926</ele>
        <time>2017-12-19T13:02:07Z</time>
      </trkpt>
      <trkpt lat="46.02433" lon="6.37792">
        <ele>926</ele>
        <time>2017-12-19T13:02:08Z</time>
      </trkpt>
      <trkpt lat="46.02429" lon="6.378">
        <ele>926</ele>
        <time>2017-12-19T13:02:09Z</time>
      </trkpt>
      <trkpt lat="46.02426" lon="6.37807">
        <ele>927</ele>
        <time>2017-12-19T13:02:10Z</time>
      </trkpt>
      <trkpt lat="46.02422" lon="6.37814">
        <ele>928</ele>
        <time>2017-12-19T13:02:11Z</time>
      </trkpt>
      <trkpt lat="46.02417" lon="6.37821">
        <ele>931</ele>
        <time>2017-12-19T13:02:12Z</time>
      </trkpt>
      <trkpt lat="46.02408" lon="6.37838">
        <ele>941</ele>
        <time>2017-12-19T13:02:14Z</time>
      </trkpt>
      <trkpt lat="46.02405" lon="6.37847">
        <ele>943</ele>
        <time>2017-12-19T13:02:15Z</time>
      </trkpt>
      <trkpt lat="46.02402" lon="6.37858">
        <ele>943</ele>
        <time>2017-12-19T13:02:16Z</time>
      </trkpt>
      <trkpt lat="46.02397" lon="6.37888">
        <ele>939</ele>
        <time>2017-12-19T13:02:19Z</time>
      </trkpt>
      <trkpt lat="46.02392" lon="6.37907">
        <ele>936</ele>
        <time>2017-12-19T13:02:21Z</time>
      </trkpt>
      <trkpt lat="46.02386" lon="6.37936">
        <ele>920</ele>
        <time>2017-12-19T13:02:24Z</time>
      </trkpt>
      <trkpt lat="46.02379" lon="6.37974">
        <ele>915</ele>
        <time>2017-12-19T13:02:28Z</time>
      </trkpt>
      <trkpt lat="46.02377" lon="6.37984">
        <ele>914</ele>
        <time>2017-12-19T13:02:29Z</time>
      </trkpt>
      <trkpt lat="46.02378" lon="6.37995">
        <ele>913</ele>
        <time>2017-12-19T13:02:30Z</time>
      </trkpt>
      <trkpt lat="46.02381" lon="6.38028">
        <ele>894</ele>
        <time>2017-12-19T13:02:33Z</time>
      </trkpt>
      <trkpt lat="46.02385" lon="6.38049">
        <ele>891</ele>
        <time>2017-12-19T13:02:35Z</time>
      </trkpt>
      <trkpt lat="46.02389" lon="6.38071">
        <ele>888</ele>
        <time>2017-12-19T13:02:37Z</time>
      </trkpt>
      <trkpt lat="46.02398" lon="6.38111">
        <ele>876</ele>
        <time>2017-12-19T13:02:41Z</time>
      </trkpt>
      <trkpt lat="46.02402" lon="6.3813">
        <ele>875</ele>
        <time>2017-12-19T13:02:43Z</time>
      </trkpt>
      <trkpt lat="46.02405" lon="6.3814">
        <ele>874</ele>
        <time>2017-12-19T13:02:44Z</time>
      </trkpt>
      <trkpt lat="46.02406" lon="6.3815">
        <ele>874</ele>
        <time>2017-12-19T13:02:45Z</time>
      </trkpt>
      <trkpt lat="46.02411" lon="6.3818">
        <ele>868</ele>
        <time>2017-12-19T13:02:48Z</time>
      </trkpt>
      <trkpt lat="46.02412" lon="6.38211">
        <ele>863</ele>
        <time>2017-12-19T13:02:51Z</time>
      </trkpt>
      <trkpt lat="46.02413" lon="6.38253">
        <ele>861</ele>
        <time>2017-12-19T13:02:55Z</time>
      </trkpt>
      <trkpt lat="46.02415" lon="6.38262">
        <ele>856</ele>
        <time>2017-12-19T13:02:56Z</time>
      </trkpt>
      <trkpt lat="46.02414" lon="6.38272">
        <ele>853</ele>
        <time>2017-12-19T13:02:57Z</time>
      </trkpt>
      <trkpt lat="46.02412" lon="6.38282">
        <ele>850</ele>
        <time>2017-12-19T13:02:58Z</time>
      </trkpt>
      <trkpt lat="46.0241" lon="6.38292">
        <ele>849</ele>
        <time>2017-12-19T13:02:59Z</time>
      </trkpt>
      <trkpt lat="46.02409" lon="6.38301">
        <ele>848</ele>
        <time>2017-12-19T13:03:00Z</time>
      </trkpt>
      <trkpt lat="46.024" lon="6.38303">
        <ele>847</ele>
        <time>2017-12-19T13:03:01Z</time>
      </trkpt>
      <trkpt lat="46.02392" lon="6.38303">
        <ele>846</ele>
        <time>2017-12-19T13:03:02Z</time>
      </trkpt>
      <trkpt lat="46.02385" lon="6.38302">
        <ele>844</ele>
        <time>2017-12-19T13:03:03Z</time>
      </trkpt>
      <trkpt lat="46.02379" lon="6.38296">
        <ele>844</ele>
        <time>2017-12-19T13:03:04Z</time>
      </trkpt>
      <trkpt lat="46.02372" lon="6.38291">
        <ele>843</ele>
        <time>2017-12-19T13:03:05Z</time>
      </trkpt>
      <trkpt lat="46.02366" lon="6.38283">
        <ele>843</ele>
        <time>2017-12-19T13:03:06Z</time>
      </trkpt>
      <trkpt lat="46.02363" lon="6.38272">
        <ele>844</ele>
        <time>2017-12-19T13:03:07Z</time>
      </trkpt>
      <trkpt lat="46.02359" lon="6.38264">
        <ele>844</ele>
        <time>2017-12-19T13:03:08Z</time>
      </trkpt>
      <trkpt lat="46.02358" lon="6.38254">
        <ele>845</ele>
        <time>2017-12-19T13:03:09Z</time>
      </trkpt>
      <trkpt lat="46.02357" lon="6.38247">
        <ele>854</ele>
        <time>2017-12-19T13:03:10Z</time>
      </trkpt>
      <trkpt lat="46.02356" lon="6.3824">
        <ele>855</ele>
        <time>2017-12-19T13:03:11Z</time>
      </trkpt>
      <trkpt lat="46.02352" lon="6.38239">
        <ele>854</ele>
        <time>2017-12-19T13:03:12Z</time>
      </trkpt>
      <trkpt lat="46.0235" lon="6.38239">
        <ele>853</ele>
        <time>2017-12-19T13:03:13Z</time>
      </trkpt>
      <trkpt lat="46.0235" lon="6.38242">
        <ele>853</ele>
        <time>2017-12-19T13:03:14Z</time>
      </trkpt>
      <trkpt lat="46.0235" lon="6.38246">
        <ele>852</ele>
        <time>2017-12-19T13:03:15Z</time>
      </trkpt>
      <trkpt lat="46.02353" lon="6.38252">
        <ele>845</ele>
        <time>2017-12-19T13:03:16Z</time>
      </trkpt>
      <trkpt lat="46.02354" lon="6.38257">
        <ele>844</ele>
        <time>2017-12-19T13:03:17Z</time>
      </trkpt>
      <trkpt lat="46.02356" lon="6.38262">
        <ele>844</ele>
        <time>2017-12-19T13:03:18Z</time>
      </trkpt>
      <trkpt lat="46.02357" lon="6.38268">
        <ele>844</ele>
        <time>2017-12-19T13:03:19Z</time>
      </trkpt>
      <trkpt lat="46.02361" lon="6.3828">
        <ele>843</ele>
        <time>2017-12-19T13:03:21Z</time>
      </trkpt>
      <trkpt lat="46.02364" lon="6.38285">
        <ele>843</ele>
        <time>2017-12-19T13:03:22Z</time>
      </trkpt>
      <trkpt lat="46.02367" lon="6.3829">
        <ele>843</ele>
        <time>2017-12-19T13:03:23Z</time>
      </trkpt>
      <trkpt lat="46.02379" lon="6.38308">
        <ele>843</ele>
        <time>2017-12-19T13:03:26Z</time>
      </trkpt>
      <trkpt lat="46.02391" lon="6.38323">
        <ele>845</ele>
        <time>2017-12-19T13:03:29Z</time>
      </trkpt>
      <trkpt lat="46.02405" lon="6.38334">
        <ele>839</ele>
        <time>2017-12-19T13:03:32Z</time>
      </trkpt>
      <trkpt lat="46.02422" lon="6.38348">
        <ele>840</ele>
        <time>2017-12-19T13:03:36Z</time>
      </trkpt>
      <trkpt lat="46.02431" lon="6.38353">
        <ele>836</ele>
        <time>2017-12-19T13:03:38Z</time>
      </trkpt>
      <trkpt lat="46.02436" lon="6.38353">
        <ele>834</ele>
        <time>2017-12-19T13:03:39Z</time>
      </trkpt>
      <trkpt lat="46.0244" lon="6.38354">
        <ele>833</ele>
        <time>2017-12-19T13:03:40Z</time>
      </trkpt>
      <trkpt lat="46.02443" lon="6.38356">
        <ele>832</ele>
        <time>2017-12-19T13:03:41Z</time>
      </trkpt>
      <trkpt lat="46.02447" lon="6.38354">
        <ele>831</ele>
        <time>2017-12-19T13:03:42Z</time>
      </trkpt>
      <trkpt lat="46.0245" lon="6.3835">
        <ele>831</ele>
        <time>2017-12-19T13:03:43Z</time>
      </trkpt>
      <trkpt lat="46.02453" lon="6.38346">
        <ele>831</ele>
        <time>2017-12-19T13:03:44Z</time>
      </trkpt>
      <trkpt lat="46.02457" lon="6.38342">
        <ele>830</ele>
        <time>2017-12-19T13:03:45Z</time>
      </trkpt>
      <trkpt lat="46.0246" lon="6.38341">
        <ele>829</ele>
        <time>2017-12-19T13:03:46Z</time>
      </trkpt>
      <trkpt lat="46.02461" lon="6.38341">
        <ele>828</ele>
        <time>2017-12-19T13:03:47Z</time>
      </trkpt>
      <trkpt lat="46.02463" lon="6.38343">
        <ele>828</ele>
        <time>2017-12-19T13:03:48Z</time>
      </trkpt>
      <trkpt lat="46.02464" lon="6.38345">
        <ele>827</ele>
        <time>2017-12-19T13:03:49Z</time>
      </trkpt>
      <trkpt lat="46.0246" lon="6.38355">
        <ele>828</ele>
        <time>2017-12-19T13:03:50Z</time>
      </trkpt>
      <trkpt lat="46.02457" lon="6.38364">
        <ele>828</ele>
        <time>2017-12-19T13:03:51Z</time>
      </trkpt>
      <trkpt lat="46.02456" lon="6.38371">
        <ele>828</ele>
        <time>2017-12-19T13:03:52Z</time>
      </trkpt>
      <trkpt lat="46.02453" lon="6.38399">
        <ele>825</ele>
        <time>2017-12-19T13:03:56Z</time>
      </trkpt>
      <trkpt lat="46.0245" lon="6.38415">
        <ele>825</ele>
        <time>2017-12-19T13:03:58Z</time>
      </trkpt>
      <trkpt lat="46.02449" lon="6.38423">
        <ele>811</ele>
        <time>2017-12-19T13:03:59Z</time>
      </trkpt>
      <trkpt lat="46.02447" lon="6.3843">
        <ele>811</ele>
        <time>2017-12-19T13:04:00Z</time>
      </trkpt>
      <trkpt lat="46.02445" lon="6.38435">
        <ele>810</ele>
        <time>2017-12-19T13:04:01Z</time>
      </trkpt>
      <trkpt lat="46.02441" lon="6.38438">
        <ele>810</ele>
        <time>2017-12-19T13:04:02Z</time>
      </trkpt>
      <trkpt lat="46.02437" lon="6.38439">
        <ele>811</ele>
        <time>2017-12-19T13:04:03Z</time>
      </trkpt>
      <trkpt lat="46.02432" lon="6.38439">
        <ele>812</ele>
        <time>2017-12-19T13:04:04Z</time>
      </trkpt>
      <trkpt lat="46.02427" lon="6.38437">
        <ele>813</ele>
        <time>2017-12-19T13:04:05Z</time>
      </trkpt>
      <trkpt lat="46.02424" lon="6.38435">
        <ele>814</ele>
        <time>2017-12-19T13:04:06Z</time>
      </trkpt>
      <trkpt lat="46.0242" lon="6.38432">
        <ele>816</ele>
        <time>2017-12-19T13:04:07Z</time>
      </trkpt>
      <trkpt lat="46.02415" lon="6.38429">
        <ele>811</ele>
        <time>2017-12-19T13:04:08Z</time>
      </trkpt>
      <trkpt lat="46.0239" lon="6.3841">
        <ele>817</ele>
        <time>2017-12-19T13:04:13Z</time>
      </trkpt>
      <trkpt lat="46.02376" lon="6.38401">
        <ele>813</ele>
        <time>2017-12-19T13:04:16Z</time>
      </trkpt>
      <trkpt lat="46.02372" lon="6.38397">
        <ele>812</ele>
        <time>2017-12-19T13:04:17Z</time>
      </trkpt>
      <trkpt lat="46.02369" lon="6.38393">
        <ele>812</ele>
        <time>2017-12-19T13:04:18Z</time>
      </trkpt>
      <trkpt lat="46.02359" lon="6.38377">
        <ele>813</ele>
        <time>2017-12-19T13:04:21Z</time>
      </trkpt>
      <trkpt lat="46.02354" lon="6.38372">
        <ele>813</ele>
        <time>2017-12-19T13:04:22Z</time>
      </trkpt>
      <trkpt lat="46.02348" lon="6.38367">
        <ele>813</ele>
        <time>2017-12-19T13:04:23Z</time>
      </trkpt>
      <trkpt lat="46.02329" lon="6.38346">
        <ele>800</ele>
        <time>2017-12-19T13:04:27Z</time>
      </trkpt>
      <trkpt lat="46.02319" lon="6.38335">
        <ele>800</ele>
        <time>2017-12-19T13:04:29Z</time>
      </trkpt>
      <trkpt lat="46.02309" lon="6.38315">
        <ele>809</ele>
        <time>2017-12-19T13:04:32Z</time>
      </trkpt>
      <trkpt lat="46.02305" lon="6.38309">
        <ele>809</ele>
        <time>2017-12-19T13:04:33Z</time>
      </trkpt>
      <trkpt lat="46.02289" lon="6.38293">
        <ele>807</ele>
        <time>2017-12-19T13:04:36Z</time>
      </trkpt>
      <trkpt lat="46.02284" lon="6.38289">
        <ele>807</ele>
        <time>2017-12-19T13:04:37Z</time>
      </trkpt>
      <trkpt lat="46.02262" lon="6.38273">
        <ele>804</ele>
        <time>2017-12-19T13:04:41Z</time>
      </trkpt>
      <trkpt lat="46.02255" lon="6.38255">
        <ele>801</ele>
        <time>2017-12-19T13:04:43Z</time>
      </trkpt>
      <trkpt lat="46.02252" lon="6.38247">
        <ele>803</ele>
        <time>2017-12-19T13:04:44Z</time>
      </trkpt>
      <trkpt lat="46.02239" lon="6.38228">
        <ele>798</ele>
        <time>2017-12-19T13:04:47Z</time>
      </trkpt>
      <trkpt lat="46.02235" lon="6.38223">
        <ele>798</ele>
        <time>2017-12-19T13:04:48Z</time>
      </trkpt>
      <trkpt lat="46.02231" lon="6.38221">
        <ele>798</ele>
        <time>2017-12-19T13:04:49Z</time>
      </trkpt>
      <trkpt lat="46.02219" lon="6.38214">
        <ele>797</ele>
        <time>2017-12-19T13:04:53Z</time>
      </trkpt>
      <trkpt lat="46.02213" lon="6.38212">
        <ele>796</ele>
        <time>2017-12-19T13:04:58Z</time>
      </trkpt>
      <trkpt lat="46.02213" lon="6.38211">
        <ele>797</ele>
        <time>2017-12-19T13:05:05Z</time>
      </trkpt>
    </trkseg>
  </trk>
</gpx>